<?xml version="1.0" encoding="UTF-8" standalone="no" ?>
<gpx xmlns="http://www.topografix.com/GPX/1/1" xmlns:xsi="http://www.w3.org/2001/XMLSchema-instance" xsi:schemaLocation="http://www.topografix.com/GPX/1/1 http://www.topografix.com/GPX/1/1/gpx.xsd" version="1.1" creator="VisuGPX - https://www.visugpx.com">
  <metadata>
    <name>Pornichet 15/07/2021</name>
    <desc><![CDATA[Sortie VTT du jeudi 15 juillet 2021]]></desc>
  </metadata>
  <trk>
    <name><![CDATA[Pornichet Cyclisme]]></name>
    <trkseg>
      <trkpt lat="47.26385" lon="-2.31633">
        <ele>8.9</ele>
        <time>2021-07-15T06:52:38.000Z</time>
      </trkpt>
      <trkpt lat="47.26385" lon="-2.31648">
        <ele>8.6</ele>
        <time>2021-07-15T06:52:41.000Z</time>
      </trkpt>
      <trkpt lat="47.26383" lon="-2.31652">
        <ele>0.40000000596046</ele>
        <time>2021-07-15T06:52:42.000Z</time>
      </trkpt>
      <trkpt lat="47.26381" lon="-2.31654">
        <ele>0.80000001192093</ele>
        <time>2021-07-15T06:52:43.000Z</time>
      </trkpt>
      <trkpt lat="47.26367" lon="-2.31661">
        <ele>0.80000001192093</ele>
        <time>2021-07-15T06:52:47.000Z</time>
      </trkpt>
      <trkpt lat="47.26338" lon="-2.3168">
        <ele>0.80000001192093</ele>
        <time>2021-07-15T06:52:53.000Z</time>
      </trkpt>
      <trkpt lat="47.26311" lon="-2.31693">
        <ele>0.80000001192093</ele>
        <time>2021-07-15T06:52:58.000Z</time>
      </trkpt>
      <trkpt lat="47.26306" lon="-2.31696">
        <ele>0.20000000298023</ele>
        <time>2021-07-15T06:52:59.000Z</time>
      </trkpt>
      <trkpt lat="47.26301" lon="-2.31698">
        <ele>-0.40000000596046</ele>
        <time>2021-07-15T06:53:00.000Z</time>
      </trkpt>
      <trkpt lat="47.26296" lon="-2.31701">
        <ele>-1</ele>
        <time>2021-07-15T06:53:01.000Z</time>
      </trkpt>
      <trkpt lat="47.26292" lon="-2.31703">
        <ele>-1.3999999761581</ele>
        <time>2021-07-15T06:53:02.000Z</time>
      </trkpt>
      <trkpt lat="47.26288" lon="-2.31705">
        <ele>-2</ele>
        <time>2021-07-15T06:53:03.000Z</time>
      </trkpt>
      <trkpt lat="47.26282" lon="-2.31712">
        <ele>-2</ele>
        <time>2021-07-15T06:53:05.000Z</time>
      </trkpt>
      <trkpt lat="47.26281" lon="-2.31716">
        <ele>-2</ele>
        <time>2021-07-15T06:53:06.000Z</time>
      </trkpt>
      <trkpt lat="47.26281" lon="-2.31727">
        <ele>-2</ele>
        <time>2021-07-15T06:53:08.000Z</time>
      </trkpt>
      <trkpt lat="47.26283" lon="-2.31738">
        <ele>-2</ele>
        <time>2021-07-15T06:53:10.000Z</time>
      </trkpt>
      <trkpt lat="47.26287" lon="-2.31762">
        <ele>-2</ele>
        <time>2021-07-15T06:53:14.000Z</time>
      </trkpt>
      <trkpt lat="47.26287" lon="-2.31787">
        <ele>-2</ele>
        <time>2021-07-15T06:53:18.000Z</time>
      </trkpt>
      <trkpt lat="47.26286" lon="-2.31805">
        <ele>-2</ele>
        <time>2021-07-15T06:53:21.000Z</time>
      </trkpt>
      <trkpt lat="47.26284" lon="-2.31845">
        <ele>-2.4000000953674</ele>
        <time>2021-07-15T06:53:27.000Z</time>
      </trkpt>
      <trkpt lat="47.26284" lon="-2.31851">
        <ele>-2.7999999523163</ele>
        <time>2021-07-15T06:53:28.000Z</time>
      </trkpt>
      <trkpt lat="47.26284" lon="-2.31855">
        <ele>-3.4000000953674</ele>
        <time>2021-07-15T06:53:29.000Z</time>
      </trkpt>
      <trkpt lat="47.26283" lon="-2.3186">
        <ele>-3.7999999523163</ele>
        <time>2021-07-15T06:53:30.000Z</time>
      </trkpt>
      <trkpt lat="47.26281" lon="-2.31863">
        <ele>-4.1999998092651</ele>
        <time>2021-07-15T06:53:31.000Z</time>
      </trkpt>
      <trkpt lat="47.26279" lon="-2.31866">
        <ele>-4.1999998092651</ele>
        <time>2021-07-15T06:53:32.000Z</time>
      </trkpt>
      <trkpt lat="47.26263" lon="-2.31884">
        <ele>-4.1999998092651</ele>
        <time>2021-07-15T06:53:37.000Z</time>
      </trkpt>
      <trkpt lat="47.26247" lon="-2.31912">
        <ele>-4.1999998092651</ele>
        <time>2021-07-15T06:53:43.000Z</time>
      </trkpt>
      <trkpt lat="47.26235" lon="-2.31939">
        <ele>-4.1999998092651</ele>
        <time>2021-07-15T06:53:49.000Z</time>
      </trkpt>
      <trkpt lat="47.26233" lon="-2.31942">
        <ele>-4.1999998092651</ele>
        <time>2021-07-15T06:53:50.000Z</time>
      </trkpt>
      <trkpt lat="47.26227" lon="-2.31945">
        <ele>-4.1999998092651</ele>
        <time>2021-07-15T06:53:52.000Z</time>
      </trkpt>
      <trkpt lat="47.26215" lon="-2.31955">
        <ele>-4.1999998092651</ele>
        <time>2021-07-15T06:53:57.000Z</time>
      </trkpt>
      <trkpt lat="47.26202" lon="-2.31973">
        <ele>-4.1999998092651</ele>
        <time>2021-07-15T06:54:03.000Z</time>
      </trkpt>
      <trkpt lat="47.26199" lon="-2.31979">
        <ele>-4.1999998092651</ele>
        <time>2021-07-15T06:54:05.000Z</time>
      </trkpt>
      <trkpt lat="47.26195" lon="-2.31992">
        <ele>-4.1999998092651</ele>
        <time>2021-07-15T06:54:09.000Z</time>
      </trkpt>
      <trkpt lat="47.26193" lon="-2.31993">
        <ele>-4.1999998092651</ele>
        <time>2021-07-15T06:54:10.000Z</time>
      </trkpt>
      <trkpt lat="47.26187" lon="-2.31995">
        <ele>-4.1999998092651</ele>
        <time>2021-07-15T06:54:13.000Z</time>
      </trkpt>
      <trkpt lat="47.26171" lon="-2.31998">
        <ele>-4.1999998092651</ele>
        <time>2021-07-15T06:54:19.000Z</time>
      </trkpt>
      <trkpt lat="47.26167" lon="-2.31999">
        <ele>-4.1999998092651</ele>
        <time>2021-07-15T06:54:20.000Z</time>
      </trkpt>
      <trkpt lat="47.26156" lon="-2.32009">
        <ele>-4.1999998092651</ele>
        <time>2021-07-15T06:54:23.000Z</time>
      </trkpt>
      <trkpt lat="47.26153" lon="-2.32014">
        <ele>-4.1999998092651</ele>
        <time>2021-07-15T06:54:24.000Z</time>
      </trkpt>
      <trkpt lat="47.26143" lon="-2.32043">
        <ele>-4.1999998092651</ele>
        <time>2021-07-15T06:54:29.000Z</time>
      </trkpt>
      <trkpt lat="47.2613" lon="-2.32086">
        <ele>-4.1999998092651</ele>
        <time>2021-07-15T06:54:36.000Z</time>
      </trkpt>
      <trkpt lat="47.26115" lon="-2.32131">
        <ele>-4.1999998092651</ele>
        <time>2021-07-15T06:54:43.000Z</time>
      </trkpt>
      <trkpt lat="47.261" lon="-2.32169">
        <ele>-4.1999998092651</ele>
        <time>2021-07-15T06:54:49.000Z</time>
      </trkpt>
      <trkpt lat="47.26075" lon="-2.32209">
        <ele>-4.1999998092651</ele>
        <time>2021-07-15T06:54:56.000Z</time>
      </trkpt>
      <trkpt lat="47.26047" lon="-2.32245">
        <ele>-4.1999998092651</ele>
        <time>2021-07-15T06:55:03.000Z</time>
      </trkpt>
      <trkpt lat="47.26017" lon="-2.32279">
        <ele>-4.1999998092651</ele>
        <time>2021-07-15T06:55:10.000Z</time>
      </trkpt>
      <trkpt lat="47.25992" lon="-2.3231">
        <ele>-4.1999998092651</ele>
        <time>2021-07-15T06:55:16.000Z</time>
      </trkpt>
      <trkpt lat="47.25963" lon="-2.32347">
        <ele>-4.1999998092651</ele>
        <time>2021-07-15T06:55:23.000Z</time>
      </trkpt>
      <trkpt lat="47.25934" lon="-2.32382">
        <ele>-4.1999998092651</ele>
        <time>2021-07-15T06:55:30.000Z</time>
      </trkpt>
      <trkpt lat="47.25896" lon="-2.3243">
        <ele>-4.1999998092651</ele>
        <time>2021-07-15T06:55:40.000Z</time>
      </trkpt>
      <trkpt lat="47.25886" lon="-2.32451">
        <ele>-4.1999998092651</ele>
        <time>2021-07-15T06:55:45.000Z</time>
      </trkpt>
      <trkpt lat="47.25893" lon="-2.32459">
        <ele>-4.1999998092651</ele>
        <time>2021-07-15T06:55:48.000Z</time>
      </trkpt>
      <trkpt lat="47.25896" lon="-2.32461">
        <ele>-4.1999998092651</ele>
        <time>2021-07-15T06:55:49.000Z</time>
      </trkpt>
      <trkpt lat="47.25904" lon="-2.32468">
        <ele>-4.1999998092651</ele>
        <time>2021-07-15T06:55:51.000Z</time>
      </trkpt>
      <trkpt lat="47.25908" lon="-2.32473">
        <ele>-4.1999998092651</ele>
        <time>2021-07-15T06:55:52.000Z</time>
      </trkpt>
      <trkpt lat="47.25919" lon="-2.32499">
        <ele>-4.1999998092651</ele>
        <time>2021-07-15T06:55:56.000Z</time>
      </trkpt>
      <trkpt lat="47.25921" lon="-2.32506">
        <ele>-4.1999998092651</ele>
        <time>2021-07-15T06:55:57.000Z</time>
      </trkpt>
      <trkpt lat="47.25941" lon="-2.32573">
        <ele>-4.1999998092651</ele>
        <time>2021-07-15T06:56:07.000Z</time>
      </trkpt>
      <trkpt lat="47.25947" lon="-2.32613">
        <ele>-4.1999998092651</ele>
        <time>2021-07-15T06:56:13.000Z</time>
      </trkpt>
      <trkpt lat="47.25947" lon="-2.3262">
        <ele>-4.1999998092651</ele>
        <time>2021-07-15T06:56:14.000Z</time>
      </trkpt>
      <trkpt lat="47.25949" lon="-2.32641">
        <ele>-4.1999998092651</ele>
        <time>2021-07-15T06:56:18.000Z</time>
      </trkpt>
      <trkpt lat="47.25951" lon="-2.32641">
        <ele>-4.1999998092651</ele>
        <time>2021-07-15T06:56:19.000Z</time>
      </trkpt>
      <trkpt lat="47.25958" lon="-2.3264">
        <ele>-4.1999998092651</ele>
        <time>2021-07-15T06:56:21.000Z</time>
      </trkpt>
      <trkpt lat="47.2597" lon="-2.32641">
        <ele>-4.1999998092651</ele>
        <time>2021-07-15T06:56:24.000Z</time>
      </trkpt>
      <trkpt lat="47.25979" lon="-2.3264">
        <ele>-4.1999998092651</ele>
        <time>2021-07-15T06:56:26.000Z</time>
      </trkpt>
      <trkpt lat="47.26011" lon="-2.32636">
        <ele>-4.1999998092651</ele>
        <time>2021-07-15T06:56:33.000Z</time>
      </trkpt>
      <trkpt lat="47.26047" lon="-2.32628">
        <ele>-4.1999998092651</ele>
        <time>2021-07-15T06:56:41.000Z</time>
      </trkpt>
      <trkpt lat="47.2608" lon="-2.32623">
        <ele>-4.1999998092651</ele>
        <time>2021-07-15T06:56:48.000Z</time>
      </trkpt>
      <trkpt lat="47.2612" lon="-2.32621">
        <ele>-4.1999998092651</ele>
        <time>2021-07-15T06:56:56.000Z</time>
      </trkpt>
      <trkpt lat="47.26149" lon="-2.32631">
        <ele>-4.1999998092651</ele>
        <time>2021-07-15T06:57:02.000Z</time>
      </trkpt>
      <trkpt lat="47.26166" lon="-2.32644">
        <ele>-4.1999998092651</ele>
        <time>2021-07-15T06:57:06.000Z</time>
      </trkpt>
      <trkpt lat="47.26173" lon="-2.32652">
        <ele>-4.1999998092651</ele>
        <time>2021-07-15T06:57:08.000Z</time>
      </trkpt>
      <trkpt lat="47.26202" lon="-2.32688">
        <ele>-4.1999998092651</ele>
        <time>2021-07-15T06:57:16.000Z</time>
      </trkpt>
      <trkpt lat="47.26246" lon="-2.32749">
        <ele>-4.1999998092651</ele>
        <time>2021-07-15T06:57:25.000Z</time>
      </trkpt>
      <trkpt lat="47.26271" lon="-2.32799">
        <ele>-4.1999998092651</ele>
        <time>2021-07-15T06:57:32.000Z</time>
      </trkpt>
      <trkpt lat="47.26284" lon="-2.32844">
        <ele>-4.1999998092651</ele>
        <time>2021-07-15T06:57:38.000Z</time>
      </trkpt>
      <trkpt lat="47.26294" lon="-2.32856">
        <ele>-4.1999998092651</ele>
        <time>2021-07-15T06:57:41.000Z</time>
      </trkpt>
      <trkpt lat="47.26299" lon="-2.32858">
        <ele>-4.1999998092651</ele>
        <time>2021-07-15T06:57:42.000Z</time>
      </trkpt>
      <trkpt lat="47.26312" lon="-2.32865">
        <ele>-4.1999998092651</ele>
        <time>2021-07-15T06:57:45.000Z</time>
      </trkpt>
      <trkpt lat="47.26316" lon="-2.32871">
        <ele>-4.1999998092651</ele>
        <time>2021-07-15T06:57:46.000Z</time>
      </trkpt>
      <trkpt lat="47.26321" lon="-2.32883">
        <ele>-4.1999998092651</ele>
        <time>2021-07-15T06:57:48.000Z</time>
      </trkpt>
      <trkpt lat="47.26329" lon="-2.32912">
        <ele>-4.1999998092651</ele>
        <time>2021-07-15T06:57:52.000Z</time>
      </trkpt>
      <trkpt lat="47.26348" lon="-2.32969">
        <ele>-4.1999998092651</ele>
        <time>2021-07-15T06:58:00.000Z</time>
      </trkpt>
      <trkpt lat="47.26356" lon="-2.3298">
        <ele>-4.1999998092651</ele>
        <time>2021-07-15T06:58:02.000Z</time>
      </trkpt>
      <trkpt lat="47.26359" lon="-2.32985">
        <ele>-4.1999998092651</ele>
        <time>2021-07-15T06:58:03.000Z</time>
      </trkpt>
      <trkpt lat="47.26363" lon="-2.32998">
        <ele>-4.1999998092651</ele>
        <time>2021-07-15T06:58:05.000Z</time>
      </trkpt>
      <trkpt lat="47.26364" lon="-2.33005">
        <ele>-4.1999998092651</ele>
        <time>2021-07-15T06:58:06.000Z</time>
      </trkpt>
      <trkpt lat="47.26365" lon="-2.33027">
        <ele>-4.1999998092651</ele>
        <time>2021-07-15T06:58:09.000Z</time>
      </trkpt>
      <trkpt lat="47.26365" lon="-2.33042">
        <ele>-4.1999998092651</ele>
        <time>2021-07-15T06:58:11.000Z</time>
      </trkpt>
      <trkpt lat="47.26371" lon="-2.3312">
        <ele>-4.1999998092651</ele>
        <time>2021-07-15T06:58:21.000Z</time>
      </trkpt>
      <trkpt lat="47.26375" lon="-2.33197">
        <ele>-4.1999998092651</ele>
        <time>2021-07-15T06:58:31.000Z</time>
      </trkpt>
      <trkpt lat="47.2638" lon="-2.3325">
        <ele>-4.1999998092651</ele>
        <time>2021-07-15T06:58:38.000Z</time>
      </trkpt>
      <trkpt lat="47.26383" lon="-2.33256">
        <ele>-4.1999998092651</ele>
        <time>2021-07-15T06:58:39.000Z</time>
      </trkpt>
      <trkpt lat="47.26395" lon="-2.33266">
        <ele>-4.1999998092651</ele>
        <time>2021-07-15T06:58:42.000Z</time>
      </trkpt>
      <trkpt lat="47.26405" lon="-2.33267">
        <ele>-4.1999998092651</ele>
        <time>2021-07-15T06:58:44.000Z</time>
      </trkpt>
      <trkpt lat="47.26425" lon="-2.33268">
        <ele>-4.1999998092651</ele>
        <time>2021-07-15T06:58:48.000Z</time>
      </trkpt>
      <trkpt lat="47.26475" lon="-2.33276">
        <ele>-4.1999998092651</ele>
        <time>2021-07-15T06:58:58.000Z</time>
      </trkpt>
      <trkpt lat="47.265" lon="-2.3328">
        <ele>-4.1999998092651</ele>
        <time>2021-07-15T06:59:04.000Z</time>
      </trkpt>
      <trkpt lat="47.26503" lon="-2.33282">
        <ele>-4.1999998092651</ele>
        <time>2021-07-15T06:59:05.000Z</time>
      </trkpt>
      <trkpt lat="47.26511" lon="-2.33287">
        <ele>-4.1999998092651</ele>
        <time>2021-07-15T06:59:07.000Z</time>
      </trkpt>
      <trkpt lat="47.26519" lon="-2.33289">
        <ele>-4.1999998092651</ele>
        <time>2021-07-15T06:59:09.000Z</time>
      </trkpt>
      <trkpt lat="47.26536" lon="-2.33291">
        <ele>-4.1999998092651</ele>
        <time>2021-07-15T06:59:10.000Z</time>
      </trkpt>
      <trkpt lat="47.26536" lon="-2.33291">
        <ele>-4.1999998092651</ele>
        <time>2021-07-15T06:59:13.000Z</time>
      </trkpt>
      <trkpt lat="47.26541" lon="-2.33295">
        <ele>-4.1999998092651</ele>
        <time>2021-07-15T06:59:15.000Z</time>
      </trkpt>
      <trkpt lat="47.26543" lon="-2.33295">
        <ele>-4.1999998092651</ele>
        <time>2021-07-15T06:59:16.000Z</time>
      </trkpt>
      <trkpt lat="47.26547" lon="-2.33291">
        <ele>-4.1999998092651</ele>
        <time>2021-07-15T06:59:18.000Z</time>
      </trkpt>
      <trkpt lat="47.26554" lon="-2.33281">
        <ele>-4.1999998092651</ele>
        <time>2021-07-15T06:59:21.000Z</time>
      </trkpt>
      <trkpt lat="47.26573" lon="-2.33262">
        <ele>-4.1999998092651</ele>
        <time>2021-07-15T06:59:26.000Z</time>
      </trkpt>
      <trkpt lat="47.26608" lon="-2.33226">
        <ele>-4.1999998092651</ele>
        <time>2021-07-15T06:59:35.000Z</time>
      </trkpt>
      <trkpt lat="47.26637" lon="-2.33196">
        <ele>-4.1999998092651</ele>
        <time>2021-07-15T06:59:42.000Z</time>
      </trkpt>
      <trkpt lat="47.26677" lon="-2.33155">
        <ele>-4.1999998092651</ele>
        <time>2021-07-15T06:59:52.000Z</time>
      </trkpt>
      <trkpt lat="47.26706" lon="-2.33124">
        <ele>-4.1999998092651</ele>
        <time>2021-07-15T06:59:59.000Z</time>
      </trkpt>
      <trkpt lat="47.26737" lon="-2.33092">
        <ele>-4.1999998092651</ele>
        <time>2021-07-15T07:00:07.000Z</time>
      </trkpt>
      <trkpt lat="47.26745" lon="-2.33085">
        <ele>-4.1999998092651</ele>
        <time>2021-07-15T07:00:09.000Z</time>
      </trkpt>
      <trkpt lat="47.26751" lon="-2.33082">
        <ele>-4.1999998092651</ele>
        <time>2021-07-15T07:00:11.000Z</time>
      </trkpt>
      <trkpt lat="47.26759" lon="-2.33091">
        <ele>-4.1999998092651</ele>
        <time>2021-07-15T07:00:14.000Z</time>
      </trkpt>
      <trkpt lat="47.26763" lon="-2.33103">
        <ele>-4.1999998092651</ele>
        <time>2021-07-15T07:00:16.000Z</time>
      </trkpt>
      <trkpt lat="47.26764" lon="-2.3311">
        <ele>-4.1999998092651</ele>
        <time>2021-07-15T07:00:17.000Z</time>
      </trkpt>
      <trkpt lat="47.26765" lon="-2.33116">
        <ele>-4.1999998092651</ele>
        <time>2021-07-15T07:00:18.000Z</time>
      </trkpt>
      <trkpt lat="47.26762" lon="-2.33136">
        <ele>-4.1999998092651</ele>
        <time>2021-07-15T07:00:21.000Z</time>
      </trkpt>
      <trkpt lat="47.26761" lon="-2.33142">
        <ele>-4.1999998092651</ele>
        <time>2021-07-15T07:00:22.000Z</time>
      </trkpt>
      <trkpt lat="47.26754" lon="-2.33169">
        <ele>-4.1999998092651</ele>
        <time>2021-07-15T07:00:27.000Z</time>
      </trkpt>
      <trkpt lat="47.26742" lon="-2.33212">
        <ele>-4.1999998092651</ele>
        <time>2021-07-15T07:00:34.000Z</time>
      </trkpt>
      <trkpt lat="47.2673" lon="-2.33253">
        <ele>-4.1999998092651</ele>
        <time>2021-07-15T07:00:40.000Z</time>
      </trkpt>
      <trkpt lat="47.26729" lon="-2.33261">
        <ele>-4.1999998092651</ele>
        <time>2021-07-15T07:00:41.000Z</time>
      </trkpt>
      <trkpt lat="47.26735" lon="-2.33292">
        <ele>-4.1999998092651</ele>
        <time>2021-07-15T07:00:45.000Z</time>
      </trkpt>
      <trkpt lat="47.26742" lon="-2.33316">
        <ele>-4.1999998092651</ele>
        <time>2021-07-15T07:00:48.000Z</time>
      </trkpt>
      <trkpt lat="47.26749" lon="-2.33337">
        <ele>-4.1999998092651</ele>
        <time>2021-07-15T07:00:51.000Z</time>
      </trkpt>
      <trkpt lat="47.26759" lon="-2.33385">
        <ele>-4.1999998092651</ele>
        <time>2021-07-15T07:00:58.000Z</time>
      </trkpt>
      <trkpt lat="47.26767" lon="-2.33443">
        <ele>-4.1999998092651</ele>
        <time>2021-07-15T07:01:06.000Z</time>
      </trkpt>
      <trkpt lat="47.26778" lon="-2.33509">
        <ele>-4.1999998092651</ele>
        <time>2021-07-15T07:01:15.000Z</time>
      </trkpt>
      <trkpt lat="47.26785" lon="-2.33548">
        <ele>-4.1999998092651</ele>
        <time>2021-07-15T07:01:20.000Z</time>
      </trkpt>
      <trkpt lat="47.26789" lon="-2.33557">
        <ele>-4.1999998092651</ele>
        <time>2021-07-15T07:01:22.000Z</time>
      </trkpt>
      <trkpt lat="47.26797" lon="-2.33561">
        <ele>-4.1999998092651</ele>
        <time>2021-07-15T07:01:25.000Z</time>
      </trkpt>
      <trkpt lat="47.268" lon="-2.3356">
        <ele>-4.1999998092651</ele>
        <time>2021-07-15T07:01:26.000Z</time>
      </trkpt>
      <trkpt lat="47.2682" lon="-2.33553">
        <ele>-4.1999998092651</ele>
        <time>2021-07-15T07:01:31.000Z</time>
      </trkpt>
      <trkpt lat="47.26829" lon="-2.3355">
        <ele>-4.1999998092651</ele>
        <time>2021-07-15T07:01:33.000Z</time>
      </trkpt>
      <trkpt lat="47.26844" lon="-2.33542">
        <ele>-4.1999998092651</ele>
        <time>2021-07-15T07:01:37.000Z</time>
      </trkpt>
      <trkpt lat="47.26852" lon="-2.33538">
        <ele>-4.1999998092651</ele>
        <time>2021-07-15T07:01:39.000Z</time>
      </trkpt>
      <trkpt lat="47.26865" lon="-2.33534">
        <ele>-4.1999998092651</ele>
        <time>2021-07-15T07:01:42.000Z</time>
      </trkpt>
      <trkpt lat="47.26874" lon="-2.33533">
        <ele>-4.1999998092651</ele>
        <time>2021-07-15T07:01:44.000Z</time>
      </trkpt>
      <trkpt lat="47.26886" lon="-2.33538">
        <ele>-4.1999998092651</ele>
        <time>2021-07-15T07:01:47.000Z</time>
      </trkpt>
      <trkpt lat="47.26895" lon="-2.33549">
        <ele>-4.1999998092651</ele>
        <time>2021-07-15T07:01:50.000Z</time>
      </trkpt>
      <trkpt lat="47.26897" lon="-2.33554">
        <ele>-4.1999998092651</ele>
        <time>2021-07-15T07:01:51.000Z</time>
      </trkpt>
      <trkpt lat="47.26899" lon="-2.33559">
        <ele>-3.2000000476837</ele>
        <time>2021-07-15T07:01:52.000Z</time>
      </trkpt>
      <trkpt lat="47.26901" lon="-2.33564">
        <ele>-2.7999999523163</ele>
        <time>2021-07-15T07:01:53.000Z</time>
      </trkpt>
      <trkpt lat="47.26903" lon="-2.3357">
        <ele>-2.4000000953674</ele>
        <time>2021-07-15T07:01:54.000Z</time>
      </trkpt>
      <trkpt lat="47.26906" lon="-2.33575">
        <ele>-2</ele>
        <time>2021-07-15T07:01:55.000Z</time>
      </trkpt>
      <trkpt lat="47.26915" lon="-2.33598">
        <ele>-2</ele>
        <time>2021-07-15T07:01:59.000Z</time>
      </trkpt>
      <trkpt lat="47.26924" lon="-2.33626">
        <ele>-2</ele>
        <time>2021-07-15T07:02:04.000Z</time>
      </trkpt>
      <trkpt lat="47.26925" lon="-2.33632">
        <ele>-2</ele>
        <time>2021-07-15T07:02:05.000Z</time>
      </trkpt>
      <trkpt lat="47.26929" lon="-2.33657">
        <ele>-1.6000000238419</ele>
        <time>2021-07-15T07:02:09.000Z</time>
      </trkpt>
      <trkpt lat="47.26931" lon="-2.33663">
        <ele>-1.2000000476837</ele>
        <time>2021-07-15T07:02:10.000Z</time>
      </trkpt>
      <trkpt lat="47.26932" lon="-2.33669">
        <ele>-0.80000001192093</ele>
        <time>2021-07-15T07:02:11.000Z</time>
      </trkpt>
      <trkpt lat="47.26933" lon="-2.33675">
        <ele>-0.40000000596046</ele>
        <time>2021-07-15T07:02:12.000Z</time>
      </trkpt>
      <trkpt lat="47.26935" lon="-2.33681">
        <ele>9</ele>
        <time>2021-07-15T07:02:13.000Z</time>
      </trkpt>
      <trkpt lat="47.26941" lon="-2.33725">
        <ele>9.9</ele>
        <time>2021-07-15T07:02:20.000Z</time>
      </trkpt>
      <trkpt lat="47.26939" lon="-2.33744">
        <ele>9.8</ele>
        <time>2021-07-15T07:02:23.000Z</time>
      </trkpt>
      <trkpt lat="47.26936" lon="-2.33757">
        <ele>9.7</ele>
        <time>2021-07-15T07:02:25.000Z</time>
      </trkpt>
      <trkpt lat="47.26933" lon="-2.33778">
        <ele>9.6</ele>
        <time>2021-07-15T07:02:28.000Z</time>
      </trkpt>
      <trkpt lat="47.26933" lon="-2.33791">
        <ele>9.6</ele>
        <time>2021-07-15T07:02:30.000Z</time>
      </trkpt>
      <trkpt lat="47.26943" lon="-2.33811">
        <ele>9.7</ele>
        <time>2021-07-15T07:02:34.000Z</time>
      </trkpt>
      <trkpt lat="47.26946" lon="-2.33815">
        <ele>9.8</ele>
        <time>2021-07-15T07:02:35.000Z</time>
      </trkpt>
      <trkpt lat="47.26957" lon="-2.33825">
        <ele>10.2</ele>
        <time>2021-07-15T07:02:38.000Z</time>
      </trkpt>
      <trkpt lat="47.26965" lon="-2.33829">
        <ele>10.6</ele>
        <time>2021-07-15T07:02:40.000Z</time>
      </trkpt>
      <trkpt lat="47.2698" lon="-2.33838">
        <ele>0.60000002384186</ele>
        <time>2021-07-15T07:02:44.000Z</time>
      </trkpt>
      <trkpt lat="47.26984" lon="-2.3384">
        <ele>1</ele>
        <time>2021-07-15T07:02:45.000Z</time>
      </trkpt>
      <trkpt lat="47.26987" lon="-2.33842">
        <ele>1.3999999761581</ele>
        <time>2021-07-15T07:02:46.000Z</time>
      </trkpt>
      <trkpt lat="47.26991" lon="-2.33845">
        <ele>1.7999999523163</ele>
        <time>2021-07-15T07:02:47.000Z</time>
      </trkpt>
      <trkpt lat="47.26994" lon="-2.33847">
        <ele>2.2000000476837</ele>
        <time>2021-07-15T07:02:48.000Z</time>
      </trkpt>
      <trkpt lat="47.27014" lon="-2.3386">
        <ele>2.7999999523163</ele>
        <time>2021-07-15T07:02:54.000Z</time>
      </trkpt>
      <trkpt lat="47.27017" lon="-2.33862">
        <ele>3.2000000476837</ele>
        <time>2021-07-15T07:02:55.000Z</time>
      </trkpt>
      <trkpt lat="47.2702" lon="-2.33865">
        <ele>3.5999999046326</ele>
        <time>2021-07-15T07:02:56.000Z</time>
      </trkpt>
      <trkpt lat="47.27023" lon="-2.33867">
        <ele>4</ele>
        <time>2021-07-15T07:02:57.000Z</time>
      </trkpt>
      <trkpt lat="47.27026" lon="-2.3387">
        <ele>4.4000000953674</ele>
        <time>2021-07-15T07:02:58.000Z</time>
      </trkpt>
      <trkpt lat="47.27039" lon="-2.33881">
        <ele>4.4000000953674</ele>
        <time>2021-07-15T07:03:02.000Z</time>
      </trkpt>
      <trkpt lat="47.27059" lon="-2.339">
        <ele>4.4000000953674</ele>
        <time>2021-07-15T07:03:08.000Z</time>
      </trkpt>
      <trkpt lat="47.27062" lon="-2.33904">
        <ele>5</ele>
        <time>2021-07-15T07:03:09.000Z</time>
      </trkpt>
      <trkpt lat="47.27065" lon="-2.33906">
        <ele>5.4000000953674</ele>
        <time>2021-07-15T07:03:10.000Z</time>
      </trkpt>
      <trkpt lat="47.27068" lon="-2.33909">
        <ele>5.8000001907349</ele>
        <time>2021-07-15T07:03:11.000Z</time>
      </trkpt>
      <trkpt lat="47.27071" lon="-2.33912">
        <ele>6.1999998092651</ele>
        <time>2021-07-15T07:03:12.000Z</time>
      </trkpt>
      <trkpt lat="47.27074" lon="-2.33914">
        <ele>6.5999999046326</ele>
        <time>2021-07-15T07:03:13.000Z</time>
      </trkpt>
      <trkpt lat="47.2708" lon="-2.3392">
        <ele>6.5999999046326</ele>
        <time>2021-07-15T07:03:15.000Z</time>
      </trkpt>
      <trkpt lat="47.27088" lon="-2.33928">
        <ele>7</ele>
        <time>2021-07-15T07:03:18.000Z</time>
      </trkpt>
      <trkpt lat="47.2709" lon="-2.33931">
        <ele>7.4000000953674</ele>
        <time>2021-07-15T07:03:19.000Z</time>
      </trkpt>
      <trkpt lat="47.27093" lon="-2.33934">
        <ele>8</ele>
        <time>2021-07-15T07:03:20.000Z</time>
      </trkpt>
      <trkpt lat="47.27095" lon="-2.33936">
        <ele>8.3999996185303</ele>
        <time>2021-07-15T07:03:21.000Z</time>
      </trkpt>
      <trkpt lat="47.27098" lon="-2.33939">
        <ele>8.8000001907349</ele>
        <time>2021-07-15T07:03:22.000Z</time>
      </trkpt>
      <trkpt lat="47.27101" lon="-2.33941">
        <ele>8.8000001907349</ele>
        <time>2021-07-15T07:03:23.000Z</time>
      </trkpt>
      <trkpt lat="47.27116" lon="-2.33954">
        <ele>9.1999998092651</ele>
        <time>2021-07-15T07:03:28.000Z</time>
      </trkpt>
      <trkpt lat="47.27119" lon="-2.33957">
        <ele>9.6000003814697</ele>
        <time>2021-07-15T07:03:29.000Z</time>
      </trkpt>
      <trkpt lat="47.27122" lon="-2.3396">
        <ele>10</ele>
        <time>2021-07-15T07:03:30.000Z</time>
      </trkpt>
      <trkpt lat="47.27125" lon="-2.33963">
        <ele>10.800000190735</ele>
        <time>2021-07-15T07:03:31.000Z</time>
      </trkpt>
      <trkpt lat="47.27141" lon="-2.33978">
        <ele>10.800000190735</ele>
        <time>2021-07-15T07:03:36.000Z</time>
      </trkpt>
      <trkpt lat="47.27158" lon="-2.33993">
        <ele>10.800000190735</ele>
        <time>2021-07-15T07:03:41.000Z</time>
      </trkpt>
      <trkpt lat="47.27181" lon="-2.34017">
        <ele>10.800000190735</ele>
        <time>2021-07-15T07:03:48.000Z</time>
      </trkpt>
      <trkpt lat="47.27183" lon="-2.3402">
        <ele>11.39999961853</ele>
        <time>2021-07-15T07:03:49.000Z</time>
      </trkpt>
      <trkpt lat="47.27186" lon="-2.34023">
        <ele>11.800000190735</ele>
        <time>2021-07-15T07:03:50.000Z</time>
      </trkpt>
      <trkpt lat="47.27189" lon="-2.34026">
        <ele>12.199999809265</ele>
        <time>2021-07-15T07:03:51.000Z</time>
      </trkpt>
      <trkpt lat="47.27193" lon="-2.34029">
        <ele>12.60000038147</ele>
        <time>2021-07-15T07:03:52.000Z</time>
      </trkpt>
      <trkpt lat="47.27196" lon="-2.34032">
        <ele>13</ele>
        <time>2021-07-15T07:03:53.000Z</time>
      </trkpt>
      <trkpt lat="47.27203" lon="-2.34038">
        <ele>13</ele>
        <time>2021-07-15T07:03:55.000Z</time>
      </trkpt>
      <trkpt lat="47.27227" lon="-2.34052">
        <ele>13</ele>
        <time>2021-07-15T07:04:02.000Z</time>
      </trkpt>
      <trkpt lat="47.27253" lon="-2.34049">
        <ele>13</ele>
        <time>2021-07-15T07:04:09.000Z</time>
      </trkpt>
      <trkpt lat="47.2727" lon="-2.3406">
        <ele>13</ele>
        <time>2021-07-15T07:04:14.000Z</time>
      </trkpt>
      <trkpt lat="47.2728" lon="-2.34082">
        <ele>13</ele>
        <time>2021-07-15T07:04:19.000Z</time>
      </trkpt>
      <trkpt lat="47.27287" lon="-2.34113">
        <ele>13</ele>
        <time>2021-07-15T07:04:24.000Z</time>
      </trkpt>
      <trkpt lat="47.27293" lon="-2.34122">
        <ele>13</ele>
        <time>2021-07-15T07:04:26.000Z</time>
      </trkpt>
      <trkpt lat="47.273" lon="-2.34128">
        <ele>13</ele>
        <time>2021-07-15T07:04:28.000Z</time>
      </trkpt>
      <trkpt lat="47.27322" lon="-2.34145">
        <ele>13</ele>
        <time>2021-07-15T07:04:33.000Z</time>
      </trkpt>
      <trkpt lat="47.27353" lon="-2.34164">
        <ele>13</ele>
        <time>2021-07-15T07:04:40.000Z</time>
      </trkpt>
      <trkpt lat="47.27386" lon="-2.34187">
        <ele>13</ele>
        <time>2021-07-15T07:04:48.000Z</time>
      </trkpt>
      <trkpt lat="47.2739" lon="-2.3419">
        <ele>13</ele>
        <time>2021-07-15T07:04:49.000Z</time>
      </trkpt>
      <trkpt lat="47.27397" lon="-2.34205">
        <ele>13</ele>
        <time>2021-07-15T07:04:52.000Z</time>
      </trkpt>
      <trkpt lat="47.274" lon="-2.34215">
        <ele>13</ele>
        <time>2021-07-15T07:04:54.000Z</time>
      </trkpt>
      <trkpt lat="47.27404" lon="-2.34235">
        <ele>13</ele>
        <time>2021-07-15T07:04:58.000Z</time>
      </trkpt>
      <trkpt lat="47.27412" lon="-2.3425">
        <ele>13</ele>
        <time>2021-07-15T07:05:02.000Z</time>
      </trkpt>
      <trkpt lat="47.27415" lon="-2.3426">
        <ele>13</ele>
        <time>2021-07-15T07:05:04.000Z</time>
      </trkpt>
      <trkpt lat="47.27417" lon="-2.34272">
        <ele>13</ele>
        <time>2021-07-15T07:05:06.000Z</time>
      </trkpt>
      <trkpt lat="47.27419" lon="-2.34313">
        <ele>13</ele>
        <time>2021-07-15T07:05:13.000Z</time>
      </trkpt>
      <trkpt lat="47.2742" lon="-2.34357">
        <ele>13</ele>
        <time>2021-07-15T07:05:20.000Z</time>
      </trkpt>
      <trkpt lat="47.2742" lon="-2.34371">
        <ele>13</ele>
        <time>2021-07-15T07:05:22.000Z</time>
      </trkpt>
      <trkpt lat="47.27423" lon="-2.34405">
        <ele>13</ele>
        <time>2021-07-15T07:05:27.000Z</time>
      </trkpt>
      <trkpt lat="47.27423" lon="-2.34418">
        <ele>13.39999961853</ele>
        <time>2021-07-15T07:05:29.000Z</time>
      </trkpt>
      <trkpt lat="47.27424" lon="-2.34424">
        <ele>13.800000190735</ele>
        <time>2021-07-15T07:05:30.000Z</time>
      </trkpt>
      <trkpt lat="47.27425" lon="-2.34431">
        <ele>14.39999961853</ele>
        <time>2021-07-15T07:05:31.000Z</time>
      </trkpt>
      <trkpt lat="47.27425" lon="-2.34437">
        <ele>14.800000190735</ele>
        <time>2021-07-15T07:05:32.000Z</time>
      </trkpt>
      <trkpt lat="47.27426" lon="-2.34444">
        <ele>15.199999809265</ele>
        <time>2021-07-15T07:05:33.000Z</time>
      </trkpt>
      <trkpt lat="47.27426" lon="-2.3445">
        <ele>15.199999809265</ele>
        <time>2021-07-15T07:05:34.000Z</time>
      </trkpt>
      <trkpt lat="47.27431" lon="-2.34497">
        <ele>15.199999809265</ele>
        <time>2021-07-15T07:05:41.000Z</time>
      </trkpt>
      <trkpt lat="47.27438" lon="-2.34534">
        <ele>15.199999809265</ele>
        <time>2021-07-15T07:05:47.000Z</time>
      </trkpt>
      <trkpt lat="47.27448" lon="-2.3457">
        <ele>15.199999809265</ele>
        <time>2021-07-15T07:05:53.000Z</time>
      </trkpt>
      <trkpt lat="47.2745" lon="-2.34583">
        <ele>15.199999809265</ele>
        <time>2021-07-15T07:05:55.000Z</time>
      </trkpt>
      <trkpt lat="47.27454" lon="-2.34611">
        <ele>15.199999809265</ele>
        <time>2021-07-15T07:05:59.000Z</time>
      </trkpt>
      <trkpt lat="47.27458" lon="-2.34671">
        <ele>15.199999809265</ele>
        <time>2021-07-15T07:06:07.000Z</time>
      </trkpt>
      <trkpt lat="47.2746" lon="-2.34698">
        <ele>15.199999809265</ele>
        <time>2021-07-15T07:06:12.000Z</time>
      </trkpt>
      <trkpt lat="47.27459" lon="-2.34715">
        <ele>15.199999809265</ele>
        <time>2021-07-15T07:06:15.000Z</time>
      </trkpt>
      <trkpt lat="47.27458" lon="-2.34721">
        <ele>15.199999809265</ele>
        <time>2021-07-15T07:06:16.000Z</time>
      </trkpt>
      <trkpt lat="47.27458" lon="-2.34768">
        <ele>15.199999809265</ele>
        <time>2021-07-15T07:06:22.000Z</time>
      </trkpt>
      <trkpt lat="47.27461" lon="-2.3483">
        <ele>15.199999809265</ele>
        <time>2021-07-15T07:06:29.000Z</time>
      </trkpt>
      <trkpt lat="47.27462" lon="-2.34848">
        <ele>14.800000190735</ele>
        <time>2021-07-15T07:06:31.000Z</time>
      </trkpt>
      <trkpt lat="47.27462" lon="-2.34856">
        <ele>14.39999961853</ele>
        <time>2021-07-15T07:06:32.000Z</time>
      </trkpt>
      <trkpt lat="47.27462" lon="-2.34864">
        <ele>14</ele>
        <time>2021-07-15T07:06:33.000Z</time>
      </trkpt>
      <trkpt lat="47.27462" lon="-2.34872">
        <ele>13.60000038147</ele>
        <time>2021-07-15T07:06:34.000Z</time>
      </trkpt>
      <trkpt lat="47.27462" lon="-2.34881">
        <ele>13.199999809265</ele>
        <time>2021-07-15T07:06:35.000Z</time>
      </trkpt>
      <trkpt lat="47.27462" lon="-2.34897">
        <ele>13.199999809265</ele>
        <time>2021-07-15T07:06:37.000Z</time>
      </trkpt>
      <trkpt lat="47.27462" lon="-2.34903">
        <ele>13.199999809265</ele>
        <time>2021-07-15T07:06:38.000Z</time>
      </trkpt>
      <trkpt lat="47.27465" lon="-2.34912">
        <ele>12.60000038147</ele>
        <time>2021-07-15T07:06:40.000Z</time>
      </trkpt>
      <trkpt lat="47.27468" lon="-2.34915">
        <ele>12.199999809265</ele>
        <time>2021-07-15T07:06:41.000Z</time>
      </trkpt>
      <trkpt lat="47.27472" lon="-2.34916">
        <ele>11.800000190735</ele>
        <time>2021-07-15T07:06:42.000Z</time>
      </trkpt>
      <trkpt lat="47.27476" lon="-2.34917">
        <ele>11.39999961853</ele>
        <time>2021-07-15T07:06:43.000Z</time>
      </trkpt>
      <trkpt lat="47.2748" lon="-2.34917">
        <ele>11</ele>
        <time>2021-07-15T07:06:44.000Z</time>
      </trkpt>
      <trkpt lat="47.27485" lon="-2.34916">
        <ele>11</ele>
        <time>2021-07-15T07:06:45.000Z</time>
      </trkpt>
      <trkpt lat="47.27503" lon="-2.34912">
        <ele>11</ele>
        <time>2021-07-15T07:06:49.000Z</time>
      </trkpt>
      <trkpt lat="47.27512" lon="-2.34906">
        <ele>11</ele>
        <time>2021-07-15T07:06:51.000Z</time>
      </trkpt>
      <trkpt lat="47.27516" lon="-2.34904">
        <ele>11</ele>
        <time>2021-07-15T07:06:52.000Z</time>
      </trkpt>
      <trkpt lat="47.27525" lon="-2.34901">
        <ele>11.39999961853</ele>
        <time>2021-07-15T07:06:54.000Z</time>
      </trkpt>
      <trkpt lat="47.2753" lon="-2.34901">
        <ele>11.800000190735</ele>
        <time>2021-07-15T07:06:55.000Z</time>
      </trkpt>
      <trkpt lat="47.27535" lon="-2.34901">
        <ele>12.199999809265</ele>
        <time>2021-07-15T07:06:56.000Z</time>
      </trkpt>
      <trkpt lat="47.2754" lon="-2.34901">
        <ele>12.60000038147</ele>
        <time>2021-07-15T07:06:57.000Z</time>
      </trkpt>
      <trkpt lat="47.27545" lon="-2.34902">
        <ele>13</ele>
        <time>2021-07-15T07:06:58.000Z</time>
      </trkpt>
      <trkpt lat="47.27577" lon="-2.34907">
        <ele>13</ele>
        <time>2021-07-15T07:07:04.000Z</time>
      </trkpt>
      <trkpt lat="47.27628" lon="-2.34913">
        <ele>13</ele>
        <time>2021-07-15T07:07:14.000Z</time>
      </trkpt>
      <trkpt lat="47.27661" lon="-2.34909">
        <ele>13</ele>
        <time>2021-07-15T07:07:21.000Z</time>
      </trkpt>
      <trkpt lat="47.27666" lon="-2.34909">
        <ele>13</ele>
        <time>2021-07-15T07:07:22.000Z</time>
      </trkpt>
      <trkpt lat="47.27679" lon="-2.34919">
        <ele>13</ele>
        <time>2021-07-15T07:07:25.000Z</time>
      </trkpt>
      <trkpt lat="47.27684" lon="-2.34939">
        <ele>13</ele>
        <time>2021-07-15T07:07:28.000Z</time>
      </trkpt>
      <trkpt lat="47.27684" lon="-2.34954">
        <ele>13</ele>
        <time>2021-07-15T07:07:30.000Z</time>
      </trkpt>
      <trkpt lat="47.27683" lon="-2.34979">
        <ele>13</ele>
        <time>2021-07-15T07:07:33.000Z</time>
      </trkpt>
      <trkpt lat="47.27686" lon="-2.35019">
        <ele>12.199999809265</ele>
        <time>2021-07-15T07:07:38.000Z</time>
      </trkpt>
      <trkpt lat="47.27688" lon="-2.35026">
        <ele>11.800000190735</ele>
        <time>2021-07-15T07:07:39.000Z</time>
      </trkpt>
      <trkpt lat="47.2769" lon="-2.35032">
        <ele>11.39999961853</ele>
        <time>2021-07-15T07:07:40.000Z</time>
      </trkpt>
      <trkpt lat="47.27693" lon="-2.35036">
        <ele>11</ele>
        <time>2021-07-15T07:07:41.000Z</time>
      </trkpt>
      <trkpt lat="47.27696" lon="-2.35037">
        <ele>11</ele>
        <time>2021-07-15T07:07:42.000Z</time>
      </trkpt>
      <trkpt lat="47.27709" lon="-2.35035">
        <ele>11</ele>
        <time>2021-07-15T07:07:45.000Z</time>
      </trkpt>
      <trkpt lat="47.27713" lon="-2.35034">
        <ele>11</ele>
        <time>2021-07-15T07:07:46.000Z</time>
      </trkpt>
      <trkpt lat="47.27746" lon="-2.35026">
        <ele>11</ele>
        <time>2021-07-15T07:07:52.000Z</time>
      </trkpt>
      <trkpt lat="47.27755" lon="-2.35025">
        <ele>10.60000038147</ele>
        <time>2021-07-15T07:07:54.000Z</time>
      </trkpt>
      <trkpt lat="47.27758" lon="-2.35025">
        <ele>10</ele>
        <time>2021-07-15T07:07:55.000Z</time>
      </trkpt>
      <trkpt lat="47.27761" lon="-2.35027">
        <ele>9.6000003814697</ele>
        <time>2021-07-15T07:07:56.000Z</time>
      </trkpt>
      <trkpt lat="47.27763" lon="-2.3503">
        <ele>9.1999998092651</ele>
        <time>2021-07-15T07:07:57.000Z</time>
      </trkpt>
      <trkpt lat="47.27765" lon="-2.35034">
        <ele>8.6000003814697</ele>
        <time>2021-07-15T07:07:58.000Z</time>
      </trkpt>
      <trkpt lat="47.27767" lon="-2.35044">
        <ele>8.6000003814697</ele>
        <time>2021-07-15T07:08:00.000Z</time>
      </trkpt>
      <trkpt lat="47.27771" lon="-2.35082">
        <ele>8.6000003814697</ele>
        <time>2021-07-15T07:08:05.000Z</time>
      </trkpt>
      <trkpt lat="47.27775" lon="-2.3516">
        <ele>8.6000003814697</ele>
        <time>2021-07-15T07:08:14.000Z</time>
      </trkpt>
      <trkpt lat="47.27775" lon="-2.35169">
        <ele>8.1999998092651</ele>
        <time>2021-07-15T07:08:15.000Z</time>
      </trkpt>
      <trkpt lat="47.27776" lon="-2.35178">
        <ele>7.8000001907349</ele>
        <time>2021-07-15T07:08:16.000Z</time>
      </trkpt>
      <trkpt lat="47.27776" lon="-2.35186">
        <ele>7.4000000953674</ele>
        <time>2021-07-15T07:08:17.000Z</time>
      </trkpt>
      <trkpt lat="47.27777" lon="-2.35194">
        <ele>7</ele>
        <time>2021-07-15T07:08:18.000Z</time>
      </trkpt>
      <trkpt lat="47.27777" lon="-2.35202">
        <ele>6.5999999046326</ele>
        <time>2021-07-15T07:08:19.000Z</time>
      </trkpt>
      <trkpt lat="47.2778" lon="-2.35237">
        <ele>6.5999999046326</ele>
        <time>2021-07-15T07:08:23.000Z</time>
      </trkpt>
      <trkpt lat="47.27784" lon="-2.35263">
        <ele>6.5999999046326</ele>
        <time>2021-07-15T07:08:26.000Z</time>
      </trkpt>
      <trkpt lat="47.27787" lon="-2.3528">
        <ele>6.5999999046326</ele>
        <time>2021-07-15T07:08:28.000Z</time>
      </trkpt>
      <trkpt lat="47.27798" lon="-2.35335">
        <ele>6.5999999046326</ele>
        <time>2021-07-15T07:08:35.000Z</time>
      </trkpt>
      <trkpt lat="47.278" lon="-2.35343">
        <ele>6.5999999046326</ele>
        <time>2021-07-15T07:08:36.000Z</time>
      </trkpt>
      <trkpt lat="47.27813" lon="-2.35364">
        <ele>6.5999999046326</ele>
        <time>2021-07-15T07:08:40.000Z</time>
      </trkpt>
      <trkpt lat="47.27827" lon="-2.35366">
        <ele>6.5999999046326</ele>
        <time>2021-07-15T07:08:43.000Z</time>
      </trkpt>
      <trkpt lat="47.27836" lon="-2.35365">
        <ele>6.5999999046326</ele>
        <time>2021-07-15T07:08:45.000Z</time>
      </trkpt>
      <trkpt lat="47.27859" lon="-2.35361">
        <ele>6.5999999046326</ele>
        <time>2021-07-15T07:08:50.000Z</time>
      </trkpt>
      <trkpt lat="47.27863" lon="-2.35361">
        <ele>6.5999999046326</ele>
        <time>2021-07-15T07:08:51.000Z</time>
      </trkpt>
      <trkpt lat="47.27879" lon="-2.35369">
        <ele>6.5999999046326</ele>
        <time>2021-07-15T07:08:55.000Z</time>
      </trkpt>
      <trkpt lat="47.27888" lon="-2.35381">
        <ele>6.5999999046326</ele>
        <time>2021-07-15T07:08:58.000Z</time>
      </trkpt>
      <trkpt lat="47.27899" lon="-2.35394">
        <ele>6.5999999046326</ele>
        <time>2021-07-15T07:09:01.000Z</time>
      </trkpt>
      <trkpt lat="47.27927" lon="-2.35431">
        <ele>6.5999999046326</ele>
        <time>2021-07-15T07:09:09.000Z</time>
      </trkpt>
      <trkpt lat="47.27949" lon="-2.35451">
        <ele>6.5999999046326</ele>
        <time>2021-07-15T07:09:14.000Z</time>
      </trkpt>
      <trkpt lat="47.27958" lon="-2.35458">
        <ele>6.5999999046326</ele>
        <time>2021-07-15T07:09:16.000Z</time>
      </trkpt>
      <trkpt lat="47.27972" lon="-2.35467">
        <ele>6.5999999046326</ele>
        <time>2021-07-15T07:09:19.000Z</time>
      </trkpt>
      <trkpt lat="47.27976" lon="-2.35472">
        <ele>6.5999999046326</ele>
        <time>2021-07-15T07:09:20.000Z</time>
      </trkpt>
      <trkpt lat="47.27986" lon="-2.3549">
        <ele>6.5999999046326</ele>
        <time>2021-07-15T07:09:23.000Z</time>
      </trkpt>
      <trkpt lat="47.27991" lon="-2.35502">
        <ele>6.5999999046326</ele>
        <time>2021-07-15T07:09:25.000Z</time>
      </trkpt>
      <trkpt lat="47.28003" lon="-2.35533">
        <ele>6.5999999046326</ele>
        <time>2021-07-15T07:09:31.000Z</time>
      </trkpt>
      <trkpt lat="47.28008" lon="-2.35555">
        <ele>6.5999999046326</ele>
        <time>2021-07-15T07:09:36.000Z</time>
      </trkpt>
      <trkpt lat="47.2801" lon="-2.35563">
        <ele>7</ele>
        <time>2021-07-15T07:09:38.000Z</time>
      </trkpt>
      <trkpt lat="47.28013" lon="-2.35565">
        <ele>7.5999999046326</ele>
        <time>2021-07-15T07:09:39.000Z</time>
      </trkpt>
      <trkpt lat="47.28016" lon="-2.35566">
        <ele>8</ele>
        <time>2021-07-15T07:09:40.000Z</time>
      </trkpt>
      <trkpt lat="47.28019" lon="-2.35566">
        <ele>8.3999996185303</ele>
        <time>2021-07-15T07:09:41.000Z</time>
      </trkpt>
      <trkpt lat="47.28022" lon="-2.35566">
        <ele>8.8000001907349</ele>
        <time>2021-07-15T07:09:42.000Z</time>
      </trkpt>
      <trkpt lat="47.28033" lon="-2.3557">
        <ele>8.8000001907349</ele>
        <time>2021-07-15T07:09:45.000Z</time>
      </trkpt>
      <trkpt lat="47.28036" lon="-2.35573">
        <ele>8.8000001907349</ele>
        <time>2021-07-15T07:09:46.000Z</time>
      </trkpt>
      <trkpt lat="47.28048" lon="-2.35578">
        <ele>8.8000001907349</ele>
        <time>2021-07-15T07:09:50.000Z</time>
      </trkpt>
      <trkpt lat="47.28062" lon="-2.35582">
        <ele>9.1999998092651</ele>
        <time>2021-07-15T07:09:55.000Z</time>
      </trkpt>
      <trkpt lat="47.28064" lon="-2.35583">
        <ele>9.6000003814697</ele>
        <time>2021-07-15T07:09:56.000Z</time>
      </trkpt>
      <trkpt lat="47.28065" lon="-2.35584">
        <ele>10</ele>
        <time>2021-07-15T07:09:57.000Z</time>
      </trkpt>
      <trkpt lat="47.28066" lon="-2.35586">
        <ele>10.39999961853</ele>
        <time>2021-07-15T07:09:58.000Z</time>
      </trkpt>
      <trkpt lat="47.28067" lon="-2.35587">
        <ele>10.800000190735</ele>
        <time>2021-07-15T07:09:59.000Z</time>
      </trkpt>
      <trkpt lat="47.28068" lon="-2.35588">
        <ele>10.800000190735</ele>
        <time>2021-07-15T07:10:01.000Z</time>
      </trkpt>
      <trkpt lat="47.28069" lon="-2.35591">
        <ele>10.800000190735</ele>
        <time>2021-07-15T07:14:12.000Z</time>
      </trkpt>
      <trkpt lat="47.28071" lon="-2.35609">
        <ele>10.800000190735</ele>
        <time>2021-07-15T07:14:18.000Z</time>
      </trkpt>
      <trkpt lat="47.28072" lon="-2.35613">
        <ele>10.800000190735</ele>
        <time>2021-07-15T07:14:19.000Z</time>
      </trkpt>
      <trkpt lat="47.28073" lon="-2.35617">
        <ele>11.199999809265</ele>
        <time>2021-07-15T07:14:20.000Z</time>
      </trkpt>
      <trkpt lat="47.28074" lon="-2.3562">
        <ele>11.60000038147</ele>
        <time>2021-07-15T07:14:21.000Z</time>
      </trkpt>
      <trkpt lat="47.28075" lon="-2.35624">
        <ele>12</ele>
        <time>2021-07-15T07:14:22.000Z</time>
      </trkpt>
      <trkpt lat="47.28076" lon="-2.35627">
        <ele>12.39999961853</ele>
        <time>2021-07-15T07:14:23.000Z</time>
      </trkpt>
      <trkpt lat="47.28077" lon="-2.3563">
        <ele>12.800000190735</ele>
        <time>2021-07-15T07:14:24.000Z</time>
      </trkpt>
      <trkpt lat="47.28078" lon="-2.35636">
        <ele>12.800000190735</ele>
        <time>2021-07-15T07:14:26.000Z</time>
      </trkpt>
      <trkpt lat="47.28081" lon="-2.35642">
        <ele>13.39999961853</ele>
        <time>2021-07-15T07:14:28.000Z</time>
      </trkpt>
      <trkpt lat="47.28082" lon="-2.35645">
        <ele>13.800000190735</ele>
        <time>2021-07-15T07:14:29.000Z</time>
      </trkpt>
      <trkpt lat="47.28083" lon="-2.35649">
        <ele>14.39999961853</ele>
        <time>2021-07-15T07:14:30.000Z</time>
      </trkpt>
      <trkpt lat="47.28084" lon="-2.35653">
        <ele>14.800000190735</ele>
        <time>2021-07-15T07:14:31.000Z</time>
      </trkpt>
      <trkpt lat="47.28085" lon="-2.35657">
        <ele>15.199999809265</ele>
        <time>2021-07-15T07:14:32.000Z</time>
      </trkpt>
      <trkpt lat="47.28087" lon="-2.35664">
        <ele>15.60000038147</ele>
        <time>2021-07-15T07:14:34.000Z</time>
      </trkpt>
      <trkpt lat="47.28087" lon="-2.35669">
        <ele>16</ele>
        <time>2021-07-15T07:14:35.000Z</time>
      </trkpt>
      <trkpt lat="47.28088" lon="-2.35676">
        <ele>16.39999961853</ele>
        <time>2021-07-15T07:14:36.000Z</time>
      </trkpt>
      <trkpt lat="47.28089" lon="-2.35681">
        <ele>17</ele>
        <time>2021-07-15T07:14:37.000Z</time>
      </trkpt>
      <trkpt lat="47.2809" lon="-2.35685">
        <ele>17.39999961853</ele>
        <time>2021-07-15T07:14:38.000Z</time>
      </trkpt>
      <trkpt lat="47.28094" lon="-2.35708">
        <ele>17.39999961853</ele>
        <time>2021-07-15T07:14:44.000Z</time>
      </trkpt>
      <trkpt lat="47.28089" lon="-2.35735">
        <ele>17.39999961853</ele>
        <time>2021-07-15T07:14:50.000Z</time>
      </trkpt>
      <trkpt lat="47.28081" lon="-2.3577">
        <ele>17.39999961853</ele>
        <time>2021-07-15T07:14:55.000Z</time>
      </trkpt>
      <trkpt lat="47.28077" lon="-2.35789">
        <ele>17.39999961853</ele>
        <time>2021-07-15T07:14:59.000Z</time>
      </trkpt>
      <trkpt lat="47.28079" lon="-2.35798">
        <ele>16.799999237061</ele>
        <time>2021-07-15T07:15:01.000Z</time>
      </trkpt>
      <trkpt lat="47.28081" lon="-2.35801">
        <ele>16.39999961853</ele>
        <time>2021-07-15T07:15:02.000Z</time>
      </trkpt>
      <trkpt lat="47.28084" lon="-2.35805">
        <ele>16</ele>
        <time>2021-07-15T07:15:03.000Z</time>
      </trkpt>
      <trkpt lat="47.28087" lon="-2.35809">
        <ele>15.60000038147</ele>
        <time>2021-07-15T07:15:04.000Z</time>
      </trkpt>
      <trkpt lat="47.28091" lon="-2.35814">
        <ele>15</ele>
        <time>2021-07-15T07:15:05.000Z</time>
      </trkpt>
      <trkpt lat="47.28105" lon="-2.35832">
        <ele>15</ele>
        <time>2021-07-15T07:15:09.000Z</time>
      </trkpt>
      <trkpt lat="47.28111" lon="-2.35841">
        <ele>15</ele>
        <time>2021-07-15T07:15:11.000Z</time>
      </trkpt>
      <trkpt lat="47.28118" lon="-2.3585">
        <ele>15</ele>
        <time>2021-07-15T07:15:13.000Z</time>
      </trkpt>
      <trkpt lat="47.28134" lon="-2.35875">
        <ele>15</ele>
        <time>2021-07-15T07:15:19.000Z</time>
      </trkpt>
      <trkpt lat="47.28144" lon="-2.35891">
        <ele>15</ele>
        <time>2021-07-15T07:15:24.000Z</time>
      </trkpt>
      <trkpt lat="47.28157" lon="-2.35924">
        <ele>15</ele>
        <time>2021-07-15T07:15:29.000Z</time>
      </trkpt>
      <trkpt lat="47.28167" lon="-2.35943">
        <ele>15</ele>
        <time>2021-07-15T07:15:32.000Z</time>
      </trkpt>
      <trkpt lat="47.28172" lon="-2.35954">
        <ele>15</ele>
        <time>2021-07-15T07:15:34.000Z</time>
      </trkpt>
      <trkpt lat="47.28179" lon="-2.35967">
        <ele>15</ele>
        <time>2021-07-15T07:15:36.000Z</time>
      </trkpt>
      <trkpt lat="47.28187" lon="-2.35989">
        <ele>14.60000038147</ele>
        <time>2021-07-15T07:15:39.000Z</time>
      </trkpt>
      <trkpt lat="47.28189" lon="-2.35996">
        <ele>14.199999809265</ele>
        <time>2021-07-15T07:15:40.000Z</time>
      </trkpt>
      <trkpt lat="47.28191" lon="-2.36003">
        <ele>13.800000190735</ele>
        <time>2021-07-15T07:15:41.000Z</time>
      </trkpt>
      <trkpt lat="47.28192" lon="-2.36008">
        <ele>13.39999961853</ele>
        <time>2021-07-15T07:15:42.000Z</time>
      </trkpt>
      <trkpt lat="47.28193" lon="-2.36011">
        <ele>12.800000190735</ele>
        <time>2021-07-15T07:15:43.000Z</time>
      </trkpt>
      <trkpt lat="47.28194" lon="-2.36013">
        <ele>12.800000190735</ele>
        <time>2021-07-15T07:15:44.000Z</time>
      </trkpt>
      <trkpt lat="47.28194" lon="-2.36016">
        <ele>12.800000190735</ele>
        <time>2021-07-15T07:15:47.000Z</time>
      </trkpt>
      <trkpt lat="47.28197" lon="-2.36022">
        <ele>10.800000190735</ele>
        <time>2021-07-15T07:16:05.000Z</time>
      </trkpt>
      <trkpt lat="47.28198" lon="-2.36023">
        <ele>10.800000190735</ele>
        <time>2021-07-15T07:16:06.000Z</time>
      </trkpt>
      <trkpt lat="47.28203" lon="-2.36042">
        <ele>10.800000190735</ele>
        <time>2021-07-15T07:16:12.000Z</time>
      </trkpt>
      <trkpt lat="47.28211" lon="-2.3607">
        <ele>10.800000190735</ele>
        <time>2021-07-15T07:16:18.000Z</time>
      </trkpt>
      <trkpt lat="47.28217" lon="-2.36087">
        <ele>11.39999961853</ele>
        <time>2021-07-15T07:16:21.000Z</time>
      </trkpt>
      <trkpt lat="47.28219" lon="-2.36094">
        <ele>11.800000190735</ele>
        <time>2021-07-15T07:16:22.000Z</time>
      </trkpt>
      <trkpt lat="47.28222" lon="-2.36101">
        <ele>12.199999809265</ele>
        <time>2021-07-15T07:16:23.000Z</time>
      </trkpt>
      <trkpt lat="47.28226" lon="-2.36107">
        <ele>12.60000038147</ele>
        <time>2021-07-15T07:16:24.000Z</time>
      </trkpt>
      <trkpt lat="47.28229" lon="-2.36114">
        <ele>13</ele>
        <time>2021-07-15T07:16:25.000Z</time>
      </trkpt>
      <trkpt lat="47.28241" lon="-2.36142">
        <ele>13</ele>
        <time>2021-07-15T07:16:29.000Z</time>
      </trkpt>
      <trkpt lat="47.28255" lon="-2.36177">
        <ele>13</ele>
        <time>2021-07-15T07:16:35.000Z</time>
      </trkpt>
      <trkpt lat="47.28267" lon="-2.36204">
        <ele>13</ele>
        <time>2021-07-15T07:16:40.000Z</time>
      </trkpt>
      <trkpt lat="47.28276" lon="-2.36217">
        <ele>13</ele>
        <time>2021-07-15T07:16:42.000Z</time>
      </trkpt>
      <trkpt lat="47.28286" lon="-2.3623">
        <ele>13</ele>
        <time>2021-07-15T07:16:45.000Z</time>
      </trkpt>
      <trkpt lat="47.28303" lon="-2.36242">
        <ele>13</ele>
        <time>2021-07-15T07:16:50.000Z</time>
      </trkpt>
      <trkpt lat="47.28316" lon="-2.36264">
        <ele>13</ele>
        <time>2021-07-15T07:16:55.000Z</time>
      </trkpt>
      <trkpt lat="47.2833" lon="-2.3628">
        <ele>13</ele>
        <time>2021-07-15T07:17:01.000Z</time>
      </trkpt>
      <trkpt lat="47.2834" lon="-2.36288">
        <ele>13.39999961853</ele>
        <time>2021-07-15T07:17:05.000Z</time>
      </trkpt>
      <trkpt lat="47.28342" lon="-2.36289">
        <ele>14</ele>
        <time>2021-07-15T07:17:06.000Z</time>
      </trkpt>
      <trkpt lat="47.28344" lon="-2.36291">
        <ele>14.39999961853</ele>
        <time>2021-07-15T07:17:07.000Z</time>
      </trkpt>
      <trkpt lat="47.28347" lon="-2.36294">
        <ele>14.800000190735</ele>
        <time>2021-07-15T07:17:08.000Z</time>
      </trkpt>
      <trkpt lat="47.2835" lon="-2.36296">
        <ele>15.199999809265</ele>
        <time>2021-07-15T07:17:09.000Z</time>
      </trkpt>
      <trkpt lat="47.28363" lon="-2.36309">
        <ele>15.199999809265</ele>
        <time>2021-07-15T07:17:14.000Z</time>
      </trkpt>
      <trkpt lat="47.28365" lon="-2.36311">
        <ele>15.60000038147</ele>
        <time>2021-07-15T07:17:15.000Z</time>
      </trkpt>
      <trkpt lat="47.28368" lon="-2.36313">
        <ele>16</ele>
        <time>2021-07-15T07:17:16.000Z</time>
      </trkpt>
      <trkpt lat="47.2837" lon="-2.36314">
        <ele>16.39999961853</ele>
        <time>2021-07-15T07:17:17.000Z</time>
      </trkpt>
      <trkpt lat="47.28373" lon="-2.36318">
        <ele>16.799999237061</ele>
        <time>2021-07-15T07:17:18.000Z</time>
      </trkpt>
      <trkpt lat="47.28376" lon="-2.36322">
        <ele>17.200000762939</ele>
        <time>2021-07-15T07:17:19.000Z</time>
      </trkpt>
      <trkpt lat="47.2839" lon="-2.36341">
        <ele>17.200000762939</ele>
        <time>2021-07-15T07:17:24.000Z</time>
      </trkpt>
      <trkpt lat="47.2841" lon="-2.36363">
        <ele>17.200000762939</ele>
        <time>2021-07-15T07:17:31.000Z</time>
      </trkpt>
      <trkpt lat="47.28426" lon="-2.36378">
        <ele>17.200000762939</ele>
        <time>2021-07-15T07:17:38.000Z</time>
      </trkpt>
      <trkpt lat="47.28428" lon="-2.3638">
        <ele>17.60000038147</ele>
        <time>2021-07-15T07:17:39.000Z</time>
      </trkpt>
      <trkpt lat="47.28431" lon="-2.36382">
        <ele>18</ele>
        <time>2021-07-15T07:17:40.000Z</time>
      </trkpt>
      <trkpt lat="47.28434" lon="-2.36384">
        <ele>18.39999961853</ele>
        <time>2021-07-15T07:17:41.000Z</time>
      </trkpt>
      <trkpt lat="47.28436" lon="-2.36386">
        <ele>18.799999237061</ele>
        <time>2021-07-15T07:17:42.000Z</time>
      </trkpt>
      <trkpt lat="47.28439" lon="-2.36388">
        <ele>19.200000762939</ele>
        <time>2021-07-15T07:17:43.000Z</time>
      </trkpt>
      <trkpt lat="47.28442" lon="-2.36392">
        <ele>19.200000762939</ele>
        <time>2021-07-15T07:17:44.000Z</time>
      </trkpt>
      <trkpt lat="47.28456" lon="-2.36407">
        <ele>19.200000762939</ele>
        <time>2021-07-15T07:17:49.000Z</time>
      </trkpt>
      <trkpt lat="47.28466" lon="-2.36413">
        <ele>19.200000762939</ele>
        <time>2021-07-15T07:17:54.000Z</time>
      </trkpt>
      <trkpt lat="47.28482" lon="-2.36427">
        <ele>19.200000762939</ele>
        <time>2021-07-15T07:17:59.000Z</time>
      </trkpt>
      <trkpt lat="47.28503" lon="-2.36446">
        <ele>19.200000762939</ele>
        <time>2021-07-15T07:18:04.000Z</time>
      </trkpt>
      <trkpt lat="47.28514" lon="-2.36474">
        <ele>19.200000762939</ele>
        <time>2021-07-15T07:18:09.000Z</time>
      </trkpt>
      <trkpt lat="47.28518" lon="-2.36502">
        <ele>19.200000762939</ele>
        <time>2021-07-15T07:18:14.000Z</time>
      </trkpt>
      <trkpt lat="47.28506" lon="-2.36519">
        <ele>19.200000762939</ele>
        <time>2021-07-15T07:18:18.000Z</time>
      </trkpt>
      <trkpt lat="47.28502" lon="-2.36523">
        <ele>19.200000762939</ele>
        <time>2021-07-15T07:18:19.000Z</time>
      </trkpt>
      <trkpt lat="47.28482" lon="-2.36544">
        <ele>19.200000762939</ele>
        <time>2021-07-15T07:18:23.000Z</time>
      </trkpt>
      <trkpt lat="47.28474" lon="-2.36556">
        <ele>18.799999237061</ele>
        <time>2021-07-15T07:18:25.000Z</time>
      </trkpt>
      <trkpt lat="47.2847" lon="-2.36561">
        <ele>18.39999961853</ele>
        <time>2021-07-15T07:18:26.000Z</time>
      </trkpt>
      <trkpt lat="47.28467" lon="-2.36567">
        <ele>18</ele>
        <time>2021-07-15T07:18:27.000Z</time>
      </trkpt>
      <trkpt lat="47.28467" lon="-2.36574">
        <ele>17.60000038147</ele>
        <time>2021-07-15T07:18:28.000Z</time>
      </trkpt>
      <trkpt lat="47.28469" lon="-2.36582">
        <ele>17.200000762939</ele>
        <time>2021-07-15T07:18:29.000Z</time>
      </trkpt>
      <trkpt lat="47.28474" lon="-2.36595">
        <ele>17.200000762939</ele>
        <time>2021-07-15T07:18:31.000Z</time>
      </trkpt>
      <trkpt lat="47.28487" lon="-2.3664">
        <ele>17.200000762939</ele>
        <time>2021-07-15T07:18:38.000Z</time>
      </trkpt>
      <trkpt lat="47.285" lon="-2.36671">
        <ele>17.200000762939</ele>
        <time>2021-07-15T07:18:44.000Z</time>
      </trkpt>
      <trkpt lat="47.28506" lon="-2.36679">
        <ele>17.200000762939</ele>
        <time>2021-07-15T07:18:46.000Z</time>
      </trkpt>
      <trkpt lat="47.28512" lon="-2.36689">
        <ele>17.200000762939</ele>
        <time>2021-07-15T07:18:48.000Z</time>
      </trkpt>
      <trkpt lat="47.28516" lon="-2.36694">
        <ele>17.200000762939</ele>
        <time>2021-07-15T07:18:49.000Z</time>
      </trkpt>
      <trkpt lat="47.28524" lon="-2.36707">
        <ele>17.200000762939</ele>
        <time>2021-07-15T07:18:51.000Z</time>
      </trkpt>
      <trkpt lat="47.28533" lon="-2.36723">
        <ele>16.799999237061</ele>
        <time>2021-07-15T07:18:53.000Z</time>
      </trkpt>
      <trkpt lat="47.28538" lon="-2.36732">
        <ele>16.200000762939</ele>
        <time>2021-07-15T07:18:54.000Z</time>
      </trkpt>
      <trkpt lat="47.28543" lon="-2.36741">
        <ele>15.800000190735</ele>
        <time>2021-07-15T07:18:55.000Z</time>
      </trkpt>
      <trkpt lat="47.28548" lon="-2.3675">
        <ele>15.39999961853</ele>
        <time>2021-07-15T07:18:56.000Z</time>
      </trkpt>
      <trkpt lat="47.28553" lon="-2.36759">
        <ele>15</ele>
        <time>2021-07-15T07:18:57.000Z</time>
      </trkpt>
      <trkpt lat="47.28571" lon="-2.36795">
        <ele>14.60000038147</ele>
        <time>2021-07-15T07:19:01.000Z</time>
      </trkpt>
      <trkpt lat="47.28575" lon="-2.36804">
        <ele>14</ele>
        <time>2021-07-15T07:19:02.000Z</time>
      </trkpt>
      <trkpt lat="47.2858" lon="-2.36812">
        <ele>13.60000038147</ele>
        <time>2021-07-15T07:19:03.000Z</time>
      </trkpt>
      <trkpt lat="47.28584" lon="-2.36821">
        <ele>13.199999809265</ele>
        <time>2021-07-15T07:19:04.000Z</time>
      </trkpt>
      <trkpt lat="47.28588" lon="-2.36829">
        <ele>12.800000190735</ele>
        <time>2021-07-15T07:19:05.000Z</time>
      </trkpt>
      <trkpt lat="47.28595" lon="-2.36842">
        <ele>12.39999961853</ele>
        <time>2021-07-15T07:19:07.000Z</time>
      </trkpt>
      <trkpt lat="47.286" lon="-2.36846">
        <ele>11.800000190735</ele>
        <time>2021-07-15T07:19:08.000Z</time>
      </trkpt>
      <trkpt lat="47.28604" lon="-2.36846">
        <ele>11.39999961853</ele>
        <time>2021-07-15T07:19:09.000Z</time>
      </trkpt>
      <trkpt lat="47.28609" lon="-2.36845">
        <ele>10.800000190735</ele>
        <time>2021-07-15T07:19:10.000Z</time>
      </trkpt>
      <trkpt lat="47.28613" lon="-2.36843">
        <ele>10.39999961853</ele>
        <time>2021-07-15T07:19:11.000Z</time>
      </trkpt>
      <trkpt lat="47.28624" lon="-2.36833">
        <ele>10.39999961853</ele>
        <time>2021-07-15T07:19:14.000Z</time>
      </trkpt>
      <trkpt lat="47.2863" lon="-2.36825">
        <ele>10.39999961853</ele>
        <time>2021-07-15T07:19:16.000Z</time>
      </trkpt>
      <trkpt lat="47.28634" lon="-2.36821">
        <ele>10.39999961853</ele>
        <time>2021-07-15T07:19:17.000Z</time>
      </trkpt>
      <trkpt lat="47.28649" lon="-2.368">
        <ele>10.39999961853</ele>
        <time>2021-07-15T07:19:22.000Z</time>
      </trkpt>
      <trkpt lat="47.28663" lon="-2.3679">
        <ele>10.39999961853</ele>
        <time>2021-07-15T07:19:27.000Z</time>
      </trkpt>
      <trkpt lat="47.28669" lon="-2.36801">
        <ele>10.39999961853</ele>
        <time>2021-07-15T07:19:31.000Z</time>
      </trkpt>
      <trkpt lat="47.28683" lon="-2.36831">
        <ele>10.39999961853</ele>
        <time>2021-07-15T07:19:37.000Z</time>
      </trkpt>
      <trkpt lat="47.28701" lon="-2.36865">
        <ele>10.39999961853</ele>
        <time>2021-07-15T07:19:44.000Z</time>
      </trkpt>
      <trkpt lat="47.28711" lon="-2.36887">
        <ele>10.39999961853</ele>
        <time>2021-07-15T07:19:48.000Z</time>
      </trkpt>
      <trkpt lat="47.28715" lon="-2.36892">
        <ele>9.8000001907349</ele>
        <time>2021-07-15T07:19:49.000Z</time>
      </trkpt>
      <trkpt lat="47.2872" lon="-2.36894">
        <ele>9.3999996185303</ele>
        <time>2021-07-15T07:19:50.000Z</time>
      </trkpt>
      <trkpt lat="47.28724" lon="-2.36897">
        <ele>9</ele>
        <time>2021-07-15T07:19:51.000Z</time>
      </trkpt>
      <trkpt lat="47.28733" lon="-2.36906">
        <ele>8</ele>
        <time>2021-07-15T07:19:52.000Z</time>
      </trkpt>
      <trkpt lat="47.28745" lon="-2.36932">
        <ele>8</ele>
        <time>2021-07-15T07:20:01.000Z</time>
      </trkpt>
      <trkpt lat="47.28746" lon="-2.36938">
        <ele>8</ele>
        <time>2021-07-15T07:20:03.000Z</time>
      </trkpt>
      <trkpt lat="47.28746" lon="-2.36943">
        <ele>8</ele>
        <time>2021-07-15T07:20:05.000Z</time>
      </trkpt>
      <trkpt lat="47.28747" lon="-2.36946">
        <ele>8.3999996185303</ele>
        <time>2021-07-15T07:20:06.000Z</time>
      </trkpt>
      <trkpt lat="47.28747" lon="-2.36948">
        <ele>8.8000001907349</ele>
        <time>2021-07-15T07:20:07.000Z</time>
      </trkpt>
      <trkpt lat="47.28748" lon="-2.36952">
        <ele>9.1999998092651</ele>
        <time>2021-07-15T07:20:08.000Z</time>
      </trkpt>
      <trkpt lat="47.28748" lon="-2.36955">
        <ele>9.6000003814697</ele>
        <time>2021-07-15T07:20:09.000Z</time>
      </trkpt>
      <trkpt lat="47.28748" lon="-2.36958">
        <ele>10.199999809265</ele>
        <time>2021-07-15T07:20:10.000Z</time>
      </trkpt>
      <trkpt lat="47.28748" lon="-2.36963">
        <ele>10.199999809265</ele>
        <time>2021-07-15T07:20:11.000Z</time>
      </trkpt>
      <trkpt lat="47.28749" lon="-2.36972">
        <ele>10.60000038147</ele>
        <time>2021-07-15T07:20:14.000Z</time>
      </trkpt>
      <trkpt lat="47.28752" lon="-2.36977">
        <ele>11</ele>
        <time>2021-07-15T07:20:15.000Z</time>
      </trkpt>
      <trkpt lat="47.28754" lon="-2.36981">
        <ele>11.39999961853</ele>
        <time>2021-07-15T07:20:16.000Z</time>
      </trkpt>
      <trkpt lat="47.28756" lon="-2.36984">
        <ele>11.800000190735</ele>
        <time>2021-07-15T07:20:17.000Z</time>
      </trkpt>
      <trkpt lat="47.28757" lon="-2.36987">
        <ele>12.199999809265</ele>
        <time>2021-07-15T07:20:18.000Z</time>
      </trkpt>
      <trkpt lat="47.28767" lon="-2.36999">
        <ele>12.199999809265</ele>
        <time>2021-07-15T07:20:24.000Z</time>
      </trkpt>
      <trkpt lat="47.28772" lon="-2.37013">
        <ele>12.199999809265</ele>
        <time>2021-07-15T07:20:29.000Z</time>
      </trkpt>
      <trkpt lat="47.28776" lon="-2.37026">
        <ele>12.199999809265</ele>
        <time>2021-07-15T07:20:33.000Z</time>
      </trkpt>
      <trkpt lat="47.2878" lon="-2.37036">
        <ele>11.800000190735</ele>
        <time>2021-07-15T07:20:36.000Z</time>
      </trkpt>
      <trkpt lat="47.28782" lon="-2.37038">
        <ele>11.39999961853</ele>
        <time>2021-07-15T07:20:37.000Z</time>
      </trkpt>
      <trkpt lat="47.28783" lon="-2.37041">
        <ele>11</ele>
        <time>2021-07-15T07:20:38.000Z</time>
      </trkpt>
      <trkpt lat="47.28783" lon="-2.37044">
        <ele>10.39999961853</ele>
        <time>2021-07-15T07:20:39.000Z</time>
      </trkpt>
      <trkpt lat="47.28785" lon="-2.37048">
        <ele>10</ele>
        <time>2021-07-15T07:20:40.000Z</time>
      </trkpt>
      <trkpt lat="47.28787" lon="-2.37056">
        <ele>10</ele>
        <time>2021-07-15T07:20:42.000Z</time>
      </trkpt>
      <trkpt lat="47.28787" lon="-2.37076">
        <ele>9.1999998092651</ele>
        <time>2021-07-15T07:20:45.000Z</time>
      </trkpt>
      <trkpt lat="47.28788" lon="-2.37082">
        <ele>8.6000003814697</ele>
        <time>2021-07-15T07:20:46.000Z</time>
      </trkpt>
      <trkpt lat="47.28788" lon="-2.37087">
        <ele>8.1999998092651</ele>
        <time>2021-07-15T07:20:47.000Z</time>
      </trkpt>
      <trkpt lat="47.28789" lon="-2.37091">
        <ele>7.8000001907349</ele>
        <time>2021-07-15T07:20:48.000Z</time>
      </trkpt>
      <trkpt lat="47.28791" lon="-2.37094">
        <ele>7.8000001907349</ele>
        <time>2021-07-15T07:20:49.000Z</time>
      </trkpt>
      <trkpt lat="47.28793" lon="-2.37096">
        <ele>7.8000001907349</ele>
        <time>2021-07-15T07:20:50.000Z</time>
      </trkpt>
      <trkpt lat="47.28797" lon="-2.37099">
        <ele>7.4000000953674</ele>
        <time>2021-07-15T07:20:51.000Z</time>
      </trkpt>
      <trkpt lat="47.28802" lon="-2.37103">
        <ele>6.8000001907349</ele>
        <time>2021-07-15T07:20:52.000Z</time>
      </trkpt>
      <trkpt lat="47.28807" lon="-2.37106">
        <ele>6.4000000953674</ele>
        <time>2021-07-15T07:20:53.000Z</time>
      </trkpt>
      <trkpt lat="47.28811" lon="-2.37106">
        <ele>6</ele>
        <time>2021-07-15T07:20:54.000Z</time>
      </trkpt>
      <trkpt lat="47.28813" lon="-2.37105">
        <ele>5.4000000953674</ele>
        <time>2021-07-15T07:20:55.000Z</time>
      </trkpt>
      <trkpt lat="47.28816" lon="-2.37104">
        <ele>4.8000001907349</ele>
        <time>2021-07-15T07:20:56.000Z</time>
      </trkpt>
      <trkpt lat="47.28819" lon="-2.37103">
        <ele>4.1999998092651</ele>
        <time>2021-07-15T07:20:57.000Z</time>
      </trkpt>
      <trkpt lat="47.28821" lon="-2.37102">
        <ele>3.7999999523163</ele>
        <time>2021-07-15T07:20:58.000Z</time>
      </trkpt>
      <trkpt lat="47.28825" lon="-2.37103">
        <ele>3.2000000476837</ele>
        <time>2021-07-15T07:20:59.000Z</time>
      </trkpt>
      <trkpt lat="47.28827" lon="-2.37108">
        <ele>2.5999999046326</ele>
        <time>2021-07-15T07:21:00.000Z</time>
      </trkpt>
      <trkpt lat="47.28827" lon="-2.37113">
        <ele>2.2000000476837</ele>
        <time>2021-07-15T07:21:01.000Z</time>
      </trkpt>
      <trkpt lat="47.28827" lon="-2.37118">
        <ele>1.6000000238419</ele>
        <time>2021-07-15T07:21:02.000Z</time>
      </trkpt>
      <trkpt lat="47.28826" lon="-2.37124">
        <ele>1.2000000476837</ele>
        <time>2021-07-15T07:21:03.000Z</time>
      </trkpt>
      <trkpt lat="47.28828" lon="-2.37145">
        <ele>1.2000000476837</ele>
        <time>2021-07-15T07:21:07.000Z</time>
      </trkpt>
      <trkpt lat="47.28828" lon="-2.3715">
        <ele>1.2000000476837</ele>
        <time>2021-07-15T07:21:08.000Z</time>
      </trkpt>
      <trkpt lat="47.2883" lon="-2.37168">
        <ele>1.2000000476837</ele>
        <time>2021-07-15T07:21:13.000Z</time>
      </trkpt>
      <trkpt lat="47.2883" lon="-2.37171">
        <ele>1.2000000476837</ele>
        <time>2021-07-15T07:21:14.000Z</time>
      </trkpt>
      <trkpt lat="47.28835" lon="-2.37197">
        <ele>1.2000000476837</ele>
        <time>2021-07-15T07:21:19.000Z</time>
      </trkpt>
      <trkpt lat="47.28837" lon="-2.37218">
        <ele>1.2000000476837</ele>
        <time>2021-07-15T07:21:23.000Z</time>
      </trkpt>
      <trkpt lat="47.28845" lon="-2.37245">
        <ele>0.80000001192093</ele>
        <time>2021-07-15T07:21:29.000Z</time>
      </trkpt>
      <trkpt lat="47.28846" lon="-2.37248">
        <ele>0.20000000298023</ele>
        <time>2021-07-15T07:21:30.000Z</time>
      </trkpt>
      <trkpt lat="47.28847" lon="-2.37251">
        <ele>-0.20000000298023</ele>
        <time>2021-07-15T07:21:31.000Z</time>
      </trkpt>
      <trkpt lat="47.28847" lon="-2.37252">
        <ele>-0.60000002384186</ele>
        <time>2021-07-15T07:21:32.000Z</time>
      </trkpt>
      <trkpt lat="47.28847" lon="-2.37252">
        <ele>-1</ele>
        <time>2021-07-15T07:21:33.000Z</time>
      </trkpt>
      <trkpt lat="47.28849" lon="-2.37256">
        <ele>-1</ele>
        <time>2021-07-15T07:22:45.000Z</time>
      </trkpt>
      <trkpt lat="47.28853" lon="-2.3727">
        <ele>-1</ele>
        <time>2021-07-15T07:22:48.000Z</time>
      </trkpt>
      <trkpt lat="47.28856" lon="-2.37299">
        <ele>-1</ele>
        <time>2021-07-15T07:22:54.000Z</time>
      </trkpt>
      <trkpt lat="47.28862" lon="-2.37336">
        <ele>-1</ele>
        <time>2021-07-15T07:23:00.000Z</time>
      </trkpt>
      <trkpt lat="47.28863" lon="-2.37343">
        <ele>-1</ele>
        <time>2021-07-15T07:23:01.000Z</time>
      </trkpt>
      <trkpt lat="47.28866" lon="-2.37382">
        <ele>-1</ele>
        <time>2021-07-15T07:23:06.000Z</time>
      </trkpt>
      <trkpt lat="47.2887" lon="-2.37427">
        <ele>-1</ele>
        <time>2021-07-15T07:23:12.000Z</time>
      </trkpt>
      <trkpt lat="47.28878" lon="-2.37481">
        <ele>-1</ele>
        <time>2021-07-15T07:23:19.000Z</time>
      </trkpt>
      <trkpt lat="47.28885" lon="-2.37522">
        <ele>-1</ele>
        <time>2021-07-15T07:23:27.000Z</time>
      </trkpt>
      <trkpt lat="47.2889" lon="-2.37547">
        <ele>-1</ele>
        <time>2021-07-15T07:23:33.000Z</time>
      </trkpt>
      <trkpt lat="47.28896" lon="-2.37563">
        <ele>-1.3999999761581</ele>
        <time>2021-07-15T07:23:36.000Z</time>
      </trkpt>
      <trkpt lat="47.28898" lon="-2.37569">
        <ele>-1.7999999523163</ele>
        <time>2021-07-15T07:23:37.000Z</time>
      </trkpt>
      <trkpt lat="47.289" lon="-2.37575">
        <ele>-2.2000000476837</ele>
        <time>2021-07-15T07:23:38.000Z</time>
      </trkpt>
      <trkpt lat="47.289" lon="-2.37582">
        <ele>-2.7999999523163</ele>
        <time>2021-07-15T07:23:39.000Z</time>
      </trkpt>
      <trkpt lat="47.28901" lon="-2.37588">
        <ele>-3.2000000476837</ele>
        <time>2021-07-15T07:23:40.000Z</time>
      </trkpt>
      <trkpt lat="47.28901" lon="-2.37601">
        <ele>-3.2000000476837</ele>
        <time>2021-07-15T07:23:42.000Z</time>
      </trkpt>
      <trkpt lat="47.28902" lon="-2.37608">
        <ele>-3.2000000476837</ele>
        <time>2021-07-15T07:23:43.000Z</time>
      </trkpt>
      <trkpt lat="47.28904" lon="-2.37627">
        <ele>-3.2000000476837</ele>
        <time>2021-07-15T07:23:46.000Z</time>
      </trkpt>
      <trkpt lat="47.28907" lon="-2.37644">
        <ele>-3.2000000476837</ele>
        <time>2021-07-15T07:23:49.000Z</time>
      </trkpt>
      <trkpt lat="47.2891" lon="-2.37648">
        <ele>-3.2000000476837</ele>
        <time>2021-07-15T07:23:50.000Z</time>
      </trkpt>
      <trkpt lat="47.28923" lon="-2.37647">
        <ele>-3.2000000476837</ele>
        <time>2021-07-15T07:23:53.000Z</time>
      </trkpt>
      <trkpt lat="47.28927" lon="-2.37646">
        <ele>-3.2000000476837</ele>
        <time>2021-07-15T07:23:54.000Z</time>
      </trkpt>
      <trkpt lat="47.28934" lon="-2.37645">
        <ele>-3.2000000476837</ele>
        <time>2021-07-15T07:23:58.000Z</time>
      </trkpt>
      <trkpt lat="47.28935" lon="-2.37647">
        <ele>-3.2000000476837</ele>
        <time>2021-07-15T07:24:00.000Z</time>
      </trkpt>
      <trkpt lat="47.28937" lon="-2.37659">
        <ele>-3.2000000476837</ele>
        <time>2021-07-15T07:24:03.000Z</time>
      </trkpt>
      <trkpt lat="47.28937" lon="-2.37671">
        <ele>-3.2000000476837</ele>
        <time>2021-07-15T07:24:05.000Z</time>
      </trkpt>
      <trkpt lat="47.28936" lon="-2.37693">
        <ele>-3.2000000476837</ele>
        <time>2021-07-15T07:24:08.000Z</time>
      </trkpt>
      <trkpt lat="47.28932" lon="-2.37739">
        <ele>-3.2000000476837</ele>
        <time>2021-07-15T07:24:14.000Z</time>
      </trkpt>
      <trkpt lat="47.28927" lon="-2.37805">
        <ele>-3.2000000476837</ele>
        <time>2021-07-15T07:24:22.000Z</time>
      </trkpt>
      <trkpt lat="47.28922" lon="-2.37869">
        <ele>-3.2000000476837</ele>
        <time>2021-07-15T07:24:30.000Z</time>
      </trkpt>
      <trkpt lat="47.28918" lon="-2.37919">
        <ele>-3.2000000476837</ele>
        <time>2021-07-15T07:24:36.000Z</time>
      </trkpt>
      <trkpt lat="47.28913" lon="-2.37989">
        <ele>-3.2000000476837</ele>
        <time>2021-07-15T07:24:44.000Z</time>
      </trkpt>
      <trkpt lat="47.2891" lon="-2.38047">
        <ele>-3.2000000476837</ele>
        <time>2021-07-15T07:24:51.000Z</time>
      </trkpt>
      <trkpt lat="47.28921" lon="-2.38078">
        <ele>-3.2000000476837</ele>
        <time>2021-07-15T07:24:55.000Z</time>
      </trkpt>
      <trkpt lat="47.2893" lon="-2.38121">
        <ele>-3.2000000476837</ele>
        <time>2021-07-15T07:25:00.000Z</time>
      </trkpt>
      <trkpt lat="47.28937" lon="-2.38192">
        <ele>-3.2000000476837</ele>
        <time>2021-07-15T07:25:08.000Z</time>
      </trkpt>
      <trkpt lat="47.28939" lon="-2.38238">
        <ele>-3.5999999046326</ele>
        <time>2021-07-15T07:25:13.000Z</time>
      </trkpt>
      <trkpt lat="47.28939" lon="-2.38247">
        <ele>-4</ele>
        <time>2021-07-15T07:25:14.000Z</time>
      </trkpt>
      <trkpt lat="47.28938" lon="-2.38257">
        <ele>-4.8000001907349</ele>
        <time>2021-07-15T07:25:15.000Z</time>
      </trkpt>
      <trkpt lat="47.28938" lon="-2.38266">
        <ele>-5.1999998092651</ele>
        <time>2021-07-15T07:25:16.000Z</time>
      </trkpt>
      <trkpt lat="47.28934" lon="-2.38327">
        <ele>-5.1999998092651</ele>
        <time>2021-07-15T07:25:23.000Z</time>
      </trkpt>
      <trkpt lat="47.28938" lon="-2.38387">
        <ele>-5.1999998092651</ele>
        <time>2021-07-15T07:25:30.000Z</time>
      </trkpt>
      <trkpt lat="47.28942" lon="-2.38445">
        <ele>-5.1999998092651</ele>
        <time>2021-07-15T07:25:37.000Z</time>
      </trkpt>
      <trkpt lat="47.28951" lon="-2.38528">
        <ele>-5.1999998092651</ele>
        <time>2021-07-15T07:25:46.000Z</time>
      </trkpt>
      <trkpt lat="47.28958" lon="-2.38611">
        <ele>-5.1999998092651</ele>
        <time>2021-07-15T07:25:55.000Z</time>
      </trkpt>
      <trkpt lat="47.28958" lon="-2.38676">
        <ele>-5.1999998092651</ele>
        <time>2021-07-15T07:26:02.000Z</time>
      </trkpt>
      <trkpt lat="47.28959" lon="-2.38759">
        <ele>-5.1999998092651</ele>
        <time>2021-07-15T07:26:11.000Z</time>
      </trkpt>
      <trkpt lat="47.2896" lon="-2.38817">
        <ele>-5.1999998092651</ele>
        <time>2021-07-15T07:26:17.000Z</time>
      </trkpt>
      <trkpt lat="47.28958" lon="-2.38882">
        <ele>-5.1999998092651</ele>
        <time>2021-07-15T07:26:24.000Z</time>
      </trkpt>
      <trkpt lat="47.28954" lon="-2.38965">
        <ele>-5.1999998092651</ele>
        <time>2021-07-15T07:26:33.000Z</time>
      </trkpt>
      <trkpt lat="47.28948" lon="-2.39048">
        <ele>-5.1999998092651</ele>
        <time>2021-07-15T07:26:42.000Z</time>
      </trkpt>
      <trkpt lat="47.28941" lon="-2.39112">
        <ele>-5.1999998092651</ele>
        <time>2021-07-15T07:26:49.000Z</time>
      </trkpt>
      <trkpt lat="47.28933" lon="-2.39174">
        <ele>-5.1999998092651</ele>
        <time>2021-07-15T07:26:56.000Z</time>
      </trkpt>
      <trkpt lat="47.28933" lon="-2.39192">
        <ele>-5.1999998092651</ele>
        <time>2021-07-15T07:26:58.000Z</time>
      </trkpt>
      <trkpt lat="47.28935" lon="-2.3925">
        <ele>-5.1999998092651</ele>
        <time>2021-07-15T07:27:04.000Z</time>
      </trkpt>
      <trkpt lat="47.28941" lon="-2.39286">
        <ele>-5.1999998092651</ele>
        <time>2021-07-15T07:27:08.000Z</time>
      </trkpt>
      <trkpt lat="47.28945" lon="-2.39294">
        <ele>-5.1999998092651</ele>
        <time>2021-07-15T07:27:09.000Z</time>
      </trkpt>
      <trkpt lat="47.28958" lon="-2.39312">
        <ele>-5.1999998092651</ele>
        <time>2021-07-15T07:27:12.000Z</time>
      </trkpt>
      <trkpt lat="47.2897" lon="-2.39319">
        <ele>-5.1999998092651</ele>
        <time>2021-07-15T07:27:14.000Z</time>
      </trkpt>
      <trkpt lat="47.28977" lon="-2.39319">
        <ele>-5.1999998092651</ele>
        <time>2021-07-15T07:27:15.000Z</time>
      </trkpt>
      <trkpt lat="47.28984" lon="-2.39321">
        <ele>-5.1999998092651</ele>
        <time>2021-07-15T07:27:16.000Z</time>
      </trkpt>
      <trkpt lat="47.29037" lon="-2.39342">
        <ele>-5.1999998092651</ele>
        <time>2021-07-15T07:27:24.000Z</time>
      </trkpt>
      <trkpt lat="47.29076" lon="-2.3936">
        <ele>-5.1999998092651</ele>
        <time>2021-07-15T07:27:31.000Z</time>
      </trkpt>
      <trkpt lat="47.29085" lon="-2.39367">
        <ele>-5.1999998092651</ele>
        <time>2021-07-15T07:27:33.000Z</time>
      </trkpt>
      <trkpt lat="47.29094" lon="-2.39375">
        <ele>-5.1999998092651</ele>
        <time>2021-07-15T07:27:35.000Z</time>
      </trkpt>
      <trkpt lat="47.29099" lon="-2.39377">
        <ele>-5.1999998092651</ele>
        <time>2021-07-15T07:27:36.000Z</time>
      </trkpt>
      <trkpt lat="47.29115" lon="-2.39371">
        <ele>-5.1999998092651</ele>
        <time>2021-07-15T07:27:39.000Z</time>
      </trkpt>
      <trkpt lat="47.29145" lon="-2.39344">
        <ele>-5.1999998092651</ele>
        <time>2021-07-15T07:27:44.000Z</time>
      </trkpt>
      <trkpt lat="47.29164" lon="-2.39329">
        <ele>-5.1999998092651</ele>
        <time>2021-07-15T07:27:47.000Z</time>
      </trkpt>
      <trkpt lat="47.29179" lon="-2.39325">
        <ele>-5.5999999046326</ele>
        <time>2021-07-15T07:27:49.000Z</time>
      </trkpt>
      <trkpt lat="47.29186" lon="-2.39323">
        <ele>-6</ele>
        <time>2021-07-15T07:27:50.000Z</time>
      </trkpt>
      <trkpt lat="47.29193" lon="-2.39321">
        <ele>-6.4000000953674</ele>
        <time>2021-07-15T07:27:51.000Z</time>
      </trkpt>
      <trkpt lat="47.292" lon="-2.39319">
        <ele>-6.8000001907349</ele>
        <time>2021-07-15T07:27:52.000Z</time>
      </trkpt>
      <trkpt lat="47.29207" lon="-2.39317">
        <ele>-7.1999998092651</ele>
        <time>2021-07-15T07:27:53.000Z</time>
      </trkpt>
      <trkpt lat="47.29226" lon="-2.3931">
        <ele>-7.1999998092651</ele>
        <time>2021-07-15T07:27:56.000Z</time>
      </trkpt>
      <trkpt lat="47.2926" lon="-2.39292">
        <ele>-7.1999998092651</ele>
        <time>2021-07-15T07:28:02.000Z</time>
      </trkpt>
      <trkpt lat="47.29272" lon="-2.39288">
        <ele>-7.1999998092651</ele>
        <time>2021-07-15T07:28:04.000Z</time>
      </trkpt>
      <trkpt lat="47.29283" lon="-2.3929">
        <ele>-7.1999998092651</ele>
        <time>2021-07-15T07:28:06.000Z</time>
      </trkpt>
      <trkpt lat="47.29295" lon="-2.39294">
        <ele>-7.1999998092651</ele>
        <time>2021-07-15T07:28:08.000Z</time>
      </trkpt>
      <trkpt lat="47.29312" lon="-2.39304">
        <ele>-7.1999998092651</ele>
        <time>2021-07-15T07:28:11.000Z</time>
      </trkpt>
      <trkpt lat="47.29333" lon="-2.39316">
        <ele>-7.1999998092651</ele>
        <time>2021-07-15T07:28:15.000Z</time>
      </trkpt>
      <trkpt lat="47.29337" lon="-2.39318">
        <ele>-7.1999998092651</ele>
        <time>2021-07-15T07:28:16.000Z</time>
      </trkpt>
      <trkpt lat="47.29348" lon="-2.39332">
        <ele>-7.1999998092651</ele>
        <time>2021-07-15T07:28:19.000Z</time>
      </trkpt>
      <trkpt lat="47.2935" lon="-2.39348">
        <ele>-6.8000001907349</ele>
        <time>2021-07-15T07:28:21.000Z</time>
      </trkpt>
      <trkpt lat="47.29351" lon="-2.39355">
        <ele>-6.4000000953674</ele>
        <time>2021-07-15T07:28:22.000Z</time>
      </trkpt>
      <trkpt lat="47.29351" lon="-2.39363">
        <ele>-6</ele>
        <time>2021-07-15T07:28:23.000Z</time>
      </trkpt>
      <trkpt lat="47.29351" lon="-2.39371">
        <ele>-5.5999999046326</ele>
        <time>2021-07-15T07:28:24.000Z</time>
      </trkpt>
      <trkpt lat="47.29352" lon="-2.3938">
        <ele>-5.1999998092651</ele>
        <time>2021-07-15T07:28:25.000Z</time>
      </trkpt>
      <trkpt lat="47.29354" lon="-2.39411">
        <ele>-5.1999998092651</ele>
        <time>2021-07-15T07:28:29.000Z</time>
      </trkpt>
      <trkpt lat="47.29356" lon="-2.39435">
        <ele>-5.1999998092651</ele>
        <time>2021-07-15T07:28:32.000Z</time>
      </trkpt>
      <trkpt lat="47.29361" lon="-2.39449">
        <ele>-5.1999998092651</ele>
        <time>2021-07-15T07:28:34.000Z</time>
      </trkpt>
      <trkpt lat="47.29374" lon="-2.39461">
        <ele>-5.1999998092651</ele>
        <time>2021-07-15T07:28:37.000Z</time>
      </trkpt>
      <trkpt lat="47.29386" lon="-2.39463">
        <ele>-5.1999998092651</ele>
        <time>2021-07-15T07:28:39.000Z</time>
      </trkpt>
      <trkpt lat="47.2941" lon="-2.39464">
        <ele>-5.1999998092651</ele>
        <time>2021-07-15T07:28:43.000Z</time>
      </trkpt>
      <trkpt lat="47.29455" lon="-2.39467">
        <ele>-5.1999998092651</ele>
        <time>2021-07-15T07:28:50.000Z</time>
      </trkpt>
      <trkpt lat="47.29481" lon="-2.39469">
        <ele>-5.1999998092651</ele>
        <time>2021-07-15T07:28:54.000Z</time>
      </trkpt>
      <trkpt lat="47.29495" lon="-2.39469">
        <ele>-5.1999998092651</ele>
        <time>2021-07-15T07:28:56.000Z</time>
      </trkpt>
      <trkpt lat="47.29534" lon="-2.39473">
        <ele>-5.1999998092651</ele>
        <time>2021-07-15T07:29:02.000Z</time>
      </trkpt>
      <trkpt lat="47.2956" lon="-2.39484">
        <ele>-5.1999998092651</ele>
        <time>2021-07-15T07:29:07.000Z</time>
      </trkpt>
      <trkpt lat="47.29563" lon="-2.39487">
        <ele>-5.1999998092651</ele>
        <time>2021-07-15T07:29:08.000Z</time>
      </trkpt>
      <trkpt lat="47.29563" lon="-2.39493">
        <ele>-5.8000001907349</ele>
        <time>2021-07-15T07:29:09.000Z</time>
      </trkpt>
      <trkpt lat="47.29561" lon="-2.39497">
        <ele>-6.1999998092651</ele>
        <time>2021-07-15T07:29:10.000Z</time>
      </trkpt>
      <trkpt lat="47.29558" lon="-2.39502">
        <ele>-6.5999999046326</ele>
        <time>2021-07-15T07:29:11.000Z</time>
      </trkpt>
      <trkpt lat="47.29557" lon="-2.39506">
        <ele>-7</ele>
        <time>2021-07-15T07:29:12.000Z</time>
      </trkpt>
      <trkpt lat="47.29556" lon="-2.3951">
        <ele>-7.4000000953674</ele>
        <time>2021-07-15T07:29:13.000Z</time>
      </trkpt>
      <trkpt lat="47.29556" lon="-2.39515">
        <ele>-7.4000000953674</ele>
        <time>2021-07-15T07:29:14.000Z</time>
      </trkpt>
      <trkpt lat="47.29556" lon="-2.39532">
        <ele>-7</ele>
        <time>2021-07-15T07:29:18.000Z</time>
      </trkpt>
      <trkpt lat="47.29556" lon="-2.39535">
        <ele>-6.4000000953674</ele>
        <time>2021-07-15T07:29:19.000Z</time>
      </trkpt>
      <trkpt lat="47.29555" lon="-2.39538">
        <ele>-6</ele>
        <time>2021-07-15T07:29:20.000Z</time>
      </trkpt>
      <trkpt lat="47.29555" lon="-2.39541">
        <ele>-5.1999998092651</ele>
        <time>2021-07-15T07:29:21.000Z</time>
      </trkpt>
      <trkpt lat="47.29556" lon="-2.39543">
        <ele>-5.1999998092651</ele>
        <time>2021-07-15T07:29:22.000Z</time>
      </trkpt>
      <trkpt lat="47.29557" lon="-2.39545">
        <ele>-5.1999998092651</ele>
        <time>2021-07-15T07:29:23.000Z</time>
      </trkpt>
      <trkpt lat="47.29564" lon="-2.39544">
        <ele>-5.1999998092651</ele>
        <time>2021-07-15T07:29:26.000Z</time>
      </trkpt>
      <trkpt lat="47.29567" lon="-2.39545">
        <ele>-4.8000001907349</ele>
        <time>2021-07-15T07:29:27.000Z</time>
      </trkpt>
      <trkpt lat="47.29571" lon="-2.39545">
        <ele>-4.1999998092651</ele>
        <time>2021-07-15T07:29:28.000Z</time>
      </trkpt>
      <trkpt lat="47.29574" lon="-2.39545">
        <ele>-3.7999999523163</ele>
        <time>2021-07-15T07:29:29.000Z</time>
      </trkpt>
      <trkpt lat="47.29577" lon="-2.39546">
        <ele>-3.4000000953674</ele>
        <time>2021-07-15T07:29:30.000Z</time>
      </trkpt>
      <trkpt lat="47.2958" lon="-2.39546">
        <ele>-2.7999999523163</ele>
        <time>2021-07-15T07:29:31.000Z</time>
      </trkpt>
      <trkpt lat="47.29589" lon="-2.39548">
        <ele>-2.7999999523163</ele>
        <time>2021-07-15T07:29:34.000Z</time>
      </trkpt>
      <trkpt lat="47.29607" lon="-2.3955">
        <ele>-2.7999999523163</ele>
        <time>2021-07-15T07:29:39.000Z</time>
      </trkpt>
      <trkpt lat="47.29617" lon="-2.39552">
        <ele>-2.7999999523163</ele>
        <time>2021-07-15T07:29:43.000Z</time>
      </trkpt>
      <trkpt lat="47.29619" lon="-2.39554">
        <ele>-2.7999999523163</ele>
        <time>2021-07-15T07:29:44.000Z</time>
      </trkpt>
      <trkpt lat="47.2962" lon="-2.39559">
        <ele>-2.7999999523163</ele>
        <time>2021-07-15T07:29:46.000Z</time>
      </trkpt>
      <trkpt lat="47.2961" lon="-2.39565">
        <ele>-2.7999999523163</ele>
        <time>2021-07-15T07:29:49.000Z</time>
      </trkpt>
      <trkpt lat="47.29608" lon="-2.39567">
        <ele>-2.7999999523163</ele>
        <time>2021-07-15T07:29:50.000Z</time>
      </trkpt>
      <trkpt lat="47.29607" lon="-2.39573">
        <ele>-3.2000000476837</ele>
        <time>2021-07-15T07:29:52.000Z</time>
      </trkpt>
      <trkpt lat="47.29608" lon="-2.39576">
        <ele>-3.7999999523163</ele>
        <time>2021-07-15T07:29:53.000Z</time>
      </trkpt>
      <trkpt lat="47.29611" lon="-2.39579">
        <ele>-4.1999998092651</ele>
        <time>2021-07-15T07:29:54.000Z</time>
      </trkpt>
      <trkpt lat="47.29614" lon="-2.3958">
        <ele>-4.5999999046326</ele>
        <time>2021-07-15T07:29:55.000Z</time>
      </trkpt>
      <trkpt lat="47.29618" lon="-2.39581">
        <ele>-5</ele>
        <time>2021-07-15T07:29:56.000Z</time>
      </trkpt>
      <trkpt lat="47.29624" lon="-2.39587">
        <ele>-5.5999999046326</ele>
        <time>2021-07-15T07:29:58.000Z</time>
      </trkpt>
      <trkpt lat="47.29625" lon="-2.39591">
        <ele>-6</ele>
        <time>2021-07-15T07:29:59.000Z</time>
      </trkpt>
      <trkpt lat="47.29626" lon="-2.39596">
        <ele>-6.4000000953674</ele>
        <time>2021-07-15T07:30:00.000Z</time>
      </trkpt>
      <trkpt lat="47.29626" lon="-2.39602">
        <ele>-7</ele>
        <time>2021-07-15T07:30:01.000Z</time>
      </trkpt>
      <trkpt lat="47.29626" lon="-2.39609">
        <ele>-7.4000000953674</ele>
        <time>2021-07-15T07:30:02.000Z</time>
      </trkpt>
      <trkpt lat="47.29625" lon="-2.3964">
        <ele>-7.4000000953674</ele>
        <time>2021-07-15T07:30:06.000Z</time>
      </trkpt>
      <trkpt lat="47.29624" lon="-2.39648">
        <ele>-7.4000000953674</ele>
        <time>2021-07-15T07:30:07.000Z</time>
      </trkpt>
      <trkpt lat="47.29611" lon="-2.39676">
        <ele>-7.4000000953674</ele>
        <time>2021-07-15T07:30:11.000Z</time>
      </trkpt>
      <trkpt lat="47.296" lon="-2.39695">
        <ele>-7.4000000953674</ele>
        <time>2021-07-15T07:30:14.000Z</time>
      </trkpt>
      <trkpt lat="47.29589" lon="-2.39715">
        <ele>-7.4000000953674</ele>
        <time>2021-07-15T07:30:17.000Z</time>
      </trkpt>
      <trkpt lat="47.29562" lon="-2.39769">
        <ele>-7.4000000953674</ele>
        <time>2021-07-15T07:30:25.000Z</time>
      </trkpt>
      <trkpt lat="47.29535" lon="-2.39826">
        <ele>-7.4000000953674</ele>
        <time>2021-07-15T07:30:33.000Z</time>
      </trkpt>
      <trkpt lat="47.29513" lon="-2.39873">
        <ele>-7.4000000953674</ele>
        <time>2021-07-15T07:30:40.000Z</time>
      </trkpt>
      <trkpt lat="47.29499" lon="-2.39896">
        <ele>-7.4000000953674</ele>
        <time>2021-07-15T07:30:44.000Z</time>
      </trkpt>
      <trkpt lat="47.29495" lon="-2.39899">
        <ele>-7.4000000953674</ele>
        <time>2021-07-15T07:30:45.000Z</time>
      </trkpt>
      <trkpt lat="47.29485" lon="-2.39893">
        <ele>-7.4000000953674</ele>
        <time>2021-07-15T07:30:48.000Z</time>
      </trkpt>
      <trkpt lat="47.2948" lon="-2.39883">
        <ele>-7.4000000953674</ele>
        <time>2021-07-15T07:30:50.000Z</time>
      </trkpt>
      <trkpt lat="47.2947" lon="-2.3986">
        <ele>-7.4000000953674</ele>
        <time>2021-07-15T07:30:54.000Z</time>
      </trkpt>
      <trkpt lat="47.29461" lon="-2.39838">
        <ele>-7.4000000953674</ele>
        <time>2021-07-15T07:30:59.000Z</time>
      </trkpt>
      <trkpt lat="47.29454" lon="-2.39843">
        <ele>-7.4000000953674</ele>
        <time>2021-07-15T07:31:03.000Z</time>
      </trkpt>
      <trkpt lat="47.29443" lon="-2.39848">
        <ele>-7.4000000953674</ele>
        <time>2021-07-15T07:31:06.000Z</time>
      </trkpt>
      <trkpt lat="47.29439" lon="-2.39847">
        <ele>-7.4000000953674</ele>
        <time>2021-07-15T07:31:07.000Z</time>
      </trkpt>
      <trkpt lat="47.29413" lon="-2.39844">
        <ele>-7.4000000953674</ele>
        <time>2021-07-15T07:31:12.000Z</time>
      </trkpt>
      <trkpt lat="47.29407" lon="-2.39845">
        <ele>-7.4000000953674</ele>
        <time>2021-07-15T07:31:13.000Z</time>
      </trkpt>
      <trkpt lat="47.2939" lon="-2.39854">
        <ele>-7.4000000953674</ele>
        <time>2021-07-15T07:31:16.000Z</time>
      </trkpt>
      <trkpt lat="47.29351" lon="-2.39887">
        <ele>-7.4000000953674</ele>
        <time>2021-07-15T07:31:23.000Z</time>
      </trkpt>
      <trkpt lat="47.29335" lon="-2.39904">
        <ele>-7.4000000953674</ele>
        <time>2021-07-15T07:31:26.000Z</time>
      </trkpt>
      <trkpt lat="47.29315" lon="-2.3993">
        <ele>-7.4000000953674</ele>
        <time>2021-07-15T07:31:30.000Z</time>
      </trkpt>
      <trkpt lat="47.29293" lon="-2.39967">
        <ele>-7.4000000953674</ele>
        <time>2021-07-15T07:31:35.000Z</time>
      </trkpt>
      <trkpt lat="47.29289" lon="-2.39974">
        <ele>-7.4000000953674</ele>
        <time>2021-07-15T07:31:36.000Z</time>
      </trkpt>
      <trkpt lat="47.29261" lon="-2.40032">
        <ele>-7.4000000953674</ele>
        <time>2021-07-15T07:31:43.000Z</time>
      </trkpt>
      <trkpt lat="47.2923" lon="-2.40098">
        <ele>-7.4000000953674</ele>
        <time>2021-07-15T07:31:51.000Z</time>
      </trkpt>
      <trkpt lat="47.29196" lon="-2.40171">
        <ele>-7.4000000953674</ele>
        <time>2021-07-15T07:32:00.000Z</time>
      </trkpt>
      <trkpt lat="47.29162" lon="-2.40242">
        <ele>-7.4000000953674</ele>
        <time>2021-07-15T07:32:09.000Z</time>
      </trkpt>
      <trkpt lat="47.29158" lon="-2.4025">
        <ele>-7.4000000953674</ele>
        <time>2021-07-15T07:32:10.000Z</time>
      </trkpt>
      <trkpt lat="47.29135" lon="-2.40297">
        <ele>-7.4000000953674</ele>
        <time>2021-07-15T07:32:16.000Z</time>
      </trkpt>
      <trkpt lat="47.2911" lon="-2.4035">
        <ele>-7.4000000953674</ele>
        <time>2021-07-15T07:32:23.000Z</time>
      </trkpt>
      <trkpt lat="47.29081" lon="-2.40411">
        <ele>-7.4000000953674</ele>
        <time>2021-07-15T07:32:31.000Z</time>
      </trkpt>
      <trkpt lat="47.29046" lon="-2.40479">
        <ele>-7.4000000953674</ele>
        <time>2021-07-15T07:32:40.000Z</time>
      </trkpt>
      <trkpt lat="47.29013" lon="-2.40525">
        <ele>-7.4000000953674</ele>
        <time>2021-07-15T07:32:47.000Z</time>
      </trkpt>
      <trkpt lat="47.28982" lon="-2.40559">
        <ele>-7.4000000953674</ele>
        <time>2021-07-15T07:32:53.000Z</time>
      </trkpt>
      <trkpt lat="47.28954" lon="-2.40581">
        <ele>-7.4000000953674</ele>
        <time>2021-07-15T07:32:58.000Z</time>
      </trkpt>
      <trkpt lat="47.28937" lon="-2.40592">
        <ele>-7.4000000953674</ele>
        <time>2021-07-15T07:33:01.000Z</time>
      </trkpt>
      <trkpt lat="47.28891" lon="-2.40622">
        <ele>-7.4000000953674</ele>
        <time>2021-07-15T07:33:09.000Z</time>
      </trkpt>
      <trkpt lat="47.28845" lon="-2.40653">
        <ele>-7.4000000953674</ele>
        <time>2021-07-15T07:33:17.000Z</time>
      </trkpt>
      <trkpt lat="47.28799" lon="-2.40688">
        <ele>-7.4000000953674</ele>
        <time>2021-07-15T07:33:25.000Z</time>
      </trkpt>
      <trkpt lat="47.28758" lon="-2.40732">
        <ele>-7.4000000953674</ele>
        <time>2021-07-15T07:33:33.000Z</time>
      </trkpt>
      <trkpt lat="47.28731" lon="-2.40775">
        <ele>-7.4000000953674</ele>
        <time>2021-07-15T07:33:39.000Z</time>
      </trkpt>
      <trkpt lat="47.28713" lon="-2.40825">
        <ele>-7.4000000953674</ele>
        <time>2021-07-15T07:33:45.000Z</time>
      </trkpt>
      <trkpt lat="47.28704" lon="-2.40879">
        <ele>-7.4000000953674</ele>
        <time>2021-07-15T07:33:51.000Z</time>
      </trkpt>
      <trkpt lat="47.28704" lon="-2.40917">
        <ele>-7.4000000953674</ele>
        <time>2021-07-15T07:33:55.000Z</time>
      </trkpt>
      <trkpt lat="47.28705" lon="-2.40936">
        <ele>-7.4000000953674</ele>
        <time>2021-07-15T07:33:57.000Z</time>
      </trkpt>
      <trkpt lat="47.28718" lon="-2.41007">
        <ele>-7.4000000953674</ele>
        <time>2021-07-15T07:34:05.000Z</time>
      </trkpt>
      <trkpt lat="47.2874" lon="-2.41084">
        <ele>-7.4000000953674</ele>
        <time>2021-07-15T07:34:14.000Z</time>
      </trkpt>
      <trkpt lat="47.28742" lon="-2.41092">
        <ele>-7.4000000953674</ele>
        <time>2021-07-15T07:34:15.000Z</time>
      </trkpt>
      <trkpt lat="47.28757" lon="-2.41149">
        <ele>-7.4000000953674</ele>
        <time>2021-07-15T07:34:22.000Z</time>
      </trkpt>
      <trkpt lat="47.2877" lon="-2.41205">
        <ele>-7.4000000953674</ele>
        <time>2021-07-15T07:34:29.000Z</time>
      </trkpt>
      <trkpt lat="47.28774" lon="-2.41229">
        <ele>-7.4000000953674</ele>
        <time>2021-07-15T07:34:32.000Z</time>
      </trkpt>
      <trkpt lat="47.28778" lon="-2.41243">
        <ele>-7.4000000953674</ele>
        <time>2021-07-15T07:34:34.000Z</time>
      </trkpt>
      <trkpt lat="47.28774" lon="-2.41264">
        <ele>-7.4000000953674</ele>
        <time>2021-07-15T07:34:37.000Z</time>
      </trkpt>
      <trkpt lat="47.28757" lon="-2.41275">
        <ele>-7.4000000953674</ele>
        <time>2021-07-15T07:34:41.000Z</time>
      </trkpt>
      <trkpt lat="47.28744" lon="-2.41266">
        <ele>-7.4000000953674</ele>
        <time>2021-07-15T07:34:44.000Z</time>
      </trkpt>
      <trkpt lat="47.28728" lon="-2.41246">
        <ele>-7.4000000953674</ele>
        <time>2021-07-15T07:34:48.000Z</time>
      </trkpt>
      <trkpt lat="47.28717" lon="-2.4124">
        <ele>-7.4000000953674</ele>
        <time>2021-07-15T07:34:50.000Z</time>
      </trkpt>
      <trkpt lat="47.28698" lon="-2.41235">
        <ele>-7.4000000953674</ele>
        <time>2021-07-15T07:34:53.000Z</time>
      </trkpt>
      <trkpt lat="47.28644" lon="-2.41223">
        <ele>-7.4000000953674</ele>
        <time>2021-07-15T07:35:00.000Z</time>
      </trkpt>
      <trkpt lat="47.28627" lon="-2.4122">
        <ele>-7.8000001907349</ele>
        <time>2021-07-15T07:35:02.000Z</time>
      </trkpt>
      <trkpt lat="47.28618" lon="-2.41218">
        <ele>-8.1999998092651</ele>
        <time>2021-07-15T07:35:03.000Z</time>
      </trkpt>
      <trkpt lat="47.28609" lon="-2.41216">
        <ele>-8.8000001907349</ele>
        <time>2021-07-15T07:35:04.000Z</time>
      </trkpt>
      <trkpt lat="47.286" lon="-2.41215">
        <ele>-9.1999998092651</ele>
        <time>2021-07-15T07:35:05.000Z</time>
      </trkpt>
      <trkpt lat="47.28591" lon="-2.41213">
        <ele>-9.6000003814697</ele>
        <time>2021-07-15T07:35:06.000Z</time>
      </trkpt>
      <trkpt lat="47.28583" lon="-2.41211">
        <ele>-9.6000003814697</ele>
        <time>2021-07-15T07:35:07.000Z</time>
      </trkpt>
      <trkpt lat="47.28545" lon="-2.41202">
        <ele>-9.6000003814697</ele>
        <time>2021-07-15T07:35:12.000Z</time>
      </trkpt>
      <trkpt lat="47.28514" lon="-2.41199">
        <ele>-9.6000003814697</ele>
        <time>2021-07-15T07:35:17.000Z</time>
      </trkpt>
      <trkpt lat="47.28503" lon="-2.412">
        <ele>-9.6000003814697</ele>
        <time>2021-07-15T07:35:19.000Z</time>
      </trkpt>
      <trkpt lat="47.28494" lon="-2.41207">
        <ele>-9.6000003814697</ele>
        <time>2021-07-15T07:35:21.000Z</time>
      </trkpt>
      <trkpt lat="47.28486" lon="-2.41233">
        <ele>-9.6000003814697</ele>
        <time>2021-07-15T07:35:25.000Z</time>
      </trkpt>
      <trkpt lat="47.28486" lon="-2.41241">
        <ele>-9.6000003814697</ele>
        <time>2021-07-15T07:35:26.000Z</time>
      </trkpt>
      <trkpt lat="47.28486" lon="-2.41253">
        <ele>-9.6000003814697</ele>
        <time>2021-07-15T07:35:28.000Z</time>
      </trkpt>
      <trkpt lat="47.28484" lon="-2.41257">
        <ele>-9.6000003814697</ele>
        <time>2021-07-15T07:35:29.000Z</time>
      </trkpt>
      <trkpt lat="47.28473" lon="-2.41257">
        <ele>-9.6000003814697</ele>
        <time>2021-07-15T07:35:32.000Z</time>
      </trkpt>
      <trkpt lat="47.28458" lon="-2.41256">
        <ele>-9.6000003814697</ele>
        <time>2021-07-15T07:35:37.000Z</time>
      </trkpt>
      <trkpt lat="47.2845" lon="-2.41265">
        <ele>-9.6000003814697</ele>
        <time>2021-07-15T07:35:42.000Z</time>
      </trkpt>
      <trkpt lat="47.28453" lon="-2.41273">
        <ele>-9.6000003814697</ele>
        <time>2021-07-15T07:35:46.000Z</time>
      </trkpt>
      <trkpt lat="47.28456" lon="-2.41282">
        <ele>-9.6000003814697</ele>
        <time>2021-07-15T07:35:52.000Z</time>
      </trkpt>
      <trkpt lat="47.28455" lon="-2.41284">
        <ele>-9.6000003814697</ele>
        <time>2021-07-15T07:35:55.000Z</time>
      </trkpt>
      <trkpt lat="47.28454" lon="-2.41292">
        <ele>-9.6000003814697</ele>
        <time>2021-07-15T07:35:58.000Z</time>
      </trkpt>
      <trkpt lat="47.28451" lon="-2.41312">
        <ele>-9.6000003814697</ele>
        <time>2021-07-15T07:36:03.000Z</time>
      </trkpt>
      <trkpt lat="47.28442" lon="-2.41349">
        <ele>-9.6000003814697</ele>
        <time>2021-07-15T07:36:10.000Z</time>
      </trkpt>
      <trkpt lat="47.28433" lon="-2.41382">
        <ele>-9.6000003814697</ele>
        <time>2021-07-15T07:36:16.000Z</time>
      </trkpt>
      <trkpt lat="47.28429" lon="-2.41394">
        <ele>-9.6000003814697</ele>
        <time>2021-07-15T07:36:18.000Z</time>
      </trkpt>
      <trkpt lat="47.28422" lon="-2.41425">
        <ele>-9.6000003814697</ele>
        <time>2021-07-15T07:36:24.000Z</time>
      </trkpt>
      <trkpt lat="47.28418" lon="-2.41463">
        <ele>-9.6000003814697</ele>
        <time>2021-07-15T07:36:32.000Z</time>
      </trkpt>
      <trkpt lat="47.28415" lon="-2.41496">
        <ele>-9.6000003814697</ele>
        <time>2021-07-15T07:36:39.000Z</time>
      </trkpt>
      <trkpt lat="47.28413" lon="-2.41528">
        <ele>-9.6000003814697</ele>
        <time>2021-07-15T07:36:46.000Z</time>
      </trkpt>
      <trkpt lat="47.2841" lon="-2.41549">
        <ele>-9.6000003814697</ele>
        <time>2021-07-15T07:36:51.000Z</time>
      </trkpt>
      <trkpt lat="47.28407" lon="-2.41583">
        <ele>-9.6000003814697</ele>
        <time>2021-07-15T07:36:58.000Z</time>
      </trkpt>
      <trkpt lat="47.28404" lon="-2.41606">
        <ele>-9.6000003814697</ele>
        <time>2021-07-15T07:37:04.000Z</time>
      </trkpt>
      <trkpt lat="47.28402" lon="-2.41631">
        <ele>-9.6000003814697</ele>
        <time>2021-07-15T07:37:10.000Z</time>
      </trkpt>
      <trkpt lat="47.28396" lon="-2.41669">
        <ele>-9.6000003814697</ele>
        <time>2021-07-15T07:37:18.000Z</time>
      </trkpt>
      <trkpt lat="47.28389" lon="-2.41704">
        <ele>-9.6000003814697</ele>
        <time>2021-07-15T07:37:26.000Z</time>
      </trkpt>
      <trkpt lat="47.28379" lon="-2.41744">
        <ele>-9.6000003814697</ele>
        <time>2021-07-15T07:37:33.000Z</time>
      </trkpt>
      <trkpt lat="47.28366" lon="-2.41799">
        <ele>-9.6000003814697</ele>
        <time>2021-07-15T07:37:42.000Z</time>
      </trkpt>
      <trkpt lat="47.28362" lon="-2.41819">
        <ele>-9.6000003814697</ele>
        <time>2021-07-15T07:37:45.000Z</time>
      </trkpt>
      <trkpt lat="47.28355" lon="-2.41845">
        <ele>-9.6000003814697</ele>
        <time>2021-07-15T07:37:49.000Z</time>
      </trkpt>
      <trkpt lat="47.2834" lon="-2.41903">
        <ele>-9.6000003814697</ele>
        <time>2021-07-15T07:37:57.000Z</time>
      </trkpt>
      <trkpt lat="47.28325" lon="-2.4196">
        <ele>-9.6000003814697</ele>
        <time>2021-07-15T07:38:04.000Z</time>
      </trkpt>
      <trkpt lat="47.28314" lon="-2.42006">
        <ele>-9.6000003814697</ele>
        <time>2021-07-15T07:38:10.000Z</time>
      </trkpt>
      <trkpt lat="47.28307" lon="-2.42036">
        <ele>-9.6000003814697</ele>
        <time>2021-07-15T07:38:15.000Z</time>
      </trkpt>
      <trkpt lat="47.28306" lon="-2.42048">
        <ele>-9.6000003814697</ele>
        <time>2021-07-15T07:38:17.000Z</time>
      </trkpt>
      <trkpt lat="47.28301" lon="-2.42077">
        <ele>-9.6000003814697</ele>
        <time>2021-07-15T07:38:21.000Z</time>
      </trkpt>
      <trkpt lat="47.28292" lon="-2.42142">
        <ele>-9.6000003814697</ele>
        <time>2021-07-15T07:38:29.000Z</time>
      </trkpt>
      <trkpt lat="47.28282" lon="-2.42205">
        <ele>-9.6000003814697</ele>
        <time>2021-07-15T07:38:37.000Z</time>
      </trkpt>
      <trkpt lat="47.28275" lon="-2.42265">
        <ele>-9.6000003814697</ele>
        <time>2021-07-15T07:38:45.000Z</time>
      </trkpt>
      <trkpt lat="47.2827" lon="-2.42301">
        <ele>-9.6000003814697</ele>
        <time>2021-07-15T07:38:51.000Z</time>
      </trkpt>
      <trkpt lat="47.28267" lon="-2.42323">
        <ele>-9.6000003814697</ele>
        <time>2021-07-15T07:38:55.000Z</time>
      </trkpt>
      <trkpt lat="47.28268" lon="-2.42329">
        <ele>-9.6000003814697</ele>
        <time>2021-07-15T07:38:56.000Z</time>
      </trkpt>
      <trkpt lat="47.28267" lon="-2.42344">
        <ele>-9.6000003814697</ele>
        <time>2021-07-15T07:38:58.000Z</time>
      </trkpt>
      <trkpt lat="47.28264" lon="-2.42367">
        <ele>-9.6000003814697</ele>
        <time>2021-07-15T07:39:01.000Z</time>
      </trkpt>
      <trkpt lat="47.28249" lon="-2.42435">
        <ele>-9.6000003814697</ele>
        <time>2021-07-15T07:39:10.000Z</time>
      </trkpt>
      <trkpt lat="47.28247" lon="-2.42442">
        <ele>-9.6000003814697</ele>
        <time>2021-07-15T07:39:11.000Z</time>
      </trkpt>
      <trkpt lat="47.28234" lon="-2.4247">
        <ele>-9.6000003814697</ele>
        <time>2021-07-15T07:39:15.000Z</time>
      </trkpt>
      <trkpt lat="47.28205" lon="-2.42515">
        <ele>-9.6000003814697</ele>
        <time>2021-07-15T07:39:23.000Z</time>
      </trkpt>
      <trkpt lat="47.28192" lon="-2.4253">
        <ele>-9.6000003814697</ele>
        <time>2021-07-15T07:39:26.000Z</time>
      </trkpt>
      <trkpt lat="47.2818" lon="-2.42533">
        <ele>-9.6000003814697</ele>
        <time>2021-07-15T07:39:28.000Z</time>
      </trkpt>
      <trkpt lat="47.28158" lon="-2.42534">
        <ele>-9.6000003814697</ele>
        <time>2021-07-15T07:39:32.000Z</time>
      </trkpt>
      <trkpt lat="47.28147" lon="-2.42537">
        <ele>-9.6000003814697</ele>
        <time>2021-07-15T07:39:34.000Z</time>
      </trkpt>
      <trkpt lat="47.28106" lon="-2.42547">
        <ele>-9.6000003814697</ele>
        <time>2021-07-15T07:39:42.000Z</time>
      </trkpt>
      <trkpt lat="47.281" lon="-2.42551">
        <ele>-9.6000003814697</ele>
        <time>2021-07-15T07:39:44.000Z</time>
      </trkpt>
      <trkpt lat="47.28099" lon="-2.42553">
        <ele>-9.6000003814697</ele>
        <time>2021-07-15T07:39:45.000Z</time>
      </trkpt>
      <trkpt lat="47.28105" lon="-2.42568">
        <ele>-9.6000003814697</ele>
        <time>2021-07-15T07:39:49.000Z</time>
      </trkpt>
      <trkpt lat="47.28121" lon="-2.42595">
        <ele>-9.6000003814697</ele>
        <time>2021-07-15T07:39:54.000Z</time>
      </trkpt>
      <trkpt lat="47.28151" lon="-2.42649">
        <ele>-9.6000003814697</ele>
        <time>2021-07-15T07:40:03.000Z</time>
      </trkpt>
      <trkpt lat="47.28162" lon="-2.42666">
        <ele>-9.6000003814697</ele>
        <time>2021-07-15T07:40:06.000Z</time>
      </trkpt>
      <trkpt lat="47.2817" lon="-2.42678">
        <ele>-9.6000003814697</ele>
        <time>2021-07-15T07:40:08.000Z</time>
      </trkpt>
      <trkpt lat="47.28188" lon="-2.42704">
        <ele>-9.6000003814697</ele>
        <time>2021-07-15T07:40:13.000Z</time>
      </trkpt>
      <trkpt lat="47.28197" lon="-2.42695">
        <ele>-9.6000003814697</ele>
        <time>2021-07-15T07:40:16.000Z</time>
      </trkpt>
      <trkpt lat="47.28199" lon="-2.42682">
        <ele>-9.6000003814697</ele>
        <time>2021-07-15T07:40:18.000Z</time>
      </trkpt>
      <trkpt lat="47.28201" lon="-2.42676">
        <ele>-9.6000003814697</ele>
        <time>2021-07-15T07:40:19.000Z</time>
      </trkpt>
      <trkpt lat="47.28203" lon="-2.42669">
        <ele>-9.6000003814697</ele>
        <time>2021-07-15T07:40:20.000Z</time>
      </trkpt>
      <trkpt lat="47.28219" lon="-2.42646">
        <ele>-9.6000003814697</ele>
        <time>2021-07-15T07:40:24.000Z</time>
      </trkpt>
      <trkpt lat="47.28224" lon="-2.42641">
        <ele>-9.6000003814697</ele>
        <time>2021-07-15T07:40:25.000Z</time>
      </trkpt>
      <trkpt lat="47.28263" lon="-2.42603">
        <ele>-9.6000003814697</ele>
        <time>2021-07-15T07:40:33.000Z</time>
      </trkpt>
      <trkpt lat="47.28297" lon="-2.42572">
        <ele>-9.6000003814697</ele>
        <time>2021-07-15T07:40:40.000Z</time>
      </trkpt>
      <trkpt lat="47.28319" lon="-2.42559">
        <ele>-9.6000003814697</ele>
        <time>2021-07-15T07:40:44.000Z</time>
      </trkpt>
      <trkpt lat="47.28324" lon="-2.42553">
        <ele>-9.6000003814697</ele>
        <time>2021-07-15T07:40:45.000Z</time>
      </trkpt>
      <trkpt lat="47.2833" lon="-2.42533">
        <ele>-9.6000003814697</ele>
        <time>2021-07-15T07:40:48.000Z</time>
      </trkpt>
      <trkpt lat="47.28331" lon="-2.42526">
        <ele>-9.6000003814697</ele>
        <time>2021-07-15T07:40:49.000Z</time>
      </trkpt>
      <trkpt lat="47.28334" lon="-2.42511">
        <ele>-9.6000003814697</ele>
        <time>2021-07-15T07:40:51.000Z</time>
      </trkpt>
      <trkpt lat="47.28339" lon="-2.42497">
        <ele>-9.6000003814697</ele>
        <time>2021-07-15T07:40:53.000Z</time>
      </trkpt>
      <trkpt lat="47.2836" lon="-2.42446">
        <ele>-9.6000003814697</ele>
        <time>2021-07-15T07:41:00.000Z</time>
      </trkpt>
      <trkpt lat="47.28385" lon="-2.42384">
        <ele>-9.6000003814697</ele>
        <time>2021-07-15T07:41:08.000Z</time>
      </trkpt>
      <trkpt lat="47.28388" lon="-2.42376">
        <ele>-9.6000003814697</ele>
        <time>2021-07-15T07:41:09.000Z</time>
      </trkpt>
      <trkpt lat="47.28389" lon="-2.42349">
        <ele>-9.6000003814697</ele>
        <time>2021-07-15T07:41:12.000Z</time>
      </trkpt>
      <trkpt lat="47.28386" lon="-2.42332">
        <ele>-9.6000003814697</ele>
        <time>2021-07-15T07:41:14.000Z</time>
      </trkpt>
      <trkpt lat="47.28383" lon="-2.42315">
        <ele>-9.6000003814697</ele>
        <time>2021-07-15T07:41:16.000Z</time>
      </trkpt>
      <trkpt lat="47.28381" lon="-2.42298">
        <ele>-9.6000003814697</ele>
        <time>2021-07-15T07:41:18.000Z</time>
      </trkpt>
      <trkpt lat="47.28381" lon="-2.4229">
        <ele>-9.6000003814697</ele>
        <time>2021-07-15T07:41:19.000Z</time>
      </trkpt>
      <trkpt lat="47.28386" lon="-2.42265">
        <ele>-9.6000003814697</ele>
        <time>2021-07-15T07:41:22.000Z</time>
      </trkpt>
      <trkpt lat="47.28399" lon="-2.42201">
        <ele>-9.6000003814697</ele>
        <time>2021-07-15T07:41:30.000Z</time>
      </trkpt>
      <trkpt lat="47.28412" lon="-2.42144">
        <ele>-9.6000003814697</ele>
        <time>2021-07-15T07:41:37.000Z</time>
      </trkpt>
      <trkpt lat="47.28425" lon="-2.4208">
        <ele>-9.6000003814697</ele>
        <time>2021-07-15T07:41:45.000Z</time>
      </trkpt>
      <trkpt lat="47.28439" lon="-2.42011">
        <ele>-9.6000003814697</ele>
        <time>2021-07-15T07:41:54.000Z</time>
      </trkpt>
      <trkpt lat="47.28448" lon="-2.41959">
        <ele>-9.6000003814697</ele>
        <time>2021-07-15T07:42:01.000Z</time>
      </trkpt>
      <trkpt lat="47.28451" lon="-2.41948">
        <ele>-9.6000003814697</ele>
        <time>2021-07-15T07:42:03.000Z</time>
      </trkpt>
      <trkpt lat="47.28459" lon="-2.41944">
        <ele>-9.6000003814697</ele>
        <time>2021-07-15T07:42:05.000Z</time>
      </trkpt>
      <trkpt lat="47.28478" lon="-2.4194">
        <ele>-10.199999809265</ele>
        <time>2021-07-15T07:42:09.000Z</time>
      </trkpt>
      <trkpt lat="47.28481" lon="-2.41939">
        <ele>-10.60000038147</ele>
        <time>2021-07-15T07:42:10.000Z</time>
      </trkpt>
      <trkpt lat="47.28485" lon="-2.41938">
        <ele>-11.199999809265</ele>
        <time>2021-07-15T07:42:11.000Z</time>
      </trkpt>
      <trkpt lat="47.28488" lon="-2.41939">
        <ele>-11.60000038147</ele>
        <time>2021-07-15T07:42:12.000Z</time>
      </trkpt>
      <trkpt lat="47.28491" lon="-2.41939">
        <ele>-12.199999809265</ele>
        <time>2021-07-15T07:42:13.000Z</time>
      </trkpt>
      <trkpt lat="47.28503" lon="-2.41935">
        <ele>-12.199999809265</ele>
        <time>2021-07-15T07:42:19.000Z</time>
      </trkpt>
      <trkpt lat="47.285" lon="-2.41929">
        <ele>-12.199999809265</ele>
        <time>2021-07-15T07:42:22.000Z</time>
      </trkpt>
      <trkpt lat="47.28498" lon="-2.41911">
        <ele>-12.199999809265</ele>
        <time>2021-07-15T07:42:25.000Z</time>
      </trkpt>
      <trkpt lat="47.285" lon="-2.41896">
        <ele>-12.199999809265</ele>
        <time>2021-07-15T07:42:27.000Z</time>
      </trkpt>
      <trkpt lat="47.28503" lon="-2.41872">
        <ele>-12.199999809265</ele>
        <time>2021-07-15T07:42:30.000Z</time>
      </trkpt>
      <trkpt lat="47.28506" lon="-2.41855">
        <ele>-11.39999961853</ele>
        <time>2021-07-15T07:42:32.000Z</time>
      </trkpt>
      <trkpt lat="47.28507" lon="-2.41846">
        <ele>-11</ele>
        <time>2021-07-15T07:42:33.000Z</time>
      </trkpt>
      <trkpt lat="47.28509" lon="-2.41838">
        <ele>-10.39999961853</ele>
        <time>2021-07-15T07:42:34.000Z</time>
      </trkpt>
      <trkpt lat="47.2851" lon="-2.41829">
        <ele>-10</ele>
        <time>2021-07-15T07:42:35.000Z</time>
      </trkpt>
      <trkpt lat="47.28515" lon="-2.41804">
        <ele>-10</ele>
        <time>2021-07-15T07:42:38.000Z</time>
      </trkpt>
      <trkpt lat="47.28526" lon="-2.41746">
        <ele>-10</ele>
        <time>2021-07-15T07:42:45.000Z</time>
      </trkpt>
      <trkpt lat="47.2854" lon="-2.4173">
        <ele>-10</ele>
        <time>2021-07-15T07:42:48.000Z</time>
      </trkpt>
      <trkpt lat="47.28551" lon="-2.41726">
        <ele>-10</ele>
        <time>2021-07-15T07:42:50.000Z</time>
      </trkpt>
      <trkpt lat="47.28556" lon="-2.41725">
        <ele>-10</ele>
        <time>2021-07-15T07:42:51.000Z</time>
      </trkpt>
      <trkpt lat="47.28563" lon="-2.41726">
        <ele>-10</ele>
        <time>2021-07-15T07:42:52.000Z</time>
      </trkpt>
      <trkpt lat="47.28582" lon="-2.41734">
        <ele>-10</ele>
        <time>2021-07-15T07:42:55.000Z</time>
      </trkpt>
      <trkpt lat="47.28588" lon="-2.41738">
        <ele>-10</ele>
        <time>2021-07-15T07:42:56.000Z</time>
      </trkpt>
      <trkpt lat="47.28594" lon="-2.41743">
        <ele>-10</ele>
        <time>2021-07-15T07:42:57.000Z</time>
      </trkpt>
      <trkpt lat="47.28616" lon="-2.41764">
        <ele>-10</ele>
        <time>2021-07-15T07:43:01.000Z</time>
      </trkpt>
      <trkpt lat="47.28653" lon="-2.41802">
        <ele>-10</ele>
        <time>2021-07-15T07:43:08.000Z</time>
      </trkpt>
      <trkpt lat="47.2868" lon="-2.41825">
        <ele>-10</ele>
        <time>2021-07-15T07:43:13.000Z</time>
      </trkpt>
      <trkpt lat="47.2869" lon="-2.41833">
        <ele>-10</ele>
        <time>2021-07-15T07:43:15.000Z</time>
      </trkpt>
      <trkpt lat="47.28705" lon="-2.41846">
        <ele>-10</ele>
        <time>2021-07-15T07:43:18.000Z</time>
      </trkpt>
      <trkpt lat="47.28741" lon="-2.41873">
        <ele>-10</ele>
        <time>2021-07-15T07:43:25.000Z</time>
      </trkpt>
      <trkpt lat="47.28775" lon="-2.41892">
        <ele>-10</ele>
        <time>2021-07-15T07:43:31.000Z</time>
      </trkpt>
      <trkpt lat="47.2878" lon="-2.41898">
        <ele>-10</ele>
        <time>2021-07-15T07:43:32.000Z</time>
      </trkpt>
      <trkpt lat="47.2879" lon="-2.41921">
        <ele>-10</ele>
        <time>2021-07-15T07:43:35.000Z</time>
      </trkpt>
      <trkpt lat="47.28792" lon="-2.41958">
        <ele>-10</ele>
        <time>2021-07-15T07:43:39.000Z</time>
      </trkpt>
      <trkpt lat="47.28793" lon="-2.41978">
        <ele>-10</ele>
        <time>2021-07-15T07:43:41.000Z</time>
      </trkpt>
      <trkpt lat="47.28799" lon="-2.42016">
        <ele>-10</ele>
        <time>2021-07-15T07:43:45.000Z</time>
      </trkpt>
      <trkpt lat="47.28808" lon="-2.4207">
        <ele>-10</ele>
        <time>2021-07-15T07:43:51.000Z</time>
      </trkpt>
      <trkpt lat="47.28803" lon="-2.42108">
        <ele>-10</ele>
        <time>2021-07-15T07:43:56.000Z</time>
      </trkpt>
      <trkpt lat="47.28787" lon="-2.42134">
        <ele>-10</ele>
        <time>2021-07-15T07:44:00.000Z</time>
      </trkpt>
      <trkpt lat="47.28769" lon="-2.42145">
        <ele>-10</ele>
        <time>2021-07-15T07:44:03.000Z</time>
      </trkpt>
      <trkpt lat="47.28757" lon="-2.42153">
        <ele>-10</ele>
        <time>2021-07-15T07:44:05.000Z</time>
      </trkpt>
      <trkpt lat="47.28724" lon="-2.4218">
        <ele>-10</ele>
        <time>2021-07-15T07:44:11.000Z</time>
      </trkpt>
      <trkpt lat="47.28704" lon="-2.42201">
        <ele>-10</ele>
        <time>2021-07-15T07:44:15.000Z</time>
      </trkpt>
      <trkpt lat="47.287" lon="-2.42207">
        <ele>-10</ele>
        <time>2021-07-15T07:44:16.000Z</time>
      </trkpt>
      <trkpt lat="47.28689" lon="-2.42239">
        <ele>-10</ele>
        <time>2021-07-15T07:44:20.000Z</time>
      </trkpt>
      <trkpt lat="47.28677" lon="-2.42301">
        <ele>-10</ele>
        <time>2021-07-15T07:44:27.000Z</time>
      </trkpt>
      <trkpt lat="47.28669" lon="-2.42353">
        <ele>-10</ele>
        <time>2021-07-15T07:44:33.000Z</time>
      </trkpt>
      <trkpt lat="47.28667" lon="-2.42379">
        <ele>-10</ele>
        <time>2021-07-15T07:44:36.000Z</time>
      </trkpt>
      <trkpt lat="47.28661" lon="-2.42393">
        <ele>-10</ele>
        <time>2021-07-15T07:44:38.000Z</time>
      </trkpt>
      <trkpt lat="47.28644" lon="-2.42415">
        <ele>-10</ele>
        <time>2021-07-15T07:44:42.000Z</time>
      </trkpt>
      <trkpt lat="47.2864" lon="-2.4242">
        <ele>-10</ele>
        <time>2021-07-15T07:44:43.000Z</time>
      </trkpt>
      <trkpt lat="47.28625" lon="-2.42435">
        <ele>-10</ele>
        <time>2021-07-15T07:44:46.000Z</time>
      </trkpt>
      <trkpt lat="47.28614" lon="-2.42443">
        <ele>-10</ele>
        <time>2021-07-15T07:44:48.000Z</time>
      </trkpt>
      <trkpt lat="47.28585" lon="-2.42475">
        <ele>-10</ele>
        <time>2021-07-15T07:44:54.000Z</time>
      </trkpt>
      <trkpt lat="47.28568" lon="-2.42511">
        <ele>-10</ele>
        <time>2021-07-15T07:44:59.000Z</time>
      </trkpt>
      <trkpt lat="47.28564" lon="-2.42556">
        <ele>-10</ele>
        <time>2021-07-15T07:45:04.000Z</time>
      </trkpt>
      <trkpt lat="47.28576" lon="-2.42589">
        <ele>-10</ele>
        <time>2021-07-15T07:45:08.000Z</time>
      </trkpt>
      <trkpt lat="47.2858" lon="-2.42596">
        <ele>-10</ele>
        <time>2021-07-15T07:45:09.000Z</time>
      </trkpt>
      <trkpt lat="47.28585" lon="-2.42602">
        <ele>-10</ele>
        <time>2021-07-15T07:45:10.000Z</time>
      </trkpt>
      <trkpt lat="47.28601" lon="-2.42618">
        <ele>-10</ele>
        <time>2021-07-15T07:45:13.000Z</time>
      </trkpt>
      <trkpt lat="47.28635" lon="-2.42646">
        <ele>-10</ele>
        <time>2021-07-15T07:45:19.000Z</time>
      </trkpt>
      <trkpt lat="47.28641" lon="-2.42649">
        <ele>-10</ele>
        <time>2021-07-15T07:45:20.000Z</time>
      </trkpt>
      <trkpt lat="47.28658" lon="-2.42653">
        <ele>-10</ele>
        <time>2021-07-15T07:45:23.000Z</time>
      </trkpt>
      <trkpt lat="47.28685" lon="-2.42658">
        <ele>-10</ele>
        <time>2021-07-15T07:45:28.000Z</time>
      </trkpt>
      <trkpt lat="47.28695" lon="-2.4266">
        <ele>-10</ele>
        <time>2021-07-15T07:45:30.000Z</time>
      </trkpt>
      <trkpt lat="47.28705" lon="-2.42664">
        <ele>-10</ele>
        <time>2021-07-15T07:45:32.000Z</time>
      </trkpt>
      <trkpt lat="47.28718" lon="-2.42675">
        <ele>-10</ele>
        <time>2021-07-15T07:45:35.000Z</time>
      </trkpt>
      <trkpt lat="47.2872" lon="-2.42696">
        <ele>-10</ele>
        <time>2021-07-15T07:45:38.000Z</time>
      </trkpt>
      <trkpt lat="47.28719" lon="-2.42726">
        <ele>-10</ele>
        <time>2021-07-15T07:45:42.000Z</time>
      </trkpt>
      <trkpt lat="47.28717" lon="-2.42741">
        <ele>-10</ele>
        <time>2021-07-15T07:45:44.000Z</time>
      </trkpt>
      <trkpt lat="47.28709" lon="-2.4277">
        <ele>-10</ele>
        <time>2021-07-15T07:45:48.000Z</time>
      </trkpt>
      <trkpt lat="47.28706" lon="-2.42777">
        <ele>-10</ele>
        <time>2021-07-15T07:45:49.000Z</time>
      </trkpt>
      <trkpt lat="47.28695" lon="-2.42798">
        <ele>-10</ele>
        <time>2021-07-15T07:45:52.000Z</time>
      </trkpt>
      <trkpt lat="47.28688" lon="-2.42811">
        <ele>-10</ele>
        <time>2021-07-15T07:45:54.000Z</time>
      </trkpt>
      <trkpt lat="47.28676" lon="-2.4284">
        <ele>-10</ele>
        <time>2021-07-15T07:45:58.000Z</time>
      </trkpt>
      <trkpt lat="47.28674" lon="-2.42848">
        <ele>-10</ele>
        <time>2021-07-15T07:45:59.000Z</time>
      </trkpt>
      <trkpt lat="47.28667" lon="-2.42897">
        <ele>-10</ele>
        <time>2021-07-15T07:46:05.000Z</time>
      </trkpt>
      <trkpt lat="47.2866" lon="-2.42964">
        <ele>-10</ele>
        <time>2021-07-15T07:46:13.000Z</time>
      </trkpt>
      <trkpt lat="47.28651" lon="-2.43012">
        <ele>-10</ele>
        <time>2021-07-15T07:46:19.000Z</time>
      </trkpt>
      <trkpt lat="47.28644" lon="-2.43052">
        <ele>-10</ele>
        <time>2021-07-15T07:46:24.000Z</time>
      </trkpt>
      <trkpt lat="47.28641" lon="-2.43067">
        <ele>-10</ele>
        <time>2021-07-15T07:46:26.000Z</time>
      </trkpt>
      <trkpt lat="47.28639" lon="-2.43075">
        <ele>-10</ele>
        <time>2021-07-15T07:46:27.000Z</time>
      </trkpt>
      <trkpt lat="47.28629" lon="-2.43108">
        <ele>-10</ele>
        <time>2021-07-15T07:46:31.000Z</time>
      </trkpt>
      <trkpt lat="47.28627" lon="-2.43117">
        <ele>-10</ele>
        <time>2021-07-15T07:46:32.000Z</time>
      </trkpt>
      <trkpt lat="47.28624" lon="-2.43144">
        <ele>-10</ele>
        <time>2021-07-15T07:46:35.000Z</time>
      </trkpt>
      <trkpt lat="47.28623" lon="-2.43154">
        <ele>-10</ele>
        <time>2021-07-15T07:46:36.000Z</time>
      </trkpt>
      <trkpt lat="47.28625" lon="-2.43179">
        <ele>-10</ele>
        <time>2021-07-15T07:46:39.000Z</time>
      </trkpt>
      <trkpt lat="47.28627" lon="-2.43187">
        <ele>-10</ele>
        <time>2021-07-15T07:46:40.000Z</time>
      </trkpt>
      <trkpt lat="47.28636" lon="-2.43215">
        <ele>-10</ele>
        <time>2021-07-15T07:46:44.000Z</time>
      </trkpt>
      <trkpt lat="47.28643" lon="-2.43228">
        <ele>-10</ele>
        <time>2021-07-15T07:46:46.000Z</time>
      </trkpt>
      <trkpt lat="47.28648" lon="-2.43238">
        <ele>-10</ele>
        <time>2021-07-15T07:46:48.000Z</time>
      </trkpt>
      <trkpt lat="47.28648" lon="-2.43243">
        <ele>-10</ele>
        <time>2021-07-15T07:46:49.000Z</time>
      </trkpt>
      <trkpt lat="47.28643" lon="-2.43249">
        <ele>-10</ele>
        <time>2021-07-15T07:46:51.000Z</time>
      </trkpt>
      <trkpt lat="47.28635" lon="-2.43253">
        <ele>-10.39999961853</ele>
        <time>2021-07-15T07:46:53.000Z</time>
      </trkpt>
      <trkpt lat="47.2863" lon="-2.43254">
        <ele>-10.800000190735</ele>
        <time>2021-07-15T07:46:54.000Z</time>
      </trkpt>
      <trkpt lat="47.28625" lon="-2.43256">
        <ele>-11.199999809265</ele>
        <time>2021-07-15T07:46:55.000Z</time>
      </trkpt>
      <trkpt lat="47.28621" lon="-2.43257">
        <ele>-11.60000038147</ele>
        <time>2021-07-15T07:46:56.000Z</time>
      </trkpt>
      <trkpt lat="47.28616" lon="-2.43258">
        <ele>-12</ele>
        <time>2021-07-15T07:46:57.000Z</time>
      </trkpt>
      <trkpt lat="47.286" lon="-2.43257">
        <ele>-12</ele>
        <time>2021-07-15T07:47:01.000Z</time>
      </trkpt>
      <trkpt lat="47.28594" lon="-2.43239">
        <ele>-12</ele>
        <time>2021-07-15T07:47:04.000Z</time>
      </trkpt>
      <trkpt lat="47.28592" lon="-2.43217">
        <ele>-12</ele>
        <time>2021-07-15T07:47:07.000Z</time>
      </trkpt>
      <trkpt lat="47.28592" lon="-2.43209">
        <ele>-12</ele>
        <time>2021-07-15T07:47:08.000Z</time>
      </trkpt>
      <trkpt lat="47.28593" lon="-2.4316">
        <ele>-12</ele>
        <time>2021-07-15T07:47:14.000Z</time>
      </trkpt>
      <trkpt lat="47.28591" lon="-2.43152">
        <ele>-12</ele>
        <time>2021-07-15T07:47:15.000Z</time>
      </trkpt>
      <trkpt lat="47.28578" lon="-2.43107">
        <ele>-12</ele>
        <time>2021-07-15T07:47:21.000Z</time>
      </trkpt>
      <trkpt lat="47.2856" lon="-2.43076">
        <ele>-12</ele>
        <time>2021-07-15T07:47:26.000Z</time>
      </trkpt>
      <trkpt lat="47.28549" lon="-2.43059">
        <ele>-12</ele>
        <time>2021-07-15T07:47:29.000Z</time>
      </trkpt>
      <trkpt lat="47.28537" lon="-2.43043">
        <ele>-12</ele>
        <time>2021-07-15T07:47:32.000Z</time>
      </trkpt>
      <trkpt lat="47.28533" lon="-2.4304">
        <ele>-12</ele>
        <time>2021-07-15T07:47:33.000Z</time>
      </trkpt>
      <trkpt lat="47.28517" lon="-2.43032">
        <ele>-12</ele>
        <time>2021-07-15T07:47:36.000Z</time>
      </trkpt>
      <trkpt lat="47.28513" lon="-2.4303">
        <ele>-12</ele>
        <time>2021-07-15T07:47:37.000Z</time>
      </trkpt>
      <trkpt lat="47.28497" lon="-2.43025">
        <ele>-12</ele>
        <time>2021-07-15T07:47:40.000Z</time>
      </trkpt>
      <trkpt lat="47.28487" lon="-2.43026">
        <ele>-12</ele>
        <time>2021-07-15T07:47:42.000Z</time>
      </trkpt>
      <trkpt lat="47.28469" lon="-2.43041">
        <ele>-12</ele>
        <time>2021-07-15T07:47:46.000Z</time>
      </trkpt>
      <trkpt lat="47.28463" lon="-2.43054">
        <ele>-12</ele>
        <time>2021-07-15T07:47:48.000Z</time>
      </trkpt>
      <trkpt lat="47.28456" lon="-2.43066">
        <ele>-12</ele>
        <time>2021-07-15T07:47:50.000Z</time>
      </trkpt>
      <trkpt lat="47.28448" lon="-2.43077">
        <ele>-12</ele>
        <time>2021-07-15T07:47:52.000Z</time>
      </trkpt>
      <trkpt lat="47.28435" lon="-2.43093">
        <ele>-12</ele>
        <time>2021-07-15T07:47:55.000Z</time>
      </trkpt>
      <trkpt lat="47.2841" lon="-2.43131">
        <ele>-12</ele>
        <time>2021-07-15T07:48:02.000Z</time>
      </trkpt>
      <trkpt lat="47.28388" lon="-2.43162">
        <ele>-12</ele>
        <time>2021-07-15T07:48:08.000Z</time>
      </trkpt>
      <trkpt lat="47.28363" lon="-2.43188">
        <ele>-12</ele>
        <time>2021-07-15T07:48:14.000Z</time>
      </trkpt>
      <trkpt lat="47.28331" lon="-2.43226">
        <ele>-12</ele>
        <time>2021-07-15T07:48:22.000Z</time>
      </trkpt>
      <trkpt lat="47.28314" lon="-2.43252">
        <ele>-12</ele>
        <time>2021-07-15T07:48:27.000Z</time>
      </trkpt>
      <trkpt lat="47.28307" lon="-2.43261">
        <ele>-12</ele>
        <time>2021-07-15T07:48:29.000Z</time>
      </trkpt>
      <trkpt lat="47.28298" lon="-2.43266">
        <ele>-12</ele>
        <time>2021-07-15T07:48:32.000Z</time>
      </trkpt>
      <trkpt lat="47.28292" lon="-2.43251">
        <ele>-12</ele>
        <time>2021-07-15T07:48:35.000Z</time>
      </trkpt>
      <trkpt lat="47.28294" lon="-2.43224">
        <ele>-12</ele>
        <time>2021-07-15T07:48:39.000Z</time>
      </trkpt>
      <trkpt lat="47.28295" lon="-2.43217">
        <ele>-12</ele>
        <time>2021-07-15T07:48:40.000Z</time>
      </trkpt>
      <trkpt lat="47.28301" lon="-2.43178">
        <ele>-12</ele>
        <time>2021-07-15T07:48:45.000Z</time>
      </trkpt>
      <trkpt lat="47.28309" lon="-2.43127">
        <ele>-12</ele>
        <time>2021-07-15T07:48:52.000Z</time>
      </trkpt>
      <trkpt lat="47.28315" lon="-2.43113">
        <ele>-12</ele>
        <time>2021-07-15T07:48:55.000Z</time>
      </trkpt>
      <trkpt lat="47.28317" lon="-2.43111">
        <ele>-12</ele>
        <time>2021-07-15T07:48:56.000Z</time>
      </trkpt>
      <trkpt lat="47.28322" lon="-2.43104">
        <ele>-12</ele>
        <time>2021-07-15T07:49:00.000Z</time>
      </trkpt>
      <trkpt lat="47.28317" lon="-2.43098">
        <ele>-12</ele>
        <time>2021-07-15T07:49:05.000Z</time>
      </trkpt>
      <trkpt lat="47.28312" lon="-2.43115">
        <ele>-12</ele>
        <time>2021-07-15T07:49:09.000Z</time>
      </trkpt>
      <trkpt lat="47.28304" lon="-2.43156">
        <ele>-12</ele>
        <time>2021-07-15T07:49:16.000Z</time>
      </trkpt>
      <trkpt lat="47.28298" lon="-2.43187">
        <ele>-12</ele>
        <time>2021-07-15T07:49:22.000Z</time>
      </trkpt>
      <trkpt lat="47.28291" lon="-2.43231">
        <ele>-12</ele>
        <time>2021-07-15T07:49:29.000Z</time>
      </trkpt>
      <trkpt lat="47.28281" lon="-2.43292">
        <ele>-12</ele>
        <time>2021-07-15T07:49:39.000Z</time>
      </trkpt>
      <trkpt lat="47.28274" lon="-2.43336">
        <ele>-12</ele>
        <time>2021-07-15T07:49:47.000Z</time>
      </trkpt>
      <trkpt lat="47.28264" lon="-2.43381">
        <ele>-12</ele>
        <time>2021-07-15T07:49:55.000Z</time>
      </trkpt>
      <trkpt lat="47.28252" lon="-2.43384">
        <ele>-12</ele>
        <time>2021-07-15T07:49:58.000Z</time>
      </trkpt>
      <trkpt lat="47.28239" lon="-2.43376">
        <ele>-12</ele>
        <time>2021-07-15T07:50:01.000Z</time>
      </trkpt>
      <trkpt lat="47.28235" lon="-2.43373">
        <ele>-12</ele>
        <time>2021-07-15T07:50:02.000Z</time>
      </trkpt>
      <trkpt lat="47.2823" lon="-2.4337">
        <ele>-12</ele>
        <time>2021-07-15T07:50:03.000Z</time>
      </trkpt>
      <trkpt lat="47.28222" lon="-2.43364">
        <ele>-12</ele>
        <time>2021-07-15T07:50:05.000Z</time>
      </trkpt>
      <trkpt lat="47.28215" lon="-2.43356">
        <ele>-12</ele>
        <time>2021-07-15T07:50:07.000Z</time>
      </trkpt>
      <trkpt lat="47.28206" lon="-2.43339">
        <ele>-12</ele>
        <time>2021-07-15T07:50:10.000Z</time>
      </trkpt>
      <trkpt lat="47.28202" lon="-2.43337">
        <ele>-12</ele>
        <time>2021-07-15T07:50:11.000Z</time>
      </trkpt>
      <trkpt lat="47.28191" lon="-2.43339">
        <ele>-12</ele>
        <time>2021-07-15T07:50:15.000Z</time>
      </trkpt>
      <trkpt lat="47.28189" lon="-2.4334">
        <ele>-12</ele>
        <time>2021-07-15T07:50:16.000Z</time>
      </trkpt>
      <trkpt lat="47.28182" lon="-2.43339">
        <ele>-12</ele>
        <time>2021-07-15T07:50:19.000Z</time>
      </trkpt>
      <trkpt lat="47.28179" lon="-2.43337">
        <ele>-12</ele>
        <time>2021-07-15T07:50:20.000Z</time>
      </trkpt>
      <trkpt lat="47.2817" lon="-2.4334">
        <ele>-12</ele>
        <time>2021-07-15T07:50:23.000Z</time>
      </trkpt>
      <trkpt lat="47.2816" lon="-2.43356">
        <ele>-12</ele>
        <time>2021-07-15T07:50:26.000Z</time>
      </trkpt>
      <trkpt lat="47.28156" lon="-2.43362">
        <ele>-12</ele>
        <time>2021-07-15T07:50:27.000Z</time>
      </trkpt>
      <trkpt lat="47.28131" lon="-2.434">
        <ele>-12</ele>
        <time>2021-07-15T07:50:33.000Z</time>
      </trkpt>
      <trkpt lat="47.2809" lon="-2.4346">
        <ele>-12</ele>
        <time>2021-07-15T07:50:42.000Z</time>
      </trkpt>
      <trkpt lat="47.28053" lon="-2.43515">
        <ele>-12</ele>
        <time>2021-07-15T07:50:50.000Z</time>
      </trkpt>
      <trkpt lat="47.2801" lon="-2.43576">
        <ele>-12</ele>
        <time>2021-07-15T07:50:59.000Z</time>
      </trkpt>
      <trkpt lat="47.28005" lon="-2.43583">
        <ele>-12</ele>
        <time>2021-07-15T07:51:00.000Z</time>
      </trkpt>
      <trkpt lat="47.27969" lon="-2.43635">
        <ele>-12</ele>
        <time>2021-07-15T07:51:08.000Z</time>
      </trkpt>
      <trkpt lat="47.27942" lon="-2.43676">
        <ele>-12</ele>
        <time>2021-07-15T07:51:14.000Z</time>
      </trkpt>
      <trkpt lat="47.27903" lon="-2.43726">
        <ele>-12</ele>
        <time>2021-07-15T07:51:22.000Z</time>
      </trkpt>
      <trkpt lat="47.27868" lon="-2.43763">
        <ele>-12</ele>
        <time>2021-07-15T07:51:29.000Z</time>
      </trkpt>
      <trkpt lat="47.27834" lon="-2.4379">
        <ele>-12</ele>
        <time>2021-07-15T07:51:36.000Z</time>
      </trkpt>
      <trkpt lat="47.27816" lon="-2.438">
        <ele>-12</ele>
        <time>2021-07-15T07:51:40.000Z</time>
      </trkpt>
      <trkpt lat="47.27807" lon="-2.43801">
        <ele>-12</ele>
        <time>2021-07-15T07:51:42.000Z</time>
      </trkpt>
      <trkpt lat="47.27793" lon="-2.43794">
        <ele>-12</ele>
        <time>2021-07-15T07:51:46.000Z</time>
      </trkpt>
      <trkpt lat="47.27789" lon="-2.43793">
        <ele>-12</ele>
        <time>2021-07-15T07:51:47.000Z</time>
      </trkpt>
      <trkpt lat="47.27777" lon="-2.43788">
        <ele>-12</ele>
        <time>2021-07-15T07:51:50.000Z</time>
      </trkpt>
      <trkpt lat="47.27774" lon="-2.43789">
        <ele>-12</ele>
        <time>2021-07-15T07:51:51.000Z</time>
      </trkpt>
      <trkpt lat="47.27762" lon="-2.43799">
        <ele>-12</ele>
        <time>2021-07-15T07:51:54.000Z</time>
      </trkpt>
      <trkpt lat="47.27746" lon="-2.43817">
        <ele>-12</ele>
        <time>2021-07-15T07:51:58.000Z</time>
      </trkpt>
      <trkpt lat="47.27735" lon="-2.43821">
        <ele>-12</ele>
        <time>2021-07-15T07:52:00.000Z</time>
      </trkpt>
      <trkpt lat="47.27697" lon="-2.43828">
        <ele>-12</ele>
        <time>2021-07-15T07:52:07.000Z</time>
      </trkpt>
      <trkpt lat="47.27664" lon="-2.43837">
        <ele>-12</ele>
        <time>2021-07-15T07:52:13.000Z</time>
      </trkpt>
      <trkpt lat="47.27631" lon="-2.43849">
        <ele>-12</ele>
        <time>2021-07-15T07:52:19.000Z</time>
      </trkpt>
      <trkpt lat="47.27582" lon="-2.43871">
        <ele>-12</ele>
        <time>2021-07-15T07:52:28.000Z</time>
      </trkpt>
      <trkpt lat="47.27555" lon="-2.43883">
        <ele>-12</ele>
        <time>2021-07-15T07:52:34.000Z</time>
      </trkpt>
      <trkpt lat="47.27536" lon="-2.43893">
        <ele>-12</ele>
        <time>2021-07-15T07:52:38.000Z</time>
      </trkpt>
      <trkpt lat="47.27527" lon="-2.43897">
        <ele>-12</ele>
        <time>2021-07-15T07:52:40.000Z</time>
      </trkpt>
      <trkpt lat="47.2751" lon="-2.43905">
        <ele>-12</ele>
        <time>2021-07-15T07:52:45.000Z</time>
      </trkpt>
      <trkpt lat="47.27489" lon="-2.43914">
        <ele>-12</ele>
        <time>2021-07-15T07:52:51.000Z</time>
      </trkpt>
      <trkpt lat="47.27465" lon="-2.43924">
        <ele>-12</ele>
        <time>2021-07-15T07:52:56.000Z</time>
      </trkpt>
      <trkpt lat="47.27461" lon="-2.43925">
        <ele>-12</ele>
        <time>2021-07-15T07:52:57.000Z</time>
      </trkpt>
      <trkpt lat="47.27441" lon="-2.43932">
        <ele>-12</ele>
        <time>2021-07-15T07:53:01.000Z</time>
      </trkpt>
      <trkpt lat="47.27413" lon="-2.43945">
        <ele>-12</ele>
        <time>2021-07-15T07:53:08.000Z</time>
      </trkpt>
      <trkpt lat="47.27394" lon="-2.43954">
        <ele>-12</ele>
        <time>2021-07-15T07:53:13.000Z</time>
      </trkpt>
      <trkpt lat="47.27366" lon="-2.43968">
        <ele>-12</ele>
        <time>2021-07-15T07:53:20.000Z</time>
      </trkpt>
      <trkpt lat="47.27331" lon="-2.43982">
        <ele>-12</ele>
        <time>2021-07-15T07:53:28.000Z</time>
      </trkpt>
      <trkpt lat="47.27313" lon="-2.43985">
        <ele>-12</ele>
        <time>2021-07-15T07:53:33.000Z</time>
      </trkpt>
      <trkpt lat="47.27306" lon="-2.43985">
        <ele>-12</ele>
        <time>2021-07-15T07:53:36.000Z</time>
      </trkpt>
      <trkpt lat="47.27305" lon="-2.43988">
        <ele>-12</ele>
        <time>2021-07-15T07:53:37.000Z</time>
      </trkpt>
      <trkpt lat="47.27306" lon="-2.44003">
        <ele>-12</ele>
        <time>2021-07-15T07:53:41.000Z</time>
      </trkpt>
      <trkpt lat="47.27303" lon="-2.44026">
        <ele>-12</ele>
        <time>2021-07-15T07:53:45.000Z</time>
      </trkpt>
      <trkpt lat="47.27303" lon="-2.44033">
        <ele>-12</ele>
        <time>2021-07-15T07:53:46.000Z</time>
      </trkpt>
      <trkpt lat="47.27308" lon="-2.44057">
        <ele>-12</ele>
        <time>2021-07-15T07:53:50.000Z</time>
      </trkpt>
      <trkpt lat="47.27312" lon="-2.44083">
        <ele>-12</ele>
        <time>2021-07-15T07:53:55.000Z</time>
      </trkpt>
      <trkpt lat="47.2732" lon="-2.44131">
        <ele>-12</ele>
        <time>2021-07-15T07:54:02.000Z</time>
      </trkpt>
      <trkpt lat="47.2733" lon="-2.44182">
        <ele>-12</ele>
        <time>2021-07-15T07:54:09.000Z</time>
      </trkpt>
      <trkpt lat="47.27339" lon="-2.44184">
        <ele>-12</ele>
        <time>2021-07-15T07:54:11.000Z</time>
      </trkpt>
      <trkpt lat="47.27361" lon="-2.44174">
        <ele>-12</ele>
        <time>2021-07-15T07:54:15.000Z</time>
      </trkpt>
      <trkpt lat="47.27377" lon="-2.44165">
        <ele>-11.60000038147</ele>
        <time>2021-07-15T07:54:18.000Z</time>
      </trkpt>
      <trkpt lat="47.27382" lon="-2.44162">
        <ele>-11.199999809265</ele>
        <time>2021-07-15T07:54:19.000Z</time>
      </trkpt>
      <trkpt lat="47.27387" lon="-2.44158">
        <ele>-10.800000190735</ele>
        <time>2021-07-15T07:54:20.000Z</time>
      </trkpt>
      <trkpt lat="47.27392" lon="-2.44155">
        <ele>-10.39999961853</ele>
        <time>2021-07-15T07:54:21.000Z</time>
      </trkpt>
      <trkpt lat="47.27397" lon="-2.44151">
        <ele>-10</ele>
        <time>2021-07-15T07:54:22.000Z</time>
      </trkpt>
      <trkpt lat="47.27402" lon="-2.4415">
        <ele>-10</ele>
        <time>2021-07-15T07:54:23.000Z</time>
      </trkpt>
      <trkpt lat="47.2741" lon="-2.44159">
        <ele>-10</ele>
        <time>2021-07-15T07:54:25.000Z</time>
      </trkpt>
      <trkpt lat="47.27413" lon="-2.44183">
        <ele>-10</ele>
        <time>2021-07-15T07:54:28.000Z</time>
      </trkpt>
      <trkpt lat="47.27421" lon="-2.44243">
        <ele>-10</ele>
        <time>2021-07-15T07:54:35.000Z</time>
      </trkpt>
      <trkpt lat="47.27423" lon="-2.44262">
        <ele>-10.39999961853</ele>
        <time>2021-07-15T07:54:37.000Z</time>
      </trkpt>
      <trkpt lat="47.27425" lon="-2.44272">
        <ele>-11</ele>
        <time>2021-07-15T07:54:38.000Z</time>
      </trkpt>
      <trkpt lat="47.27426" lon="-2.44282">
        <ele>-11.39999961853</ele>
        <time>2021-07-15T07:54:39.000Z</time>
      </trkpt>
      <trkpt lat="47.27426" lon="-2.44292">
        <ele>-11.800000190735</ele>
        <time>2021-07-15T07:54:40.000Z</time>
      </trkpt>
      <trkpt lat="47.27427" lon="-2.44302">
        <ele>-12.199999809265</ele>
        <time>2021-07-15T07:54:41.000Z</time>
      </trkpt>
      <trkpt lat="47.27434" lon="-2.44363">
        <ele>-12.199999809265</ele>
        <time>2021-07-15T07:54:47.000Z</time>
      </trkpt>
      <trkpt lat="47.27439" lon="-2.4443">
        <ele>-12.199999809265</ele>
        <time>2021-07-15T07:54:54.000Z</time>
      </trkpt>
      <trkpt lat="47.2744" lon="-2.44489">
        <ele>-12.199999809265</ele>
        <time>2021-07-15T07:55:00.000Z</time>
      </trkpt>
      <trkpt lat="47.27442" lon="-2.44507">
        <ele>-12.199999809265</ele>
        <time>2021-07-15T07:55:02.000Z</time>
      </trkpt>
      <trkpt lat="47.2745" lon="-2.44533">
        <ele>-12.199999809265</ele>
        <time>2021-07-15T07:55:05.000Z</time>
      </trkpt>
      <trkpt lat="47.27451" lon="-2.4456">
        <ele>-12.199999809265</ele>
        <time>2021-07-15T07:55:08.000Z</time>
      </trkpt>
      <trkpt lat="47.27451" lon="-2.44569">
        <ele>-12.199999809265</ele>
        <time>2021-07-15T07:55:09.000Z</time>
      </trkpt>
      <trkpt lat="47.27453" lon="-2.44595">
        <ele>-12.199999809265</ele>
        <time>2021-07-15T07:55:12.000Z</time>
      </trkpt>
      <trkpt lat="47.27458" lon="-2.44612">
        <ele>-12.199999809265</ele>
        <time>2021-07-15T07:55:14.000Z</time>
      </trkpt>
      <trkpt lat="47.27469" lon="-2.44634">
        <ele>-12.199999809265</ele>
        <time>2021-07-15T07:55:17.000Z</time>
      </trkpt>
      <trkpt lat="47.27473" lon="-2.44642">
        <ele>-12.199999809265</ele>
        <time>2021-07-15T07:55:18.000Z</time>
      </trkpt>
      <trkpt lat="47.27502" lon="-2.44692">
        <ele>-12.199999809265</ele>
        <time>2021-07-15T07:55:25.000Z</time>
      </trkpt>
      <trkpt lat="47.2751" lon="-2.44707">
        <ele>-12.199999809265</ele>
        <time>2021-07-15T07:55:27.000Z</time>
      </trkpt>
      <trkpt lat="47.27518" lon="-2.44731">
        <ele>-12.199999809265</ele>
        <time>2021-07-15T07:55:30.000Z</time>
      </trkpt>
      <trkpt lat="47.27532" lon="-2.44796">
        <ele>-12.199999809265</ele>
        <time>2021-07-15T07:55:38.000Z</time>
      </trkpt>
      <trkpt lat="47.27534" lon="-2.4481">
        <ele>-12.199999809265</ele>
        <time>2021-07-15T07:55:40.000Z</time>
      </trkpt>
      <trkpt lat="47.27531" lon="-2.44823">
        <ele>-12.199999809265</ele>
        <time>2021-07-15T07:55:42.000Z</time>
      </trkpt>
      <trkpt lat="47.27517" lon="-2.44835">
        <ele>-12.199999809265</ele>
        <time>2021-07-15T07:55:45.000Z</time>
      </trkpt>
      <trkpt lat="47.27505" lon="-2.44848">
        <ele>-12.199999809265</ele>
        <time>2021-07-15T07:55:48.000Z</time>
      </trkpt>
      <trkpt lat="47.27502" lon="-2.44862">
        <ele>-12.199999809265</ele>
        <time>2021-07-15T07:55:50.000Z</time>
      </trkpt>
      <trkpt lat="47.27505" lon="-2.44886">
        <ele>-12.199999809265</ele>
        <time>2021-07-15T07:55:53.000Z</time>
      </trkpt>
      <trkpt lat="47.27506" lon="-2.44894">
        <ele>-12.199999809265</ele>
        <time>2021-07-15T07:55:54.000Z</time>
      </trkpt>
      <trkpt lat="47.27515" lon="-2.44939">
        <ele>-12.199999809265</ele>
        <time>2021-07-15T07:56:00.000Z</time>
      </trkpt>
      <trkpt lat="47.27528" lon="-2.44974">
        <ele>-12.199999809265</ele>
        <time>2021-07-15T07:56:06.000Z</time>
      </trkpt>
      <trkpt lat="47.27545" lon="-2.45021">
        <ele>-12.199999809265</ele>
        <time>2021-07-15T07:56:13.000Z</time>
      </trkpt>
      <trkpt lat="47.2757" lon="-2.45074">
        <ele>-12.199999809265</ele>
        <time>2021-07-15T07:56:21.000Z</time>
      </trkpt>
      <trkpt lat="47.27591" lon="-2.45121">
        <ele>-12.199999809265</ele>
        <time>2021-07-15T07:56:27.000Z</time>
      </trkpt>
      <trkpt lat="47.27599" lon="-2.45173">
        <ele>-12.199999809265</ele>
        <time>2021-07-15T07:56:33.000Z</time>
      </trkpt>
      <trkpt lat="47.27607" lon="-2.45236">
        <ele>-12.199999809265</ele>
        <time>2021-07-15T07:56:40.000Z</time>
      </trkpt>
      <trkpt lat="47.27612" lon="-2.45301">
        <ele>-12.199999809265</ele>
        <time>2021-07-15T07:56:47.000Z</time>
      </trkpt>
      <trkpt lat="47.27617" lon="-2.45351">
        <ele>-12.199999809265</ele>
        <time>2021-07-15T07:56:53.000Z</time>
      </trkpt>
      <trkpt lat="47.27611" lon="-2.45364">
        <ele>-12.199999809265</ele>
        <time>2021-07-15T07:56:56.000Z</time>
      </trkpt>
      <trkpt lat="47.27596" lon="-2.45367">
        <ele>-12.199999809265</ele>
        <time>2021-07-15T07:56:59.000Z</time>
      </trkpt>
      <trkpt lat="47.27565" lon="-2.45375">
        <ele>-12.199999809265</ele>
        <time>2021-07-15T07:57:04.000Z</time>
      </trkpt>
      <trkpt lat="47.27511" lon="-2.45398">
        <ele>-11.800000190735</ele>
        <time>2021-07-15T07:57:13.000Z</time>
      </trkpt>
      <trkpt lat="47.27505" lon="-2.45399">
        <ele>-11.39999961853</ele>
        <time>2021-07-15T07:57:14.000Z</time>
      </trkpt>
      <trkpt lat="47.27499" lon="-2.454">
        <ele>-11</ele>
        <time>2021-07-15T07:57:15.000Z</time>
      </trkpt>
      <trkpt lat="47.27494" lon="-2.45401">
        <ele>-10.60000038147</ele>
        <time>2021-07-15T07:57:16.000Z</time>
      </trkpt>
      <trkpt lat="47.27489" lon="-2.45403">
        <ele>-10.199999809265</ele>
        <time>2021-07-15T07:57:17.000Z</time>
      </trkpt>
      <trkpt lat="47.27486" lon="-2.45407">
        <ele>-10.199999809265</ele>
        <time>2021-07-15T07:57:18.000Z</time>
      </trkpt>
      <trkpt lat="47.27486" lon="-2.45419">
        <ele>-10.199999809265</ele>
        <time>2021-07-15T07:57:20.000Z</time>
      </trkpt>
      <trkpt lat="47.27491" lon="-2.45454">
        <ele>-10.199999809265</ele>
        <time>2021-07-15T07:57:25.000Z</time>
      </trkpt>
      <trkpt lat="47.27493" lon="-2.45469">
        <ele>-10.199999809265</ele>
        <time>2021-07-15T07:57:27.000Z</time>
      </trkpt>
      <trkpt lat="47.27487" lon="-2.4548">
        <ele>-10.199999809265</ele>
        <time>2021-07-15T07:57:29.000Z</time>
      </trkpt>
      <trkpt lat="47.27473" lon="-2.45492">
        <ele>-10.199999809265</ele>
        <time>2021-07-15T07:57:32.000Z</time>
      </trkpt>
      <trkpt lat="47.27469" lon="-2.45495">
        <ele>-10.199999809265</ele>
        <time>2021-07-15T07:57:33.000Z</time>
      </trkpt>
      <trkpt lat="47.27456" lon="-2.45501">
        <ele>-10.199999809265</ele>
        <time>2021-07-15T07:57:37.000Z</time>
      </trkpt>
      <trkpt lat="47.27456" lon="-2.45501">
        <ele>-10.199999809265</ele>
        <time>2021-07-15T07:57:39.000Z</time>
      </trkpt>
      <trkpt lat="47.27454" lon="-2.45503">
        <ele>-10.199999809265</ele>
        <time>2021-07-15T07:57:47.000Z</time>
      </trkpt>
      <trkpt lat="47.27442" lon="-2.4551">
        <ele>-10.199999809265</ele>
        <time>2021-07-15T07:57:54.000Z</time>
      </trkpt>
      <trkpt lat="47.27436" lon="-2.45515">
        <ele>-10.199999809265</ele>
        <time>2021-07-15T07:57:56.000Z</time>
      </trkpt>
      <trkpt lat="47.27434" lon="-2.45526">
        <ele>-10.199999809265</ele>
        <time>2021-07-15T07:57:58.000Z</time>
      </trkpt>
      <trkpt lat="47.27434" lon="-2.45537">
        <ele>-10.199999809265</ele>
        <time>2021-07-15T07:58:00.000Z</time>
      </trkpt>
      <trkpt lat="47.27426" lon="-2.45555">
        <ele>-10.199999809265</ele>
        <time>2021-07-15T07:58:04.000Z</time>
      </trkpt>
      <trkpt lat="47.27418" lon="-2.4556">
        <ele>-10.199999809265</ele>
        <time>2021-07-15T07:58:06.000Z</time>
      </trkpt>
      <trkpt lat="47.27406" lon="-2.45566">
        <ele>-10.199999809265</ele>
        <time>2021-07-15T07:58:09.000Z</time>
      </trkpt>
      <trkpt lat="47.27397" lon="-2.45568">
        <ele>-10.199999809265</ele>
        <time>2021-07-15T07:58:11.000Z</time>
      </trkpt>
      <trkpt lat="47.2739" lon="-2.45569">
        <ele>-10.199999809265</ele>
        <time>2021-07-15T07:58:13.000Z</time>
      </trkpt>
      <trkpt lat="47.27364" lon="-2.45578">
        <ele>-10.199999809265</ele>
        <time>2021-07-15T07:58:20.000Z</time>
      </trkpt>
      <trkpt lat="47.27341" lon="-2.45593">
        <ele>-10.199999809265</ele>
        <time>2021-07-15T07:58:27.000Z</time>
      </trkpt>
      <trkpt lat="47.27323" lon="-2.45609">
        <ele>-10.199999809265</ele>
        <time>2021-07-15T07:58:33.000Z</time>
      </trkpt>
      <trkpt lat="47.27323" lon="-2.45625">
        <ele>-10.199999809265</ele>
        <time>2021-07-15T07:58:37.000Z</time>
      </trkpt>
      <trkpt lat="47.27331" lon="-2.45654">
        <ele>-10.199999809265</ele>
        <time>2021-07-15T07:58:42.000Z</time>
      </trkpt>
      <trkpt lat="47.2734" lon="-2.45681">
        <ele>-10.199999809265</ele>
        <time>2021-07-15T07:58:46.000Z</time>
      </trkpt>
      <trkpt lat="47.27346" lon="-2.45696">
        <ele>-10.199999809265</ele>
        <time>2021-07-15T07:58:48.000Z</time>
      </trkpt>
      <trkpt lat="47.27364" lon="-2.45747">
        <ele>-10.199999809265</ele>
        <time>2021-07-15T07:58:55.000Z</time>
      </trkpt>
      <trkpt lat="47.27373" lon="-2.45775">
        <ele>-10.199999809265</ele>
        <time>2021-07-15T07:59:00.000Z</time>
      </trkpt>
      <trkpt lat="47.27377" lon="-2.45776">
        <ele>-10.199999809265</ele>
        <time>2021-07-15T07:59:01.000Z</time>
      </trkpt>
      <trkpt lat="47.27384" lon="-2.45773">
        <ele>-10.199999809265</ele>
        <time>2021-07-15T07:59:03.000Z</time>
      </trkpt>
      <trkpt lat="47.27394" lon="-2.4577">
        <ele>-10.199999809265</ele>
        <time>2021-07-15T07:59:05.000Z</time>
      </trkpt>
      <trkpt lat="47.27405" lon="-2.45768">
        <ele>-10.199999809265</ele>
        <time>2021-07-15T07:59:07.000Z</time>
      </trkpt>
      <trkpt lat="47.27446" lon="-2.45761">
        <ele>-10.199999809265</ele>
        <time>2021-07-15T07:59:14.000Z</time>
      </trkpt>
      <trkpt lat="47.27486" lon="-2.4575">
        <ele>-10.199999809265</ele>
        <time>2021-07-15T07:59:20.000Z</time>
      </trkpt>
      <trkpt lat="47.2754" lon="-2.45732">
        <ele>-10.199999809265</ele>
        <time>2021-07-15T07:59:28.000Z</time>
      </trkpt>
      <trkpt lat="47.27587" lon="-2.45714">
        <ele>-10.199999809265</ele>
        <time>2021-07-15T07:59:35.000Z</time>
      </trkpt>
      <trkpt lat="47.27621" lon="-2.45703">
        <ele>-10.199999809265</ele>
        <time>2021-07-15T07:59:41.000Z</time>
      </trkpt>
      <trkpt lat="47.2763" lon="-2.45702">
        <ele>-10.199999809265</ele>
        <time>2021-07-15T07:59:44.000Z</time>
      </trkpt>
      <trkpt lat="47.27636" lon="-2.45717">
        <ele>-10.199999809265</ele>
        <time>2021-07-15T07:59:47.000Z</time>
      </trkpt>
      <trkpt lat="47.27638" lon="-2.45724">
        <ele>-10.199999809265</ele>
        <time>2021-07-15T07:59:48.000Z</time>
      </trkpt>
      <trkpt lat="47.27642" lon="-2.45753">
        <ele>-10.199999809265</ele>
        <time>2021-07-15T07:59:51.000Z</time>
      </trkpt>
      <trkpt lat="47.27646" lon="-2.45803">
        <ele>-10.199999809265</ele>
        <time>2021-07-15T07:59:56.000Z</time>
      </trkpt>
      <trkpt lat="47.27646" lon="-2.45822">
        <ele>-10.199999809265</ele>
        <time>2021-07-15T07:59:58.000Z</time>
      </trkpt>
      <trkpt lat="47.27644" lon="-2.45861">
        <ele>-10.199999809265</ele>
        <time>2021-07-15T08:00:02.000Z</time>
      </trkpt>
      <trkpt lat="47.27641" lon="-2.45881">
        <ele>-10.199999809265</ele>
        <time>2021-07-15T08:00:04.000Z</time>
      </trkpt>
      <trkpt lat="47.27638" lon="-2.45912">
        <ele>-10.199999809265</ele>
        <time>2021-07-15T08:00:07.000Z</time>
      </trkpt>
      <trkpt lat="47.27638" lon="-2.45932">
        <ele>-10.60000038147</ele>
        <time>2021-07-15T08:00:09.000Z</time>
      </trkpt>
      <trkpt lat="47.27638" lon="-2.45942">
        <ele>-11</ele>
        <time>2021-07-15T08:00:10.000Z</time>
      </trkpt>
      <trkpt lat="47.27638" lon="-2.45952">
        <ele>-11.39999961853</ele>
        <time>2021-07-15T08:00:11.000Z</time>
      </trkpt>
      <trkpt lat="47.27638" lon="-2.45963">
        <ele>-11.800000190735</ele>
        <time>2021-07-15T08:00:12.000Z</time>
      </trkpt>
      <trkpt lat="47.27638" lon="-2.45973">
        <ele>-12.199999809265</ele>
        <time>2021-07-15T08:00:13.000Z</time>
      </trkpt>
      <trkpt lat="47.27641" lon="-2.46011">
        <ele>-12.199999809265</ele>
        <time>2021-07-15T08:00:17.000Z</time>
      </trkpt>
      <trkpt lat="47.27643" lon="-2.4602">
        <ele>-12.199999809265</ele>
        <time>2021-07-15T08:00:18.000Z</time>
      </trkpt>
      <trkpt lat="47.27655" lon="-2.46083">
        <ele>-12.199999809265</ele>
        <time>2021-07-15T08:00:25.000Z</time>
      </trkpt>
      <trkpt lat="47.27663" lon="-2.46127">
        <ele>-12.199999809265</ele>
        <time>2021-07-15T08:00:30.000Z</time>
      </trkpt>
      <trkpt lat="47.27667" lon="-2.4615">
        <ele>-12.199999809265</ele>
        <time>2021-07-15T08:00:33.000Z</time>
      </trkpt>
      <trkpt lat="47.27668" lon="-2.46164">
        <ele>-12.199999809265</ele>
        <time>2021-07-15T08:00:35.000Z</time>
      </trkpt>
      <trkpt lat="47.27668" lon="-2.46187">
        <ele>-11.800000190735</ele>
        <time>2021-07-15T08:00:38.000Z</time>
      </trkpt>
      <trkpt lat="47.27669" lon="-2.46196">
        <ele>-11.39999961853</ele>
        <time>2021-07-15T08:00:39.000Z</time>
      </trkpt>
      <trkpt lat="47.27669" lon="-2.46205">
        <ele>-11</ele>
        <time>2021-07-15T08:00:40.000Z</time>
      </trkpt>
      <trkpt lat="47.2767" lon="-2.46214">
        <ele>-10.60000038147</ele>
        <time>2021-07-15T08:00:41.000Z</time>
      </trkpt>
      <trkpt lat="47.27671" lon="-2.46223">
        <ele>-10.199999809265</ele>
        <time>2021-07-15T08:00:42.000Z</time>
      </trkpt>
      <trkpt lat="47.27673" lon="-2.46257">
        <ele>-10.199999809265</ele>
        <time>2021-07-15T08:00:46.000Z</time>
      </trkpt>
      <trkpt lat="47.27671" lon="-2.46264">
        <ele>-10.199999809265</ele>
        <time>2021-07-15T08:00:47.000Z</time>
      </trkpt>
      <trkpt lat="47.2766" lon="-2.4628">
        <ele>-10.199999809265</ele>
        <time>2021-07-15T08:00:50.000Z</time>
      </trkpt>
      <trkpt lat="47.27658" lon="-2.46287">
        <ele>-10.199999809265</ele>
        <time>2021-07-15T08:00:51.000Z</time>
      </trkpt>
      <trkpt lat="47.27663" lon="-2.46299">
        <ele>-10.199999809265</ele>
        <time>2021-07-15T08:00:53.000Z</time>
      </trkpt>
      <trkpt lat="47.27671" lon="-2.46316">
        <ele>-10.199999809265</ele>
        <time>2021-07-15T08:00:56.000Z</time>
      </trkpt>
      <trkpt lat="47.27675" lon="-2.46329">
        <ele>-10.199999809265</ele>
        <time>2021-07-15T08:00:58.000Z</time>
      </trkpt>
      <trkpt lat="47.27683" lon="-2.46366">
        <ele>-10.199999809265</ele>
        <time>2021-07-15T08:01:03.000Z</time>
      </trkpt>
      <trkpt lat="47.27697" lon="-2.46406">
        <ele>-10.199999809265</ele>
        <time>2021-07-15T08:01:08.000Z</time>
      </trkpt>
      <trkpt lat="47.27706" lon="-2.4643">
        <ele>-10.199999809265</ele>
        <time>2021-07-15T08:01:11.000Z</time>
      </trkpt>
      <trkpt lat="47.27714" lon="-2.46444">
        <ele>-10.199999809265</ele>
        <time>2021-07-15T08:01:13.000Z</time>
      </trkpt>
      <trkpt lat="47.27725" lon="-2.46467">
        <ele>-10.199999809265</ele>
        <time>2021-07-15T08:01:16.000Z</time>
      </trkpt>
      <trkpt lat="47.27733" lon="-2.46492">
        <ele>-10.199999809265</ele>
        <time>2021-07-15T08:01:19.000Z</time>
      </trkpt>
      <trkpt lat="47.27737" lon="-2.46508">
        <ele>-10.199999809265</ele>
        <time>2021-07-15T08:01:21.000Z</time>
      </trkpt>
      <trkpt lat="47.27743" lon="-2.46539">
        <ele>-10.199999809265</ele>
        <time>2021-07-15T08:01:25.000Z</time>
      </trkpt>
      <trkpt lat="47.27756" lon="-2.46584">
        <ele>-10.199999809265</ele>
        <time>2021-07-15T08:01:31.000Z</time>
      </trkpt>
      <trkpt lat="47.27759" lon="-2.46589">
        <ele>-10.199999809265</ele>
        <time>2021-07-15T08:01:32.000Z</time>
      </trkpt>
      <trkpt lat="47.27765" lon="-2.46611">
        <ele>-10.199999809265</ele>
        <time>2021-07-15T08:01:36.000Z</time>
      </trkpt>
      <trkpt lat="47.2776" lon="-2.46632">
        <ele>-10.199999809265</ele>
        <time>2021-07-15T08:01:40.000Z</time>
      </trkpt>
      <trkpt lat="47.27764" lon="-2.46651">
        <ele>-10.199999809265</ele>
        <time>2021-07-15T08:01:43.000Z</time>
      </trkpt>
      <trkpt lat="47.27761" lon="-2.46673">
        <ele>-10.199999809265</ele>
        <time>2021-07-15T08:01:46.000Z</time>
      </trkpt>
      <trkpt lat="47.27761" lon="-2.4669">
        <ele>-10.199999809265</ele>
        <time>2021-07-15T08:01:48.000Z</time>
      </trkpt>
      <trkpt lat="47.27759" lon="-2.46707">
        <ele>-10.199999809265</ele>
        <time>2021-07-15T08:01:50.000Z</time>
      </trkpt>
      <trkpt lat="47.27756" lon="-2.46713">
        <ele>-10.199999809265</ele>
        <time>2021-07-15T08:01:51.000Z</time>
      </trkpt>
      <trkpt lat="47.27756" lon="-2.4672">
        <ele>-10.60000038147</ele>
        <time>2021-07-15T08:01:52.000Z</time>
      </trkpt>
      <trkpt lat="47.27757" lon="-2.46726">
        <ele>-11.39999961853</ele>
        <time>2021-07-15T08:01:53.000Z</time>
      </trkpt>
      <trkpt lat="47.27757" lon="-2.46732">
        <ele>-11.800000190735</ele>
        <time>2021-07-15T08:01:54.000Z</time>
      </trkpt>
      <trkpt lat="47.27758" lon="-2.46738">
        <ele>-12.199999809265</ele>
        <time>2021-07-15T08:01:55.000Z</time>
      </trkpt>
      <trkpt lat="47.27763" lon="-2.4677">
        <ele>-12.199999809265</ele>
        <time>2021-07-15T08:02:00.000Z</time>
      </trkpt>
      <trkpt lat="47.27766" lon="-2.46778">
        <ele>-12.199999809265</ele>
        <time>2021-07-15T08:02:01.000Z</time>
      </trkpt>
      <trkpt lat="47.27773" lon="-2.46806">
        <ele>-12.199999809265</ele>
        <time>2021-07-15T08:02:05.000Z</time>
      </trkpt>
      <trkpt lat="47.2778" lon="-2.46833">
        <ele>-12.199999809265</ele>
        <time>2021-07-15T08:02:09.000Z</time>
      </trkpt>
      <trkpt lat="47.27782" lon="-2.46847">
        <ele>-12.199999809265</ele>
        <time>2021-07-15T08:02:11.000Z</time>
      </trkpt>
      <trkpt lat="47.27782" lon="-2.46853">
        <ele>-12.199999809265</ele>
        <time>2021-07-15T08:02:12.000Z</time>
      </trkpt>
      <trkpt lat="47.27783" lon="-2.46875">
        <ele>-12.199999809265</ele>
        <time>2021-07-15T08:02:16.000Z</time>
      </trkpt>
      <trkpt lat="47.27782" lon="-2.46881">
        <ele>-12.199999809265</ele>
        <time>2021-07-15T08:02:19.000Z</time>
      </trkpt>
      <trkpt lat="47.27782" lon="-2.46883">
        <ele>-12.199999809265</ele>
        <time>2021-07-15T08:02:20.000Z</time>
      </trkpt>
      <trkpt lat="47.27791" lon="-2.46887">
        <ele>-12.199999809265</ele>
        <time>2021-07-15T08:02:23.000Z</time>
      </trkpt>
      <trkpt lat="47.27799" lon="-2.46902">
        <ele>-12.199999809265</ele>
        <time>2021-07-15T08:02:26.000Z</time>
      </trkpt>
      <trkpt lat="47.27811" lon="-2.46928">
        <ele>-12.199999809265</ele>
        <time>2021-07-15T08:02:30.000Z</time>
      </trkpt>
      <trkpt lat="47.27832" lon="-2.46947">
        <ele>-12.199999809265</ele>
        <time>2021-07-15T08:02:34.000Z</time>
      </trkpt>
      <trkpt lat="47.27856" lon="-2.46964">
        <ele>-12.199999809265</ele>
        <time>2021-07-15T08:02:38.000Z</time>
      </trkpt>
      <trkpt lat="47.27861" lon="-2.46969">
        <ele>-12.199999809265</ele>
        <time>2021-07-15T08:02:39.000Z</time>
      </trkpt>
      <trkpt lat="47.27893" lon="-2.46998">
        <ele>-12.199999809265</ele>
        <time>2021-07-15T08:02:45.000Z</time>
      </trkpt>
      <trkpt lat="47.27928" lon="-2.47036">
        <ele>-12.199999809265</ele>
        <time>2021-07-15T08:02:52.000Z</time>
      </trkpt>
      <trkpt lat="47.2795" lon="-2.47078">
        <ele>-12.199999809265</ele>
        <time>2021-07-15T08:02:58.000Z</time>
      </trkpt>
      <trkpt lat="47.27964" lon="-2.47126">
        <ele>-12.199999809265</ele>
        <time>2021-07-15T08:03:04.000Z</time>
      </trkpt>
      <trkpt lat="47.27975" lon="-2.4719">
        <ele>-12.199999809265</ele>
        <time>2021-07-15T08:03:11.000Z</time>
      </trkpt>
      <trkpt lat="47.27988" lon="-2.4726">
        <ele>-12.199999809265</ele>
        <time>2021-07-15T08:03:19.000Z</time>
      </trkpt>
      <trkpt lat="47.28001" lon="-2.47318">
        <ele>-12.199999809265</ele>
        <time>2021-07-15T08:03:27.000Z</time>
      </trkpt>
      <trkpt lat="47.28005" lon="-2.4733">
        <ele>-12.199999809265</ele>
        <time>2021-07-15T08:03:29.000Z</time>
      </trkpt>
      <trkpt lat="47.28013" lon="-2.47336">
        <ele>-12.199999809265</ele>
        <time>2021-07-15T08:03:31.000Z</time>
      </trkpt>
      <trkpt lat="47.28023" lon="-2.47334">
        <ele>-12.199999809265</ele>
        <time>2021-07-15T08:03:33.000Z</time>
      </trkpt>
      <trkpt lat="47.28033" lon="-2.4733">
        <ele>-12.199999809265</ele>
        <time>2021-07-15T08:03:35.000Z</time>
      </trkpt>
      <trkpt lat="47.28073" lon="-2.47317">
        <ele>-12.199999809265</ele>
        <time>2021-07-15T08:03:42.000Z</time>
      </trkpt>
      <trkpt lat="47.28116" lon="-2.47309">
        <ele>-12.199999809265</ele>
        <time>2021-07-15T08:03:49.000Z</time>
      </trkpt>
      <trkpt lat="47.28121" lon="-2.47311">
        <ele>-12.199999809265</ele>
        <time>2021-07-15T08:03:50.000Z</time>
      </trkpt>
      <trkpt lat="47.28126" lon="-2.47325">
        <ele>-12.60000038147</ele>
        <time>2021-07-15T08:03:52.000Z</time>
      </trkpt>
      <trkpt lat="47.28127" lon="-2.47333">
        <ele>-13</ele>
        <time>2021-07-15T08:03:53.000Z</time>
      </trkpt>
      <trkpt lat="47.28127" lon="-2.47342">
        <ele>-13.39999961853</ele>
        <time>2021-07-15T08:03:54.000Z</time>
      </trkpt>
      <trkpt lat="47.28126" lon="-2.4735">
        <ele>-14.39999961853</ele>
        <time>2021-07-15T08:03:55.000Z</time>
      </trkpt>
      <trkpt lat="47.28125" lon="-2.47359">
        <ele>-14.39999961853</ele>
        <time>2021-07-15T08:03:56.000Z</time>
      </trkpt>
      <trkpt lat="47.28115" lon="-2.47404">
        <ele>-14.39999961853</ele>
        <time>2021-07-15T08:04:01.000Z</time>
      </trkpt>
      <trkpt lat="47.28098" lon="-2.47488">
        <ele>-14.39999961853</ele>
        <time>2021-07-15T08:04:10.000Z</time>
      </trkpt>
      <trkpt lat="47.28086" lon="-2.47552">
        <ele>-14.39999961853</ele>
        <time>2021-07-15T08:04:17.000Z</time>
      </trkpt>
      <trkpt lat="47.2808" lon="-2.47616">
        <ele>-14.39999961853</ele>
        <time>2021-07-15T08:04:24.000Z</time>
      </trkpt>
      <trkpt lat="47.28082" lon="-2.4768">
        <ele>-14.39999961853</ele>
        <time>2021-07-15T08:04:31.000Z</time>
      </trkpt>
      <trkpt lat="47.28084" lon="-2.47698">
        <ele>-14.39999961853</ele>
        <time>2021-07-15T08:04:33.000Z</time>
      </trkpt>
      <trkpt lat="47.28089" lon="-2.47732">
        <ele>-14.39999961853</ele>
        <time>2021-07-15T08:04:37.000Z</time>
      </trkpt>
      <trkpt lat="47.28098" lon="-2.47795">
        <ele>-14.39999961853</ele>
        <time>2021-07-15T08:04:45.000Z</time>
      </trkpt>
      <trkpt lat="47.28107" lon="-2.47858">
        <ele>-14.39999961853</ele>
        <time>2021-07-15T08:04:53.000Z</time>
      </trkpt>
      <trkpt lat="47.28111" lon="-2.47873">
        <ele>-14.39999961853</ele>
        <time>2021-07-15T08:04:55.000Z</time>
      </trkpt>
      <trkpt lat="47.28112" lon="-2.4788">
        <ele>-14</ele>
        <time>2021-07-15T08:04:56.000Z</time>
      </trkpt>
      <trkpt lat="47.28112" lon="-2.47888">
        <ele>-13.60000038147</ele>
        <time>2021-07-15T08:04:57.000Z</time>
      </trkpt>
      <trkpt lat="47.28112" lon="-2.47897">
        <ele>-13.199999809265</ele>
        <time>2021-07-15T08:04:58.000Z</time>
      </trkpt>
      <trkpt lat="47.28113" lon="-2.47905">
        <ele>-12.800000190735</ele>
        <time>2021-07-15T08:04:59.000Z</time>
      </trkpt>
      <trkpt lat="47.28115" lon="-2.47914">
        <ele>-12.39999961853</ele>
        <time>2021-07-15T08:05:00.000Z</time>
      </trkpt>
      <trkpt lat="47.28117" lon="-2.47922">
        <ele>-12.39999961853</ele>
        <time>2021-07-15T08:05:01.000Z</time>
      </trkpt>
      <trkpt lat="47.28121" lon="-2.47928">
        <ele>-12.39999961853</ele>
        <time>2021-07-15T08:05:02.000Z</time>
      </trkpt>
      <trkpt lat="47.2813" lon="-2.4794">
        <ele>-12.39999961853</ele>
        <time>2021-07-15T08:05:04.000Z</time>
      </trkpt>
      <trkpt lat="47.28144" lon="-2.4795">
        <ele>-12.39999961853</ele>
        <time>2021-07-15T08:05:07.000Z</time>
      </trkpt>
      <trkpt lat="47.28149" lon="-2.47953">
        <ele>-12.39999961853</ele>
        <time>2021-07-15T08:05:08.000Z</time>
      </trkpt>
      <trkpt lat="47.28153" lon="-2.47958">
        <ele>-12.39999961853</ele>
        <time>2021-07-15T08:05:09.000Z</time>
      </trkpt>
      <trkpt lat="47.28153" lon="-2.47981">
        <ele>-12.39999961853</ele>
        <time>2021-07-15T08:05:12.000Z</time>
      </trkpt>
      <trkpt lat="47.28155" lon="-2.47997">
        <ele>-12.39999961853</ele>
        <time>2021-07-15T08:05:14.000Z</time>
      </trkpt>
      <trkpt lat="47.28158" lon="-2.48023">
        <ele>-12.39999961853</ele>
        <time>2021-07-15T08:05:17.000Z</time>
      </trkpt>
      <trkpt lat="47.28166" lon="-2.48091">
        <ele>-12.39999961853</ele>
        <time>2021-07-15T08:05:25.000Z</time>
      </trkpt>
      <trkpt lat="47.28176" lon="-2.48165">
        <ele>-12.39999961853</ele>
        <time>2021-07-15T08:05:34.000Z</time>
      </trkpt>
      <trkpt lat="47.28186" lon="-2.48212">
        <ele>-12.39999961853</ele>
        <time>2021-07-15T08:05:40.000Z</time>
      </trkpt>
      <trkpt lat="47.28188" lon="-2.48219">
        <ele>-12.39999961853</ele>
        <time>2021-07-15T08:05:41.000Z</time>
      </trkpt>
      <trkpt lat="47.28199" lon="-2.48235">
        <ele>-12.39999961853</ele>
        <time>2021-07-15T08:05:44.000Z</time>
      </trkpt>
      <trkpt lat="47.28201" lon="-2.48254">
        <ele>-12.39999961853</ele>
        <time>2021-07-15T08:05:47.000Z</time>
      </trkpt>
      <trkpt lat="47.28201" lon="-2.48262">
        <ele>-12.39999961853</ele>
        <time>2021-07-15T08:05:48.000Z</time>
      </trkpt>
      <trkpt lat="47.28195" lon="-2.483">
        <ele>-12.39999961853</ele>
        <time>2021-07-15T08:05:53.000Z</time>
      </trkpt>
      <trkpt lat="47.28194" lon="-2.48316">
        <ele>-12.39999961853</ele>
        <time>2021-07-15T08:05:55.000Z</time>
      </trkpt>
      <trkpt lat="47.28193" lon="-2.48337">
        <ele>-12.39999961853</ele>
        <time>2021-07-15T08:05:58.000Z</time>
      </trkpt>
      <trkpt lat="47.28201" lon="-2.48353">
        <ele>-12.39999961853</ele>
        <time>2021-07-15T08:06:01.000Z</time>
      </trkpt>
      <trkpt lat="47.28216" lon="-2.48351">
        <ele>-12.39999961853</ele>
        <time>2021-07-15T08:06:04.000Z</time>
      </trkpt>
      <trkpt lat="47.28222" lon="-2.48349">
        <ele>-12.39999961853</ele>
        <time>2021-07-15T08:06:05.000Z</time>
      </trkpt>
      <trkpt lat="47.28239" lon="-2.48346">
        <ele>-12.39999961853</ele>
        <time>2021-07-15T08:06:08.000Z</time>
      </trkpt>
      <trkpt lat="47.28244" lon="-2.48348">
        <ele>-12.39999961853</ele>
        <time>2021-07-15T08:06:09.000Z</time>
      </trkpt>
      <trkpt lat="47.28256" lon="-2.48361">
        <ele>-12.39999961853</ele>
        <time>2021-07-15T08:06:12.000Z</time>
      </trkpt>
      <trkpt lat="47.2826" lon="-2.48366">
        <ele>-12.39999961853</ele>
        <time>2021-07-15T08:06:13.000Z</time>
      </trkpt>
      <trkpt lat="47.28264" lon="-2.4837">
        <ele>-12.800000190735</ele>
        <time>2021-07-15T08:06:14.000Z</time>
      </trkpt>
      <trkpt lat="47.28269" lon="-2.48372">
        <ele>-13.199999809265</ele>
        <time>2021-07-15T08:06:15.000Z</time>
      </trkpt>
      <trkpt lat="47.28275" lon="-2.48373">
        <ele>-13.60000038147</ele>
        <time>2021-07-15T08:06:16.000Z</time>
      </trkpt>
      <trkpt lat="47.28281" lon="-2.48371">
        <ele>-14</ele>
        <time>2021-07-15T08:06:17.000Z</time>
      </trkpt>
      <trkpt lat="47.28286" lon="-2.48369">
        <ele>-14.39999961853</ele>
        <time>2021-07-15T08:06:18.000Z</time>
      </trkpt>
      <trkpt lat="47.28291" lon="-2.48368">
        <ele>-14.39999961853</ele>
        <time>2021-07-15T08:06:19.000Z</time>
      </trkpt>
      <trkpt lat="47.28301" lon="-2.48379">
        <ele>-14.39999961853</ele>
        <time>2021-07-15T08:06:22.000Z</time>
      </trkpt>
      <trkpt lat="47.28316" lon="-2.48384">
        <ele>-14.39999961853</ele>
        <time>2021-07-15T08:06:26.000Z</time>
      </trkpt>
      <trkpt lat="47.2833" lon="-2.48373">
        <ele>-14.39999961853</ele>
        <time>2021-07-15T08:06:29.000Z</time>
      </trkpt>
      <trkpt lat="47.28335" lon="-2.48369">
        <ele>-14.39999961853</ele>
        <time>2021-07-15T08:06:30.000Z</time>
      </trkpt>
      <trkpt lat="47.28346" lon="-2.48361">
        <ele>-14.39999961853</ele>
        <time>2021-07-15T08:06:32.000Z</time>
      </trkpt>
      <trkpt lat="47.28364" lon="-2.48355">
        <ele>-14.39999961853</ele>
        <time>2021-07-15T08:06:35.000Z</time>
      </trkpt>
      <trkpt lat="47.28386" lon="-2.48353">
        <ele>-14.39999961853</ele>
        <time>2021-07-15T08:06:39.000Z</time>
      </trkpt>
      <trkpt lat="47.28392" lon="-2.48355">
        <ele>-14.39999961853</ele>
        <time>2021-07-15T08:06:40.000Z</time>
      </trkpt>
      <trkpt lat="47.28398" lon="-2.48357">
        <ele>-14.39999961853</ele>
        <time>2021-07-15T08:06:41.000Z</time>
      </trkpt>
      <trkpt lat="47.28415" lon="-2.48369">
        <ele>-14.39999961853</ele>
        <time>2021-07-15T08:06:44.000Z</time>
      </trkpt>
      <trkpt lat="47.28421" lon="-2.48373">
        <ele>-14.39999961853</ele>
        <time>2021-07-15T08:06:45.000Z</time>
      </trkpt>
      <trkpt lat="47.28435" lon="-2.48388">
        <ele>-14.39999961853</ele>
        <time>2021-07-15T08:06:48.000Z</time>
      </trkpt>
      <trkpt lat="47.28444" lon="-2.48396">
        <ele>-14.39999961853</ele>
        <time>2021-07-15T08:06:50.000Z</time>
      </trkpt>
      <trkpt lat="47.28448" lon="-2.48409">
        <ele>-14.39999961853</ele>
        <time>2021-07-15T08:06:52.000Z</time>
      </trkpt>
      <trkpt lat="47.28446" lon="-2.48424">
        <ele>-14.39999961853</ele>
        <time>2021-07-15T08:06:54.000Z</time>
      </trkpt>
      <trkpt lat="47.28444" lon="-2.4845">
        <ele>-14.39999961853</ele>
        <time>2021-07-15T08:06:57.000Z</time>
      </trkpt>
      <trkpt lat="47.2844" lon="-2.48501">
        <ele>-14.39999961853</ele>
        <time>2021-07-15T08:07:03.000Z</time>
      </trkpt>
      <trkpt lat="47.28439" lon="-2.48508">
        <ele>-14.39999961853</ele>
        <time>2021-07-15T08:07:04.000Z</time>
      </trkpt>
      <trkpt lat="47.28433" lon="-2.4853">
        <ele>-14.39999961853</ele>
        <time>2021-07-15T08:07:07.000Z</time>
      </trkpt>
      <trkpt lat="47.28437" lon="-2.48544">
        <ele>-14.39999961853</ele>
        <time>2021-07-15T08:07:09.000Z</time>
      </trkpt>
      <trkpt lat="47.28448" lon="-2.48551">
        <ele>-14.39999961853</ele>
        <time>2021-07-15T08:07:11.000Z</time>
      </trkpt>
      <trkpt lat="47.28454" lon="-2.48554">
        <ele>-14.39999961853</ele>
        <time>2021-07-15T08:07:12.000Z</time>
      </trkpt>
      <trkpt lat="47.28465" lon="-2.48563">
        <ele>-14.39999961853</ele>
        <time>2021-07-15T08:07:14.000Z</time>
      </trkpt>
      <trkpt lat="47.28471" lon="-2.48577">
        <ele>-14.39999961853</ele>
        <time>2021-07-15T08:07:16.000Z</time>
      </trkpt>
      <trkpt lat="47.28478" lon="-2.48608">
        <ele>-14.39999961853</ele>
        <time>2021-07-15T08:07:20.000Z</time>
      </trkpt>
      <trkpt lat="47.28477" lon="-2.48617">
        <ele>-14.39999961853</ele>
        <time>2021-07-15T08:07:21.000Z</time>
      </trkpt>
      <trkpt lat="47.28468" lon="-2.4866">
        <ele>-14.39999961853</ele>
        <time>2021-07-15T08:07:26.000Z</time>
      </trkpt>
      <trkpt lat="47.28467" lon="-2.48669">
        <ele>-14.39999961853</ele>
        <time>2021-07-15T08:07:27.000Z</time>
      </trkpt>
      <trkpt lat="47.28471" lon="-2.48687">
        <ele>-14.39999961853</ele>
        <time>2021-07-15T08:07:29.000Z</time>
      </trkpt>
      <trkpt lat="47.28485" lon="-2.48706">
        <ele>-14.39999961853</ele>
        <time>2021-07-15T08:07:32.000Z</time>
      </trkpt>
      <trkpt lat="47.28496" lon="-2.48717">
        <ele>-14.39999961853</ele>
        <time>2021-07-15T08:07:34.000Z</time>
      </trkpt>
      <trkpt lat="47.28514" lon="-2.48741">
        <ele>-14.39999961853</ele>
        <time>2021-07-15T08:07:38.000Z</time>
      </trkpt>
      <trkpt lat="47.28542" lon="-2.48786">
        <ele>-14.39999961853</ele>
        <time>2021-07-15T08:07:45.000Z</time>
      </trkpt>
      <trkpt lat="47.28559" lon="-2.4882">
        <ele>-14.39999961853</ele>
        <time>2021-07-15T08:07:50.000Z</time>
      </trkpt>
      <trkpt lat="47.28564" lon="-2.48826">
        <ele>-14.39999961853</ele>
        <time>2021-07-15T08:07:51.000Z</time>
      </trkpt>
      <trkpt lat="47.28572" lon="-2.48837">
        <ele>-14.39999961853</ele>
        <time>2021-07-15T08:07:53.000Z</time>
      </trkpt>
      <trkpt lat="47.28577" lon="-2.48853">
        <ele>-14.39999961853</ele>
        <time>2021-07-15T08:07:55.000Z</time>
      </trkpt>
      <trkpt lat="47.28578" lon="-2.48877">
        <ele>-14.39999961853</ele>
        <time>2021-07-15T08:07:58.000Z</time>
      </trkpt>
      <trkpt lat="47.28577" lon="-2.48885">
        <ele>-14.39999961853</ele>
        <time>2021-07-15T08:07:59.000Z</time>
      </trkpt>
      <trkpt lat="47.28576" lon="-2.48893">
        <ele>-14.39999961853</ele>
        <time>2021-07-15T08:08:00.000Z</time>
      </trkpt>
      <trkpt lat="47.28567" lon="-2.4891">
        <ele>-14.39999961853</ele>
        <time>2021-07-15T08:08:03.000Z</time>
      </trkpt>
      <trkpt lat="47.28544" lon="-2.48919">
        <ele>-14.39999961853</ele>
        <time>2021-07-15T08:08:07.000Z</time>
      </trkpt>
      <trkpt lat="47.28533" lon="-2.48924">
        <ele>-14.39999961853</ele>
        <time>2021-07-15T08:08:09.000Z</time>
      </trkpt>
      <trkpt lat="47.28522" lon="-2.48926">
        <ele>-14.39999961853</ele>
        <time>2021-07-15T08:08:11.000Z</time>
      </trkpt>
      <trkpt lat="47.28515" lon="-2.48926">
        <ele>-14.39999961853</ele>
        <time>2021-07-15T08:08:12.000Z</time>
      </trkpt>
      <trkpt lat="47.28488" lon="-2.48922">
        <ele>-14.39999961853</ele>
        <time>2021-07-15T08:08:17.000Z</time>
      </trkpt>
      <trkpt lat="47.28482" lon="-2.48921">
        <ele>-14.39999961853</ele>
        <time>2021-07-15T08:08:18.000Z</time>
      </trkpt>
      <trkpt lat="47.28472" lon="-2.48927">
        <ele>-14.39999961853</ele>
        <time>2021-07-15T08:08:20.000Z</time>
      </trkpt>
      <trkpt lat="47.28466" lon="-2.48941">
        <ele>-14.800000190735</ele>
        <time>2021-07-15T08:08:22.000Z</time>
      </trkpt>
      <trkpt lat="47.28464" lon="-2.48948">
        <ele>-15.199999809265</ele>
        <time>2021-07-15T08:08:23.000Z</time>
      </trkpt>
      <trkpt lat="47.28463" lon="-2.48956">
        <ele>-15.60000038147</ele>
        <time>2021-07-15T08:08:24.000Z</time>
      </trkpt>
      <trkpt lat="47.28465" lon="-2.48962">
        <ele>-16</ele>
        <time>2021-07-15T08:08:25.000Z</time>
      </trkpt>
      <trkpt lat="47.28467" lon="-2.48966">
        <ele>-16.39999961853</ele>
        <time>2021-07-15T08:08:26.000Z</time>
      </trkpt>
      <trkpt lat="47.2848" lon="-2.48975">
        <ele>-16.39999961853</ele>
        <time>2021-07-15T08:08:29.000Z</time>
      </trkpt>
      <trkpt lat="47.28484" lon="-2.48978">
        <ele>-16.39999961853</ele>
        <time>2021-07-15T08:08:30.000Z</time>
      </trkpt>
      <trkpt lat="47.28489" lon="-2.48981">
        <ele>-16</ele>
        <time>2021-07-15T08:08:31.000Z</time>
      </trkpt>
      <trkpt lat="47.28492" lon="-2.48986">
        <ele>-15.60000038147</ele>
        <time>2021-07-15T08:08:32.000Z</time>
      </trkpt>
      <trkpt lat="47.28495" lon="-2.48992">
        <ele>-15.199999809265</ele>
        <time>2021-07-15T08:08:33.000Z</time>
      </trkpt>
      <trkpt lat="47.28497" lon="-2.49">
        <ele>-14.60000038147</ele>
        <time>2021-07-15T08:08:34.000Z</time>
      </trkpt>
      <trkpt lat="47.28498" lon="-2.49008">
        <ele>-14.199999809265</ele>
        <time>2021-07-15T08:08:35.000Z</time>
      </trkpt>
      <trkpt lat="47.28499" lon="-2.49015">
        <ele>-14.199999809265</ele>
        <time>2021-07-15T08:08:36.000Z</time>
      </trkpt>
      <trkpt lat="47.285" lon="-2.49039">
        <ele>-14.199999809265</ele>
        <time>2021-07-15T08:08:39.000Z</time>
      </trkpt>
      <trkpt lat="47.28503" lon="-2.49076">
        <ele>-14.199999809265</ele>
        <time>2021-07-15T08:08:44.000Z</time>
      </trkpt>
      <trkpt lat="47.28503" lon="-2.49098">
        <ele>-14.199999809265</ele>
        <time>2021-07-15T08:08:47.000Z</time>
      </trkpt>
      <trkpt lat="47.28501" lon="-2.49119">
        <ele>-14.199999809265</ele>
        <time>2021-07-15T08:08:50.000Z</time>
      </trkpt>
      <trkpt lat="47.28505" lon="-2.49147">
        <ele>-14.199999809265</ele>
        <time>2021-07-15T08:08:54.000Z</time>
      </trkpt>
      <trkpt lat="47.2851" lon="-2.49159">
        <ele>-14.199999809265</ele>
        <time>2021-07-15T08:08:56.000Z</time>
      </trkpt>
      <trkpt lat="47.28513" lon="-2.49165">
        <ele>-14.199999809265</ele>
        <time>2021-07-15T08:08:57.000Z</time>
      </trkpt>
      <trkpt lat="47.28515" lon="-2.49172">
        <ele>-14.199999809265</ele>
        <time>2021-07-15T08:08:58.000Z</time>
      </trkpt>
      <trkpt lat="47.28525" lon="-2.4921">
        <ele>-14.199999809265</ele>
        <time>2021-07-15T08:09:03.000Z</time>
      </trkpt>
      <trkpt lat="47.28533" lon="-2.49262">
        <ele>-14.199999809265</ele>
        <time>2021-07-15T08:09:10.000Z</time>
      </trkpt>
      <trkpt lat="47.28538" lon="-2.49284">
        <ele>-14.199999809265</ele>
        <time>2021-07-15T08:09:13.000Z</time>
      </trkpt>
      <trkpt lat="47.28541" lon="-2.49298">
        <ele>-14.199999809265</ele>
        <time>2021-07-15T08:09:15.000Z</time>
      </trkpt>
      <trkpt lat="47.2854" lon="-2.49319">
        <ele>-14.199999809265</ele>
        <time>2021-07-15T08:09:18.000Z</time>
      </trkpt>
      <trkpt lat="47.2854" lon="-2.49326">
        <ele>-14.199999809265</ele>
        <time>2021-07-15T08:09:19.000Z</time>
      </trkpt>
      <trkpt lat="47.28539" lon="-2.49334">
        <ele>-14.199999809265</ele>
        <time>2021-07-15T08:09:20.000Z</time>
      </trkpt>
      <trkpt lat="47.28541" lon="-2.49357">
        <ele>-14.199999809265</ele>
        <time>2021-07-15T08:09:23.000Z</time>
      </trkpt>
      <trkpt lat="47.28546" lon="-2.49428">
        <ele>-14.199999809265</ele>
        <time>2021-07-15T08:09:32.000Z</time>
      </trkpt>
      <trkpt lat="47.28543" lon="-2.49459">
        <ele>-14.199999809265</ele>
        <time>2021-07-15T08:09:36.000Z</time>
      </trkpt>
      <trkpt lat="47.28541" lon="-2.49466">
        <ele>-14.199999809265</ele>
        <time>2021-07-15T08:09:37.000Z</time>
      </trkpt>
      <trkpt lat="47.28532" lon="-2.49483">
        <ele>-14.199999809265</ele>
        <time>2021-07-15T08:09:40.000Z</time>
      </trkpt>
      <trkpt lat="47.28517" lon="-2.49489">
        <ele>-14.199999809265</ele>
        <time>2021-07-15T08:09:43.000Z</time>
      </trkpt>
      <trkpt lat="47.28511" lon="-2.49491">
        <ele>-14.199999809265</ele>
        <time>2021-07-15T08:09:44.000Z</time>
      </trkpt>
      <trkpt lat="47.28484" lon="-2.49498">
        <ele>-14.199999809265</ele>
        <time>2021-07-15T08:09:49.000Z</time>
      </trkpt>
      <trkpt lat="47.28479" lon="-2.49501">
        <ele>-14.199999809265</ele>
        <time>2021-07-15T08:09:50.000Z</time>
      </trkpt>
      <trkpt lat="47.2847" lon="-2.49518">
        <ele>-14.199999809265</ele>
        <time>2021-07-15T08:09:53.000Z</time>
      </trkpt>
      <trkpt lat="47.28464" lon="-2.49541">
        <ele>-14.199999809265</ele>
        <time>2021-07-15T08:09:57.000Z</time>
      </trkpt>
      <trkpt lat="47.2846" lon="-2.49543">
        <ele>-14.60000038147</ele>
        <time>2021-07-15T08:09:58.000Z</time>
      </trkpt>
      <trkpt lat="47.28455" lon="-2.49544">
        <ele>-15</ele>
        <time>2021-07-15T08:09:59.000Z</time>
      </trkpt>
      <trkpt lat="47.2845" lon="-2.49544">
        <ele>-15.39999961853</ele>
        <time>2021-07-15T08:10:00.000Z</time>
      </trkpt>
      <trkpt lat="47.28445" lon="-2.49545">
        <ele>-15.800000190735</ele>
        <time>2021-07-15T08:10:01.000Z</time>
      </trkpt>
      <trkpt lat="47.28441" lon="-2.49546">
        <ele>-16.200000762939</ele>
        <time>2021-07-15T08:10:02.000Z</time>
      </trkpt>
      <trkpt lat="47.28422" lon="-2.49553">
        <ele>-16.200000762939</ele>
        <time>2021-07-15T08:10:06.000Z</time>
      </trkpt>
      <trkpt lat="47.2839" lon="-2.49572">
        <ele>-16.200000762939</ele>
        <time>2021-07-15T08:10:13.000Z</time>
      </trkpt>
      <trkpt lat="47.28385" lon="-2.49589">
        <ele>-16.200000762939</ele>
        <time>2021-07-15T08:10:16.000Z</time>
      </trkpt>
      <trkpt lat="47.28387" lon="-2.49602">
        <ele>-16.200000762939</ele>
        <time>2021-07-15T08:10:18.000Z</time>
      </trkpt>
      <trkpt lat="47.2839" lon="-2.49624">
        <ele>-16.200000762939</ele>
        <time>2021-07-15T08:10:21.000Z</time>
      </trkpt>
      <trkpt lat="47.28393" lon="-2.49639">
        <ele>-16.200000762939</ele>
        <time>2021-07-15T08:10:23.000Z</time>
      </trkpt>
      <trkpt lat="47.28399" lon="-2.4966">
        <ele>-16.200000762939</ele>
        <time>2021-07-15T08:10:26.000Z</time>
      </trkpt>
      <trkpt lat="47.28409" lon="-2.49696">
        <ele>-16.200000762939</ele>
        <time>2021-07-15T08:10:31.000Z</time>
      </trkpt>
      <trkpt lat="47.2841" lon="-2.49703">
        <ele>-16.200000762939</ele>
        <time>2021-07-15T08:10:32.000Z</time>
      </trkpt>
      <trkpt lat="47.28413" lon="-2.49725">
        <ele>-16.200000762939</ele>
        <time>2021-07-15T08:10:35.000Z</time>
      </trkpt>
      <trkpt lat="47.28411" lon="-2.49731">
        <ele>-16.200000762939</ele>
        <time>2021-07-15T08:10:36.000Z</time>
      </trkpt>
      <trkpt lat="47.28399" lon="-2.49739">
        <ele>-16.200000762939</ele>
        <time>2021-07-15T08:10:39.000Z</time>
      </trkpt>
      <trkpt lat="47.28395" lon="-2.49742">
        <ele>-16.200000762939</ele>
        <time>2021-07-15T08:10:40.000Z</time>
      </trkpt>
      <trkpt lat="47.28367" lon="-2.49761">
        <ele>-16.200000762939</ele>
        <time>2021-07-15T08:10:46.000Z</time>
      </trkpt>
      <trkpt lat="47.2835" lon="-2.49774">
        <ele>-16.200000762939</ele>
        <time>2021-07-15T08:10:50.000Z</time>
      </trkpt>
      <trkpt lat="47.28344" lon="-2.49785">
        <ele>-16.200000762939</ele>
        <time>2021-07-15T08:10:52.000Z</time>
      </trkpt>
      <trkpt lat="47.28343" lon="-2.49819">
        <ele>-16.200000762939</ele>
        <time>2021-07-15T08:10:57.000Z</time>
      </trkpt>
      <trkpt lat="47.28355" lon="-2.49831">
        <ele>-16.200000762939</ele>
        <time>2021-07-15T08:11:00.000Z</time>
      </trkpt>
      <trkpt lat="47.28365" lon="-2.49834">
        <ele>-16.200000762939</ele>
        <time>2021-07-15T08:11:02.000Z</time>
      </trkpt>
      <trkpt lat="47.28379" lon="-2.49838">
        <ele>-15.800000190735</ele>
        <time>2021-07-15T08:11:05.000Z</time>
      </trkpt>
      <trkpt lat="47.28384" lon="-2.49842">
        <ele>-15.39999961853</ele>
        <time>2021-07-15T08:11:06.000Z</time>
      </trkpt>
      <trkpt lat="47.28387" lon="-2.49847">
        <ele>-15</ele>
        <time>2021-07-15T08:11:07.000Z</time>
      </trkpt>
      <trkpt lat="47.2839" lon="-2.49854">
        <ele>-14.60000038147</ele>
        <time>2021-07-15T08:11:08.000Z</time>
      </trkpt>
      <trkpt lat="47.28393" lon="-2.49862">
        <ele>-14</ele>
        <time>2021-07-15T08:11:09.000Z</time>
      </trkpt>
      <trkpt lat="47.28395" lon="-2.49869">
        <ele>-14</ele>
        <time>2021-07-15T08:11:10.000Z</time>
      </trkpt>
      <trkpt lat="47.28404" lon="-2.49898">
        <ele>-14</ele>
        <time>2021-07-15T08:11:14.000Z</time>
      </trkpt>
      <trkpt lat="47.28408" lon="-2.49905">
        <ele>-14</ele>
        <time>2021-07-15T08:11:15.000Z</time>
      </trkpt>
      <trkpt lat="47.28424" lon="-2.49914">
        <ele>-14</ele>
        <time>2021-07-15T08:11:18.000Z</time>
      </trkpt>
      <trkpt lat="47.28446" lon="-2.49912">
        <ele>-14</ele>
        <time>2021-07-15T08:11:22.000Z</time>
      </trkpt>
      <trkpt lat="47.28457" lon="-2.49904">
        <ele>-14</ele>
        <time>2021-07-15T08:11:24.000Z</time>
      </trkpt>
      <trkpt lat="47.28462" lon="-2.499">
        <ele>-14</ele>
        <time>2021-07-15T08:11:25.000Z</time>
      </trkpt>
      <trkpt lat="47.28467" lon="-2.49898">
        <ele>-14</ele>
        <time>2021-07-15T08:11:26.000Z</time>
      </trkpt>
      <trkpt lat="47.28498" lon="-2.49891">
        <ele>-14</ele>
        <time>2021-07-15T08:11:31.000Z</time>
      </trkpt>
      <trkpt lat="47.28517" lon="-2.4989">
        <ele>-14</ele>
        <time>2021-07-15T08:11:34.000Z</time>
      </trkpt>
      <trkpt lat="47.28526" lon="-2.49897">
        <ele>-14</ele>
        <time>2021-07-15T08:11:36.000Z</time>
      </trkpt>
      <trkpt lat="47.2853" lon="-2.49918">
        <ele>-14</ele>
        <time>2021-07-15T08:11:39.000Z</time>
      </trkpt>
      <trkpt lat="47.28533" lon="-2.49949">
        <ele>-14</ele>
        <time>2021-07-15T08:11:43.000Z</time>
      </trkpt>
      <trkpt lat="47.28535" lon="-2.49965">
        <ele>-14</ele>
        <time>2021-07-15T08:11:45.000Z</time>
      </trkpt>
      <trkpt lat="47.28539" lon="-2.50014">
        <ele>-14</ele>
        <time>2021-07-15T08:11:51.000Z</time>
      </trkpt>
      <trkpt lat="47.28542" lon="-2.5003">
        <ele>-14</ele>
        <time>2021-07-15T08:11:53.000Z</time>
      </trkpt>
      <trkpt lat="47.28549" lon="-2.50074">
        <ele>-14</ele>
        <time>2021-07-15T08:11:59.000Z</time>
      </trkpt>
      <trkpt lat="47.28551" lon="-2.5009">
        <ele>-14</ele>
        <time>2021-07-15T08:12:01.000Z</time>
      </trkpt>
      <trkpt lat="47.28552" lon="-2.50104">
        <ele>-14</ele>
        <time>2021-07-15T08:12:03.000Z</time>
      </trkpt>
      <trkpt lat="47.28553" lon="-2.50111">
        <ele>-14</ele>
        <time>2021-07-15T08:12:04.000Z</time>
      </trkpt>
      <trkpt lat="47.28556" lon="-2.5013">
        <ele>-14</ele>
        <time>2021-07-15T08:12:07.000Z</time>
      </trkpt>
      <trkpt lat="47.28556" lon="-2.50147">
        <ele>-14</ele>
        <time>2021-07-15T08:12:10.000Z</time>
      </trkpt>
      <trkpt lat="47.28556" lon="-2.50153">
        <ele>-14.39999961853</ele>
        <time>2021-07-15T08:12:11.000Z</time>
      </trkpt>
      <trkpt lat="47.28554" lon="-2.50158">
        <ele>-15</ele>
        <time>2021-07-15T08:12:12.000Z</time>
      </trkpt>
      <trkpt lat="47.28552" lon="-2.50161">
        <ele>-15.39999961853</ele>
        <time>2021-07-15T08:12:13.000Z</time>
      </trkpt>
      <trkpt lat="47.28549" lon="-2.50163">
        <ele>-15.800000190735</ele>
        <time>2021-07-15T08:12:14.000Z</time>
      </trkpt>
      <trkpt lat="47.28547" lon="-2.50164">
        <ele>-16.200000762939</ele>
        <time>2021-07-15T08:12:15.000Z</time>
      </trkpt>
      <trkpt lat="47.28539" lon="-2.50165">
        <ele>-16.200000762939</ele>
        <time>2021-07-15T08:12:19.000Z</time>
      </trkpt>
      <trkpt lat="47.28524" lon="-2.50169">
        <ele>-16.200000762939</ele>
        <time>2021-07-15T08:12:24.000Z</time>
      </trkpt>
      <trkpt lat="47.28519" lon="-2.50169">
        <ele>-16.200000762939</ele>
        <time>2021-07-15T08:12:27.000Z</time>
      </trkpt>
      <trkpt lat="47.28512" lon="-2.50163">
        <ele>-16.200000762939</ele>
        <time>2021-07-15T08:12:30.000Z</time>
      </trkpt>
      <trkpt lat="47.28502" lon="-2.5016">
        <ele>-16.200000762939</ele>
        <time>2021-07-15T08:12:34.000Z</time>
      </trkpt>
      <trkpt lat="47.28499" lon="-2.50169">
        <ele>-16.200000762939</ele>
        <time>2021-07-15T08:12:37.000Z</time>
      </trkpt>
      <trkpt lat="47.28498" lon="-2.50194">
        <ele>-16.200000762939</ele>
        <time>2021-07-15T08:12:42.000Z</time>
      </trkpt>
      <trkpt lat="47.28496" lon="-2.50222">
        <ele>-16.200000762939</ele>
        <time>2021-07-15T08:12:48.000Z</time>
      </trkpt>
      <trkpt lat="47.28488" lon="-2.50237">
        <ele>-16.200000762939</ele>
        <time>2021-07-15T08:12:53.000Z</time>
      </trkpt>
      <trkpt lat="47.28484" lon="-2.50246">
        <ele>-16.200000762939</ele>
        <time>2021-07-15T08:12:57.000Z</time>
      </trkpt>
      <trkpt lat="47.28484" lon="-2.50249">
        <ele>-16.200000762939</ele>
        <time>2021-07-15T08:12:58.000Z</time>
      </trkpt>
      <trkpt lat="47.2849" lon="-2.50263">
        <ele>-16.200000762939</ele>
        <time>2021-07-15T08:13:03.000Z</time>
      </trkpt>
      <trkpt lat="47.28504" lon="-2.50277">
        <ele>-16.200000762939</ele>
        <time>2021-07-15T08:13:08.000Z</time>
      </trkpt>
      <trkpt lat="47.28519" lon="-2.50282">
        <ele>-15.800000190735</ele>
        <time>2021-07-15T08:13:11.000Z</time>
      </trkpt>
      <trkpt lat="47.28524" lon="-2.50284">
        <ele>-15.199999809265</ele>
        <time>2021-07-15T08:13:12.000Z</time>
      </trkpt>
      <trkpt lat="47.28528" lon="-2.50287">
        <ele>-14.800000190735</ele>
        <time>2021-07-15T08:13:13.000Z</time>
      </trkpt>
      <trkpt lat="47.28533" lon="-2.50292">
        <ele>-14.39999961853</ele>
        <time>2021-07-15T08:13:14.000Z</time>
      </trkpt>
      <trkpt lat="47.28537" lon="-2.50296">
        <ele>-14</ele>
        <time>2021-07-15T08:13:15.000Z</time>
      </trkpt>
      <trkpt lat="47.28542" lon="-2.503">
        <ele>-14</ele>
        <time>2021-07-15T08:13:16.000Z</time>
      </trkpt>
      <trkpt lat="47.28552" lon="-2.50307">
        <ele>-14</ele>
        <time>2021-07-15T08:13:18.000Z</time>
      </trkpt>
      <trkpt lat="47.28587" lon="-2.50324">
        <ele>-14</ele>
        <time>2021-07-15T08:13:25.000Z</time>
      </trkpt>
      <trkpt lat="47.28609" lon="-2.50328">
        <ele>-14</ele>
        <time>2021-07-15T08:13:29.000Z</time>
      </trkpt>
      <trkpt lat="47.2862" lon="-2.50334">
        <ele>-14</ele>
        <time>2021-07-15T08:13:31.000Z</time>
      </trkpt>
      <trkpt lat="47.28654" lon="-2.50357">
        <ele>-14</ele>
        <time>2021-07-15T08:13:38.000Z</time>
      </trkpt>
      <trkpt lat="47.28659" lon="-2.50361">
        <ele>-14</ele>
        <time>2021-07-15T08:13:39.000Z</time>
      </trkpt>
      <trkpt lat="47.28663" lon="-2.50364">
        <ele>-14</ele>
        <time>2021-07-15T08:13:40.000Z</time>
      </trkpt>
      <trkpt lat="47.28681" lon="-2.5038">
        <ele>-14</ele>
        <time>2021-07-15T08:13:44.000Z</time>
      </trkpt>
      <trkpt lat="47.28715" lon="-2.50413">
        <ele>-14</ele>
        <time>2021-07-15T08:13:52.000Z</time>
      </trkpt>
      <trkpt lat="47.28738" lon="-2.50441">
        <ele>-14</ele>
        <time>2021-07-15T08:13:58.000Z</time>
      </trkpt>
      <trkpt lat="47.28749" lon="-2.50454">
        <ele>-14</ele>
        <time>2021-07-15T08:14:01.000Z</time>
      </trkpt>
      <trkpt lat="47.28761" lon="-2.50464">
        <ele>-14</ele>
        <time>2021-07-15T08:14:04.000Z</time>
      </trkpt>
      <trkpt lat="47.28765" lon="-2.50466">
        <ele>-14</ele>
        <time>2021-07-15T08:14:05.000Z</time>
      </trkpt>
      <trkpt lat="47.28783" lon="-2.50479">
        <ele>-14</ele>
        <time>2021-07-15T08:14:10.000Z</time>
      </trkpt>
      <trkpt lat="47.28814" lon="-2.505">
        <ele>-14</ele>
        <time>2021-07-15T08:14:17.000Z</time>
      </trkpt>
      <trkpt lat="47.28845" lon="-2.50518">
        <ele>-14</ele>
        <time>2021-07-15T08:14:24.000Z</time>
      </trkpt>
      <trkpt lat="47.2885" lon="-2.50519">
        <ele>-14</ele>
        <time>2021-07-15T08:14:25.000Z</time>
      </trkpt>
      <trkpt lat="47.28862" lon="-2.50529">
        <ele>-14</ele>
        <time>2021-07-15T08:14:28.000Z</time>
      </trkpt>
      <trkpt lat="47.28874" lon="-2.50539">
        <ele>-14</ele>
        <time>2021-07-15T08:14:31.000Z</time>
      </trkpt>
      <trkpt lat="47.28883" lon="-2.50545">
        <ele>-14</ele>
        <time>2021-07-15T08:14:33.000Z</time>
      </trkpt>
      <trkpt lat="47.2891" lon="-2.50563">
        <ele>-14</ele>
        <time>2021-07-15T08:14:40.000Z</time>
      </trkpt>
      <trkpt lat="47.28935" lon="-2.50581">
        <ele>-14</ele>
        <time>2021-07-15T08:14:47.000Z</time>
      </trkpt>
      <trkpt lat="47.2896" lon="-2.50598">
        <ele>-14</ele>
        <time>2021-07-15T08:14:53.000Z</time>
      </trkpt>
      <trkpt lat="47.29" lon="-2.50625">
        <ele>-14</ele>
        <time>2021-07-15T08:15:02.000Z</time>
      </trkpt>
      <trkpt lat="47.29018" lon="-2.50637">
        <ele>-14</ele>
        <time>2021-07-15T08:15:06.000Z</time>
      </trkpt>
      <trkpt lat="47.2903" lon="-2.50649">
        <ele>-14</ele>
        <time>2021-07-15T08:15:09.000Z</time>
      </trkpt>
      <trkpt lat="47.29041" lon="-2.50656">
        <ele>-14</ele>
        <time>2021-07-15T08:15:13.000Z</time>
      </trkpt>
      <trkpt lat="47.29044" lon="-2.50643">
        <ele>-14</ele>
        <time>2021-07-15T08:15:16.000Z</time>
      </trkpt>
      <trkpt lat="47.29049" lon="-2.50613">
        <ele>-14</ele>
        <time>2021-07-15T08:15:21.000Z</time>
      </trkpt>
      <trkpt lat="47.29051" lon="-2.50608">
        <ele>-14</ele>
        <time>2021-07-15T08:15:22.000Z</time>
      </trkpt>
      <trkpt lat="47.29058" lon="-2.5059">
        <ele>-14</ele>
        <time>2021-07-15T08:15:26.000Z</time>
      </trkpt>
      <trkpt lat="47.29072" lon="-2.50558">
        <ele>-14</ele>
        <time>2021-07-15T08:15:33.000Z</time>
      </trkpt>
      <trkpt lat="47.29078" lon="-2.50542">
        <ele>-14</ele>
        <time>2021-07-15T08:15:37.000Z</time>
      </trkpt>
      <trkpt lat="47.29085" lon="-2.50525">
        <ele>-14</ele>
        <time>2021-07-15T08:15:45.000Z</time>
      </trkpt>
      <trkpt lat="47.29088" lon="-2.5052">
        <ele>-14</ele>
        <time>2021-07-15T08:15:51.000Z</time>
      </trkpt>
      <trkpt lat="47.29089" lon="-2.50517">
        <ele>-14</ele>
        <time>2021-07-15T08:15:54.000Z</time>
      </trkpt>
      <trkpt lat="47.2909" lon="-2.50511">
        <ele>-14</ele>
        <time>2021-07-15T08:15:57.000Z</time>
      </trkpt>
      <trkpt lat="47.29094" lon="-2.50498">
        <ele>-14</ele>
        <time>2021-07-15T08:16:03.000Z</time>
      </trkpt>
      <trkpt lat="47.291" lon="-2.5048">
        <ele>-14</ele>
        <time>2021-07-15T08:16:10.000Z</time>
      </trkpt>
      <trkpt lat="47.2911" lon="-2.50461">
        <ele>-14</ele>
        <time>2021-07-15T08:16:18.000Z</time>
      </trkpt>
      <trkpt lat="47.29122" lon="-2.50456">
        <ele>-14</ele>
        <time>2021-07-15T08:16:22.000Z</time>
      </trkpt>
      <trkpt lat="47.29142" lon="-2.50465">
        <ele>-14</ele>
        <time>2021-07-15T08:16:27.000Z</time>
      </trkpt>
      <trkpt lat="47.29173" lon="-2.50484">
        <ele>-14</ele>
        <time>2021-07-15T08:16:35.000Z</time>
      </trkpt>
      <trkpt lat="47.29184" lon="-2.50494">
        <ele>-14</ele>
        <time>2021-07-15T08:16:38.000Z</time>
      </trkpt>
      <trkpt lat="47.29199" lon="-2.50509">
        <ele>-14</ele>
        <time>2021-07-15T08:16:42.000Z</time>
      </trkpt>
      <trkpt lat="47.29215" lon="-2.50533">
        <ele>-14</ele>
        <time>2021-07-15T08:16:48.000Z</time>
      </trkpt>
      <trkpt lat="47.29217" lon="-2.50544">
        <ele>-14</ele>
        <time>2021-07-15T08:16:50.000Z</time>
      </trkpt>
      <trkpt lat="47.29215" lon="-2.50557">
        <ele>-14</ele>
        <time>2021-07-15T08:16:52.000Z</time>
      </trkpt>
      <trkpt lat="47.29209" lon="-2.50616">
        <ele>-14</ele>
        <time>2021-07-15T08:17:01.000Z</time>
      </trkpt>
      <trkpt lat="47.29209" lon="-2.50622">
        <ele>-14</ele>
        <time>2021-07-15T08:17:02.000Z</time>
      </trkpt>
      <trkpt lat="47.29211" lon="-2.50661">
        <ele>-14</ele>
        <time>2021-07-15T08:17:09.000Z</time>
      </trkpt>
      <trkpt lat="47.29218" lon="-2.50685">
        <ele>-14</ele>
        <time>2021-07-15T08:17:14.000Z</time>
      </trkpt>
      <trkpt lat="47.29221" lon="-2.507">
        <ele>-14</ele>
        <time>2021-07-15T08:17:19.000Z</time>
      </trkpt>
      <trkpt lat="47.2922" lon="-2.50704">
        <ele>-14</ele>
        <time>2021-07-15T08:17:20.000Z</time>
      </trkpt>
      <trkpt lat="47.29216" lon="-2.50713">
        <ele>-14</ele>
        <time>2021-07-15T08:17:22.000Z</time>
      </trkpt>
      <trkpt lat="47.29209" lon="-2.50737">
        <ele>-14</ele>
        <time>2021-07-15T08:17:28.000Z</time>
      </trkpt>
      <trkpt lat="47.29203" lon="-2.5076">
        <ele>-14</ele>
        <time>2021-07-15T08:17:35.000Z</time>
      </trkpt>
      <trkpt lat="47.292" lon="-2.50777">
        <ele>-14</ele>
        <time>2021-07-15T08:17:41.000Z</time>
      </trkpt>
      <trkpt lat="47.29207" lon="-2.50793">
        <ele>-14</ele>
        <time>2021-07-15T08:17:45.000Z</time>
      </trkpt>
      <trkpt lat="47.29225" lon="-2.50822">
        <ele>-14</ele>
        <time>2021-07-15T08:17:52.000Z</time>
      </trkpt>
      <trkpt lat="47.29235" lon="-2.50844">
        <ele>-14</ele>
        <time>2021-07-15T08:17:58.000Z</time>
      </trkpt>
      <trkpt lat="47.29243" lon="-2.50855">
        <ele>-14</ele>
        <time>2021-07-15T08:18:04.000Z</time>
      </trkpt>
      <trkpt lat="47.29245" lon="-2.50859">
        <ele>-14</ele>
        <time>2021-07-15T08:18:07.000Z</time>
      </trkpt>
      <trkpt lat="47.29245" lon="-2.50859">
        <ele>-14</ele>
        <time>2021-07-15T08:18:08.000Z</time>
      </trkpt>
      <trkpt lat="47.29244" lon="-2.50856">
        <ele>-14</ele>
        <time>2021-07-15T08:18:17.000Z</time>
      </trkpt>
      <trkpt lat="47.29236" lon="-2.50848">
        <ele>-14</ele>
        <time>2021-07-15T08:18:22.000Z</time>
      </trkpt>
      <trkpt lat="47.29232" lon="-2.50853">
        <ele>-14</ele>
        <time>2021-07-15T08:18:26.000Z</time>
      </trkpt>
      <trkpt lat="47.29225" lon="-2.50862">
        <ele>-14</ele>
        <time>2021-07-15T08:18:30.000Z</time>
      </trkpt>
      <trkpt lat="47.29215" lon="-2.50862">
        <ele>-14</ele>
        <time>2021-07-15T08:18:33.000Z</time>
      </trkpt>
      <trkpt lat="47.29211" lon="-2.50862">
        <ele>-14</ele>
        <time>2021-07-15T08:18:34.000Z</time>
      </trkpt>
      <trkpt lat="47.29182" lon="-2.50867">
        <ele>-14</ele>
        <time>2021-07-15T08:18:42.000Z</time>
      </trkpt>
      <trkpt lat="47.29169" lon="-2.50869">
        <ele>-14</ele>
        <time>2021-07-15T08:18:45.000Z</time>
      </trkpt>
      <trkpt lat="47.29161" lon="-2.50867">
        <ele>-14</ele>
        <time>2021-07-15T08:18:47.000Z</time>
      </trkpt>
      <trkpt lat="47.29152" lon="-2.50861">
        <ele>-14</ele>
        <time>2021-07-15T08:18:49.000Z</time>
      </trkpt>
      <trkpt lat="47.29136" lon="-2.50852">
        <ele>-14</ele>
        <time>2021-07-15T08:18:52.000Z</time>
      </trkpt>
      <trkpt lat="47.29105" lon="-2.50835">
        <ele>-14</ele>
        <time>2021-07-15T08:18:58.000Z</time>
      </trkpt>
      <trkpt lat="47.29067" lon="-2.50816">
        <ele>-14</ele>
        <time>2021-07-15T08:19:04.000Z</time>
      </trkpt>
      <trkpt lat="47.29021" lon="-2.50792">
        <ele>-14</ele>
        <time>2021-07-15T08:19:12.000Z</time>
      </trkpt>
      <trkpt lat="47.28979" lon="-2.50764">
        <ele>-14</ele>
        <time>2021-07-15T08:19:20.000Z</time>
      </trkpt>
      <trkpt lat="47.28939" lon="-2.50743">
        <ele>-14</ele>
        <time>2021-07-15T08:19:27.000Z</time>
      </trkpt>
      <trkpt lat="47.28934" lon="-2.50739">
        <ele>-14</ele>
        <time>2021-07-15T08:19:28.000Z</time>
      </trkpt>
      <trkpt lat="47.28913" lon="-2.50718">
        <ele>-14</ele>
        <time>2021-07-15T08:19:32.000Z</time>
      </trkpt>
      <trkpt lat="47.28888" lon="-2.50677">
        <ele>-14</ele>
        <time>2021-07-15T08:19:38.000Z</time>
      </trkpt>
      <trkpt lat="47.28868" lon="-2.50644">
        <ele>-14</ele>
        <time>2021-07-15T08:19:43.000Z</time>
      </trkpt>
      <trkpt lat="47.28858" lon="-2.50635">
        <ele>-14</ele>
        <time>2021-07-15T08:19:45.000Z</time>
      </trkpt>
      <trkpt lat="47.28847" lon="-2.50628">
        <ele>-14</ele>
        <time>2021-07-15T08:19:47.000Z</time>
      </trkpt>
      <trkpt lat="47.28829" lon="-2.50619">
        <ele>-14</ele>
        <time>2021-07-15T08:19:50.000Z</time>
      </trkpt>
      <trkpt lat="47.28798" lon="-2.50607">
        <ele>-14</ele>
        <time>2021-07-15T08:19:55.000Z</time>
      </trkpt>
      <trkpt lat="47.28788" lon="-2.50602">
        <ele>-14</ele>
        <time>2021-07-15T08:19:57.000Z</time>
      </trkpt>
      <trkpt lat="47.28747" lon="-2.50583">
        <ele>-14</ele>
        <time>2021-07-15T08:20:04.000Z</time>
      </trkpt>
      <trkpt lat="47.28712" lon="-2.50561">
        <ele>-14</ele>
        <time>2021-07-15T08:20:10.000Z</time>
      </trkpt>
      <trkpt lat="47.28666" lon="-2.5053">
        <ele>-14</ele>
        <time>2021-07-15T08:20:18.000Z</time>
      </trkpt>
      <trkpt lat="47.28616" lon="-2.50497">
        <ele>-14</ele>
        <time>2021-07-15T08:20:27.000Z</time>
      </trkpt>
      <trkpt lat="47.2861" lon="-2.50494">
        <ele>-14</ele>
        <time>2021-07-15T08:20:28.000Z</time>
      </trkpt>
      <trkpt lat="47.28569" lon="-2.50466">
        <ele>-14</ele>
        <time>2021-07-15T08:20:35.000Z</time>
      </trkpt>
      <trkpt lat="47.28518" lon="-2.50433">
        <ele>-14</ele>
        <time>2021-07-15T08:20:44.000Z</time>
      </trkpt>
      <trkpt lat="47.28477" lon="-2.50406">
        <ele>-14</ele>
        <time>2021-07-15T08:20:52.000Z</time>
      </trkpt>
      <trkpt lat="47.2843" lon="-2.50378">
        <ele>-14</ele>
        <time>2021-07-15T08:21:00.000Z</time>
      </trkpt>
      <trkpt lat="47.28381" lon="-2.50346">
        <ele>-14</ele>
        <time>2021-07-15T08:21:08.000Z</time>
      </trkpt>
      <trkpt lat="47.28352" lon="-2.50327">
        <ele>-14</ele>
        <time>2021-07-15T08:21:14.000Z</time>
      </trkpt>
      <trkpt lat="47.28343" lon="-2.5032">
        <ele>-14</ele>
        <time>2021-07-15T08:21:16.000Z</time>
      </trkpt>
      <trkpt lat="47.2833" lon="-2.50312">
        <ele>-14</ele>
        <time>2021-07-15T08:21:19.000Z</time>
      </trkpt>
      <trkpt lat="47.28327" lon="-2.50312">
        <ele>-14</ele>
        <time>2021-07-15T08:21:20.000Z</time>
      </trkpt>
      <trkpt lat="47.28318" lon="-2.50318">
        <ele>-14</ele>
        <time>2021-07-15T08:21:24.000Z</time>
      </trkpt>
      <trkpt lat="47.28309" lon="-2.5033">
        <ele>-14</ele>
        <time>2021-07-15T08:21:27.000Z</time>
      </trkpt>
      <trkpt lat="47.28305" lon="-2.50332">
        <ele>-14</ele>
        <time>2021-07-15T08:21:28.000Z</time>
      </trkpt>
      <trkpt lat="47.28292" lon="-2.50327">
        <ele>-14</ele>
        <time>2021-07-15T08:21:31.000Z</time>
      </trkpt>
      <trkpt lat="47.2828" lon="-2.50312">
        <ele>-14</ele>
        <time>2021-07-15T08:21:34.000Z</time>
      </trkpt>
      <trkpt lat="47.28275" lon="-2.50309">
        <ele>-14</ele>
        <time>2021-07-15T08:21:35.000Z</time>
      </trkpt>
      <trkpt lat="47.28271" lon="-2.50304">
        <ele>-14</ele>
        <time>2021-07-15T08:21:36.000Z</time>
      </trkpt>
      <trkpt lat="47.28265" lon="-2.50292">
        <ele>-14</ele>
        <time>2021-07-15T08:21:38.000Z</time>
      </trkpt>
      <trkpt lat="47.28248" lon="-2.50257">
        <ele>-14</ele>
        <time>2021-07-15T08:21:43.000Z</time>
      </trkpt>
      <trkpt lat="47.28244" lon="-2.50251">
        <ele>-14</ele>
        <time>2021-07-15T08:21:44.000Z</time>
      </trkpt>
      <trkpt lat="47.28218" lon="-2.50213">
        <ele>-14</ele>
        <time>2021-07-15T08:21:50.000Z</time>
      </trkpt>
      <trkpt lat="47.28215" lon="-2.50205">
        <ele>-14</ele>
        <time>2021-07-15T08:21:51.000Z</time>
      </trkpt>
      <trkpt lat="47.28205" lon="-2.50174">
        <ele>-14</ele>
        <time>2021-07-15T08:21:55.000Z</time>
      </trkpt>
      <trkpt lat="47.28198" lon="-2.50149">
        <ele>-14</ele>
        <time>2021-07-15T08:21:59.000Z</time>
      </trkpt>
      <trkpt lat="47.28195" lon="-2.50132">
        <ele>-14</ele>
        <time>2021-07-15T08:22:01.000Z</time>
      </trkpt>
      <trkpt lat="47.28184" lon="-2.50074">
        <ele>-14</ele>
        <time>2021-07-15T08:22:08.000Z</time>
      </trkpt>
      <trkpt lat="47.28171" lon="-2.50003">
        <ele>-14</ele>
        <time>2021-07-15T08:22:16.000Z</time>
      </trkpt>
      <trkpt lat="47.28163" lon="-2.49955">
        <ele>-14</ele>
        <time>2021-07-15T08:22:21.000Z</time>
      </trkpt>
      <trkpt lat="47.28155" lon="-2.49917">
        <ele>-14</ele>
        <time>2021-07-15T08:22:25.000Z</time>
      </trkpt>
      <trkpt lat="47.28153" lon="-2.49889">
        <ele>-14</ele>
        <time>2021-07-15T08:22:28.000Z</time>
      </trkpt>
      <trkpt lat="47.28146" lon="-2.49837">
        <ele>-14</ele>
        <time>2021-07-15T08:22:34.000Z</time>
      </trkpt>
      <trkpt lat="47.28145" lon="-2.49828">
        <ele>-14</ele>
        <time>2021-07-15T08:22:35.000Z</time>
      </trkpt>
      <trkpt lat="47.28145" lon="-2.49819">
        <ele>-13.60000038147</ele>
        <time>2021-07-15T08:22:36.000Z</time>
      </trkpt>
      <trkpt lat="47.28144" lon="-2.49811">
        <ele>-13.199999809265</ele>
        <time>2021-07-15T08:22:37.000Z</time>
      </trkpt>
      <trkpt lat="47.28143" lon="-2.49802">
        <ele>-12.800000190735</ele>
        <time>2021-07-15T08:22:38.000Z</time>
      </trkpt>
      <trkpt lat="47.28141" lon="-2.49794">
        <ele>-12.39999961853</ele>
        <time>2021-07-15T08:22:39.000Z</time>
      </trkpt>
      <trkpt lat="47.2814" lon="-2.49786">
        <ele>-12</ele>
        <time>2021-07-15T08:22:40.000Z</time>
      </trkpt>
      <trkpt lat="47.28136" lon="-2.49754">
        <ele>-12</ele>
        <time>2021-07-15T08:22:45.000Z</time>
      </trkpt>
      <trkpt lat="47.28134" lon="-2.49715">
        <ele>-12</ele>
        <time>2021-07-15T08:22:52.000Z</time>
      </trkpt>
      <trkpt lat="47.28128" lon="-2.49677">
        <ele>-12</ele>
        <time>2021-07-15T08:22:58.000Z</time>
      </trkpt>
      <trkpt lat="47.28117" lon="-2.49642">
        <ele>-12</ele>
        <time>2021-07-15T08:23:04.000Z</time>
      </trkpt>
      <trkpt lat="47.281" lon="-2.49619">
        <ele>-12</ele>
        <time>2021-07-15T08:23:09.000Z</time>
      </trkpt>
      <trkpt lat="47.28079" lon="-2.4959">
        <ele>-12</ele>
        <time>2021-07-15T08:23:15.000Z</time>
      </trkpt>
      <trkpt lat="47.28051" lon="-2.49554">
        <ele>-12</ele>
        <time>2021-07-15T08:23:21.000Z</time>
      </trkpt>
      <trkpt lat="47.28036" lon="-2.49535">
        <ele>-12</ele>
        <time>2021-07-15T08:23:24.000Z</time>
      </trkpt>
      <trkpt lat="47.28021" lon="-2.49517">
        <ele>-12</ele>
        <time>2021-07-15T08:23:27.000Z</time>
      </trkpt>
      <trkpt lat="47.27989" lon="-2.49469">
        <ele>-12</ele>
        <time>2021-07-15T08:23:35.000Z</time>
      </trkpt>
      <trkpt lat="47.27976" lon="-2.4945">
        <ele>-11.39999961853</ele>
        <time>2021-07-15T08:23:38.000Z</time>
      </trkpt>
      <trkpt lat="47.27972" lon="-2.49444">
        <ele>-11</ele>
        <time>2021-07-15T08:23:39.000Z</time>
      </trkpt>
      <trkpt lat="47.27967" lon="-2.49438">
        <ele>-10.60000038147</ele>
        <time>2021-07-15T08:23:40.000Z</time>
      </trkpt>
      <trkpt lat="47.27963" lon="-2.49433">
        <ele>-10.199999809265</ele>
        <time>2021-07-15T08:23:41.000Z</time>
      </trkpt>
      <trkpt lat="47.27959" lon="-2.49427">
        <ele>-9.8000001907349</ele>
        <time>2021-07-15T08:23:42.000Z</time>
      </trkpt>
      <trkpt lat="47.27927" lon="-2.49383">
        <ele>-9.8000001907349</ele>
        <time>2021-07-15T08:23:49.000Z</time>
      </trkpt>
      <trkpt lat="47.27893" lon="-2.49336">
        <ele>-9.8000001907349</ele>
        <time>2021-07-15T08:23:56.000Z</time>
      </trkpt>
      <trkpt lat="47.27849" lon="-2.49286">
        <ele>-9.8000001907349</ele>
        <time>2021-07-15T08:24:04.000Z</time>
      </trkpt>
      <trkpt lat="47.27818" lon="-2.49268">
        <ele>-9.8000001907349</ele>
        <time>2021-07-15T08:24:09.000Z</time>
      </trkpt>
      <trkpt lat="47.27783" lon="-2.4926">
        <ele>-9.8000001907349</ele>
        <time>2021-07-15T08:24:14.000Z</time>
      </trkpt>
      <trkpt lat="47.27728" lon="-2.49258">
        <ele>-9.8000001907349</ele>
        <time>2021-07-15T08:24:22.000Z</time>
      </trkpt>
      <trkpt lat="47.27722" lon="-2.49258">
        <ele>-9.8000001907349</ele>
        <time>2021-07-15T08:24:23.000Z</time>
      </trkpt>
      <trkpt lat="47.27682" lon="-2.49251">
        <ele>-9.8000001907349</ele>
        <time>2021-07-15T08:24:29.000Z</time>
      </trkpt>
      <trkpt lat="47.27655" lon="-2.49242">
        <ele>-9.8000001907349</ele>
        <time>2021-07-15T08:24:33.000Z</time>
      </trkpt>
      <trkpt lat="47.27649" lon="-2.49241">
        <ele>-9.8000001907349</ele>
        <time>2021-07-15T08:24:34.000Z</time>
      </trkpt>
      <trkpt lat="47.27635" lon="-2.49238">
        <ele>-9.8000001907349</ele>
        <time>2021-07-15T08:24:37.000Z</time>
      </trkpt>
      <trkpt lat="47.27625" lon="-2.49216">
        <ele>-9.8000001907349</ele>
        <time>2021-07-15T08:24:40.000Z</time>
      </trkpt>
      <trkpt lat="47.27621" lon="-2.4921">
        <ele>-9.8000001907349</ele>
        <time>2021-07-15T08:24:41.000Z</time>
      </trkpt>
      <trkpt lat="47.27605" lon="-2.49181">
        <ele>-9.8000001907349</ele>
        <time>2021-07-15T08:24:45.000Z</time>
      </trkpt>
      <trkpt lat="47.27589" lon="-2.49135">
        <ele>-9.8000001907349</ele>
        <time>2021-07-15T08:24:50.000Z</time>
      </trkpt>
      <trkpt lat="47.27585" lon="-2.49095">
        <ele>-9.8000001907349</ele>
        <time>2021-07-15T08:24:54.000Z</time>
      </trkpt>
      <trkpt lat="47.27584" lon="-2.49085">
        <ele>-9.8000001907349</ele>
        <time>2021-07-15T08:24:55.000Z</time>
      </trkpt>
      <trkpt lat="47.27587" lon="-2.49016">
        <ele>-9.8000001907349</ele>
        <time>2021-07-15T08:25:02.000Z</time>
      </trkpt>
      <trkpt lat="47.27589" lon="-2.48996">
        <ele>-9.3999996185303</ele>
        <time>2021-07-15T08:25:04.000Z</time>
      </trkpt>
      <trkpt lat="47.27589" lon="-2.48986">
        <ele>-9</ele>
        <time>2021-07-15T08:25:05.000Z</time>
      </trkpt>
      <trkpt lat="47.2759" lon="-2.48975">
        <ele>-8.6000003814697</ele>
        <time>2021-07-15T08:25:06.000Z</time>
      </trkpt>
      <trkpt lat="47.27591" lon="-2.48964">
        <ele>-8</ele>
        <time>2021-07-15T08:25:07.000Z</time>
      </trkpt>
      <trkpt lat="47.27592" lon="-2.48954">
        <ele>-7.5999999046326</ele>
        <time>2021-07-15T08:25:08.000Z</time>
      </trkpt>
      <trkpt lat="47.27597" lon="-2.48885">
        <ele>-7.5999999046326</ele>
        <time>2021-07-15T08:25:15.000Z</time>
      </trkpt>
      <trkpt lat="47.27598" lon="-2.48875">
        <ele>-7.5999999046326</ele>
        <time>2021-07-15T08:25:16.000Z</time>
      </trkpt>
      <trkpt lat="47.276" lon="-2.48838">
        <ele>-7.5999999046326</ele>
        <time>2021-07-15T08:25:21.000Z</time>
      </trkpt>
      <trkpt lat="47.27601" lon="-2.48825">
        <ele>-7.5999999046326</ele>
        <time>2021-07-15T08:25:23.000Z</time>
      </trkpt>
      <trkpt lat="47.27603" lon="-2.48803">
        <ele>-7.5999999046326</ele>
        <time>2021-07-15T08:25:26.000Z</time>
      </trkpt>
      <trkpt lat="47.27603" lon="-2.48795">
        <ele>-7.5999999046326</ele>
        <time>2021-07-15T08:25:27.000Z</time>
      </trkpt>
      <trkpt lat="47.27601" lon="-2.48762">
        <ele>-7.5999999046326</ele>
        <time>2021-07-15T08:25:31.000Z</time>
      </trkpt>
      <trkpt lat="47.27594" lon="-2.48697">
        <ele>-7.5999999046326</ele>
        <time>2021-07-15T08:25:39.000Z</time>
      </trkpt>
      <trkpt lat="47.2759" lon="-2.48647">
        <ele>-7.5999999046326</ele>
        <time>2021-07-15T08:25:45.000Z</time>
      </trkpt>
      <trkpt lat="47.27587" lon="-2.48642">
        <ele>-7.5999999046326</ele>
        <time>2021-07-15T08:25:46.000Z</time>
      </trkpt>
      <trkpt lat="47.27579" lon="-2.48643">
        <ele>-7.5999999046326</ele>
        <time>2021-07-15T08:25:48.000Z</time>
      </trkpt>
      <trkpt lat="47.2757" lon="-2.48661">
        <ele>-7.5999999046326</ele>
        <time>2021-07-15T08:25:51.000Z</time>
      </trkpt>
      <trkpt lat="47.27568" lon="-2.48668">
        <ele>-7.5999999046326</ele>
        <time>2021-07-15T08:25:52.000Z</time>
      </trkpt>
      <trkpt lat="47.27562" lon="-2.48682">
        <ele>-7.5999999046326</ele>
        <time>2021-07-15T08:25:54.000Z</time>
      </trkpt>
      <trkpt lat="47.27554" lon="-2.48692">
        <ele>-7.5999999046326</ele>
        <time>2021-07-15T08:25:56.000Z</time>
      </trkpt>
      <trkpt lat="47.27539" lon="-2.48696">
        <ele>-7.5999999046326</ele>
        <time>2021-07-15T08:25:59.000Z</time>
      </trkpt>
      <trkpt lat="47.27535" lon="-2.48696">
        <ele>-7.5999999046326</ele>
        <time>2021-07-15T08:26:00.000Z</time>
      </trkpt>
      <trkpt lat="47.27521" lon="-2.4869">
        <ele>-7.5999999046326</ele>
        <time>2021-07-15T08:26:04.000Z</time>
      </trkpt>
      <trkpt lat="47.27517" lon="-2.48669">
        <ele>-7.5999999046326</ele>
        <time>2021-07-15T08:26:08.000Z</time>
      </trkpt>
      <trkpt lat="47.27515" lon="-2.48646">
        <ele>-7.5999999046326</ele>
        <time>2021-07-15T08:26:13.000Z</time>
      </trkpt>
      <trkpt lat="47.27515" lon="-2.48633">
        <ele>-7.5999999046326</ele>
        <time>2021-07-15T08:26:19.000Z</time>
      </trkpt>
      <trkpt lat="47.27515" lon="-2.48633">
        <ele>-7.5999999046326</ele>
        <time>2021-07-15T08:26:20.000Z</time>
      </trkpt>
      <trkpt lat="47.27513" lon="-2.48635">
        <ele>-9.6000003814697</ele>
        <time>2021-07-15T08:42:37.000Z</time>
      </trkpt>
      <trkpt lat="47.2751" lon="-2.48634">
        <ele>-9.6000003814697</ele>
        <time>2021-07-15T08:42:39.000Z</time>
      </trkpt>
      <trkpt lat="47.27509" lon="-2.48632">
        <ele>-9.6000003814697</ele>
        <time>2021-07-15T08:42:40.000Z</time>
      </trkpt>
      <trkpt lat="47.27506" lon="-2.48622">
        <ele>-9.6000003814697</ele>
        <time>2021-07-15T08:42:44.000Z</time>
      </trkpt>
      <trkpt lat="47.27505" lon="-2.4862">
        <ele>-9.6000003814697</ele>
        <time>2021-07-15T08:42:45.000Z</time>
      </trkpt>
      <trkpt lat="47.27499" lon="-2.48611">
        <ele>-9.6000003814697</ele>
        <time>2021-07-15T08:42:49.000Z</time>
      </trkpt>
      <trkpt lat="47.27486" lon="-2.48591">
        <ele>-9.6000003814697</ele>
        <time>2021-07-15T08:42:56.000Z</time>
      </trkpt>
      <trkpt lat="47.27478" lon="-2.48575">
        <ele>-9.6000003814697</ele>
        <time>2021-07-15T08:43:02.000Z</time>
      </trkpt>
      <trkpt lat="47.2747" lon="-2.48563">
        <ele>-9.6000003814697</ele>
        <time>2021-07-15T08:43:08.000Z</time>
      </trkpt>
      <trkpt lat="47.27462" lon="-2.48565">
        <ele>-9.6000003814697</ele>
        <time>2021-07-15T08:43:15.000Z</time>
      </trkpt>
      <trkpt lat="47.27459" lon="-2.48579">
        <ele>-9.6000003814697</ele>
        <time>2021-07-15T08:43:19.000Z</time>
      </trkpt>
      <trkpt lat="47.27459" lon="-2.48601">
        <ele>-9.6000003814697</ele>
        <time>2021-07-15T08:43:25.000Z</time>
      </trkpt>
      <trkpt lat="47.27455" lon="-2.48619">
        <ele>-9.6000003814697</ele>
        <time>2021-07-15T08:43:31.000Z</time>
      </trkpt>
      <trkpt lat="47.27448" lon="-2.48627">
        <ele>-9.6000003814697</ele>
        <time>2021-07-15T08:43:37.000Z</time>
      </trkpt>
      <trkpt lat="47.27449" lon="-2.48623">
        <ele>-9.6000003814697</ele>
        <time>2021-07-15T08:44:09.000Z</time>
      </trkpt>
      <trkpt lat="47.27451" lon="-2.48616">
        <ele>-9.6000003814697</ele>
        <time>2021-07-15T08:44:12.000Z</time>
      </trkpt>
      <trkpt lat="47.27455" lon="-2.48612">
        <ele>-9.6000003814697</ele>
        <time>2021-07-15T08:44:15.000Z</time>
      </trkpt>
      <trkpt lat="47.27458" lon="-2.48609">
        <ele>-9.6000003814697</ele>
        <time>2021-07-15T08:44:17.000Z</time>
      </trkpt>
      <trkpt lat="47.27459" lon="-2.48592">
        <ele>-9.6000003814697</ele>
        <time>2021-07-15T08:44:21.000Z</time>
      </trkpt>
      <trkpt lat="47.27459" lon="-2.48581">
        <ele>-9.6000003814697</ele>
        <time>2021-07-15T08:44:23.000Z</time>
      </trkpt>
      <trkpt lat="47.2746" lon="-2.48571">
        <ele>-9.6000003814697</ele>
        <time>2021-07-15T08:44:25.000Z</time>
      </trkpt>
      <trkpt lat="47.27463" lon="-2.4856">
        <ele>-9.6000003814697</ele>
        <time>2021-07-15T08:44:27.000Z</time>
      </trkpt>
      <trkpt lat="47.2747" lon="-2.48535">
        <ele>-9.6000003814697</ele>
        <time>2021-07-15T08:44:32.000Z</time>
      </trkpt>
      <trkpt lat="47.27468" lon="-2.48502">
        <ele>-9.6000003814697</ele>
        <time>2021-07-15T08:44:38.000Z</time>
      </trkpt>
      <trkpt lat="47.27465" lon="-2.48458">
        <ele>-9.6000003814697</ele>
        <time>2021-07-15T08:44:46.000Z</time>
      </trkpt>
      <trkpt lat="47.27457" lon="-2.48422">
        <ele>-9.6000003814697</ele>
        <time>2021-07-15T08:44:53.000Z</time>
      </trkpt>
      <trkpt lat="47.27446" lon="-2.48385">
        <ele>-9.6000003814697</ele>
        <time>2021-07-15T08:45:00.000Z</time>
      </trkpt>
      <trkpt lat="47.27441" lon="-2.4837">
        <ele>-9.1999998092651</ele>
        <time>2021-07-15T08:45:03.000Z</time>
      </trkpt>
      <trkpt lat="47.2744" lon="-2.48365">
        <ele>-8.8000001907349</ele>
        <time>2021-07-15T08:45:04.000Z</time>
      </trkpt>
      <trkpt lat="47.27439" lon="-2.4836">
        <ele>-8</ele>
        <time>2021-07-15T08:45:05.000Z</time>
      </trkpt>
      <trkpt lat="47.27437" lon="-2.48356">
        <ele>-7.5999999046326</ele>
        <time>2021-07-15T08:45:06.000Z</time>
      </trkpt>
      <trkpt lat="47.27434" lon="-2.48345">
        <ele>-7.5999999046326</ele>
        <time>2021-07-15T08:45:08.000Z</time>
      </trkpt>
      <trkpt lat="47.27425" lon="-2.48289">
        <ele>-7.5999999046326</ele>
        <time>2021-07-15T08:45:17.000Z</time>
      </trkpt>
      <trkpt lat="47.27418" lon="-2.48245">
        <ele>-7.5999999046326</ele>
        <time>2021-07-15T08:45:24.000Z</time>
      </trkpt>
      <trkpt lat="47.27409" lon="-2.48199">
        <ele>-7.5999999046326</ele>
        <time>2021-07-15T08:45:33.000Z</time>
      </trkpt>
      <trkpt lat="47.27407" lon="-2.48185">
        <ele>-7.5999999046326</ele>
        <time>2021-07-15T08:45:38.000Z</time>
      </trkpt>
      <trkpt lat="47.27407" lon="-2.48178">
        <ele>-7.5999999046326</ele>
        <time>2021-07-15T08:45:43.000Z</time>
      </trkpt>
      <trkpt lat="47.27407" lon="-2.48174">
        <ele>-7.5999999046326</ele>
        <time>2021-07-15T08:45:53.000Z</time>
      </trkpt>
      <trkpt lat="47.27409" lon="-2.48157">
        <ele>-7.5999999046326</ele>
        <time>2021-07-15T08:46:00.000Z</time>
      </trkpt>
      <trkpt lat="47.27408" lon="-2.48149">
        <ele>-7.5999999046326</ele>
        <time>2021-07-15T08:46:05.000Z</time>
      </trkpt>
      <trkpt lat="47.27409" lon="-2.4814">
        <ele>-7.5999999046326</ele>
        <time>2021-07-15T08:46:10.000Z</time>
      </trkpt>
      <trkpt lat="47.2741" lon="-2.48133">
        <ele>-7.5999999046326</ele>
        <time>2021-07-15T08:46:13.000Z</time>
      </trkpt>
      <trkpt lat="47.27412" lon="-2.48131">
        <ele>-7.5999999046326</ele>
        <time>2021-07-15T08:46:14.000Z</time>
      </trkpt>
      <trkpt lat="47.27422" lon="-2.48131">
        <ele>-7.5999999046326</ele>
        <time>2021-07-15T08:46:18.000Z</time>
      </trkpt>
      <trkpt lat="47.27437" lon="-2.48132">
        <ele>-7.1999998092651</ele>
        <time>2021-07-15T08:46:23.000Z</time>
      </trkpt>
      <trkpt lat="47.2744" lon="-2.48131">
        <ele>-6.8000001907349</ele>
        <time>2021-07-15T08:46:24.000Z</time>
      </trkpt>
      <trkpt lat="47.27443" lon="-2.4813">
        <ele>-6.4000000953674</ele>
        <time>2021-07-15T08:46:25.000Z</time>
      </trkpt>
      <trkpt lat="47.27447" lon="-2.48129">
        <ele>-6</ele>
        <time>2021-07-15T08:46:26.000Z</time>
      </trkpt>
      <trkpt lat="47.2745" lon="-2.48128">
        <ele>-5.5999999046326</ele>
        <time>2021-07-15T08:46:27.000Z</time>
      </trkpt>
      <trkpt lat="47.27463" lon="-2.48124">
        <ele>-5.5999999046326</ele>
        <time>2021-07-15T08:46:31.000Z</time>
      </trkpt>
      <trkpt lat="47.27481" lon="-2.48116">
        <ele>-5</ele>
        <time>2021-07-15T08:46:37.000Z</time>
      </trkpt>
      <trkpt lat="47.27484" lon="-2.48115">
        <ele>-4.5999999046326</ele>
        <time>2021-07-15T08:46:38.000Z</time>
      </trkpt>
      <trkpt lat="47.27486" lon="-2.48115">
        <ele>-4.1999998092651</ele>
        <time>2021-07-15T08:46:39.000Z</time>
      </trkpt>
      <trkpt lat="47.27487" lon="-2.48114">
        <ele>-3.7999999523163</ele>
        <time>2021-07-15T08:46:40.000Z</time>
      </trkpt>
      <trkpt lat="47.27489" lon="-2.48114">
        <ele>-3.4000000953674</ele>
        <time>2021-07-15T08:46:41.000Z</time>
      </trkpt>
      <trkpt lat="47.2749" lon="-2.48113">
        <ele>-3.4000000953674</ele>
        <time>2021-07-15T08:46:42.000Z</time>
      </trkpt>
      <trkpt lat="47.27491" lon="-2.48111">
        <ele>-3.4000000953674</ele>
        <time>2021-07-15T08:46:43.000Z</time>
      </trkpt>
      <trkpt lat="47.27491" lon="-2.48105">
        <ele>-3.4000000953674</ele>
        <time>2021-07-15T08:46:45.000Z</time>
      </trkpt>
      <trkpt lat="47.27486" lon="-2.48092">
        <ele>-3.4000000953674</ele>
        <time>2021-07-15T08:46:48.000Z</time>
      </trkpt>
      <trkpt lat="47.27482" lon="-2.48082">
        <ele>-3.4000000953674</ele>
        <time>2021-07-15T08:46:50.000Z</time>
      </trkpt>
      <trkpt lat="47.27479" lon="-2.48077">
        <ele>-3.4000000953674</ele>
        <time>2021-07-15T08:46:51.000Z</time>
      </trkpt>
      <trkpt lat="47.27469" lon="-2.48054">
        <ele>-3.4000000953674</ele>
        <time>2021-07-15T08:46:55.000Z</time>
      </trkpt>
      <trkpt lat="47.27448" lon="-2.48012">
        <ele>-3.4000000953674</ele>
        <time>2021-07-15T08:47:01.000Z</time>
      </trkpt>
      <trkpt lat="47.27423" lon="-2.47968">
        <ele>-3.4000000953674</ele>
        <time>2021-07-15T08:47:06.000Z</time>
      </trkpt>
      <trkpt lat="47.27417" lon="-2.4796">
        <ele>-3.7999999523163</ele>
        <time>2021-07-15T08:47:07.000Z</time>
      </trkpt>
      <trkpt lat="47.27411" lon="-2.47952">
        <ele>-4.1999998092651</ele>
        <time>2021-07-15T08:47:08.000Z</time>
      </trkpt>
      <trkpt lat="47.27404" lon="-2.47945">
        <ele>-5</ele>
        <time>2021-07-15T08:47:09.000Z</time>
      </trkpt>
      <trkpt lat="47.27397" lon="-2.47938">
        <ele>-5.4000000953674</ele>
        <time>2021-07-15T08:47:10.000Z</time>
      </trkpt>
      <trkpt lat="47.2739" lon="-2.47931">
        <ele>-5.4000000953674</ele>
        <time>2021-07-15T08:47:11.000Z</time>
      </trkpt>
      <trkpt lat="47.27348" lon="-2.47898">
        <ele>-5.4000000953674</ele>
        <time>2021-07-15T08:47:17.000Z</time>
      </trkpt>
      <trkpt lat="47.27296" lon="-2.47855">
        <ele>-5.4000000953674</ele>
        <time>2021-07-15T08:47:25.000Z</time>
      </trkpt>
      <trkpt lat="47.2729" lon="-2.4785">
        <ele>-5.8000001907349</ele>
        <time>2021-07-15T08:47:26.000Z</time>
      </trkpt>
      <trkpt lat="47.27284" lon="-2.47844">
        <ele>-6.1999998092651</ele>
        <time>2021-07-15T08:47:27.000Z</time>
      </trkpt>
      <trkpt lat="47.27278" lon="-2.47839">
        <ele>-6.5999999046326</ele>
        <time>2021-07-15T08:47:28.000Z</time>
      </trkpt>
      <trkpt lat="47.27272" lon="-2.47833">
        <ele>-7</ele>
        <time>2021-07-15T08:47:29.000Z</time>
      </trkpt>
      <trkpt lat="47.27266" lon="-2.47826">
        <ele>-7.4000000953674</ele>
        <time>2021-07-15T08:47:30.000Z</time>
      </trkpt>
      <trkpt lat="47.2726" lon="-2.47818">
        <ele>-7.4000000953674</ele>
        <time>2021-07-15T08:47:31.000Z</time>
      </trkpt>
      <trkpt lat="47.27237" lon="-2.47777">
        <ele>-7.4000000953674</ele>
        <time>2021-07-15T08:47:36.000Z</time>
      </trkpt>
      <trkpt lat="47.27217" lon="-2.47732">
        <ele>-7.4000000953674</ele>
        <time>2021-07-15T08:47:41.000Z</time>
      </trkpt>
      <trkpt lat="47.27207" lon="-2.47687">
        <ele>-7.4000000953674</ele>
        <time>2021-07-15T08:47:46.000Z</time>
      </trkpt>
      <trkpt lat="47.27204" lon="-2.47661">
        <ele>-7.4000000953674</ele>
        <time>2021-07-15T08:47:50.000Z</time>
      </trkpt>
      <trkpt lat="47.27204" lon="-2.47656">
        <ele>-7</ele>
        <time>2021-07-15T08:47:51.000Z</time>
      </trkpt>
      <trkpt lat="47.27203" lon="-2.47653">
        <ele>-6.5999999046326</ele>
        <time>2021-07-15T08:47:52.000Z</time>
      </trkpt>
      <trkpt lat="47.27203" lon="-2.47649">
        <ele>-6.1999998092651</ele>
        <time>2021-07-15T08:47:53.000Z</time>
      </trkpt>
      <trkpt lat="47.27203" lon="-2.47646">
        <ele>-5.8000001907349</ele>
        <time>2021-07-15T08:47:54.000Z</time>
      </trkpt>
      <trkpt lat="47.27204" lon="-2.47643">
        <ele>-5.4000000953674</ele>
        <time>2021-07-15T08:47:55.000Z</time>
      </trkpt>
      <trkpt lat="47.27215" lon="-2.47636">
        <ele>-5.4000000953674</ele>
        <time>2021-07-15T08:47:59.000Z</time>
      </trkpt>
      <trkpt lat="47.27226" lon="-2.47629">
        <ele>-5.4000000953674</ele>
        <time>2021-07-15T08:48:02.000Z</time>
      </trkpt>
      <trkpt lat="47.27235" lon="-2.47622">
        <ele>-5.4000000953674</ele>
        <time>2021-07-15T08:48:04.000Z</time>
      </trkpt>
      <trkpt lat="47.27251" lon="-2.47611">
        <ele>-5</ele>
        <time>2021-07-15T08:48:08.000Z</time>
      </trkpt>
      <trkpt lat="47.27255" lon="-2.47608">
        <ele>-4.5999999046326</ele>
        <time>2021-07-15T08:48:09.000Z</time>
      </trkpt>
      <trkpt lat="47.2726" lon="-2.47605">
        <ele>-4.1999998092651</ele>
        <time>2021-07-15T08:48:10.000Z</time>
      </trkpt>
      <trkpt lat="47.27264" lon="-2.47602">
        <ele>-3.7999999523163</ele>
        <time>2021-07-15T08:48:11.000Z</time>
      </trkpt>
      <trkpt lat="47.27269" lon="-2.47599">
        <ele>-3.4000000953674</ele>
        <time>2021-07-15T08:48:12.000Z</time>
      </trkpt>
      <trkpt lat="47.27297" lon="-2.47582">
        <ele>-3.4000000953674</ele>
        <time>2021-07-15T08:48:18.000Z</time>
      </trkpt>
      <trkpt lat="47.27307" lon="-2.47575">
        <ele>-3.4000000953674</ele>
        <time>2021-07-15T08:48:22.000Z</time>
      </trkpt>
      <trkpt lat="47.27303" lon="-2.47561">
        <ele>-3.4000000953674</ele>
        <time>2021-07-15T08:48:26.000Z</time>
      </trkpt>
      <trkpt lat="47.27296" lon="-2.47547">
        <ele>-3.4000000953674</ele>
        <time>2021-07-15T08:48:29.000Z</time>
      </trkpt>
      <trkpt lat="47.27294" lon="-2.47541">
        <ele>-3.4000000953674</ele>
        <time>2021-07-15T08:48:30.000Z</time>
      </trkpt>
      <trkpt lat="47.27292" lon="-2.47534">
        <ele>-3.4000000953674</ele>
        <time>2021-07-15T08:48:31.000Z</time>
      </trkpt>
      <trkpt lat="47.27284" lon="-2.47506">
        <ele>-3.4000000953674</ele>
        <time>2021-07-15T08:48:35.000Z</time>
      </trkpt>
      <trkpt lat="47.2728" lon="-2.47493">
        <ele>-3.4000000953674</ele>
        <time>2021-07-15T08:48:37.000Z</time>
      </trkpt>
      <trkpt lat="47.27269" lon="-2.47441">
        <ele>-3.4000000953674</ele>
        <time>2021-07-15T08:48:44.000Z</time>
      </trkpt>
      <trkpt lat="47.27273" lon="-2.4741">
        <ele>-2.5999999046326</ele>
        <time>2021-07-15T08:48:48.000Z</time>
      </trkpt>
      <trkpt lat="47.27276" lon="-2.47404">
        <ele>-2.2000000476837</ele>
        <time>2021-07-15T08:48:49.000Z</time>
      </trkpt>
      <trkpt lat="47.2728" lon="-2.47397">
        <ele>-1.7999999523163</ele>
        <time>2021-07-15T08:48:50.000Z</time>
      </trkpt>
      <trkpt lat="47.27284" lon="-2.47391">
        <ele>-1.2000000476837</ele>
        <time>2021-07-15T08:48:51.000Z</time>
      </trkpt>
      <trkpt lat="47.27287" lon="-2.47386">
        <ele>-1.2000000476837</ele>
        <time>2021-07-15T08:48:52.000Z</time>
      </trkpt>
      <trkpt lat="47.2729" lon="-2.47379">
        <ele>-1.2000000476837</ele>
        <time>2021-07-15T08:48:53.000Z</time>
      </trkpt>
      <trkpt lat="47.27294" lon="-2.47356">
        <ele>-1.2000000476837</ele>
        <time>2021-07-15T08:48:56.000Z</time>
      </trkpt>
      <trkpt lat="47.27294" lon="-2.47349">
        <ele>-1.2000000476837</ele>
        <time>2021-07-15T08:48:57.000Z</time>
      </trkpt>
      <trkpt lat="47.27294" lon="-2.47335">
        <ele>-1.2000000476837</ele>
        <time>2021-07-15T08:48:59.000Z</time>
      </trkpt>
      <trkpt lat="47.27296" lon="-2.47325">
        <ele>-1.2000000476837</ele>
        <time>2021-07-15T08:49:01.000Z</time>
      </trkpt>
      <trkpt lat="47.27305" lon="-2.47306">
        <ele>-1.2000000476837</ele>
        <time>2021-07-15T08:49:06.000Z</time>
      </trkpt>
      <trkpt lat="47.27319" lon="-2.47302">
        <ele>-1.2000000476837</ele>
        <time>2021-07-15T08:49:09.000Z</time>
      </trkpt>
      <trkpt lat="47.27325" lon="-2.473">
        <ele>-1.2000000476837</ele>
        <time>2021-07-15T08:49:10.000Z</time>
      </trkpt>
      <trkpt lat="47.2734" lon="-2.47296">
        <ele>-1.2000000476837</ele>
        <time>2021-07-15T08:49:12.000Z</time>
      </trkpt>
      <trkpt lat="47.27347" lon="-2.47292">
        <ele>-1.2000000476837</ele>
        <time>2021-07-15T08:49:13.000Z</time>
      </trkpt>
      <trkpt lat="47.27354" lon="-2.47288">
        <ele>-1.7999999523163</ele>
        <time>2021-07-15T08:49:14.000Z</time>
      </trkpt>
      <trkpt lat="47.27361" lon="-2.47283">
        <ele>-2.2000000476837</ele>
        <time>2021-07-15T08:49:15.000Z</time>
      </trkpt>
      <trkpt lat="47.27368" lon="-2.47278">
        <ele>-2.5999999046326</ele>
        <time>2021-07-15T08:49:16.000Z</time>
      </trkpt>
      <trkpt lat="47.27374" lon="-2.47273">
        <ele>-3</ele>
        <time>2021-07-15T08:49:17.000Z</time>
      </trkpt>
      <trkpt lat="47.27381" lon="-2.47268">
        <ele>-3.4000000953674</ele>
        <time>2021-07-15T08:49:18.000Z</time>
      </trkpt>
      <trkpt lat="47.27391" lon="-2.47259">
        <ele>-3.4000000953674</ele>
        <time>2021-07-15T08:49:20.000Z</time>
      </trkpt>
      <trkpt lat="47.27422" lon="-2.4724">
        <ele>-3.4000000953674</ele>
        <time>2021-07-15T08:49:26.000Z</time>
      </trkpt>
      <trkpt lat="47.27437" lon="-2.47232">
        <ele>-3.7999999523163</ele>
        <time>2021-07-15T08:49:29.000Z</time>
      </trkpt>
      <trkpt lat="47.27442" lon="-2.47228">
        <ele>-4.1999998092651</ele>
        <time>2021-07-15T08:49:30.000Z</time>
      </trkpt>
      <trkpt lat="47.27448" lon="-2.47225">
        <ele>-4.5999999046326</ele>
        <time>2021-07-15T08:49:31.000Z</time>
      </trkpt>
      <trkpt lat="47.27453" lon="-2.47221">
        <ele>-5</ele>
        <time>2021-07-15T08:49:32.000Z</time>
      </trkpt>
      <trkpt lat="47.27458" lon="-2.47218">
        <ele>-5.4000000953674</ele>
        <time>2021-07-15T08:49:33.000Z</time>
      </trkpt>
      <trkpt lat="47.27483" lon="-2.472">
        <ele>-5.4000000953674</ele>
        <time>2021-07-15T08:49:38.000Z</time>
      </trkpt>
      <trkpt lat="47.27488" lon="-2.47198">
        <ele>-5.4000000953674</ele>
        <time>2021-07-15T08:49:39.000Z</time>
      </trkpt>
      <trkpt lat="47.27498" lon="-2.47194">
        <ele>-5.4000000953674</ele>
        <time>2021-07-15T08:49:41.000Z</time>
      </trkpt>
      <trkpt lat="47.27503" lon="-2.47184">
        <ele>-5.4000000953674</ele>
        <time>2021-07-15T08:49:43.000Z</time>
      </trkpt>
      <trkpt lat="47.27498" lon="-2.47166">
        <ele>-5.4000000953674</ele>
        <time>2021-07-15T08:49:46.000Z</time>
      </trkpt>
      <trkpt lat="47.27484" lon="-2.47129">
        <ele>-5.4000000953674</ele>
        <time>2021-07-15T08:49:51.000Z</time>
      </trkpt>
      <trkpt lat="47.27475" lon="-2.47096">
        <ele>-5.4000000953674</ele>
        <time>2021-07-15T08:49:55.000Z</time>
      </trkpt>
      <trkpt lat="47.27475" lon="-2.47087">
        <ele>-5.4000000953674</ele>
        <time>2021-07-15T08:49:56.000Z</time>
      </trkpt>
      <trkpt lat="47.27481" lon="-2.47074">
        <ele>-5.4000000953674</ele>
        <time>2021-07-15T08:49:58.000Z</time>
      </trkpt>
      <trkpt lat="47.27491" lon="-2.47064">
        <ele>-5.4000000953674</ele>
        <time>2021-07-15T08:50:00.000Z</time>
      </trkpt>
      <trkpt lat="47.27501" lon="-2.47053">
        <ele>-5.4000000953674</ele>
        <time>2021-07-15T08:50:02.000Z</time>
      </trkpt>
      <trkpt lat="47.27531" lon="-2.47014">
        <ele>-5.4000000953674</ele>
        <time>2021-07-15T08:50:09.000Z</time>
      </trkpt>
      <trkpt lat="47.27534" lon="-2.47008">
        <ele>-5.4000000953674</ele>
        <time>2021-07-15T08:50:10.000Z</time>
      </trkpt>
      <trkpt lat="47.27547" lon="-2.46983">
        <ele>-5.4000000953674</ele>
        <time>2021-07-15T08:50:14.000Z</time>
      </trkpt>
      <trkpt lat="47.2756" lon="-2.46977">
        <ele>-5.4000000953674</ele>
        <time>2021-07-15T08:50:17.000Z</time>
      </trkpt>
      <trkpt lat="47.27579" lon="-2.46988">
        <ele>-5.4000000953674</ele>
        <time>2021-07-15T08:50:21.000Z</time>
      </trkpt>
      <trkpt lat="47.27583" lon="-2.4699">
        <ele>-5.4000000953674</ele>
        <time>2021-07-15T08:50:22.000Z</time>
      </trkpt>
      <trkpt lat="47.27596" lon="-2.46994">
        <ele>-5.4000000953674</ele>
        <time>2021-07-15T08:50:25.000Z</time>
      </trkpt>
      <trkpt lat="47.276" lon="-2.46994">
        <ele>-5.4000000953674</ele>
        <time>2021-07-15T08:50:26.000Z</time>
      </trkpt>
      <trkpt lat="47.27619" lon="-2.46994">
        <ele>-5.4000000953674</ele>
        <time>2021-07-15T08:50:31.000Z</time>
      </trkpt>
      <trkpt lat="47.27623" lon="-2.46993">
        <ele>-5.4000000953674</ele>
        <time>2021-07-15T08:50:32.000Z</time>
      </trkpt>
      <trkpt lat="47.27632" lon="-2.46992">
        <ele>-5.4000000953674</ele>
        <time>2021-07-15T08:50:34.000Z</time>
      </trkpt>
      <trkpt lat="47.27643" lon="-2.46994">
        <ele>-5.4000000953674</ele>
        <time>2021-07-15T08:50:36.000Z</time>
      </trkpt>
      <trkpt lat="47.27648" lon="-2.46994">
        <ele>-5.8000001907349</ele>
        <time>2021-07-15T08:50:37.000Z</time>
      </trkpt>
      <trkpt lat="47.27653" lon="-2.46994">
        <ele>-6.4000000953674</ele>
        <time>2021-07-15T08:50:38.000Z</time>
      </trkpt>
      <trkpt lat="47.27656" lon="-2.46993">
        <ele>-6.8000001907349</ele>
        <time>2021-07-15T08:50:39.000Z</time>
      </trkpt>
      <trkpt lat="47.27658" lon="-2.4699">
        <ele>-7.4000000953674</ele>
        <time>2021-07-15T08:50:40.000Z</time>
      </trkpt>
      <trkpt lat="47.27659" lon="-2.46986">
        <ele>-7.8000001907349</ele>
        <time>2021-07-15T08:50:41.000Z</time>
      </trkpt>
      <trkpt lat="47.27663" lon="-2.4697">
        <ele>-7.8000001907349</ele>
        <time>2021-07-15T08:50:44.000Z</time>
      </trkpt>
      <trkpt lat="47.27663" lon="-2.46964">
        <ele>-7.8000001907349</ele>
        <time>2021-07-15T08:50:45.000Z</time>
      </trkpt>
      <trkpt lat="47.27664" lon="-2.46952">
        <ele>-7.8000001907349</ele>
        <time>2021-07-15T08:50:47.000Z</time>
      </trkpt>
      <trkpt lat="47.27669" lon="-2.4693">
        <ele>-7.8000001907349</ele>
        <time>2021-07-15T08:50:51.000Z</time>
      </trkpt>
      <trkpt lat="47.27682" lon="-2.46924">
        <ele>-7.8000001907349</ele>
        <time>2021-07-15T08:50:55.000Z</time>
      </trkpt>
      <trkpt lat="47.27695" lon="-2.46928">
        <ele>-7.8000001907349</ele>
        <time>2021-07-15T08:50:58.000Z</time>
      </trkpt>
      <trkpt lat="47.27704" lon="-2.46931">
        <ele>-7.8000001907349</ele>
        <time>2021-07-15T08:51:00.000Z</time>
      </trkpt>
      <trkpt lat="47.27735" lon="-2.46929">
        <ele>-7.8000001907349</ele>
        <time>2021-07-15T08:51:06.000Z</time>
      </trkpt>
      <trkpt lat="47.27756" lon="-2.46928">
        <ele>-7.8000001907349</ele>
        <time>2021-07-15T08:51:10.000Z</time>
      </trkpt>
      <trkpt lat="47.27763" lon="-2.4693">
        <ele>-8.1999998092651</ele>
        <time>2021-07-15T08:51:12.000Z</time>
      </trkpt>
      <trkpt lat="47.27765" lon="-2.46931">
        <ele>-8.8000001907349</ele>
        <time>2021-07-15T08:51:13.000Z</time>
      </trkpt>
      <trkpt lat="47.27767" lon="-2.4693">
        <ele>-9.1999998092651</ele>
        <time>2021-07-15T08:51:14.000Z</time>
      </trkpt>
      <trkpt lat="47.27768" lon="-2.46927">
        <ele>-9.6000003814697</ele>
        <time>2021-07-15T08:51:15.000Z</time>
      </trkpt>
      <trkpt lat="47.27769" lon="-2.46922">
        <ele>-10</ele>
        <time>2021-07-15T08:51:16.000Z</time>
      </trkpt>
      <trkpt lat="47.2777" lon="-2.46905">
        <ele>-10</ele>
        <time>2021-07-15T08:51:20.000Z</time>
      </trkpt>
      <trkpt lat="47.27776" lon="-2.46891">
        <ele>-10</ele>
        <time>2021-07-15T08:51:23.000Z</time>
      </trkpt>
      <trkpt lat="47.27779" lon="-2.46884">
        <ele>-10</ele>
        <time>2021-07-15T08:51:24.000Z</time>
      </trkpt>
      <trkpt lat="47.27783" lon="-2.46849">
        <ele>-10</ele>
        <time>2021-07-15T08:51:28.000Z</time>
      </trkpt>
      <trkpt lat="47.27782" lon="-2.4683">
        <ele>-10</ele>
        <time>2021-07-15T08:51:30.000Z</time>
      </trkpt>
      <trkpt lat="47.27778" lon="-2.46812">
        <ele>-10</ele>
        <time>2021-07-15T08:51:32.000Z</time>
      </trkpt>
      <trkpt lat="47.27771" lon="-2.46784">
        <ele>-10</ele>
        <time>2021-07-15T08:51:35.000Z</time>
      </trkpt>
      <trkpt lat="47.27766" lon="-2.46766">
        <ele>-10</ele>
        <time>2021-07-15T08:51:37.000Z</time>
      </trkpt>
      <trkpt lat="47.27756" lon="-2.46728">
        <ele>-10</ele>
        <time>2021-07-15T08:51:42.000Z</time>
      </trkpt>
      <trkpt lat="47.27754" lon="-2.46708">
        <ele>-10</ele>
        <time>2021-07-15T08:51:45.000Z</time>
      </trkpt>
      <trkpt lat="47.27756" lon="-2.46701">
        <ele>-10</ele>
        <time>2021-07-15T08:51:46.000Z</time>
      </trkpt>
      <trkpt lat="47.27758" lon="-2.4668">
        <ele>-10</ele>
        <time>2021-07-15T08:51:49.000Z</time>
      </trkpt>
      <trkpt lat="47.27758" lon="-2.46673">
        <ele>-10</ele>
        <time>2021-07-15T08:51:50.000Z</time>
      </trkpt>
      <trkpt lat="47.27761" lon="-2.46647">
        <ele>-10</ele>
        <time>2021-07-15T08:51:54.000Z</time>
      </trkpt>
      <trkpt lat="47.27757" lon="-2.46627">
        <ele>-10</ele>
        <time>2021-07-15T08:51:57.000Z</time>
      </trkpt>
      <trkpt lat="47.27762" lon="-2.46612">
        <ele>-10</ele>
        <time>2021-07-15T08:52:00.000Z</time>
      </trkpt>
      <trkpt lat="47.2776" lon="-2.46594">
        <ele>-10</ele>
        <time>2021-07-15T08:52:04.000Z</time>
      </trkpt>
      <trkpt lat="47.27756" lon="-2.46586">
        <ele>-10</ele>
        <time>2021-07-15T08:52:06.000Z</time>
      </trkpt>
      <trkpt lat="47.27753" lon="-2.46581">
        <ele>-10</ele>
        <time>2021-07-15T08:52:07.000Z</time>
      </trkpt>
      <trkpt lat="47.2775" lon="-2.46576">
        <ele>-10</ele>
        <time>2021-07-15T08:52:08.000Z</time>
      </trkpt>
      <trkpt lat="47.27745" lon="-2.46563">
        <ele>-10</ele>
        <time>2021-07-15T08:52:10.000Z</time>
      </trkpt>
      <trkpt lat="47.27738" lon="-2.4654">
        <ele>-10</ele>
        <time>2021-07-15T08:52:13.000Z</time>
      </trkpt>
      <trkpt lat="47.27727" lon="-2.46487">
        <ele>-10</ele>
        <time>2021-07-15T08:52:19.000Z</time>
      </trkpt>
      <trkpt lat="47.27711" lon="-2.46442">
        <ele>-10</ele>
        <time>2021-07-15T08:52:24.000Z</time>
      </trkpt>
      <trkpt lat="47.27687" lon="-2.46383">
        <ele>-10</ele>
        <time>2021-07-15T08:52:31.000Z</time>
      </trkpt>
      <trkpt lat="47.27676" lon="-2.46348">
        <ele>-10</ele>
        <time>2021-07-15T08:52:36.000Z</time>
      </trkpt>
      <trkpt lat="47.27675" lon="-2.46342">
        <ele>-10</ele>
        <time>2021-07-15T08:52:37.000Z</time>
      </trkpt>
      <trkpt lat="47.27674" lon="-2.46327">
        <ele>-10</ele>
        <time>2021-07-15T08:52:40.000Z</time>
      </trkpt>
      <trkpt lat="47.27668" lon="-2.46306">
        <ele>-10</ele>
        <time>2021-07-15T08:52:45.000Z</time>
      </trkpt>
      <trkpt lat="47.27658" lon="-2.46282">
        <ele>-10</ele>
        <time>2021-07-15T08:52:50.000Z</time>
      </trkpt>
      <trkpt lat="47.27666" lon="-2.46268">
        <ele>-10</ele>
        <time>2021-07-15T08:52:53.000Z</time>
      </trkpt>
      <trkpt lat="47.27671" lon="-2.46239">
        <ele>-10</ele>
        <time>2021-07-15T08:52:57.000Z</time>
      </trkpt>
      <trkpt lat="47.2767" lon="-2.4623">
        <ele>-10</ele>
        <time>2021-07-15T08:52:58.000Z</time>
      </trkpt>
      <trkpt lat="47.27667" lon="-2.46195">
        <ele>-10</ele>
        <time>2021-07-15T08:53:02.000Z</time>
      </trkpt>
      <trkpt lat="47.27666" lon="-2.46151">
        <ele>-10</ele>
        <time>2021-07-15T08:53:07.000Z</time>
      </trkpt>
      <trkpt lat="47.27661" lon="-2.46126">
        <ele>-10</ele>
        <time>2021-07-15T08:53:11.000Z</time>
      </trkpt>
      <trkpt lat="47.27659" lon="-2.46117">
        <ele>-10</ele>
        <time>2021-07-15T08:53:15.000Z</time>
      </trkpt>
      <trkpt lat="47.27658" lon="-2.46104">
        <ele>-10</ele>
        <time>2021-07-15T08:53:22.000Z</time>
      </trkpt>
      <trkpt lat="47.27654" lon="-2.46081">
        <ele>-10</ele>
        <time>2021-07-15T08:53:27.000Z</time>
      </trkpt>
      <trkpt lat="47.27648" lon="-2.46051">
        <ele>-10</ele>
        <time>2021-07-15T08:53:31.000Z</time>
      </trkpt>
      <trkpt lat="47.27647" lon="-2.46042">
        <ele>-10</ele>
        <time>2021-07-15T08:53:32.000Z</time>
      </trkpt>
      <trkpt lat="47.27646" lon="-2.46032">
        <ele>-10</ele>
        <time>2021-07-15T08:53:33.000Z</time>
      </trkpt>
      <trkpt lat="47.27639" lon="-2.45993">
        <ele>-10</ele>
        <time>2021-07-15T08:53:37.000Z</time>
      </trkpt>
      <trkpt lat="47.27638" lon="-2.45937">
        <ele>-10</ele>
        <time>2021-07-15T08:53:42.000Z</time>
      </trkpt>
      <trkpt lat="47.27638" lon="-2.45914">
        <ele>-10</ele>
        <time>2021-07-15T08:53:44.000Z</time>
      </trkpt>
      <trkpt lat="47.2764" lon="-2.4587">
        <ele>-10</ele>
        <time>2021-07-15T08:53:48.000Z</time>
      </trkpt>
      <trkpt lat="47.27643" lon="-2.45809">
        <ele>-10</ele>
        <time>2021-07-15T08:53:54.000Z</time>
      </trkpt>
      <trkpt lat="47.2764" lon="-2.45764">
        <ele>-10</ele>
        <time>2021-07-15T08:53:59.000Z</time>
      </trkpt>
      <trkpt lat="47.27635" lon="-2.45727">
        <ele>-10</ele>
        <time>2021-07-15T08:54:04.000Z</time>
      </trkpt>
      <trkpt lat="47.27633" lon="-2.45715">
        <ele>-9.6000003814697</ele>
        <time>2021-07-15T08:54:06.000Z</time>
      </trkpt>
      <trkpt lat="47.27631" lon="-2.4571">
        <ele>-9.1999998092651</ele>
        <time>2021-07-15T08:54:07.000Z</time>
      </trkpt>
      <trkpt lat="47.2763" lon="-2.45705">
        <ele>-8.3999996185303</ele>
        <time>2021-07-15T08:54:08.000Z</time>
      </trkpt>
      <trkpt lat="47.27627" lon="-2.45702">
        <ele>-8</ele>
        <time>2021-07-15T08:54:09.000Z</time>
      </trkpt>
      <trkpt lat="47.27625" lon="-2.457">
        <ele>-8</ele>
        <time>2021-07-15T08:54:10.000Z</time>
      </trkpt>
      <trkpt lat="47.27617" lon="-2.45705">
        <ele>-8</ele>
        <time>2021-07-15T08:54:12.000Z</time>
      </trkpt>
      <trkpt lat="47.27607" lon="-2.45711">
        <ele>-8</ele>
        <time>2021-07-15T08:54:14.000Z</time>
      </trkpt>
      <trkpt lat="47.27595" lon="-2.45716">
        <ele>-8</ele>
        <time>2021-07-15T08:54:16.000Z</time>
      </trkpt>
      <trkpt lat="47.27545" lon="-2.45733">
        <ele>-8</ele>
        <time>2021-07-15T08:54:24.000Z</time>
      </trkpt>
      <trkpt lat="47.27489" lon="-2.45754">
        <ele>-8</ele>
        <time>2021-07-15T08:54:33.000Z</time>
      </trkpt>
      <trkpt lat="47.27483" lon="-2.45756">
        <ele>-8</ele>
        <time>2021-07-15T08:54:34.000Z</time>
      </trkpt>
      <trkpt lat="47.27432" lon="-2.45771">
        <ele>-8</ele>
        <time>2021-07-15T08:54:42.000Z</time>
      </trkpt>
      <trkpt lat="47.27385" lon="-2.45778">
        <ele>-8</ele>
        <time>2021-07-15T08:54:49.000Z</time>
      </trkpt>
      <trkpt lat="47.27379" lon="-2.45778">
        <ele>-8</ele>
        <time>2021-07-15T08:54:50.000Z</time>
      </trkpt>
      <trkpt lat="47.2737" lon="-2.45771">
        <ele>-8</ele>
        <time>2021-07-15T08:54:52.000Z</time>
      </trkpt>
      <trkpt lat="47.27362" lon="-2.4575">
        <ele>-8</ele>
        <time>2021-07-15T08:54:55.000Z</time>
      </trkpt>
      <trkpt lat="47.2736" lon="-2.45743">
        <ele>-8</ele>
        <time>2021-07-15T08:54:56.000Z</time>
      </trkpt>
      <trkpt lat="47.27346" lon="-2.45699">
        <ele>-8</ele>
        <time>2021-07-15T08:55:02.000Z</time>
      </trkpt>
      <trkpt lat="47.27331" lon="-2.45655">
        <ele>-8</ele>
        <time>2021-07-15T08:55:09.000Z</time>
      </trkpt>
      <trkpt lat="47.27323" lon="-2.45617">
        <ele>-8</ele>
        <time>2021-07-15T08:55:14.000Z</time>
      </trkpt>
      <trkpt lat="47.27323" lon="-2.45609">
        <ele>-8</ele>
        <time>2021-07-15T08:55:15.000Z</time>
      </trkpt>
      <trkpt lat="47.27332" lon="-2.45594">
        <ele>-8</ele>
        <time>2021-07-15T08:55:18.000Z</time>
      </trkpt>
      <trkpt lat="47.27343" lon="-2.45588">
        <ele>-8</ele>
        <time>2021-07-15T08:55:20.000Z</time>
      </trkpt>
      <trkpt lat="47.27355" lon="-2.4558">
        <ele>-8</ele>
        <time>2021-07-15T08:55:22.000Z</time>
      </trkpt>
      <trkpt lat="47.27374" lon="-2.45573">
        <ele>-8</ele>
        <time>2021-07-15T08:55:25.000Z</time>
      </trkpt>
      <trkpt lat="47.27387" lon="-2.45569">
        <ele>-8</ele>
        <time>2021-07-15T08:55:27.000Z</time>
      </trkpt>
      <trkpt lat="47.27424" lon="-2.45555">
        <ele>-8</ele>
        <time>2021-07-15T08:55:33.000Z</time>
      </trkpt>
      <trkpt lat="47.27429" lon="-2.4555">
        <ele>-8</ele>
        <time>2021-07-15T08:55:34.000Z</time>
      </trkpt>
      <trkpt lat="47.27435" lon="-2.45526">
        <ele>-8</ele>
        <time>2021-07-15T08:55:37.000Z</time>
      </trkpt>
      <trkpt lat="47.27442" lon="-2.4551">
        <ele>-8</ele>
        <time>2021-07-15T08:55:40.000Z</time>
      </trkpt>
      <trkpt lat="47.27447" lon="-2.45507">
        <ele>-8</ele>
        <time>2021-07-15T08:55:41.000Z</time>
      </trkpt>
      <trkpt lat="47.27468" lon="-2.45495">
        <ele>-8</ele>
        <time>2021-07-15T08:55:45.000Z</time>
      </trkpt>
      <trkpt lat="47.27493" lon="-2.45472">
        <ele>-8</ele>
        <time>2021-07-15T08:55:50.000Z</time>
      </trkpt>
      <trkpt lat="47.27493" lon="-2.45456">
        <ele>-8</ele>
        <time>2021-07-15T08:55:52.000Z</time>
      </trkpt>
      <trkpt lat="47.27488" lon="-2.45411">
        <ele>-8</ele>
        <time>2021-07-15T08:55:57.000Z</time>
      </trkpt>
      <trkpt lat="47.27489" lon="-2.45405">
        <ele>-8</ele>
        <time>2021-07-15T08:55:58.000Z</time>
      </trkpt>
      <trkpt lat="47.27492" lon="-2.45401">
        <ele>-8</ele>
        <time>2021-07-15T08:55:59.000Z</time>
      </trkpt>
      <trkpt lat="47.27496" lon="-2.454">
        <ele>-8</ele>
        <time>2021-07-15T08:56:00.000Z</time>
      </trkpt>
      <trkpt lat="47.27501" lon="-2.45399">
        <ele>-8</ele>
        <time>2021-07-15T08:56:01.000Z</time>
      </trkpt>
      <trkpt lat="47.27522" lon="-2.45392">
        <ele>-8</ele>
        <time>2021-07-15T08:56:05.000Z</time>
      </trkpt>
      <trkpt lat="47.27527" lon="-2.45389">
        <ele>-8</ele>
        <time>2021-07-15T08:56:06.000Z</time>
      </trkpt>
      <trkpt lat="47.27563" lon="-2.45372">
        <ele>-8</ele>
        <time>2021-07-15T08:56:12.000Z</time>
      </trkpt>
      <trkpt lat="47.27607" lon="-2.45361">
        <ele>-8</ele>
        <time>2021-07-15T08:56:19.000Z</time>
      </trkpt>
      <trkpt lat="47.27611" lon="-2.4536">
        <ele>-8</ele>
        <time>2021-07-15T08:56:20.000Z</time>
      </trkpt>
      <trkpt lat="47.27617" lon="-2.45351">
        <ele>-8</ele>
        <time>2021-07-15T08:56:22.000Z</time>
      </trkpt>
      <trkpt lat="47.27615" lon="-2.45329">
        <ele>-8</ele>
        <time>2021-07-15T08:56:25.000Z</time>
      </trkpt>
      <trkpt lat="47.2761" lon="-2.45294">
        <ele>-8.3999996185303</ele>
        <time>2021-07-15T08:56:29.000Z</time>
      </trkpt>
      <trkpt lat="47.27609" lon="-2.45285">
        <ele>-8.8000001907349</ele>
        <time>2021-07-15T08:56:30.000Z</time>
      </trkpt>
      <trkpt lat="47.27609" lon="-2.45276">
        <ele>-9.1999998092651</ele>
        <time>2021-07-15T08:56:31.000Z</time>
      </trkpt>
      <trkpt lat="47.27609" lon="-2.45267">
        <ele>-9.6000003814697</ele>
        <time>2021-07-15T08:56:32.000Z</time>
      </trkpt>
      <trkpt lat="47.27609" lon="-2.45257">
        <ele>-10</ele>
        <time>2021-07-15T08:56:33.000Z</time>
      </trkpt>
      <trkpt lat="47.27606" lon="-2.45227">
        <ele>-10</ele>
        <time>2021-07-15T08:56:36.000Z</time>
      </trkpt>
      <trkpt lat="47.27597" lon="-2.45162">
        <ele>-10</ele>
        <time>2021-07-15T08:56:42.000Z</time>
      </trkpt>
      <trkpt lat="47.27585" lon="-2.45097">
        <ele>-10.39999961853</ele>
        <time>2021-07-15T08:56:48.000Z</time>
      </trkpt>
      <trkpt lat="47.27581" lon="-2.45088">
        <ele>-10.800000190735</ele>
        <time>2021-07-15T08:56:49.000Z</time>
      </trkpt>
      <trkpt lat="47.27576" lon="-2.45079">
        <ele>-11.199999809265</ele>
        <time>2021-07-15T08:56:50.000Z</time>
      </trkpt>
      <trkpt lat="47.27572" lon="-2.4507">
        <ele>-11.60000038147</ele>
        <time>2021-07-15T08:56:51.000Z</time>
      </trkpt>
      <trkpt lat="47.27567" lon="-2.45062">
        <ele>-12</ele>
        <time>2021-07-15T08:56:52.000Z</time>
      </trkpt>
      <trkpt lat="47.27558" lon="-2.45045">
        <ele>-12</ele>
        <time>2021-07-15T08:56:54.000Z</time>
      </trkpt>
      <trkpt lat="47.27542" lon="-2.45009">
        <ele>-12</ele>
        <time>2021-07-15T08:56:58.000Z</time>
      </trkpt>
      <trkpt lat="47.27523" lon="-2.44953">
        <ele>-12</ele>
        <time>2021-07-15T08:57:05.000Z</time>
      </trkpt>
      <trkpt lat="47.27509" lon="-2.449">
        <ele>-12</ele>
        <time>2021-07-15T08:57:11.000Z</time>
      </trkpt>
      <trkpt lat="47.27505" lon="-2.44876">
        <ele>-12</ele>
        <time>2021-07-15T08:57:14.000Z</time>
      </trkpt>
      <trkpt lat="47.27502" lon="-2.44861">
        <ele>-12</ele>
        <time>2021-07-15T08:57:16.000Z</time>
      </trkpt>
      <trkpt lat="47.27488" lon="-2.44852">
        <ele>-12</ele>
        <time>2021-07-15T08:57:19.000Z</time>
      </trkpt>
      <trkpt lat="47.27477" lon="-2.44852">
        <ele>-12</ele>
        <time>2021-07-15T08:57:21.000Z</time>
      </trkpt>
      <trkpt lat="47.2746" lon="-2.44854">
        <ele>-12</ele>
        <time>2021-07-15T08:57:24.000Z</time>
      </trkpt>
      <trkpt lat="47.27455" lon="-2.44858">
        <ele>-12</ele>
        <time>2021-07-15T08:57:25.000Z</time>
      </trkpt>
      <trkpt lat="47.27443" lon="-2.44876">
        <ele>-12</ele>
        <time>2021-07-15T08:57:28.000Z</time>
      </trkpt>
      <trkpt lat="47.27439" lon="-2.44882">
        <ele>-12</ele>
        <time>2021-07-15T08:57:29.000Z</time>
      </trkpt>
      <trkpt lat="47.27413" lon="-2.44912">
        <ele>-12</ele>
        <time>2021-07-15T08:57:35.000Z</time>
      </trkpt>
      <trkpt lat="47.27403" lon="-2.44919">
        <ele>-12</ele>
        <time>2021-07-15T08:57:37.000Z</time>
      </trkpt>
      <trkpt lat="47.27392" lon="-2.44925">
        <ele>-12</ele>
        <time>2021-07-15T08:57:39.000Z</time>
      </trkpt>
      <trkpt lat="47.27366" lon="-2.44939">
        <ele>-12</ele>
        <time>2021-07-15T08:57:44.000Z</time>
      </trkpt>
      <trkpt lat="47.27356" lon="-2.44945">
        <ele>-11.60000038147</ele>
        <time>2021-07-15T08:57:46.000Z</time>
      </trkpt>
      <trkpt lat="47.27351" lon="-2.44948">
        <ele>-11.199999809265</ele>
        <time>2021-07-15T08:57:47.000Z</time>
      </trkpt>
      <trkpt lat="47.27346" lon="-2.4495">
        <ele>-10.800000190735</ele>
        <time>2021-07-15T08:57:48.000Z</time>
      </trkpt>
      <trkpt lat="47.2734" lon="-2.44953">
        <ele>-10.39999961853</ele>
        <time>2021-07-15T08:57:49.000Z</time>
      </trkpt>
      <trkpt lat="47.27336" lon="-2.44955">
        <ele>-10</ele>
        <time>2021-07-15T08:57:50.000Z</time>
      </trkpt>
      <trkpt lat="47.27331" lon="-2.44957">
        <ele>-10</ele>
        <time>2021-07-15T08:57:51.000Z</time>
      </trkpt>
      <trkpt lat="47.27301" lon="-2.44966">
        <ele>-10</ele>
        <time>2021-07-15T08:57:56.000Z</time>
      </trkpt>
      <trkpt lat="47.27266" lon="-2.44968">
        <ele>-10</ele>
        <time>2021-07-15T08:58:01.000Z</time>
      </trkpt>
      <trkpt lat="47.2723" lon="-2.44984">
        <ele>-10</ele>
        <time>2021-07-15T08:58:06.000Z</time>
      </trkpt>
      <trkpt lat="47.27179" lon="-2.44998">
        <ele>-10</ele>
        <time>2021-07-15T08:58:13.000Z</time>
      </trkpt>
      <trkpt lat="47.27138" lon="-2.45003">
        <ele>-10</ele>
        <time>2021-07-15T08:58:19.000Z</time>
      </trkpt>
      <trkpt lat="47.27101" lon="-2.45001">
        <ele>-9.6000003814697</ele>
        <time>2021-07-15T08:58:25.000Z</time>
      </trkpt>
      <trkpt lat="47.27096" lon="-2.45">
        <ele>-9.1999998092651</ele>
        <time>2021-07-15T08:58:26.000Z</time>
      </trkpt>
      <trkpt lat="47.27091" lon="-2.44999">
        <ele>-8.8000001907349</ele>
        <time>2021-07-15T08:58:27.000Z</time>
      </trkpt>
      <trkpt lat="47.27086" lon="-2.44998">
        <ele>-8.3999996185303</ele>
        <time>2021-07-15T08:58:28.000Z</time>
      </trkpt>
      <trkpt lat="47.27081" lon="-2.44997">
        <ele>-8</ele>
        <time>2021-07-15T08:58:29.000Z</time>
      </trkpt>
      <trkpt lat="47.27073" lon="-2.44996">
        <ele>-8</ele>
        <time>2021-07-15T08:58:31.000Z</time>
      </trkpt>
      <trkpt lat="47.27064" lon="-2.44994">
        <ele>-8</ele>
        <time>2021-07-15T08:58:34.000Z</time>
      </trkpt>
      <trkpt lat="47.27063" lon="-2.44989">
        <ele>-8</ele>
        <time>2021-07-15T08:58:35.000Z</time>
      </trkpt>
      <trkpt lat="47.27059" lon="-2.44972">
        <ele>-8</ele>
        <time>2021-07-15T08:58:38.000Z</time>
      </trkpt>
      <trkpt lat="47.27059" lon="-2.44965">
        <ele>-8</ele>
        <time>2021-07-15T08:58:39.000Z</time>
      </trkpt>
      <trkpt lat="47.27059" lon="-2.44941">
        <ele>-8</ele>
        <time>2021-07-15T08:58:42.000Z</time>
      </trkpt>
      <trkpt lat="47.27058" lon="-2.44923">
        <ele>-8</ele>
        <time>2021-07-15T08:58:44.000Z</time>
      </trkpt>
      <trkpt lat="47.27056" lon="-2.44886">
        <ele>-7.5999999046326</ele>
        <time>2021-07-15T08:58:48.000Z</time>
      </trkpt>
      <trkpt lat="47.27056" lon="-2.44876">
        <ele>-7.1999998092651</ele>
        <time>2021-07-15T08:58:49.000Z</time>
      </trkpt>
      <trkpt lat="47.27055" lon="-2.44867">
        <ele>-6.8000001907349</ele>
        <time>2021-07-15T08:58:50.000Z</time>
      </trkpt>
      <trkpt lat="47.27054" lon="-2.44858">
        <ele>-6.4000000953674</ele>
        <time>2021-07-15T08:58:51.000Z</time>
      </trkpt>
      <trkpt lat="47.27053" lon="-2.44849">
        <ele>-6</ele>
        <time>2021-07-15T08:58:52.000Z</time>
      </trkpt>
      <trkpt lat="47.27051" lon="-2.44793">
        <ele>-6</ele>
        <time>2021-07-15T08:58:58.000Z</time>
      </trkpt>
      <trkpt lat="47.27045" lon="-2.44736">
        <ele>-6</ele>
        <time>2021-07-15T08:59:04.000Z</time>
      </trkpt>
      <trkpt lat="47.27033" lon="-2.44665">
        <ele>-6</ele>
        <time>2021-07-15T08:59:11.000Z</time>
      </trkpt>
      <trkpt lat="47.2702" lon="-2.44586">
        <ele>-6</ele>
        <time>2021-07-15T08:59:19.000Z</time>
      </trkpt>
      <trkpt lat="47.27018" lon="-2.44576">
        <ele>-6</ele>
        <time>2021-07-15T08:59:20.000Z</time>
      </trkpt>
      <trkpt lat="47.27006" lon="-2.4451">
        <ele>-6</ele>
        <time>2021-07-15T08:59:27.000Z</time>
      </trkpt>
      <trkpt lat="47.27002" lon="-2.44488">
        <ele>-6</ele>
        <time>2021-07-15T08:59:30.000Z</time>
      </trkpt>
      <trkpt lat="47.26999" lon="-2.44483">
        <ele>-6</ele>
        <time>2021-07-15T08:59:31.000Z</time>
      </trkpt>
      <trkpt lat="47.26984" lon="-2.44474">
        <ele>-6</ele>
        <time>2021-07-15T08:59:35.000Z</time>
      </trkpt>
      <trkpt lat="47.26976" lon="-2.44461">
        <ele>-6</ele>
        <time>2021-07-15T08:59:38.000Z</time>
      </trkpt>
      <trkpt lat="47.26975" lon="-2.44454">
        <ele>-6</ele>
        <time>2021-07-15T08:59:40.000Z</time>
      </trkpt>
      <trkpt lat="47.26975" lon="-2.44444">
        <ele>-6</ele>
        <time>2021-07-15T08:59:42.000Z</time>
      </trkpt>
      <trkpt lat="47.26972" lon="-2.44392">
        <ele>-6</ele>
        <time>2021-07-15T08:59:49.000Z</time>
      </trkpt>
      <trkpt lat="47.26967" lon="-2.44367">
        <ele>-6</ele>
        <time>2021-07-15T08:59:52.000Z</time>
      </trkpt>
      <trkpt lat="47.26962" lon="-2.44349">
        <ele>-6</ele>
        <time>2021-07-15T08:59:54.000Z</time>
      </trkpt>
      <trkpt lat="47.26938" lon="-2.44267">
        <ele>-6</ele>
        <time>2021-07-15T09:00:03.000Z</time>
      </trkpt>
      <trkpt lat="47.2693" lon="-2.44216">
        <ele>-6</ele>
        <time>2021-07-15T09:00:09.000Z</time>
      </trkpt>
      <trkpt lat="47.26929" lon="-2.44208">
        <ele>-6</ele>
        <time>2021-07-15T09:00:10.000Z</time>
      </trkpt>
      <trkpt lat="47.26927" lon="-2.44201">
        <ele>-6</ele>
        <time>2021-07-15T09:00:11.000Z</time>
      </trkpt>
      <trkpt lat="47.26917" lon="-2.44184">
        <ele>-6</ele>
        <time>2021-07-15T09:00:14.000Z</time>
      </trkpt>
      <trkpt lat="47.26911" lon="-2.44172">
        <ele>-6</ele>
        <time>2021-07-15T09:00:16.000Z</time>
      </trkpt>
      <trkpt lat="47.26907" lon="-2.44161">
        <ele>-6</ele>
        <time>2021-07-15T09:00:18.000Z</time>
      </trkpt>
      <trkpt lat="47.26912" lon="-2.44149">
        <ele>-6</ele>
        <time>2021-07-15T09:00:21.000Z</time>
      </trkpt>
      <trkpt lat="47.26924" lon="-2.44143">
        <ele>-6</ele>
        <time>2021-07-15T09:00:24.000Z</time>
      </trkpt>
      <trkpt lat="47.26933" lon="-2.4414">
        <ele>-6</ele>
        <time>2021-07-15T09:00:26.000Z</time>
      </trkpt>
      <trkpt lat="47.2694" lon="-2.44125">
        <ele>-6</ele>
        <time>2021-07-15T09:00:29.000Z</time>
      </trkpt>
      <trkpt lat="47.2694" lon="-2.44111">
        <ele>-6</ele>
        <time>2021-07-15T09:00:31.000Z</time>
      </trkpt>
      <trkpt lat="47.26938" lon="-2.44098">
        <ele>-6</ele>
        <time>2021-07-15T09:00:33.000Z</time>
      </trkpt>
      <trkpt lat="47.26937" lon="-2.44092">
        <ele>-6</ele>
        <time>2021-07-15T09:00:34.000Z</time>
      </trkpt>
      <trkpt lat="47.26933" lon="-2.4408">
        <ele>-6</ele>
        <time>2021-07-15T09:00:37.000Z</time>
      </trkpt>
      <trkpt lat="47.26933" lon="-2.44078">
        <ele>-6</ele>
        <time>2021-07-15T09:00:39.000Z</time>
      </trkpt>
      <trkpt lat="47.26933" lon="-2.44078">
        <ele>-6</ele>
        <time>2021-07-15T09:00:49.000Z</time>
      </trkpt>
      <trkpt lat="47.2694" lon="-2.44084">
        <ele>-6</ele>
        <time>2021-07-15T09:00:53.000Z</time>
      </trkpt>
      <trkpt lat="47.26942" lon="-2.44106">
        <ele>-6</ele>
        <time>2021-07-15T09:00:57.000Z</time>
      </trkpt>
      <trkpt lat="47.26943" lon="-2.44113">
        <ele>-6</ele>
        <time>2021-07-15T09:00:58.000Z</time>
      </trkpt>
      <trkpt lat="47.2695" lon="-2.44153">
        <ele>-6</ele>
        <time>2021-07-15T09:01:04.000Z</time>
      </trkpt>
      <trkpt lat="47.26959" lon="-2.44209">
        <ele>-6</ele>
        <time>2021-07-15T09:01:11.000Z</time>
      </trkpt>
      <trkpt lat="47.26966" lon="-2.44258">
        <ele>-6</ele>
        <time>2021-07-15T09:01:17.000Z</time>
      </trkpt>
      <trkpt lat="47.26975" lon="-2.443">
        <ele>-6</ele>
        <time>2021-07-15T09:01:23.000Z</time>
      </trkpt>
      <trkpt lat="47.26988" lon="-2.44321">
        <ele>-6</ele>
        <time>2021-07-15T09:01:27.000Z</time>
      </trkpt>
      <trkpt lat="47.26992" lon="-2.44326">
        <ele>-6</ele>
        <time>2021-07-15T09:01:28.000Z</time>
      </trkpt>
      <trkpt lat="47.2702" lon="-2.44365">
        <ele>-6</ele>
        <time>2021-07-15T09:01:35.000Z</time>
      </trkpt>
      <trkpt lat="47.2705" lon="-2.44391">
        <ele>-6</ele>
        <time>2021-07-15T09:01:41.000Z</time>
      </trkpt>
      <trkpt lat="47.2706" lon="-2.44399">
        <ele>-6</ele>
        <time>2021-07-15T09:01:43.000Z</time>
      </trkpt>
      <trkpt lat="47.2707" lon="-2.4441">
        <ele>-6.8000001907349</ele>
        <time>2021-07-15T09:01:45.000Z</time>
      </trkpt>
      <trkpt lat="47.27074" lon="-2.44416">
        <ele>-7.1999998092651</ele>
        <time>2021-07-15T09:01:46.000Z</time>
      </trkpt>
      <trkpt lat="47.27078" lon="-2.44422">
        <ele>-7.5999999046326</ele>
        <time>2021-07-15T09:01:47.000Z</time>
      </trkpt>
      <trkpt lat="47.27082" lon="-2.44429">
        <ele>-8</ele>
        <time>2021-07-15T09:01:48.000Z</time>
      </trkpt>
      <trkpt lat="47.27086" lon="-2.44443">
        <ele>-8</ele>
        <time>2021-07-15T09:01:50.000Z</time>
      </trkpt>
      <trkpt lat="47.27088" lon="-2.44455">
        <ele>-8</ele>
        <time>2021-07-15T09:01:52.000Z</time>
      </trkpt>
      <trkpt lat="47.2709" lon="-2.44462">
        <ele>-8</ele>
        <time>2021-07-15T09:01:54.000Z</time>
      </trkpt>
      <trkpt lat="47.27092" lon="-2.44464">
        <ele>-8.3999996185303</ele>
        <time>2021-07-15T09:01:55.000Z</time>
      </trkpt>
      <trkpt lat="47.27094" lon="-2.44465">
        <ele>-9</ele>
        <time>2021-07-15T09:01:56.000Z</time>
      </trkpt>
      <trkpt lat="47.27096" lon="-2.44466">
        <ele>-9.3999996185303</ele>
        <time>2021-07-15T09:01:57.000Z</time>
      </trkpt>
      <trkpt lat="47.27098" lon="-2.44466">
        <ele>-9.8000001907349</ele>
        <time>2021-07-15T09:01:58.000Z</time>
      </trkpt>
      <trkpt lat="47.271" lon="-2.44466">
        <ele>-10.39999961853</ele>
        <time>2021-07-15T09:01:59.000Z</time>
      </trkpt>
      <trkpt lat="47.27106" lon="-2.44463">
        <ele>-10.39999961853</ele>
        <time>2021-07-15T09:02:02.000Z</time>
      </trkpt>
      <trkpt lat="47.27108" lon="-2.44461">
        <ele>-10.39999961853</ele>
        <time>2021-07-15T09:02:03.000Z</time>
      </trkpt>
      <trkpt lat="47.27111" lon="-2.44459">
        <ele>-10.39999961853</ele>
        <time>2021-07-15T09:02:05.000Z</time>
      </trkpt>
      <trkpt lat="47.27112" lon="-2.44457">
        <ele>-10.39999961853</ele>
        <time>2021-07-15T09:02:08.000Z</time>
      </trkpt>
      <trkpt lat="47.27112" lon="-2.44457">
        <ele>-10.39999961853</ele>
        <time>2021-07-15T09:02:09.000Z</time>
      </trkpt>
      <trkpt lat="47.27115" lon="-2.44458">
        <ele>-10.39999961853</ele>
        <time>2021-07-15T09:02:35.000Z</time>
      </trkpt>
      <trkpt lat="47.27121" lon="-2.44457">
        <ele>-10.39999961853</ele>
        <time>2021-07-15T09:02:37.000Z</time>
      </trkpt>
      <trkpt lat="47.27132" lon="-2.44453">
        <ele>-10.39999961853</ele>
        <time>2021-07-15T09:02:43.000Z</time>
      </trkpt>
      <trkpt lat="47.27142" lon="-2.44447">
        <ele>-10.39999961853</ele>
        <time>2021-07-15T09:02:49.000Z</time>
      </trkpt>
      <trkpt lat="47.27142" lon="-2.44439">
        <ele>-10.39999961853</ele>
        <time>2021-07-15T09:05:32.000Z</time>
      </trkpt>
      <trkpt lat="47.2714" lon="-2.44442">
        <ele>-10.39999961853</ele>
        <time>2021-07-15T09:05:34.000Z</time>
      </trkpt>
      <trkpt lat="47.27136" lon="-2.44446">
        <ele>-10.39999961853</ele>
        <time>2021-07-15T09:05:38.000Z</time>
      </trkpt>
      <trkpt lat="47.2713" lon="-2.44449">
        <ele>-10.39999961853</ele>
        <time>2021-07-15T09:05:41.000Z</time>
      </trkpt>
      <trkpt lat="47.27122" lon="-2.44456">
        <ele>-10.39999961853</ele>
        <time>2021-07-15T09:05:45.000Z</time>
      </trkpt>
      <trkpt lat="47.27106" lon="-2.44467">
        <ele>-10.39999961853</ele>
        <time>2021-07-15T09:05:52.000Z</time>
      </trkpt>
      <trkpt lat="47.27098" lon="-2.44473">
        <ele>-10.39999961853</ele>
        <time>2021-07-15T09:05:58.000Z</time>
      </trkpt>
      <trkpt lat="47.27097" lon="-2.44473">
        <ele>-10.39999961853</ele>
        <time>2021-07-15T09:05:59.000Z</time>
      </trkpt>
      <trkpt lat="47.27097" lon="-2.44472">
        <ele>-10.39999961853</ele>
        <time>2021-07-15T09:06:30.000Z</time>
      </trkpt>
      <trkpt lat="47.27094" lon="-2.44469">
        <ele>-10.39999961853</ele>
        <time>2021-07-15T09:06:32.000Z</time>
      </trkpt>
      <trkpt lat="47.27092" lon="-2.4446">
        <ele>-10.39999961853</ele>
        <time>2021-07-15T09:06:35.000Z</time>
      </trkpt>
      <trkpt lat="47.27089" lon="-2.44448">
        <ele>-10.39999961853</ele>
        <time>2021-07-15T09:06:38.000Z</time>
      </trkpt>
      <trkpt lat="47.27083" lon="-2.4442">
        <ele>-10.39999961853</ele>
        <time>2021-07-15T09:06:43.000Z</time>
      </trkpt>
      <trkpt lat="47.27078" lon="-2.4441">
        <ele>-10.39999961853</ele>
        <time>2021-07-15T09:06:45.000Z</time>
      </trkpt>
      <trkpt lat="47.27071" lon="-2.444">
        <ele>-10</ele>
        <time>2021-07-15T09:06:47.000Z</time>
      </trkpt>
      <trkpt lat="47.27066" lon="-2.44397">
        <ele>-9.6000003814697</ele>
        <time>2021-07-15T09:06:48.000Z</time>
      </trkpt>
      <trkpt lat="47.27062" lon="-2.44393">
        <ele>-9.1999998092651</ele>
        <time>2021-07-15T09:06:49.000Z</time>
      </trkpt>
      <trkpt lat="47.27057" lon="-2.44391">
        <ele>-8.6000003814697</ele>
        <time>2021-07-15T09:06:50.000Z</time>
      </trkpt>
      <trkpt lat="47.27052" lon="-2.44389">
        <ele>-8.1999998092651</ele>
        <time>2021-07-15T09:06:51.000Z</time>
      </trkpt>
      <trkpt lat="47.27043" lon="-2.44384">
        <ele>-8.1999998092651</ele>
        <time>2021-07-15T09:06:53.000Z</time>
      </trkpt>
      <trkpt lat="47.27018" lon="-2.44368">
        <ele>-8.1999998092651</ele>
        <time>2021-07-15T09:06:59.000Z</time>
      </trkpt>
      <trkpt lat="47.27015" lon="-2.44364">
        <ele>-8.1999998092651</ele>
        <time>2021-07-15T09:07:00.000Z</time>
      </trkpt>
      <trkpt lat="47.27013" lon="-2.44358">
        <ele>-7.8000001907349</ele>
        <time>2021-07-15T09:07:01.000Z</time>
      </trkpt>
      <trkpt lat="47.27009" lon="-2.44354">
        <ele>-7.4000000953674</ele>
        <time>2021-07-15T09:07:02.000Z</time>
      </trkpt>
      <trkpt lat="47.27005" lon="-2.4435">
        <ele>-7</ele>
        <time>2021-07-15T09:07:03.000Z</time>
      </trkpt>
      <trkpt lat="47.27001" lon="-2.44346">
        <ele>-6.5999999046326</ele>
        <time>2021-07-15T09:07:04.000Z</time>
      </trkpt>
      <trkpt lat="47.26998" lon="-2.44341">
        <ele>-6.1999998092651</ele>
        <time>2021-07-15T09:07:05.000Z</time>
      </trkpt>
      <trkpt lat="47.26984" lon="-2.44319">
        <ele>-6.1999998092651</ele>
        <time>2021-07-15T09:07:09.000Z</time>
      </trkpt>
      <trkpt lat="47.26973" lon="-2.44295">
        <ele>-6.1999998092651</ele>
        <time>2021-07-15T09:07:13.000Z</time>
      </trkpt>
      <trkpt lat="47.26968" lon="-2.44272">
        <ele>-6.1999998092651</ele>
        <time>2021-07-15T09:07:16.000Z</time>
      </trkpt>
      <trkpt lat="47.26954" lon="-2.44198">
        <ele>-6.1999998092651</ele>
        <time>2021-07-15T09:07:25.000Z</time>
      </trkpt>
      <trkpt lat="47.26945" lon="-2.44143">
        <ele>-6.1999998092651</ele>
        <time>2021-07-15T09:07:32.000Z</time>
      </trkpt>
      <trkpt lat="47.26943" lon="-2.44129">
        <ele>-6.1999998092651</ele>
        <time>2021-07-15T09:07:34.000Z</time>
      </trkpt>
      <trkpt lat="47.26938" lon="-2.44102">
        <ele>-6.1999998092651</ele>
        <time>2021-07-15T09:07:38.000Z</time>
      </trkpt>
      <trkpt lat="47.26933" lon="-2.44078">
        <ele>-6.1999998092651</ele>
        <time>2021-07-15T09:07:43.000Z</time>
      </trkpt>
      <trkpt lat="47.26933" lon="-2.44064">
        <ele>-6.1999998092651</ele>
        <time>2021-07-15T09:07:46.000Z</time>
      </trkpt>
      <trkpt lat="47.26934" lon="-2.44057">
        <ele>-6.1999998092651</ele>
        <time>2021-07-15T09:07:47.000Z</time>
      </trkpt>
      <trkpt lat="47.26938" lon="-2.44025">
        <ele>-6.1999998092651</ele>
        <time>2021-07-15T09:07:51.000Z</time>
      </trkpt>
      <trkpt lat="47.26938" lon="-2.44017">
        <ele>-6.1999998092651</ele>
        <time>2021-07-15T09:07:52.000Z</time>
      </trkpt>
      <trkpt lat="47.26941" lon="-2.43941">
        <ele>-6.1999998092651</ele>
        <time>2021-07-15T09:08:01.000Z</time>
      </trkpt>
      <trkpt lat="47.26943" lon="-2.43876">
        <ele>-6.1999998092651</ele>
        <time>2021-07-15T09:08:09.000Z</time>
      </trkpt>
      <trkpt lat="47.26942" lon="-2.4383">
        <ele>-6.1999998092651</ele>
        <time>2021-07-15T09:08:15.000Z</time>
      </trkpt>
      <trkpt lat="47.26942" lon="-2.43771">
        <ele>-6.1999998092651</ele>
        <time>2021-07-15T09:08:22.000Z</time>
      </trkpt>
      <trkpt lat="47.26948" lon="-2.43708">
        <ele>-6.1999998092651</ele>
        <time>2021-07-15T09:08:29.000Z</time>
      </trkpt>
      <trkpt lat="47.26953" lon="-2.43662">
        <ele>-6.1999998092651</ele>
        <time>2021-07-15T09:08:35.000Z</time>
      </trkpt>
      <trkpt lat="47.26958" lon="-2.43645">
        <ele>-6.1999998092651</ele>
        <time>2021-07-15T09:08:39.000Z</time>
      </trkpt>
      <trkpt lat="47.26963" lon="-2.43635">
        <ele>-6.5999999046326</ele>
        <time>2021-07-15T09:08:41.000Z</time>
      </trkpt>
      <trkpt lat="47.26967" lon="-2.4363">
        <ele>-7</ele>
        <time>2021-07-15T09:08:42.000Z</time>
      </trkpt>
      <trkpt lat="47.26971" lon="-2.43625">
        <ele>-7.4000000953674</ele>
        <time>2021-07-15T09:08:43.000Z</time>
      </trkpt>
      <trkpt lat="47.26974" lon="-2.4362">
        <ele>-7.8000001907349</ele>
        <time>2021-07-15T09:08:44.000Z</time>
      </trkpt>
      <trkpt lat="47.26978" lon="-2.43614">
        <ele>-8.1999998092651</ele>
        <time>2021-07-15T09:08:45.000Z</time>
      </trkpt>
      <trkpt lat="47.2699" lon="-2.43598">
        <ele>-8.1999998092651</ele>
        <time>2021-07-15T09:08:48.000Z</time>
      </trkpt>
      <trkpt lat="47.27" lon="-2.43582">
        <ele>-8.1999998092651</ele>
        <time>2021-07-15T09:08:51.000Z</time>
      </trkpt>
      <trkpt lat="47.27019" lon="-2.43558">
        <ele>-8.1999998092651</ele>
        <time>2021-07-15T09:08:56.000Z</time>
      </trkpt>
      <trkpt lat="47.27051" lon="-2.43514">
        <ele>-8.1999998092651</ele>
        <time>2021-07-15T09:09:03.000Z</time>
      </trkpt>
      <trkpt lat="47.27069" lon="-2.43488">
        <ele>-8.8000001907349</ele>
        <time>2021-07-15T09:09:07.000Z</time>
      </trkpt>
      <trkpt lat="47.27074" lon="-2.43482">
        <ele>-9.1999998092651</ele>
        <time>2021-07-15T09:09:08.000Z</time>
      </trkpt>
      <trkpt lat="47.27079" lon="-2.43476">
        <ele>-10</ele>
        <time>2021-07-15T09:09:09.000Z</time>
      </trkpt>
      <trkpt lat="47.27083" lon="-2.4347">
        <ele>-10.39999961853</ele>
        <time>2021-07-15T09:09:10.000Z</time>
      </trkpt>
      <trkpt lat="47.27108" lon="-2.43433">
        <ele>-10.39999961853</ele>
        <time>2021-07-15T09:09:16.000Z</time>
      </trkpt>
      <trkpt lat="47.27134" lon="-2.43397">
        <ele>-10.39999961853</ele>
        <time>2021-07-15T09:09:22.000Z</time>
      </trkpt>
      <trkpt lat="47.27162" lon="-2.43358">
        <ele>-10.39999961853</ele>
        <time>2021-07-15T09:09:28.000Z</time>
      </trkpt>
      <trkpt lat="47.27196" lon="-2.43312">
        <ele>-10.39999961853</ele>
        <time>2021-07-15T09:09:35.000Z</time>
      </trkpt>
      <trkpt lat="47.27227" lon="-2.43281">
        <ele>-10.39999961853</ele>
        <time>2021-07-15T09:09:41.000Z</time>
      </trkpt>
      <trkpt lat="47.27272" lon="-2.43248">
        <ele>-10.39999961853</ele>
        <time>2021-07-15T09:09:49.000Z</time>
      </trkpt>
      <trkpt lat="47.27315" lon="-2.43214">
        <ele>-10.800000190735</ele>
        <time>2021-07-15T09:09:57.000Z</time>
      </trkpt>
      <trkpt lat="47.2732" lon="-2.4321">
        <ele>-11.199999809265</ele>
        <time>2021-07-15T09:09:58.000Z</time>
      </trkpt>
      <trkpt lat="47.27325" lon="-2.43206">
        <ele>-12.199999809265</ele>
        <time>2021-07-15T09:09:59.000Z</time>
      </trkpt>
      <trkpt lat="47.2733" lon="-2.43203">
        <ele>-12.60000038147</ele>
        <time>2021-07-15T09:10:00.000Z</time>
      </trkpt>
      <trkpt lat="47.27361" lon="-2.43179">
        <ele>-12.60000038147</ele>
        <time>2021-07-15T09:10:06.000Z</time>
      </trkpt>
      <trkpt lat="47.27399" lon="-2.43151">
        <ele>-12.60000038147</ele>
        <time>2021-07-15T09:10:13.000Z</time>
      </trkpt>
      <trkpt lat="47.27446" lon="-2.43121">
        <ele>-12.60000038147</ele>
        <time>2021-07-15T09:10:22.000Z</time>
      </trkpt>
      <trkpt lat="47.27465" lon="-2.43108">
        <ele>-12.60000038147</ele>
        <time>2021-07-15T09:10:27.000Z</time>
      </trkpt>
      <trkpt lat="47.27471" lon="-2.43102">
        <ele>-12.60000038147</ele>
        <time>2021-07-15T09:10:31.000Z</time>
      </trkpt>
      <trkpt lat="47.27474" lon="-2.43095">
        <ele>-12.60000038147</ele>
        <time>2021-07-15T09:10:37.000Z</time>
      </trkpt>
      <trkpt lat="47.27474" lon="-2.43095">
        <ele>-12.60000038147</ele>
        <time>2021-07-15T09:10:42.000Z</time>
      </trkpt>
      <trkpt lat="47.27477" lon="-2.43089">
        <ele>-12.60000038147</ele>
        <time>2021-07-15T09:10:48.000Z</time>
      </trkpt>
      <trkpt lat="47.27478" lon="-2.43088">
        <ele>-12.60000038147</ele>
        <time>2021-07-15T09:10:49.000Z</time>
      </trkpt>
      <trkpt lat="47.27479" lon="-2.43086">
        <ele>-12.60000038147</ele>
        <time>2021-07-15T09:11:00.000Z</time>
      </trkpt>
      <trkpt lat="47.27482" lon="-2.43082">
        <ele>-12.60000038147</ele>
        <time>2021-07-15T09:11:02.000Z</time>
      </trkpt>
      <trkpt lat="47.27494" lon="-2.43072">
        <ele>-12.60000038147</ele>
        <time>2021-07-15T09:11:08.000Z</time>
      </trkpt>
      <trkpt lat="47.27505" lon="-2.43065">
        <ele>-12.60000038147</ele>
        <time>2021-07-15T09:11:13.000Z</time>
      </trkpt>
      <trkpt lat="47.27523" lon="-2.43052">
        <ele>-12.60000038147</ele>
        <time>2021-07-15T09:11:19.000Z</time>
      </trkpt>
      <trkpt lat="47.27557" lon="-2.43027">
        <ele>-12.60000038147</ele>
        <time>2021-07-15T09:11:27.000Z</time>
      </trkpt>
      <trkpt lat="47.27589" lon="-2.43004">
        <ele>-12.60000038147</ele>
        <time>2021-07-15T09:11:33.000Z</time>
      </trkpt>
      <trkpt lat="47.276" lon="-2.42998">
        <ele>-12.60000038147</ele>
        <time>2021-07-15T09:11:35.000Z</time>
      </trkpt>
      <trkpt lat="47.27617" lon="-2.42992">
        <ele>-12.60000038147</ele>
        <time>2021-07-15T09:11:38.000Z</time>
      </trkpt>
      <trkpt lat="47.27631" lon="-2.4298">
        <ele>-12.60000038147</ele>
        <time>2021-07-15T09:11:41.000Z</time>
      </trkpt>
      <trkpt lat="47.27635" lon="-2.42975">
        <ele>-12.60000038147</ele>
        <time>2021-07-15T09:11:42.000Z</time>
      </trkpt>
      <trkpt lat="47.27654" lon="-2.42947">
        <ele>-12.60000038147</ele>
        <time>2021-07-15T09:11:47.000Z</time>
      </trkpt>
      <trkpt lat="47.27657" lon="-2.42941">
        <ele>-12.60000038147</ele>
        <time>2021-07-15T09:11:48.000Z</time>
      </trkpt>
      <trkpt lat="47.27669" lon="-2.42919">
        <ele>-12.60000038147</ele>
        <time>2021-07-15T09:11:52.000Z</time>
      </trkpt>
      <trkpt lat="47.27674" lon="-2.42907">
        <ele>-12.60000038147</ele>
        <time>2021-07-15T09:11:54.000Z</time>
      </trkpt>
      <trkpt lat="47.27679" lon="-2.42889">
        <ele>-12.60000038147</ele>
        <time>2021-07-15T09:11:57.000Z</time>
      </trkpt>
      <trkpt lat="47.2768" lon="-2.42883">
        <ele>-12.60000038147</ele>
        <time>2021-07-15T09:11:58.000Z</time>
      </trkpt>
      <trkpt lat="47.27684" lon="-2.42867">
        <ele>-12.60000038147</ele>
        <time>2021-07-15T09:12:02.000Z</time>
      </trkpt>
      <trkpt lat="47.27685" lon="-2.42864">
        <ele>-12.60000038147</ele>
        <time>2021-07-15T09:12:03.000Z</time>
      </trkpt>
      <trkpt lat="47.27686" lon="-2.4285">
        <ele>-12.60000038147</ele>
        <time>2021-07-15T09:12:07.000Z</time>
      </trkpt>
      <trkpt lat="47.27689" lon="-2.42844">
        <ele>-12.60000038147</ele>
        <time>2021-07-15T09:12:09.000Z</time>
      </trkpt>
      <trkpt lat="47.27692" lon="-2.42833">
        <ele>-12.60000038147</ele>
        <time>2021-07-15T09:12:12.000Z</time>
      </trkpt>
      <trkpt lat="47.27697" lon="-2.42804">
        <ele>-12.60000038147</ele>
        <time>2021-07-15T09:12:19.000Z</time>
      </trkpt>
      <trkpt lat="47.27697" lon="-2.42796">
        <ele>-12.60000038147</ele>
        <time>2021-07-15T09:12:23.000Z</time>
      </trkpt>
      <trkpt lat="47.27698" lon="-2.42795">
        <ele>-12.60000038147</ele>
        <time>2021-07-15T09:12:25.000Z</time>
      </trkpt>
      <trkpt lat="47.27702" lon="-2.42795">
        <ele>-12.60000038147</ele>
        <time>2021-07-15T09:12:27.000Z</time>
      </trkpt>
      <trkpt lat="47.27719" lon="-2.42801">
        <ele>-12.60000038147</ele>
        <time>2021-07-15T09:12:32.000Z</time>
      </trkpt>
      <trkpt lat="47.27727" lon="-2.42805">
        <ele>-12.60000038147</ele>
        <time>2021-07-15T09:12:34.000Z</time>
      </trkpt>
      <trkpt lat="47.2774" lon="-2.42807">
        <ele>-12.60000038147</ele>
        <time>2021-07-15T09:12:37.000Z</time>
      </trkpt>
      <trkpt lat="47.27753" lon="-2.42811">
        <ele>-12.60000038147</ele>
        <time>2021-07-15T09:12:40.000Z</time>
      </trkpt>
      <trkpt lat="47.27767" lon="-2.42813">
        <ele>-12.60000038147</ele>
        <time>2021-07-15T09:12:43.000Z</time>
      </trkpt>
      <trkpt lat="47.27801" lon="-2.42817">
        <ele>-12.60000038147</ele>
        <time>2021-07-15T09:12:51.000Z</time>
      </trkpt>
      <trkpt lat="47.27824" lon="-2.42813">
        <ele>-12.60000038147</ele>
        <time>2021-07-15T09:12:57.000Z</time>
      </trkpt>
      <trkpt lat="47.27827" lon="-2.42796">
        <ele>-12.199999809265</ele>
        <time>2021-07-15T09:13:00.000Z</time>
      </trkpt>
      <trkpt lat="47.27827" lon="-2.42788">
        <ele>-11.800000190735</ele>
        <time>2021-07-15T09:13:01.000Z</time>
      </trkpt>
      <trkpt lat="47.27826" lon="-2.42781">
        <ele>-11.39999961853</ele>
        <time>2021-07-15T09:13:02.000Z</time>
      </trkpt>
      <trkpt lat="47.27826" lon="-2.42773">
        <ele>-10.800000190735</ele>
        <time>2021-07-15T09:13:03.000Z</time>
      </trkpt>
      <trkpt lat="47.27826" lon="-2.42766">
        <ele>-10.39999961853</ele>
        <time>2021-07-15T09:13:04.000Z</time>
      </trkpt>
      <trkpt lat="47.27825" lon="-2.42714">
        <ele>-10.39999961853</ele>
        <time>2021-07-15T09:13:10.000Z</time>
      </trkpt>
      <trkpt lat="47.27821" lon="-2.42662">
        <ele>-10.39999961853</ele>
        <time>2021-07-15T09:13:15.000Z</time>
      </trkpt>
      <trkpt lat="47.27809" lon="-2.42596">
        <ele>-10.39999961853</ele>
        <time>2021-07-15T09:13:21.000Z</time>
      </trkpt>
      <trkpt lat="47.27806" lon="-2.42585">
        <ele>-10.39999961853</ele>
        <time>2021-07-15T09:13:22.000Z</time>
      </trkpt>
      <trkpt lat="47.27791" lon="-2.42543">
        <ele>-10.39999961853</ele>
        <time>2021-07-15T09:13:26.000Z</time>
      </trkpt>
      <trkpt lat="47.27767" lon="-2.42473">
        <ele>-10.39999961853</ele>
        <time>2021-07-15T09:13:33.000Z</time>
      </trkpt>
      <trkpt lat="47.27753" lon="-2.42409">
        <ele>-10.39999961853</ele>
        <time>2021-07-15T09:13:39.000Z</time>
      </trkpt>
      <trkpt lat="47.27741" lon="-2.42325">
        <ele>-10.39999961853</ele>
        <time>2021-07-15T09:13:47.000Z</time>
      </trkpt>
      <trkpt lat="47.2774" lon="-2.42315">
        <ele>-10.39999961853</ele>
        <time>2021-07-15T09:13:48.000Z</time>
      </trkpt>
      <trkpt lat="47.27736" lon="-2.42241">
        <ele>-10.39999961853</ele>
        <time>2021-07-15T09:13:55.000Z</time>
      </trkpt>
      <trkpt lat="47.27734" lon="-2.42188">
        <ele>-10.39999961853</ele>
        <time>2021-07-15T09:14:00.000Z</time>
      </trkpt>
      <trkpt lat="47.27736" lon="-2.42117">
        <ele>-10.39999961853</ele>
        <time>2021-07-15T09:14:07.000Z</time>
      </trkpt>
      <trkpt lat="47.27743" lon="-2.42064">
        <ele>-10.39999961853</ele>
        <time>2021-07-15T09:14:12.000Z</time>
      </trkpt>
      <trkpt lat="47.27747" lon="-2.42043">
        <ele>-10.39999961853</ele>
        <time>2021-07-15T09:14:14.000Z</time>
      </trkpt>
      <trkpt lat="47.27766" lon="-2.41971">
        <ele>-10.39999961853</ele>
        <time>2021-07-15T09:14:21.000Z</time>
      </trkpt>
      <trkpt lat="47.27782" lon="-2.41912">
        <ele>-10.39999961853</ele>
        <time>2021-07-15T09:14:27.000Z</time>
      </trkpt>
      <trkpt lat="47.27805" lon="-2.41855">
        <ele>-10.39999961853</ele>
        <time>2021-07-15T09:14:33.000Z</time>
      </trkpt>
      <trkpt lat="47.27822" lon="-2.41812">
        <ele>-10.39999961853</ele>
        <time>2021-07-15T09:14:38.000Z</time>
      </trkpt>
      <trkpt lat="47.27839" lon="-2.41775">
        <ele>-10.39999961853</ele>
        <time>2021-07-15T09:14:43.000Z</time>
      </trkpt>
      <trkpt lat="47.27843" lon="-2.41765">
        <ele>-10.39999961853</ele>
        <time>2021-07-15T09:14:47.000Z</time>
      </trkpt>
      <trkpt lat="47.27851" lon="-2.41746">
        <ele>-10.39999961853</ele>
        <time>2021-07-15T09:14:52.000Z</time>
      </trkpt>
      <trkpt lat="47.27866" lon="-2.41714">
        <ele>-10.39999961853</ele>
        <time>2021-07-15T09:14:57.000Z</time>
      </trkpt>
      <trkpt lat="47.27881" lon="-2.41686">
        <ele>-10.39999961853</ele>
        <time>2021-07-15T09:15:01.000Z</time>
      </trkpt>
      <trkpt lat="47.27895" lon="-2.41665">
        <ele>-10.39999961853</ele>
        <time>2021-07-15T09:15:04.000Z</time>
      </trkpt>
      <trkpt lat="47.27902" lon="-2.4165">
        <ele>-10.39999961853</ele>
        <time>2021-07-15T09:15:06.000Z</time>
      </trkpt>
      <trkpt lat="47.27912" lon="-2.41628">
        <ele>-10.39999961853</ele>
        <time>2021-07-15T09:15:09.000Z</time>
      </trkpt>
      <trkpt lat="47.27934" lon="-2.41582">
        <ele>-10.39999961853</ele>
        <time>2021-07-15T09:15:16.000Z</time>
      </trkpt>
      <trkpt lat="47.27954" lon="-2.41537">
        <ele>-10.39999961853</ele>
        <time>2021-07-15T09:15:22.000Z</time>
      </trkpt>
      <trkpt lat="47.27959" lon="-2.41523">
        <ele>-10.39999961853</ele>
        <time>2021-07-15T09:15:24.000Z</time>
      </trkpt>
      <trkpt lat="47.27965" lon="-2.41507">
        <ele>-10.39999961853</ele>
        <time>2021-07-15T09:15:26.000Z</time>
      </trkpt>
      <trkpt lat="47.27979" lon="-2.41457">
        <ele>-10.39999961853</ele>
        <time>2021-07-15T09:15:32.000Z</time>
      </trkpt>
      <trkpt lat="47.27994" lon="-2.41384">
        <ele>-10.39999961853</ele>
        <time>2021-07-15T09:15:40.000Z</time>
      </trkpt>
      <trkpt lat="47.28001" lon="-2.41321">
        <ele>-10.39999961853</ele>
        <time>2021-07-15T09:15:47.000Z</time>
      </trkpt>
      <trkpt lat="47.28013" lon="-2.41265">
        <ele>-10.39999961853</ele>
        <time>2021-07-15T09:15:53.000Z</time>
      </trkpt>
      <trkpt lat="47.28015" lon="-2.41255">
        <ele>-10.39999961853</ele>
        <time>2021-07-15T09:15:54.000Z</time>
      </trkpt>
      <trkpt lat="47.28032" lon="-2.41193">
        <ele>-10.39999961853</ele>
        <time>2021-07-15T09:16:01.000Z</time>
      </trkpt>
      <trkpt lat="47.28042" lon="-2.41139">
        <ele>-10.39999961853</ele>
        <time>2021-07-15T09:16:07.000Z</time>
      </trkpt>
      <trkpt lat="47.28052" lon="-2.41076">
        <ele>-10.39999961853</ele>
        <time>2021-07-15T09:16:14.000Z</time>
      </trkpt>
      <trkpt lat="47.28054" lon="-2.41067">
        <ele>-10.39999961853</ele>
        <time>2021-07-15T09:16:15.000Z</time>
      </trkpt>
      <trkpt lat="47.28062" lon="-2.41032">
        <ele>-10.39999961853</ele>
        <time>2021-07-15T09:16:19.000Z</time>
      </trkpt>
      <trkpt lat="47.28076" lon="-2.40977">
        <ele>-10.39999961853</ele>
        <time>2021-07-15T09:16:26.000Z</time>
      </trkpt>
      <trkpt lat="47.28086" lon="-2.40947">
        <ele>-10.39999961853</ele>
        <time>2021-07-15T09:16:30.000Z</time>
      </trkpt>
      <trkpt lat="47.28088" lon="-2.4094">
        <ele>-10.39999961853</ele>
        <time>2021-07-15T09:16:31.000Z</time>
      </trkpt>
      <trkpt lat="47.28088" lon="-2.40933">
        <ele>-10.39999961853</ele>
        <time>2021-07-15T09:16:32.000Z</time>
      </trkpt>
      <trkpt lat="47.28085" lon="-2.40919">
        <ele>-10.39999961853</ele>
        <time>2021-07-15T09:16:34.000Z</time>
      </trkpt>
      <trkpt lat="47.28075" lon="-2.40899">
        <ele>-10.39999961853</ele>
        <time>2021-07-15T09:16:37.000Z</time>
      </trkpt>
      <trkpt lat="47.28068" lon="-2.40885">
        <ele>-10.39999961853</ele>
        <time>2021-07-15T09:16:39.000Z</time>
      </trkpt>
      <trkpt lat="47.28045" lon="-2.40837">
        <ele>-10.39999961853</ele>
        <time>2021-07-15T09:16:46.000Z</time>
      </trkpt>
      <trkpt lat="47.28037" lon="-2.40818">
        <ele>-10.39999961853</ele>
        <time>2021-07-15T09:16:49.000Z</time>
      </trkpt>
      <trkpt lat="47.28034" lon="-2.4081">
        <ele>-10.39999961853</ele>
        <time>2021-07-15T09:16:51.000Z</time>
      </trkpt>
      <trkpt lat="47.28037" lon="-2.40793">
        <ele>-10.39999961853</ele>
        <time>2021-07-15T09:16:55.000Z</time>
      </trkpt>
      <trkpt lat="47.28045" lon="-2.40763">
        <ele>-10.39999961853</ele>
        <time>2021-07-15T09:17:00.000Z</time>
      </trkpt>
      <trkpt lat="47.28056" lon="-2.40709">
        <ele>-10.39999961853</ele>
        <time>2021-07-15T09:17:08.000Z</time>
      </trkpt>
      <trkpt lat="47.28058" lon="-2.40695">
        <ele>-10.39999961853</ele>
        <time>2021-07-15T09:17:10.000Z</time>
      </trkpt>
      <trkpt lat="47.28057" lon="-2.40674">
        <ele>-10.39999961853</ele>
        <time>2021-07-15T09:17:13.000Z</time>
      </trkpt>
      <trkpt lat="47.28055" lon="-2.40659">
        <ele>-10.39999961853</ele>
        <time>2021-07-15T09:17:15.000Z</time>
      </trkpt>
      <trkpt lat="47.28051" lon="-2.40637">
        <ele>-10.39999961853</ele>
        <time>2021-07-15T09:17:18.000Z</time>
      </trkpt>
      <trkpt lat="47.28049" lon="-2.40631">
        <ele>-10.39999961853</ele>
        <time>2021-07-15T09:17:19.000Z</time>
      </trkpt>
      <trkpt lat="47.28047" lon="-2.40617">
        <ele>-10.39999961853</ele>
        <time>2021-07-15T09:17:21.000Z</time>
      </trkpt>
      <trkpt lat="47.28049" lon="-2.40604">
        <ele>-10.39999961853</ele>
        <time>2021-07-15T09:17:23.000Z</time>
      </trkpt>
      <trkpt lat="47.28057" lon="-2.40554">
        <ele>-10.39999961853</ele>
        <time>2021-07-15T09:17:30.000Z</time>
      </trkpt>
      <trkpt lat="47.28071" lon="-2.40495">
        <ele>-10.39999961853</ele>
        <time>2021-07-15T09:17:37.000Z</time>
      </trkpt>
      <trkpt lat="47.28076" lon="-2.4048">
        <ele>-10.39999961853</ele>
        <time>2021-07-15T09:17:39.000Z</time>
      </trkpt>
      <trkpt lat="47.28084" lon="-2.40466">
        <ele>-10.39999961853</ele>
        <time>2021-07-15T09:17:41.000Z</time>
      </trkpt>
      <trkpt lat="47.28102" lon="-2.40437">
        <ele>-10.39999961853</ele>
        <time>2021-07-15T09:17:45.000Z</time>
      </trkpt>
      <trkpt lat="47.28105" lon="-2.40429">
        <ele>-10.39999961853</ele>
        <time>2021-07-15T09:17:46.000Z</time>
      </trkpt>
      <trkpt lat="47.28111" lon="-2.40402">
        <ele>-10.39999961853</ele>
        <time>2021-07-15T09:17:49.000Z</time>
      </trkpt>
      <trkpt lat="47.28114" lon="-2.40383">
        <ele>-10.39999961853</ele>
        <time>2021-07-15T09:17:51.000Z</time>
      </trkpt>
      <trkpt lat="47.28125" lon="-2.403">
        <ele>-10.39999961853</ele>
        <time>2021-07-15T09:18:00.000Z</time>
      </trkpt>
      <trkpt lat="47.28126" lon="-2.4029">
        <ele>-10.39999961853</ele>
        <time>2021-07-15T09:18:01.000Z</time>
      </trkpt>
      <trkpt lat="47.28132" lon="-2.40233">
        <ele>-10.39999961853</ele>
        <time>2021-07-15T09:18:07.000Z</time>
      </trkpt>
      <trkpt lat="47.2814" lon="-2.40159">
        <ele>-10.39999961853</ele>
        <time>2021-07-15T09:18:15.000Z</time>
      </trkpt>
      <trkpt lat="47.28145" lon="-2.40094">
        <ele>-10.39999961853</ele>
        <time>2021-07-15T09:18:22.000Z</time>
      </trkpt>
      <trkpt lat="47.2815" lon="-2.40037">
        <ele>-10.39999961853</ele>
        <time>2021-07-15T09:18:29.000Z</time>
      </trkpt>
      <trkpt lat="47.28153" lon="-2.40015">
        <ele>-10.39999961853</ele>
        <time>2021-07-15T09:18:32.000Z</time>
      </trkpt>
      <trkpt lat="47.28152" lon="-2.39999">
        <ele>-10.39999961853</ele>
        <time>2021-07-15T09:18:34.000Z</time>
      </trkpt>
      <trkpt lat="47.28157" lon="-2.39965">
        <ele>-10.39999961853</ele>
        <time>2021-07-15T09:18:38.000Z</time>
      </trkpt>
      <trkpt lat="47.28158" lon="-2.39954">
        <ele>-9.6000003814697</ele>
        <time>2021-07-15T09:18:39.000Z</time>
      </trkpt>
      <trkpt lat="47.28158" lon="-2.39944">
        <ele>-9.1999998092651</ele>
        <time>2021-07-15T09:18:40.000Z</time>
      </trkpt>
      <trkpt lat="47.28158" lon="-2.39935">
        <ele>-8.8000001907349</ele>
        <time>2021-07-15T09:18:41.000Z</time>
      </trkpt>
      <trkpt lat="47.28159" lon="-2.39925">
        <ele>-8.3999996185303</ele>
        <time>2021-07-15T09:18:42.000Z</time>
      </trkpt>
      <trkpt lat="47.28162" lon="-2.39897">
        <ele>-8.3999996185303</ele>
        <time>2021-07-15T09:18:45.000Z</time>
      </trkpt>
      <trkpt lat="47.28165" lon="-2.39837">
        <ele>-8.3999996185303</ele>
        <time>2021-07-15T09:18:51.000Z</time>
      </trkpt>
      <trkpt lat="47.2817" lon="-2.39759">
        <ele>-8.3999996185303</ele>
        <time>2021-07-15T09:18:59.000Z</time>
      </trkpt>
      <trkpt lat="47.28172" lon="-2.39685">
        <ele>-8.3999996185303</ele>
        <time>2021-07-15T09:19:07.000Z</time>
      </trkpt>
      <trkpt lat="47.28173" lon="-2.39662">
        <ele>-8.3999996185303</ele>
        <time>2021-07-15T09:19:11.000Z</time>
      </trkpt>
      <trkpt lat="47.28175" lon="-2.39628">
        <ele>-8.3999996185303</ele>
        <time>2021-07-15T09:19:17.000Z</time>
      </trkpt>
      <trkpt lat="47.28176" lon="-2.39605">
        <ele>-8.3999996185303</ele>
        <time>2021-07-15T09:19:20.000Z</time>
      </trkpt>
      <trkpt lat="47.28176" lon="-2.39587">
        <ele>-8.3999996185303</ele>
        <time>2021-07-15T09:19:22.000Z</time>
      </trkpt>
      <trkpt lat="47.28178" lon="-2.39513">
        <ele>-8.3999996185303</ele>
        <time>2021-07-15T09:19:30.000Z</time>
      </trkpt>
      <trkpt lat="47.28178" lon="-2.39444">
        <ele>-8.3999996185303</ele>
        <time>2021-07-15T09:19:38.000Z</time>
      </trkpt>
      <trkpt lat="47.28178" lon="-2.39374">
        <ele>-8.3999996185303</ele>
        <time>2021-07-15T09:19:46.000Z</time>
      </trkpt>
      <trkpt lat="47.28176" lon="-2.39313">
        <ele>-8.3999996185303</ele>
        <time>2021-07-15T09:19:53.000Z</time>
      </trkpt>
      <trkpt lat="47.28174" lon="-2.39262">
        <ele>-8.3999996185303</ele>
        <time>2021-07-15T09:19:59.000Z</time>
      </trkpt>
      <trkpt lat="47.28171" lon="-2.39188">
        <ele>-8.3999996185303</ele>
        <time>2021-07-15T09:20:07.000Z</time>
      </trkpt>
      <trkpt lat="47.28167" lon="-2.39112">
        <ele>-8.3999996185303</ele>
        <time>2021-07-15T09:20:15.000Z</time>
      </trkpt>
      <trkpt lat="47.28163" lon="-2.39066">
        <ele>-8.3999996185303</ele>
        <time>2021-07-15T09:20:20.000Z</time>
      </trkpt>
      <trkpt lat="47.28158" lon="-2.39003">
        <ele>-8.3999996185303</ele>
        <time>2021-07-15T09:20:27.000Z</time>
      </trkpt>
      <trkpt lat="47.28144" lon="-2.38929">
        <ele>-8.3999996185303</ele>
        <time>2021-07-15T09:20:35.000Z</time>
      </trkpt>
      <trkpt lat="47.28132" lon="-2.3886">
        <ele>-8.3999996185303</ele>
        <time>2021-07-15T09:20:42.000Z</time>
      </trkpt>
      <trkpt lat="47.28127" lon="-2.38799">
        <ele>-8.3999996185303</ele>
        <time>2021-07-15T09:20:48.000Z</time>
      </trkpt>
      <trkpt lat="47.2812" lon="-2.38732">
        <ele>-8.3999996185303</ele>
        <time>2021-07-15T09:20:55.000Z</time>
      </trkpt>
      <trkpt lat="47.28114" lon="-2.38664">
        <ele>-8.3999996185303</ele>
        <time>2021-07-15T09:21:03.000Z</time>
      </trkpt>
      <trkpt lat="47.28111" lon="-2.38635">
        <ele>-8.3999996185303</ele>
        <time>2021-07-15T09:21:08.000Z</time>
      </trkpt>
      <trkpt lat="47.28112" lon="-2.38629">
        <ele>-8.3999996185303</ele>
        <time>2021-07-15T09:21:13.000Z</time>
      </trkpt>
      <trkpt lat="47.28112" lon="-2.38628">
        <ele>-8.3999996185303</ele>
        <time>2021-07-15T09:21:17.000Z</time>
      </trkpt>
      <trkpt lat="47.28112" lon="-2.38626">
        <ele>-8.3999996185303</ele>
        <time>2021-07-15T09:21:23.000Z</time>
      </trkpt>
      <trkpt lat="47.28111" lon="-2.38621">
        <ele>-8.3999996185303</ele>
        <time>2021-07-15T09:21:25.000Z</time>
      </trkpt>
      <trkpt lat="47.2811" lon="-2.38601">
        <ele>-8.3999996185303</ele>
        <time>2021-07-15T09:21:29.000Z</time>
      </trkpt>
      <trkpt lat="47.28106" lon="-2.38571">
        <ele>-8.3999996185303</ele>
        <time>2021-07-15T09:21:33.000Z</time>
      </trkpt>
      <trkpt lat="47.28096" lon="-2.38501">
        <ele>-8.3999996185303</ele>
        <time>2021-07-15T09:21:41.000Z</time>
      </trkpt>
      <trkpt lat="47.28081" lon="-2.38423">
        <ele>-8.3999996185303</ele>
        <time>2021-07-15T09:21:50.000Z</time>
      </trkpt>
      <trkpt lat="47.28069" lon="-2.38352">
        <ele>-8.3999996185303</ele>
        <time>2021-07-15T09:21:58.000Z</time>
      </trkpt>
      <trkpt lat="47.28054" lon="-2.38271">
        <ele>-8.3999996185303</ele>
        <time>2021-07-15T09:22:07.000Z</time>
      </trkpt>
      <trkpt lat="47.28039" lon="-2.38192">
        <ele>-8.3999996185303</ele>
        <time>2021-07-15T09:22:16.000Z</time>
      </trkpt>
      <trkpt lat="47.28037" lon="-2.38184">
        <ele>-8.3999996185303</ele>
        <time>2021-07-15T09:22:17.000Z</time>
      </trkpt>
      <trkpt lat="47.28027" lon="-2.38128">
        <ele>-8.3999996185303</ele>
        <time>2021-07-15T09:22:24.000Z</time>
      </trkpt>
      <trkpt lat="47.28013" lon="-2.38051">
        <ele>-8.3999996185303</ele>
        <time>2021-07-15T09:22:33.000Z</time>
      </trkpt>
      <trkpt lat="47.2801" lon="-2.38035">
        <ele>-8.3999996185303</ele>
        <time>2021-07-15T09:22:35.000Z</time>
      </trkpt>
      <trkpt lat="47.27997" lon="-2.37966">
        <ele>-8.3999996185303</ele>
        <time>2021-07-15T09:22:44.000Z</time>
      </trkpt>
      <trkpt lat="47.27984" lon="-2.37901">
        <ele>-8.3999996185303</ele>
        <time>2021-07-15T09:22:53.000Z</time>
      </trkpt>
      <trkpt lat="47.27974" lon="-2.37844">
        <ele>-8.3999996185303</ele>
        <time>2021-07-15T09:23:00.000Z</time>
      </trkpt>
      <trkpt lat="47.2797" lon="-2.3782">
        <ele>-8.3999996185303</ele>
        <time>2021-07-15T09:23:03.000Z</time>
      </trkpt>
      <trkpt lat="47.27966" lon="-2.37805">
        <ele>-8.3999996185303</ele>
        <time>2021-07-15T09:23:05.000Z</time>
      </trkpt>
      <trkpt lat="47.27975" lon="-2.37791">
        <ele>-8.3999996185303</ele>
        <time>2021-07-15T09:23:08.000Z</time>
      </trkpt>
      <trkpt lat="47.27994" lon="-2.37784">
        <ele>-8.3999996185303</ele>
        <time>2021-07-15T09:23:12.000Z</time>
      </trkpt>
      <trkpt lat="47.28008" lon="-2.37772">
        <ele>-8.3999996185303</ele>
        <time>2021-07-15T09:23:15.000Z</time>
      </trkpt>
      <trkpt lat="47.28019" lon="-2.37763">
        <ele>-8.3999996185303</ele>
        <time>2021-07-15T09:23:17.000Z</time>
      </trkpt>
      <trkpt lat="47.28058" lon="-2.37724">
        <ele>-8.3999996185303</ele>
        <time>2021-07-15T09:23:24.000Z</time>
      </trkpt>
      <trkpt lat="47.28096" lon="-2.37685">
        <ele>-8.3999996185303</ele>
        <time>2021-07-15T09:23:31.000Z</time>
      </trkpt>
      <trkpt lat="47.28124" lon="-2.37657">
        <ele>-8.3999996185303</ele>
        <time>2021-07-15T09:23:36.000Z</time>
      </trkpt>
      <trkpt lat="47.28137" lon="-2.3764">
        <ele>-8.3999996185303</ele>
        <time>2021-07-15T09:23:39.000Z</time>
      </trkpt>
      <trkpt lat="47.28146" lon="-2.37631">
        <ele>-8.3999996185303</ele>
        <time>2021-07-15T09:23:41.000Z</time>
      </trkpt>
      <trkpt lat="47.28165" lon="-2.37631">
        <ele>-8.3999996185303</ele>
        <time>2021-07-15T09:23:44.000Z</time>
      </trkpt>
      <trkpt lat="47.2817" lon="-2.37631">
        <ele>-8.3999996185303</ele>
        <time>2021-07-15T09:23:45.000Z</time>
      </trkpt>
      <trkpt lat="47.28195" lon="-2.37633">
        <ele>-8.3999996185303</ele>
        <time>2021-07-15T09:23:49.000Z</time>
      </trkpt>
      <trkpt lat="47.28229" lon="-2.37639">
        <ele>-8.3999996185303</ele>
        <time>2021-07-15T09:23:54.000Z</time>
      </trkpt>
      <trkpt lat="47.28243" lon="-2.37638">
        <ele>-8.3999996185303</ele>
        <time>2021-07-15T09:23:56.000Z</time>
      </trkpt>
      <trkpt lat="47.28265" lon="-2.37632">
        <ele>-8.3999996185303</ele>
        <time>2021-07-15T09:23:59.000Z</time>
      </trkpt>
      <trkpt lat="47.28297" lon="-2.37611">
        <ele>-8.3999996185303</ele>
        <time>2021-07-15T09:24:04.000Z</time>
      </trkpt>
      <trkpt lat="47.28314" lon="-2.37592">
        <ele>-8.3999996185303</ele>
        <time>2021-07-15T09:24:07.000Z</time>
      </trkpt>
      <trkpt lat="47.28322" lon="-2.37577">
        <ele>-8.3999996185303</ele>
        <time>2021-07-15T09:24:09.000Z</time>
      </trkpt>
      <trkpt lat="47.28335" lon="-2.37555">
        <ele>-8.3999996185303</ele>
        <time>2021-07-15T09:24:12.000Z</time>
      </trkpt>
      <trkpt lat="47.28352" lon="-2.3754">
        <ele>-8.3999996185303</ele>
        <time>2021-07-15T09:24:15.000Z</time>
      </trkpt>
      <trkpt lat="47.28375" lon="-2.37528">
        <ele>-8.3999996185303</ele>
        <time>2021-07-15T09:24:20.000Z</time>
      </trkpt>
      <trkpt lat="47.28393" lon="-2.37526">
        <ele>-8.3999996185303</ele>
        <time>2021-07-15T09:24:25.000Z</time>
      </trkpt>
      <trkpt lat="47.28401" lon="-2.37528">
        <ele>-8.3999996185303</ele>
        <time>2021-07-15T09:24:27.000Z</time>
      </trkpt>
      <trkpt lat="47.28413" lon="-2.37521">
        <ele>-8.3999996185303</ele>
        <time>2021-07-15T09:24:29.000Z</time>
      </trkpt>
      <trkpt lat="47.28425" lon="-2.37512">
        <ele>-8.3999996185303</ele>
        <time>2021-07-15T09:24:31.000Z</time>
      </trkpt>
      <trkpt lat="47.28432" lon="-2.37505">
        <ele>-8.3999996185303</ele>
        <time>2021-07-15T09:24:32.000Z</time>
      </trkpt>
      <trkpt lat="47.28438" lon="-2.37497">
        <ele>-8.3999996185303</ele>
        <time>2021-07-15T09:24:33.000Z</time>
      </trkpt>
      <trkpt lat="47.28448" lon="-2.37466">
        <ele>-8.3999996185303</ele>
        <time>2021-07-15T09:24:36.000Z</time>
      </trkpt>
      <trkpt lat="47.2845" lon="-2.37457">
        <ele>-8.3999996185303</ele>
        <time>2021-07-15T09:24:37.000Z</time>
      </trkpt>
      <trkpt lat="47.28463" lon="-2.37406">
        <ele>-8.3999996185303</ele>
        <time>2021-07-15T09:24:43.000Z</time>
      </trkpt>
      <trkpt lat="47.28469" lon="-2.37372">
        <ele>-8.3999996185303</ele>
        <time>2021-07-15T09:24:48.000Z</time>
      </trkpt>
      <trkpt lat="47.28476" lon="-2.37343">
        <ele>-8.3999996185303</ele>
        <time>2021-07-15T09:24:52.000Z</time>
      </trkpt>
      <trkpt lat="47.28478" lon="-2.37335">
        <ele>-8.3999996185303</ele>
        <time>2021-07-15T09:24:53.000Z</time>
      </trkpt>
      <trkpt lat="47.28483" lon="-2.37304">
        <ele>-8.3999996185303</ele>
        <time>2021-07-15T09:24:58.000Z</time>
      </trkpt>
      <trkpt lat="47.28489" lon="-2.37268">
        <ele>-8.3999996185303</ele>
        <time>2021-07-15T09:25:03.000Z</time>
      </trkpt>
      <trkpt lat="47.28488" lon="-2.3726">
        <ele>-8.3999996185303</ele>
        <time>2021-07-15T09:25:04.000Z</time>
      </trkpt>
      <trkpt lat="47.28489" lon="-2.37236">
        <ele>-8</ele>
        <time>2021-07-15T09:25:07.000Z</time>
      </trkpt>
      <trkpt lat="47.28491" lon="-2.37229">
        <ele>-7.5999999046326</ele>
        <time>2021-07-15T09:25:08.000Z</time>
      </trkpt>
      <trkpt lat="47.28493" lon="-2.37223">
        <ele>-7.1999998092651</ele>
        <time>2021-07-15T09:25:09.000Z</time>
      </trkpt>
      <trkpt lat="47.28497" lon="-2.37219">
        <ele>-6.8000001907349</ele>
        <time>2021-07-15T09:25:10.000Z</time>
      </trkpt>
      <trkpt lat="47.28502" lon="-2.37216">
        <ele>-6.4000000953674</ele>
        <time>2021-07-15T09:25:11.000Z</time>
      </trkpt>
      <trkpt lat="47.28513" lon="-2.37217">
        <ele>-6.4000000953674</ele>
        <time>2021-07-15T09:25:13.000Z</time>
      </trkpt>
      <trkpt lat="47.28534" lon="-2.37225">
        <ele>-6.4000000953674</ele>
        <time>2021-07-15T09:25:17.000Z</time>
      </trkpt>
      <trkpt lat="47.28568" lon="-2.37237">
        <ele>-6.4000000953674</ele>
        <time>2021-07-15T09:25:24.000Z</time>
      </trkpt>
      <trkpt lat="47.28595" lon="-2.37247">
        <ele>-6.4000000953674</ele>
        <time>2021-07-15T09:25:29.000Z</time>
      </trkpt>
      <trkpt lat="47.28606" lon="-2.37238">
        <ele>-6.4000000953674</ele>
        <time>2021-07-15T09:25:31.000Z</time>
      </trkpt>
      <trkpt lat="47.28614" lon="-2.37214">
        <ele>-6.4000000953674</ele>
        <time>2021-07-15T09:25:34.000Z</time>
      </trkpt>
      <trkpt lat="47.28615" lon="-2.37207">
        <ele>-6.4000000953674</ele>
        <time>2021-07-15T09:25:35.000Z</time>
      </trkpt>
      <trkpt lat="47.28618" lon="-2.37162">
        <ele>-6.4000000953674</ele>
        <time>2021-07-15T09:25:41.000Z</time>
      </trkpt>
      <trkpt lat="47.28614" lon="-2.37141">
        <ele>-6.4000000953674</ele>
        <time>2021-07-15T09:25:45.000Z</time>
      </trkpt>
      <trkpt lat="47.28611" lon="-2.37133">
        <ele>-6</ele>
        <time>2021-07-15T09:25:48.000Z</time>
      </trkpt>
      <trkpt lat="47.2861" lon="-2.37132">
        <ele>-5.4000000953674</ele>
        <time>2021-07-15T09:25:49.000Z</time>
      </trkpt>
      <trkpt lat="47.2861" lon="-2.37132">
        <ele>-5</ele>
        <time>2021-07-15T09:25:50.000Z</time>
      </trkpt>
      <trkpt lat="47.2861" lon="-2.37131">
        <ele>-4.5999999046326</ele>
        <time>2021-07-15T09:25:51.000Z</time>
      </trkpt>
      <trkpt lat="47.28609" lon="-2.37123">
        <ele>-3.5999999046326</ele>
        <time>2021-07-15T09:26:06.000Z</time>
      </trkpt>
      <trkpt lat="47.28608" lon="-2.37121">
        <ele>-3.2000000476837</ele>
        <time>2021-07-15T09:26:07.000Z</time>
      </trkpt>
      <trkpt lat="47.28608" lon="-2.3712">
        <ele>-2.7999999523163</ele>
        <time>2021-07-15T09:26:08.000Z</time>
      </trkpt>
      <trkpt lat="47.28608" lon="-2.37119">
        <ele>-2.4000000953674</ele>
        <time>2021-07-15T09:26:09.000Z</time>
      </trkpt>
      <trkpt lat="47.28606" lon="-2.37115">
        <ele>-1.7999999523163</ele>
        <time>2021-07-15T09:26:14.000Z</time>
      </trkpt>
      <trkpt lat="47.28605" lon="-2.37111">
        <ele>-1.7999999523163</ele>
        <time>2021-07-15T09:26:16.000Z</time>
      </trkpt>
      <trkpt lat="47.28604" lon="-2.3711">
        <ele>-1.7999999523163</ele>
        <time>2021-07-15T09:26:18.000Z</time>
      </trkpt>
      <trkpt lat="47.28602" lon="-2.37116">
        <ele>-1.7999999523163</ele>
        <time>2021-07-15T09:26:37.000Z</time>
      </trkpt>
      <trkpt lat="47.28603" lon="-2.37117">
        <ele>-1.7999999523163</ele>
        <time>2021-07-15T09:26:38.000Z</time>
      </trkpt>
      <trkpt lat="47.28604" lon="-2.37112">
        <ele>-1.7999999523163</ele>
        <time>2021-07-15T09:26:41.000Z</time>
      </trkpt>
      <trkpt lat="47.28604" lon="-2.37111">
        <ele>-1.7999999523163</ele>
        <time>2021-07-15T09:26:42.000Z</time>
      </trkpt>
      <trkpt lat="47.28603" lon="-2.3711">
        <ele>-1.7999999523163</ele>
        <time>2021-07-15T09:26:43.000Z</time>
      </trkpt>
      <trkpt lat="47.28601" lon="-2.37113">
        <ele>-1.7999999523163</ele>
        <time>2021-07-15T09:27:15.000Z</time>
      </trkpt>
      <trkpt lat="47.286" lon="-2.37115">
        <ele>-1.7999999523163</ele>
        <time>2021-07-15T09:27:16.000Z</time>
      </trkpt>
      <trkpt lat="47.28589" lon="-2.37123">
        <ele>-1.7999999523163</ele>
        <time>2021-07-15T09:27:20.000Z</time>
      </trkpt>
      <trkpt lat="47.28581" lon="-2.37128">
        <ele>-1.7999999523163</ele>
        <time>2021-07-15T09:27:22.000Z</time>
      </trkpt>
      <trkpt lat="47.28568" lon="-2.37137">
        <ele>-1.7999999523163</ele>
        <time>2021-07-15T09:27:24.000Z</time>
      </trkpt>
      <trkpt lat="47.28545" lon="-2.37149">
        <ele>-2.2000000476837</ele>
        <time>2021-07-15T09:27:27.000Z</time>
      </trkpt>
      <trkpt lat="47.28539" lon="-2.37152">
        <ele>-2.5999999046326</ele>
        <time>2021-07-15T09:27:28.000Z</time>
      </trkpt>
      <trkpt lat="47.28534" lon="-2.37154">
        <ele>-3</ele>
        <time>2021-07-15T09:27:29.000Z</time>
      </trkpt>
      <trkpt lat="47.2853" lon="-2.37156">
        <ele>-3.4000000953674</ele>
        <time>2021-07-15T09:27:30.000Z</time>
      </trkpt>
      <trkpt lat="47.28526" lon="-2.37158">
        <ele>-4</ele>
        <time>2021-07-15T09:27:31.000Z</time>
      </trkpt>
      <trkpt lat="47.28524" lon="-2.37159">
        <ele>-4.4000000953674</ele>
        <time>2021-07-15T09:27:32.000Z</time>
      </trkpt>
      <trkpt lat="47.28522" lon="-2.3716">
        <ele>-5</ele>
        <time>2021-07-15T09:27:33.000Z</time>
      </trkpt>
      <trkpt lat="47.2852" lon="-2.37161">
        <ele>-5.4000000953674</ele>
        <time>2021-07-15T09:27:34.000Z</time>
      </trkpt>
      <trkpt lat="47.28519" lon="-2.37162">
        <ele>-6</ele>
        <time>2021-07-15T09:27:35.000Z</time>
      </trkpt>
      <trkpt lat="47.28517" lon="-2.37162">
        <ele>-6</ele>
        <time>2021-07-15T09:27:36.000Z</time>
      </trkpt>
      <trkpt lat="47.28512" lon="-2.37159">
        <ele>-6</ele>
        <time>2021-07-15T09:27:38.000Z</time>
      </trkpt>
      <trkpt lat="47.28507" lon="-2.37148">
        <ele>-6</ele>
        <time>2021-07-15T09:27:42.000Z</time>
      </trkpt>
      <trkpt lat="47.28507" lon="-2.37144">
        <ele>-6</ele>
        <time>2021-07-15T09:27:43.000Z</time>
      </trkpt>
      <trkpt lat="47.28505" lon="-2.37117">
        <ele>-6</ele>
        <time>2021-07-15T09:27:49.000Z</time>
      </trkpt>
      <trkpt lat="47.28504" lon="-2.37084">
        <ele>-6</ele>
        <time>2021-07-15T09:27:55.000Z</time>
      </trkpt>
      <trkpt lat="47.28501" lon="-2.37053">
        <ele>-6</ele>
        <time>2021-07-15T09:28:01.000Z</time>
      </trkpt>
      <trkpt lat="47.285" lon="-2.37048">
        <ele>-5.5999999046326</ele>
        <time>2021-07-15T09:28:02.000Z</time>
      </trkpt>
      <trkpt lat="47.285" lon="-2.37043">
        <ele>-5.1999998092651</ele>
        <time>2021-07-15T09:28:03.000Z</time>
      </trkpt>
      <trkpt lat="47.28499" lon="-2.37038">
        <ele>-4.8000001907349</ele>
        <time>2021-07-15T09:28:04.000Z</time>
      </trkpt>
      <trkpt lat="47.28499" lon="-2.37034">
        <ele>-4.1999998092651</ele>
        <time>2021-07-15T09:28:05.000Z</time>
      </trkpt>
      <trkpt lat="47.28499" lon="-2.37029">
        <ele>-3.7999999523163</ele>
        <time>2021-07-15T09:28:06.000Z</time>
      </trkpt>
      <trkpt lat="47.28498" lon="-2.36997">
        <ele>-3.7999999523163</ele>
        <time>2021-07-15T09:28:12.000Z</time>
      </trkpt>
      <trkpt lat="47.28497" lon="-2.36992">
        <ele>-3.4000000953674</ele>
        <time>2021-07-15T09:28:13.000Z</time>
      </trkpt>
      <trkpt lat="47.28496" lon="-2.36988">
        <ele>-3</ele>
        <time>2021-07-15T09:28:14.000Z</time>
      </trkpt>
      <trkpt lat="47.28495" lon="-2.36983">
        <ele>-2.5999999046326</ele>
        <time>2021-07-15T09:28:15.000Z</time>
      </trkpt>
      <trkpt lat="47.28494" lon="-2.36979">
        <ele>-2.2000000476837</ele>
        <time>2021-07-15T09:28:16.000Z</time>
      </trkpt>
      <trkpt lat="47.28494" lon="-2.36975">
        <ele>-1.7999999523163</ele>
        <time>2021-07-15T09:28:17.000Z</time>
      </trkpt>
      <trkpt lat="47.28492" lon="-2.36957">
        <ele>-1.3999999761581</ele>
        <time>2021-07-15T09:28:21.000Z</time>
      </trkpt>
      <trkpt lat="47.28491" lon="-2.36953">
        <ele>-1</ele>
        <time>2021-07-15T09:28:22.000Z</time>
      </trkpt>
      <trkpt lat="47.2849" lon="-2.36949">
        <ele>-0.40000000596046</ele>
        <time>2021-07-15T09:28:23.000Z</time>
      </trkpt>
      <trkpt lat="47.2849" lon="-2.36946">
        <ele>17.3</ele>
        <time>2021-07-15T09:28:24.000Z</time>
      </trkpt>
      <trkpt lat="47.28489" lon="-2.36942">
        <ele>0.40000000596046</ele>
        <time>2021-07-15T09:28:25.000Z</time>
      </trkpt>
      <trkpt lat="47.28486" lon="-2.36914">
        <ele>0.80000001192093</ele>
        <time>2021-07-15T09:28:31.000Z</time>
      </trkpt>
      <trkpt lat="47.28485" lon="-2.3691">
        <ele>1.2000000476837</ele>
        <time>2021-07-15T09:28:32.000Z</time>
      </trkpt>
      <trkpt lat="47.28485" lon="-2.36904">
        <ele>1.6000000238419</ele>
        <time>2021-07-15T09:28:33.000Z</time>
      </trkpt>
      <trkpt lat="47.28484" lon="-2.36899">
        <ele>2</ele>
        <time>2021-07-15T09:28:34.000Z</time>
      </trkpt>
      <trkpt lat="47.28483" lon="-2.36895">
        <ele>2.4000000953674</ele>
        <time>2021-07-15T09:28:35.000Z</time>
      </trkpt>
      <trkpt lat="47.28483" lon="-2.36891">
        <ele>2.4000000953674</ele>
        <time>2021-07-15T09:28:36.000Z</time>
      </trkpt>
      <trkpt lat="47.2848" lon="-2.36867">
        <ele>2.4000000953674</ele>
        <time>2021-07-15T09:28:42.000Z</time>
      </trkpt>
      <trkpt lat="47.28472" lon="-2.36851">
        <ele>2.4000000953674</ele>
        <time>2021-07-15T09:28:46.000Z</time>
      </trkpt>
      <trkpt lat="47.28472" lon="-2.36828">
        <ele>2.7999999523163</ele>
        <time>2021-07-15T09:28:50.000Z</time>
      </trkpt>
      <trkpt lat="47.28472" lon="-2.36823">
        <ele>3.2000000476837</ele>
        <time>2021-07-15T09:28:51.000Z</time>
      </trkpt>
      <trkpt lat="47.28471" lon="-2.36818">
        <ele>3.5999999046326</ele>
        <time>2021-07-15T09:28:52.000Z</time>
      </trkpt>
      <trkpt lat="47.28469" lon="-2.36813">
        <ele>4</ele>
        <time>2021-07-15T09:28:53.000Z</time>
      </trkpt>
      <trkpt lat="47.28467" lon="-2.36808">
        <ele>4.4000000953674</ele>
        <time>2021-07-15T09:28:54.000Z</time>
      </trkpt>
      <trkpt lat="47.28462" lon="-2.36792">
        <ele>4.4000000953674</ele>
        <time>2021-07-15T09:28:57.000Z</time>
      </trkpt>
      <trkpt lat="47.28454" lon="-2.3676">
        <ele>5</ele>
        <time>2021-07-15T09:29:03.000Z</time>
      </trkpt>
      <trkpt lat="47.28453" lon="-2.36755">
        <ele>5.4000000953674</ele>
        <time>2021-07-15T09:29:04.000Z</time>
      </trkpt>
      <trkpt lat="47.28451" lon="-2.36751">
        <ele>5.8000001907349</ele>
        <time>2021-07-15T09:29:05.000Z</time>
      </trkpt>
      <trkpt lat="47.2845" lon="-2.36746">
        <ele>6.1999998092651</ele>
        <time>2021-07-15T09:29:06.000Z</time>
      </trkpt>
      <trkpt lat="47.28449" lon="-2.36741">
        <ele>6.5999999046326</ele>
        <time>2021-07-15T09:29:07.000Z</time>
      </trkpt>
      <trkpt lat="47.28446" lon="-2.36726">
        <ele>6.5999999046326</ele>
        <time>2021-07-15T09:29:10.000Z</time>
      </trkpt>
      <trkpt lat="47.28452" lon="-2.36714">
        <ele>6.5999999046326</ele>
        <time>2021-07-15T09:29:13.000Z</time>
      </trkpt>
      <trkpt lat="47.28461" lon="-2.36703">
        <ele>6.5999999046326</ele>
        <time>2021-07-15T09:29:16.000Z</time>
      </trkpt>
      <trkpt lat="47.28472" lon="-2.36693">
        <ele>6.5999999046326</ele>
        <time>2021-07-15T09:29:19.000Z</time>
      </trkpt>
      <trkpt lat="47.28489" lon="-2.36668">
        <ele>7</ele>
        <time>2021-07-15T09:29:25.000Z</time>
      </trkpt>
      <trkpt lat="47.28489" lon="-2.36664">
        <ele>7.4000000953674</ele>
        <time>2021-07-15T09:29:26.000Z</time>
      </trkpt>
      <trkpt lat="47.28489" lon="-2.36658">
        <ele>7.8000001907349</ele>
        <time>2021-07-15T09:29:27.000Z</time>
      </trkpt>
      <trkpt lat="47.28488" lon="-2.36654">
        <ele>8.1999998092651</ele>
        <time>2021-07-15T09:29:28.000Z</time>
      </trkpt>
      <trkpt lat="47.28486" lon="-2.36649">
        <ele>8.8000001907349</ele>
        <time>2021-07-15T09:29:29.000Z</time>
      </trkpt>
      <trkpt lat="47.28474" lon="-2.36611">
        <ele>8.8000001907349</ele>
        <time>2021-07-15T09:29:37.000Z</time>
      </trkpt>
      <trkpt lat="47.28465" lon="-2.36577">
        <ele>8.8000001907349</ele>
        <time>2021-07-15T09:29:44.000Z</time>
      </trkpt>
      <trkpt lat="47.28466" lon="-2.36566">
        <ele>8.8000001907349</ele>
        <time>2021-07-15T09:29:46.000Z</time>
      </trkpt>
      <trkpt lat="47.28469" lon="-2.36563">
        <ele>8.8000001907349</ele>
        <time>2021-07-15T09:29:47.000Z</time>
      </trkpt>
      <trkpt lat="47.28491" lon="-2.36539">
        <ele>8.8000001907349</ele>
        <time>2021-07-15T09:29:53.000Z</time>
      </trkpt>
      <trkpt lat="47.28501" lon="-2.36527">
        <ele>8.8000001907349</ele>
        <time>2021-07-15T09:29:56.000Z</time>
      </trkpt>
      <trkpt lat="47.28508" lon="-2.3652">
        <ele>8.8000001907349</ele>
        <time>2021-07-15T09:29:58.000Z</time>
      </trkpt>
      <trkpt lat="47.28514" lon="-2.36514">
        <ele>9.1999998092651</ele>
        <time>2021-07-15T09:30:00.000Z</time>
      </trkpt>
      <trkpt lat="47.28516" lon="-2.36511">
        <ele>9.6000003814697</ele>
        <time>2021-07-15T09:30:01.000Z</time>
      </trkpt>
      <trkpt lat="47.28519" lon="-2.36508">
        <ele>10</ele>
        <time>2021-07-15T09:30:02.000Z</time>
      </trkpt>
      <trkpt lat="47.28521" lon="-2.36505">
        <ele>11</ele>
        <time>2021-07-15T09:30:03.000Z</time>
      </trkpt>
      <trkpt lat="47.28524" lon="-2.36501">
        <ele>11</ele>
        <time>2021-07-15T09:30:04.000Z</time>
      </trkpt>
      <trkpt lat="47.28524" lon="-2.36497">
        <ele>11</ele>
        <time>2021-07-15T09:30:05.000Z</time>
      </trkpt>
      <trkpt lat="47.28521" lon="-2.36489">
        <ele>11</ele>
        <time>2021-07-15T09:30:07.000Z</time>
      </trkpt>
      <trkpt lat="47.2852" lon="-2.36484">
        <ele>11.39999961853</ele>
        <time>2021-07-15T09:30:08.000Z</time>
      </trkpt>
      <trkpt lat="47.2852" lon="-2.36479">
        <ele>11.800000190735</ele>
        <time>2021-07-15T09:30:09.000Z</time>
      </trkpt>
      <trkpt lat="47.2852" lon="-2.36473">
        <ele>12.199999809265</ele>
        <time>2021-07-15T09:30:10.000Z</time>
      </trkpt>
      <trkpt lat="47.28519" lon="-2.36468">
        <ele>12.60000038147</ele>
        <time>2021-07-15T09:30:11.000Z</time>
      </trkpt>
      <trkpt lat="47.28517" lon="-2.36462">
        <ele>13</ele>
        <time>2021-07-15T09:30:12.000Z</time>
      </trkpt>
      <trkpt lat="47.28508" lon="-2.36447">
        <ele>13</ele>
        <time>2021-07-15T09:30:15.000Z</time>
      </trkpt>
      <trkpt lat="47.28504" lon="-2.36444">
        <ele>13</ele>
        <time>2021-07-15T09:30:16.000Z</time>
      </trkpt>
      <trkpt lat="47.28495" lon="-2.36437">
        <ele>13</ele>
        <time>2021-07-15T09:30:18.000Z</time>
      </trkpt>
      <trkpt lat="47.28484" lon="-2.36429">
        <ele>13</ele>
        <time>2021-07-15T09:30:21.000Z</time>
      </trkpt>
      <trkpt lat="47.28472" lon="-2.36416">
        <ele>13</ele>
        <time>2021-07-15T09:30:26.000Z</time>
      </trkpt>
      <trkpt lat="47.28468" lon="-2.3641">
        <ele>13.800000190735</ele>
        <time>2021-07-15T09:30:28.000Z</time>
      </trkpt>
      <trkpt lat="47.28465" lon="-2.36407">
        <ele>14.199999809265</ele>
        <time>2021-07-15T09:30:29.000Z</time>
      </trkpt>
      <trkpt lat="47.28463" lon="-2.36403">
        <ele>14.60000038147</ele>
        <time>2021-07-15T09:30:30.000Z</time>
      </trkpt>
      <trkpt lat="47.28459" lon="-2.36399">
        <ele>15</ele>
        <time>2021-07-15T09:30:31.000Z</time>
      </trkpt>
      <trkpt lat="47.28447" lon="-2.36382">
        <ele>14.60000038147</ele>
        <time>2021-07-15T09:30:34.000Z</time>
      </trkpt>
      <trkpt lat="47.28442" lon="-2.36377">
        <ele>14.199999809265</ele>
        <time>2021-07-15T09:30:35.000Z</time>
      </trkpt>
      <trkpt lat="47.28437" lon="-2.36374">
        <ele>13.800000190735</ele>
        <time>2021-07-15T09:30:36.000Z</time>
      </trkpt>
      <trkpt lat="47.28431" lon="-2.3637">
        <ele>13.39999961853</ele>
        <time>2021-07-15T09:30:37.000Z</time>
      </trkpt>
      <trkpt lat="47.28427" lon="-2.36366">
        <ele>13</ele>
        <time>2021-07-15T09:30:38.000Z</time>
      </trkpt>
      <trkpt lat="47.28412" lon="-2.36343">
        <ele>13</ele>
        <time>2021-07-15T09:30:42.000Z</time>
      </trkpt>
      <trkpt lat="47.28388" lon="-2.36317">
        <ele>13</ele>
        <time>2021-07-15T09:30:47.000Z</time>
      </trkpt>
      <trkpt lat="47.28382" lon="-2.36313">
        <ele>13</ele>
        <time>2021-07-15T09:30:48.000Z</time>
      </trkpt>
      <trkpt lat="47.28377" lon="-2.3631">
        <ele>12.60000038147</ele>
        <time>2021-07-15T09:30:49.000Z</time>
      </trkpt>
      <trkpt lat="47.28372" lon="-2.36308">
        <ele>12.199999809265</ele>
        <time>2021-07-15T09:30:50.000Z</time>
      </trkpt>
      <trkpt lat="47.28368" lon="-2.36304">
        <ele>11.800000190735</ele>
        <time>2021-07-15T09:30:51.000Z</time>
      </trkpt>
      <trkpt lat="47.28365" lon="-2.363">
        <ele>11.39999961853</ele>
        <time>2021-07-15T09:30:52.000Z</time>
      </trkpt>
      <trkpt lat="47.28362" lon="-2.36295">
        <ele>10.800000190735</ele>
        <time>2021-07-15T09:30:53.000Z</time>
      </trkpt>
      <trkpt lat="47.28359" lon="-2.36286">
        <ele>10.800000190735</ele>
        <time>2021-07-15T09:30:55.000Z</time>
      </trkpt>
      <trkpt lat="47.2836" lon="-2.36281">
        <ele>10.800000190735</ele>
        <time>2021-07-15T09:30:56.000Z</time>
      </trkpt>
      <trkpt lat="47.28363" lon="-2.36267">
        <ele>10.800000190735</ele>
        <time>2021-07-15T09:30:58.000Z</time>
      </trkpt>
      <trkpt lat="47.28365" lon="-2.36261">
        <ele>10.800000190735</ele>
        <time>2021-07-15T09:30:59.000Z</time>
      </trkpt>
      <trkpt lat="47.28376" lon="-2.36247">
        <ele>10.800000190735</ele>
        <time>2021-07-15T09:31:03.000Z</time>
      </trkpt>
      <trkpt lat="47.28392" lon="-2.3623">
        <ele>10.800000190735</ele>
        <time>2021-07-15T09:31:09.000Z</time>
      </trkpt>
      <trkpt lat="47.28403" lon="-2.36218">
        <ele>11.39999961853</ele>
        <time>2021-07-15T09:31:13.000Z</time>
      </trkpt>
      <trkpt lat="47.28407" lon="-2.36216">
        <ele>11.800000190735</ele>
        <time>2021-07-15T09:31:14.000Z</time>
      </trkpt>
      <trkpt lat="47.2841" lon="-2.36213">
        <ele>12.199999809265</ele>
        <time>2021-07-15T09:31:15.000Z</time>
      </trkpt>
      <trkpt lat="47.28414" lon="-2.36211">
        <ele>12.60000038147</ele>
        <time>2021-07-15T09:31:16.000Z</time>
      </trkpt>
      <trkpt lat="47.28417" lon="-2.3621">
        <ele>13</ele>
        <time>2021-07-15T09:31:17.000Z</time>
      </trkpt>
      <trkpt lat="47.28434" lon="-2.36203">
        <ele>13</ele>
        <time>2021-07-15T09:31:23.000Z</time>
      </trkpt>
      <trkpt lat="47.28436" lon="-2.36202">
        <ele>13.39999961853</ele>
        <time>2021-07-15T09:31:24.000Z</time>
      </trkpt>
      <trkpt lat="47.28437" lon="-2.36201">
        <ele>13.800000190735</ele>
        <time>2021-07-15T09:31:25.000Z</time>
      </trkpt>
      <trkpt lat="47.28438" lon="-2.36201">
        <ele>14.199999809265</ele>
        <time>2021-07-15T09:31:26.000Z</time>
      </trkpt>
      <trkpt lat="47.28447" lon="-2.36195">
        <ele>15</ele>
        <time>2021-07-15T09:31:58.000Z</time>
      </trkpt>
      <trkpt lat="47.28446" lon="-2.36192">
        <ele>15</ele>
        <time>2021-07-15T09:31:59.000Z</time>
      </trkpt>
      <trkpt lat="47.28443" lon="-2.36182">
        <ele>15</ele>
        <time>2021-07-15T09:32:03.000Z</time>
      </trkpt>
      <trkpt lat="47.28445" lon="-2.36174">
        <ele>15.39999961853</ele>
        <time>2021-07-15T09:32:05.000Z</time>
      </trkpt>
      <trkpt lat="47.28446" lon="-2.3617">
        <ele>15.800000190735</ele>
        <time>2021-07-15T09:32:06.000Z</time>
      </trkpt>
      <trkpt lat="47.28446" lon="-2.36166">
        <ele>16.60000038147</ele>
        <time>2021-07-15T09:32:07.000Z</time>
      </trkpt>
      <trkpt lat="47.28446" lon="-2.36162">
        <ele>17.200000762939</ele>
        <time>2021-07-15T09:32:08.000Z</time>
      </trkpt>
      <trkpt lat="47.28446" lon="-2.36158">
        <ele>17.200000762939</ele>
        <time>2021-07-15T09:32:09.000Z</time>
      </trkpt>
      <trkpt lat="47.28442" lon="-2.36149">
        <ele>17.60000038147</ele>
        <time>2021-07-15T09:32:12.000Z</time>
      </trkpt>
      <trkpt lat="47.28441" lon="-2.36145">
        <ele>18</ele>
        <time>2021-07-15T09:32:13.000Z</time>
      </trkpt>
      <trkpt lat="47.2844" lon="-2.36141">
        <ele>18.39999961853</ele>
        <time>2021-07-15T09:32:14.000Z</time>
      </trkpt>
      <trkpt lat="47.2844" lon="-2.36136">
        <ele>19</ele>
        <time>2021-07-15T09:32:15.000Z</time>
      </trkpt>
      <trkpt lat="47.2844" lon="-2.36132">
        <ele>19.39999961853</ele>
        <time>2021-07-15T09:32:16.000Z</time>
      </trkpt>
      <trkpt lat="47.28438" lon="-2.36124">
        <ele>19.39999961853</ele>
        <time>2021-07-15T09:32:18.000Z</time>
      </trkpt>
      <trkpt lat="47.28437" lon="-2.36115">
        <ele>19.39999961853</ele>
        <time>2021-07-15T09:32:20.000Z</time>
      </trkpt>
      <trkpt lat="47.28436" lon="-2.36105">
        <ele>19.799999237061</ele>
        <time>2021-07-15T09:32:22.000Z</time>
      </trkpt>
      <trkpt lat="47.28436" lon="-2.36101">
        <ele>20.200000762939</ele>
        <time>2021-07-15T09:32:23.000Z</time>
      </trkpt>
      <trkpt lat="47.28436" lon="-2.36097">
        <ele>20.60000038147</ele>
        <time>2021-07-15T09:32:24.000Z</time>
      </trkpt>
      <trkpt lat="47.28436" lon="-2.36093">
        <ele>21.200000762939</ele>
        <time>2021-07-15T09:32:25.000Z</time>
      </trkpt>
      <trkpt lat="47.28436" lon="-2.36088">
        <ele>21.60000038147</ele>
        <time>2021-07-15T09:32:26.000Z</time>
      </trkpt>
      <trkpt lat="47.28436" lon="-2.36083">
        <ele>21.60000038147</ele>
        <time>2021-07-15T09:32:27.000Z</time>
      </trkpt>
      <trkpt lat="47.28435" lon="-2.36071">
        <ele>22</ele>
        <time>2021-07-15T09:32:30.000Z</time>
      </trkpt>
      <trkpt lat="47.28435" lon="-2.36067">
        <ele>22.799999237061</ele>
        <time>2021-07-15T09:32:31.000Z</time>
      </trkpt>
      <trkpt lat="47.28435" lon="-2.36063">
        <ele>23.200000762939</ele>
        <time>2021-07-15T09:32:32.000Z</time>
      </trkpt>
      <trkpt lat="47.28435" lon="-2.36059">
        <ele>23.60000038147</ele>
        <time>2021-07-15T09:32:33.000Z</time>
      </trkpt>
      <trkpt lat="47.28436" lon="-2.36033">
        <ele>23.60000038147</ele>
        <time>2021-07-15T09:32:40.000Z</time>
      </trkpt>
      <trkpt lat="47.28438" lon="-2.36023">
        <ele>23.60000038147</ele>
        <time>2021-07-15T09:32:45.000Z</time>
      </trkpt>
      <trkpt lat="47.28439" lon="-2.36022">
        <ele>24</ele>
        <time>2021-07-15T09:32:46.000Z</time>
      </trkpt>
      <trkpt lat="47.2844" lon="-2.36021">
        <ele>24.60000038147</ele>
        <time>2021-07-15T09:32:47.000Z</time>
      </trkpt>
      <trkpt lat="47.28443" lon="-2.36012">
        <ele>25.799999237061</ele>
        <time>2021-07-15T09:32:52.000Z</time>
      </trkpt>
      <trkpt lat="47.28445" lon="-2.36007">
        <ele>25.799999237061</ele>
        <time>2021-07-15T09:32:54.000Z</time>
      </trkpt>
      <trkpt lat="47.28447" lon="-2.35997">
        <ele>25.799999237061</ele>
        <time>2021-07-15T09:32:57.000Z</time>
      </trkpt>
      <trkpt lat="47.28444" lon="-2.35993">
        <ele>25.799999237061</ele>
        <time>2021-07-15T09:32:59.000Z</time>
      </trkpt>
      <trkpt lat="47.28437" lon="-2.35992">
        <ele>25.799999237061</ele>
        <time>2021-07-15T09:33:02.000Z</time>
      </trkpt>
      <trkpt lat="47.28431" lon="-2.35995">
        <ele>25.799999237061</ele>
        <time>2021-07-15T09:33:04.000Z</time>
      </trkpt>
      <trkpt lat="47.28413" lon="-2.36014">
        <ele>25.799999237061</ele>
        <time>2021-07-15T09:33:10.000Z</time>
      </trkpt>
      <trkpt lat="47.28394" lon="-2.36022">
        <ele>25.799999237061</ele>
        <time>2021-07-15T09:33:15.000Z</time>
      </trkpt>
      <trkpt lat="47.28389" lon="-2.36021">
        <ele>25.799999237061</ele>
        <time>2021-07-15T09:33:16.000Z</time>
      </trkpt>
      <trkpt lat="47.28376" lon="-2.3602">
        <ele>25.200000762939</ele>
        <time>2021-07-15T09:33:18.000Z</time>
      </trkpt>
      <trkpt lat="47.28369" lon="-2.3602">
        <ele>24.799999237061</ele>
        <time>2021-07-15T09:33:19.000Z</time>
      </trkpt>
      <trkpt lat="47.28362" lon="-2.36021">
        <ele>24.39999961853</ele>
        <time>2021-07-15T09:33:20.000Z</time>
      </trkpt>
      <trkpt lat="47.28356" lon="-2.36022">
        <ele>23</ele>
        <time>2021-07-15T09:33:21.000Z</time>
      </trkpt>
      <trkpt lat="47.28349" lon="-2.36025">
        <ele>22.39999961853</ele>
        <time>2021-07-15T09:33:22.000Z</time>
      </trkpt>
      <trkpt lat="47.28342" lon="-2.3603">
        <ele>21.799999237061</ele>
        <time>2021-07-15T09:33:23.000Z</time>
      </trkpt>
      <trkpt lat="47.28335" lon="-2.36035">
        <ele>21.200000762939</ele>
        <time>2021-07-15T09:33:24.000Z</time>
      </trkpt>
      <trkpt lat="47.2833" lon="-2.3604">
        <ele>20.60000038147</ele>
        <time>2021-07-15T09:33:25.000Z</time>
      </trkpt>
      <trkpt lat="47.28325" lon="-2.36045">
        <ele>20.200000762939</ele>
        <time>2021-07-15T09:33:26.000Z</time>
      </trkpt>
      <trkpt lat="47.28319" lon="-2.36048">
        <ele>19.60000038147</ele>
        <time>2021-07-15T09:33:27.000Z</time>
      </trkpt>
      <trkpt lat="47.28314" lon="-2.3605">
        <ele>19</ele>
        <time>2021-07-15T09:33:28.000Z</time>
      </trkpt>
      <trkpt lat="47.28309" lon="-2.36049">
        <ele>19</ele>
        <time>2021-07-15T09:33:29.000Z</time>
      </trkpt>
      <trkpt lat="47.28303" lon="-2.36049">
        <ele>19</ele>
        <time>2021-07-15T09:33:30.000Z</time>
      </trkpt>
      <trkpt lat="47.28293" lon="-2.36046">
        <ele>18.60000038147</ele>
        <time>2021-07-15T09:33:32.000Z</time>
      </trkpt>
      <trkpt lat="47.28289" lon="-2.36043">
        <ele>18.200000762939</ele>
        <time>2021-07-15T09:33:33.000Z</time>
      </trkpt>
      <trkpt lat="47.28284" lon="-2.36038">
        <ele>17.799999237061</ele>
        <time>2021-07-15T09:33:34.000Z</time>
      </trkpt>
      <trkpt lat="47.28281" lon="-2.36033">
        <ele>17.200000762939</ele>
        <time>2021-07-15T09:33:35.000Z</time>
      </trkpt>
      <trkpt lat="47.28278" lon="-2.36026">
        <ele>16.39999961853</ele>
        <time>2021-07-15T09:33:36.000Z</time>
      </trkpt>
      <trkpt lat="47.28277" lon="-2.36019">
        <ele>15.60000038147</ele>
        <time>2021-07-15T09:33:37.000Z</time>
      </trkpt>
      <trkpt lat="47.28276" lon="-2.36012">
        <ele>14.800000190735</ele>
        <time>2021-07-15T09:33:38.000Z</time>
      </trkpt>
      <trkpt lat="47.28276" lon="-2.36005">
        <ele>14</ele>
        <time>2021-07-15T09:33:39.000Z</time>
      </trkpt>
      <trkpt lat="47.28277" lon="-2.35998">
        <ele>13.39999961853</ele>
        <time>2021-07-15T09:33:40.000Z</time>
      </trkpt>
      <trkpt lat="47.28278" lon="-2.3599">
        <ele>12.60000038147</ele>
        <time>2021-07-15T09:33:41.000Z</time>
      </trkpt>
      <trkpt lat="47.28279" lon="-2.35984">
        <ele>11.800000190735</ele>
        <time>2021-07-15T09:33:42.000Z</time>
      </trkpt>
      <trkpt lat="47.28278" lon="-2.3598">
        <ele>11</ele>
        <time>2021-07-15T09:33:43.000Z</time>
      </trkpt>
      <trkpt lat="47.28276" lon="-2.35975">
        <ele>10.199999809265</ele>
        <time>2021-07-15T09:33:44.000Z</time>
      </trkpt>
      <trkpt lat="47.28274" lon="-2.35969">
        <ele>10.199999809265</ele>
        <time>2021-07-15T09:33:45.000Z</time>
      </trkpt>
      <trkpt lat="47.28261" lon="-2.35931">
        <ele>10.199999809265</ele>
        <time>2021-07-15T09:33:52.000Z</time>
      </trkpt>
      <trkpt lat="47.28252" lon="-2.35915">
        <ele>10.199999809265</ele>
        <time>2021-07-15T09:33:56.000Z</time>
      </trkpt>
      <trkpt lat="47.28247" lon="-2.35914">
        <ele>10.199999809265</ele>
        <time>2021-07-15T09:33:57.000Z</time>
      </trkpt>
      <trkpt lat="47.28228" lon="-2.35912">
        <ele>10.199999809265</ele>
        <time>2021-07-15T09:34:01.000Z</time>
      </trkpt>
      <trkpt lat="47.28222" lon="-2.35912">
        <ele>10.199999809265</ele>
        <time>2021-07-15T09:34:02.000Z</time>
      </trkpt>
      <trkpt lat="47.28186" lon="-2.35907">
        <ele>10.199999809265</ele>
        <time>2021-07-15T09:34:09.000Z</time>
      </trkpt>
      <trkpt lat="47.28182" lon="-2.35905">
        <ele>10.199999809265</ele>
        <time>2021-07-15T09:34:10.000Z</time>
      </trkpt>
      <trkpt lat="47.28179" lon="-2.359">
        <ele>10.199999809265</ele>
        <time>2021-07-15T09:34:11.000Z</time>
      </trkpt>
      <trkpt lat="47.28177" lon="-2.35894">
        <ele>10.199999809265</ele>
        <time>2021-07-15T09:34:12.000Z</time>
      </trkpt>
      <trkpt lat="47.28175" lon="-2.35876">
        <ele>10.199999809265</ele>
        <time>2021-07-15T09:34:15.000Z</time>
      </trkpt>
      <trkpt lat="47.28174" lon="-2.35865">
        <ele>10.199999809265</ele>
        <time>2021-07-15T09:34:17.000Z</time>
      </trkpt>
      <trkpt lat="47.28169" lon="-2.35851">
        <ele>10.199999809265</ele>
        <time>2021-07-15T09:34:21.000Z</time>
      </trkpt>
      <trkpt lat="47.28166" lon="-2.35848">
        <ele>10.199999809265</ele>
        <time>2021-07-15T09:34:22.000Z</time>
      </trkpt>
      <trkpt lat="47.28148" lon="-2.35824">
        <ele>10.199999809265</ele>
        <time>2021-07-15T09:34:28.000Z</time>
      </trkpt>
      <trkpt lat="47.28146" lon="-2.35817">
        <ele>10.199999809265</ele>
        <time>2021-07-15T09:34:29.000Z</time>
      </trkpt>
      <trkpt lat="47.28144" lon="-2.35809">
        <ele>9.8000001907349</ele>
        <time>2021-07-15T09:34:30.000Z</time>
      </trkpt>
      <trkpt lat="47.28143" lon="-2.35803">
        <ele>9.3999996185303</ele>
        <time>2021-07-15T09:34:31.000Z</time>
      </trkpt>
      <trkpt lat="47.28142" lon="-2.35797">
        <ele>9</ele>
        <time>2021-07-15T09:34:32.000Z</time>
      </trkpt>
      <trkpt lat="47.28141" lon="-2.35791">
        <ele>8.6000003814697</ele>
        <time>2021-07-15T09:34:33.000Z</time>
      </trkpt>
      <trkpt lat="47.2814" lon="-2.35785">
        <ele>8</ele>
        <time>2021-07-15T09:34:34.000Z</time>
      </trkpt>
      <trkpt lat="47.28133" lon="-2.35769">
        <ele>8</ele>
        <time>2021-07-15T09:34:36.000Z</time>
      </trkpt>
      <trkpt lat="47.2813" lon="-2.35765">
        <ele>8</ele>
        <time>2021-07-15T09:34:37.000Z</time>
      </trkpt>
      <trkpt lat="47.28113" lon="-2.35763">
        <ele>8</ele>
        <time>2021-07-15T09:34:41.000Z</time>
      </trkpt>
      <trkpt lat="47.2811" lon="-2.35766">
        <ele>8</ele>
        <time>2021-07-15T09:34:42.000Z</time>
      </trkpt>
      <trkpt lat="47.28102" lon="-2.35781">
        <ele>8</ele>
        <time>2021-07-15T09:34:45.000Z</time>
      </trkpt>
      <trkpt lat="47.28099" lon="-2.35787">
        <ele>7.5999999046326</ele>
        <time>2021-07-15T09:34:46.000Z</time>
      </trkpt>
      <trkpt lat="47.28097" lon="-2.35794">
        <ele>7.1999998092651</ele>
        <time>2021-07-15T09:34:47.000Z</time>
      </trkpt>
      <trkpt lat="47.28094" lon="-2.358">
        <ele>6.8000001907349</ele>
        <time>2021-07-15T09:34:48.000Z</time>
      </trkpt>
      <trkpt lat="47.28092" lon="-2.35805">
        <ele>6.4000000953674</ele>
        <time>2021-07-15T09:34:49.000Z</time>
      </trkpt>
      <trkpt lat="47.28089" lon="-2.35809">
        <ele>6</ele>
        <time>2021-07-15T09:34:50.000Z</time>
      </trkpt>
      <trkpt lat="47.28085" lon="-2.3581">
        <ele>6</ele>
        <time>2021-07-15T09:34:51.000Z</time>
      </trkpt>
      <trkpt lat="47.28078" lon="-2.35799">
        <ele>6.4000000953674</ele>
        <time>2021-07-15T09:34:55.000Z</time>
      </trkpt>
      <trkpt lat="47.28079" lon="-2.35793">
        <ele>7</ele>
        <time>2021-07-15T09:34:56.000Z</time>
      </trkpt>
      <trkpt lat="47.2808" lon="-2.35788">
        <ele>7.4000000953674</ele>
        <time>2021-07-15T09:34:57.000Z</time>
      </trkpt>
      <trkpt lat="47.28082" lon="-2.35784">
        <ele>7.8000001907349</ele>
        <time>2021-07-15T09:34:58.000Z</time>
      </trkpt>
      <trkpt lat="47.28083" lon="-2.35778">
        <ele>8.1999998092651</ele>
        <time>2021-07-15T09:34:59.000Z</time>
      </trkpt>
      <trkpt lat="47.28084" lon="-2.35771">
        <ele>8.1999998092651</ele>
        <time>2021-07-15T09:35:00.000Z</time>
      </trkpt>
      <trkpt lat="47.28085" lon="-2.35753">
        <ele>8.6000003814697</ele>
        <time>2021-07-15T09:35:03.000Z</time>
      </trkpt>
      <trkpt lat="47.28085" lon="-2.35747">
        <ele>9</ele>
        <time>2021-07-15T09:35:04.000Z</time>
      </trkpt>
      <trkpt lat="47.28087" lon="-2.35741">
        <ele>9.3999996185303</ele>
        <time>2021-07-15T09:35:05.000Z</time>
      </trkpt>
      <trkpt lat="47.28089" lon="-2.35735">
        <ele>9.8000001907349</ele>
        <time>2021-07-15T09:35:06.000Z</time>
      </trkpt>
      <trkpt lat="47.2809" lon="-2.35729">
        <ele>10.199999809265</ele>
        <time>2021-07-15T09:35:07.000Z</time>
      </trkpt>
      <trkpt lat="47.28091" lon="-2.357">
        <ele>10.199999809265</ele>
        <time>2021-07-15T09:35:12.000Z</time>
      </trkpt>
      <trkpt lat="47.28085" lon="-2.35669">
        <ele>10.199999809265</ele>
        <time>2021-07-15T09:35:16.000Z</time>
      </trkpt>
      <trkpt lat="47.28079" lon="-2.35649">
        <ele>10.199999809265</ele>
        <time>2021-07-15T09:35:19.000Z</time>
      </trkpt>
      <trkpt lat="47.28079" lon="-2.35642">
        <ele>10.199999809265</ele>
        <time>2021-07-15T09:35:20.000Z</time>
      </trkpt>
      <trkpt lat="47.28079" lon="-2.35623">
        <ele>9.6000003814697</ele>
        <time>2021-07-15T09:35:23.000Z</time>
      </trkpt>
      <trkpt lat="47.2808" lon="-2.35619">
        <ele>8.6000003814697</ele>
        <time>2021-07-15T09:35:24.000Z</time>
      </trkpt>
      <trkpt lat="47.28081" lon="-2.35616">
        <ele>8</ele>
        <time>2021-07-15T09:35:25.000Z</time>
      </trkpt>
      <trkpt lat="47.28082" lon="-2.35613">
        <ele>7.5999999046326</ele>
        <time>2021-07-15T09:35:26.000Z</time>
      </trkpt>
      <trkpt lat="47.28083" lon="-2.35612">
        <ele>7</ele>
        <time>2021-07-15T09:35:27.000Z</time>
      </trkpt>
      <trkpt lat="47.28084" lon="-2.35611">
        <ele>6.4000000953674</ele>
        <time>2021-07-15T09:35:28.000Z</time>
      </trkpt>
      <trkpt lat="47.28072" lon="-2.35599">
        <ele>3.4000000953674</ele>
        <time>2021-07-15T09:52:47.000Z</time>
      </trkpt>
      <trkpt lat="47.28069" lon="-2.35594">
        <ele>3.4000000953674</ele>
        <time>2021-07-15T09:52:50.000Z</time>
      </trkpt>
      <trkpt lat="47.28067" lon="-2.35589">
        <ele>3.4000000953674</ele>
        <time>2021-07-15T09:52:52.000Z</time>
      </trkpt>
      <trkpt lat="47.28062" lon="-2.35584">
        <ele>3.4000000953674</ele>
        <time>2021-07-15T09:52:55.000Z</time>
      </trkpt>
      <trkpt lat="47.28059" lon="-2.35583">
        <ele>3.4000000953674</ele>
        <time>2021-07-15T09:52:56.000Z</time>
      </trkpt>
      <trkpt lat="47.28035" lon="-2.35574">
        <ele>3.4000000953674</ele>
        <time>2021-07-15T09:53:02.000Z</time>
      </trkpt>
      <trkpt lat="47.28031" lon="-2.35572">
        <ele>3.4000000953674</ele>
        <time>2021-07-15T09:53:03.000Z</time>
      </trkpt>
      <trkpt lat="47.28019" lon="-2.35576">
        <ele>3.4000000953674</ele>
        <time>2021-07-15T09:53:06.000Z</time>
      </trkpt>
      <trkpt lat="47.28011" lon="-2.35576">
        <ele>3.4000000953674</ele>
        <time>2021-07-15T09:53:08.000Z</time>
      </trkpt>
      <trkpt lat="47.28002" lon="-2.35578">
        <ele>3.4000000953674</ele>
        <time>2021-07-15T09:53:10.000Z</time>
      </trkpt>
      <trkpt lat="47.27997" lon="-2.3558">
        <ele>3.4000000953674</ele>
        <time>2021-07-15T09:53:11.000Z</time>
      </trkpt>
      <trkpt lat="47.27977" lon="-2.35586">
        <ele>3</ele>
        <time>2021-07-15T09:53:16.000Z</time>
      </trkpt>
      <trkpt lat="47.27972" lon="-2.35584">
        <ele>2.5999999046326</ele>
        <time>2021-07-15T09:53:17.000Z</time>
      </trkpt>
      <trkpt lat="47.27969" lon="-2.35582">
        <ele>2.2000000476837</ele>
        <time>2021-07-15T09:53:18.000Z</time>
      </trkpt>
      <trkpt lat="47.27965" lon="-2.35582">
        <ele>1.7999999523163</ele>
        <time>2021-07-15T09:53:19.000Z</time>
      </trkpt>
      <trkpt lat="47.2796" lon="-2.35581">
        <ele>1.3999999761581</ele>
        <time>2021-07-15T09:53:20.000Z</time>
      </trkpt>
      <trkpt lat="47.27955" lon="-2.35582">
        <ele>1.3999999761581</ele>
        <time>2021-07-15T09:53:21.000Z</time>
      </trkpt>
      <trkpt lat="47.27944" lon="-2.35584">
        <ele>1.3999999761581</ele>
        <time>2021-07-15T09:53:23.000Z</time>
      </trkpt>
      <trkpt lat="47.27923" lon="-2.3559">
        <ele>1.3999999761581</ele>
        <time>2021-07-15T09:53:27.000Z</time>
      </trkpt>
      <trkpt lat="47.27872" lon="-2.35601">
        <ele>1.3999999761581</ele>
        <time>2021-07-15T09:53:36.000Z</time>
      </trkpt>
      <trkpt lat="47.27834" lon="-2.35612">
        <ele>1</ele>
        <time>2021-07-15T09:53:42.000Z</time>
      </trkpt>
      <trkpt lat="47.27828" lon="-2.35613">
        <ele>0.60000002384186</ele>
        <time>2021-07-15T09:53:43.000Z</time>
      </trkpt>
      <trkpt lat="47.27821" lon="-2.35615">
        <ele>0.20000000298023</ele>
        <time>2021-07-15T09:53:44.000Z</time>
      </trkpt>
      <trkpt lat="47.27815" lon="-2.35617">
        <ele>-0.20000000298023</ele>
        <time>2021-07-15T09:53:45.000Z</time>
      </trkpt>
      <trkpt lat="47.27808" lon="-2.35619">
        <ele>-0.60000002384186</ele>
        <time>2021-07-15T09:53:46.000Z</time>
      </trkpt>
      <trkpt lat="47.27775" lon="-2.35633">
        <ele>-0.60000002384186</ele>
        <time>2021-07-15T09:53:51.000Z</time>
      </trkpt>
      <trkpt lat="47.2777" lon="-2.35639">
        <ele>-1</ele>
        <time>2021-07-15T09:53:52.000Z</time>
      </trkpt>
      <trkpt lat="47.27764" lon="-2.35645">
        <ele>-1.3999999761581</ele>
        <time>2021-07-15T09:53:53.000Z</time>
      </trkpt>
      <trkpt lat="47.2776" lon="-2.3565">
        <ele>-2</ele>
        <time>2021-07-15T09:53:54.000Z</time>
      </trkpt>
      <trkpt lat="47.27755" lon="-2.35657">
        <ele>-2.4000000953674</ele>
        <time>2021-07-15T09:53:55.000Z</time>
      </trkpt>
      <trkpt lat="47.2775" lon="-2.35663">
        <ele>-2.7999999523163</ele>
        <time>2021-07-15T09:53:56.000Z</time>
      </trkpt>
      <trkpt lat="47.27728" lon="-2.35696">
        <ele>-2.7999999523163</ele>
        <time>2021-07-15T09:54:01.000Z</time>
      </trkpt>
      <trkpt lat="47.27705" lon="-2.35723">
        <ele>-2.7999999523163</ele>
        <time>2021-07-15T09:54:06.000Z</time>
      </trkpt>
      <trkpt lat="47.27685" lon="-2.35742">
        <ele>-2.7999999523163</ele>
        <time>2021-07-15T09:54:10.000Z</time>
      </trkpt>
      <trkpt lat="47.27681" lon="-2.35747">
        <ele>-3.2000000476837</ele>
        <time>2021-07-15T09:54:11.000Z</time>
      </trkpt>
      <trkpt lat="47.27675" lon="-2.35749">
        <ele>-3.5999999046326</ele>
        <time>2021-07-15T09:54:12.000Z</time>
      </trkpt>
      <trkpt lat="47.2767" lon="-2.35747">
        <ele>-4</ele>
        <time>2021-07-15T09:54:13.000Z</time>
      </trkpt>
      <trkpt lat="47.27666" lon="-2.35742">
        <ele>-4.5999999046326</ele>
        <time>2021-07-15T09:54:14.000Z</time>
      </trkpt>
      <trkpt lat="47.27662" lon="-2.35735">
        <ele>-5</ele>
        <time>2021-07-15T09:54:15.000Z</time>
      </trkpt>
      <trkpt lat="47.27658" lon="-2.35729">
        <ele>-5.4000000953674</ele>
        <time>2021-07-15T09:54:16.000Z</time>
      </trkpt>
      <trkpt lat="47.27654" lon="-2.35725">
        <ele>-5.8000001907349</ele>
        <time>2021-07-15T09:54:17.000Z</time>
      </trkpt>
      <trkpt lat="47.27649" lon="-2.3572">
        <ele>-6.4000000953674</ele>
        <time>2021-07-15T09:54:18.000Z</time>
      </trkpt>
      <trkpt lat="47.27644" lon="-2.35716">
        <ele>-6.8000001907349</ele>
        <time>2021-07-15T09:54:19.000Z</time>
      </trkpt>
      <trkpt lat="47.27639" lon="-2.35713">
        <ele>-7.1999998092651</ele>
        <time>2021-07-15T09:54:20.000Z</time>
      </trkpt>
      <trkpt lat="47.2762" lon="-2.35707">
        <ele>-7.1999998092651</ele>
        <time>2021-07-15T09:54:23.000Z</time>
      </trkpt>
      <trkpt lat="47.27606" lon="-2.35704">
        <ele>-7.1999998092651</ele>
        <time>2021-07-15T09:54:25.000Z</time>
      </trkpt>
      <trkpt lat="47.27561" lon="-2.35694">
        <ele>-7.1999998092651</ele>
        <time>2021-07-15T09:54:32.000Z</time>
      </trkpt>
      <trkpt lat="47.27549" lon="-2.35691">
        <ele>-7.5999999046326</ele>
        <time>2021-07-15T09:54:34.000Z</time>
      </trkpt>
      <trkpt lat="47.27543" lon="-2.3569">
        <ele>-8.1999998092651</ele>
        <time>2021-07-15T09:54:35.000Z</time>
      </trkpt>
      <trkpt lat="47.27538" lon="-2.35688">
        <ele>-8.6000003814697</ele>
        <time>2021-07-15T09:54:36.000Z</time>
      </trkpt>
      <trkpt lat="47.27532" lon="-2.35687">
        <ele>-9</ele>
        <time>2021-07-15T09:54:37.000Z</time>
      </trkpt>
      <trkpt lat="47.27526" lon="-2.35686">
        <ele>-9.6000003814697</ele>
        <time>2021-07-15T09:54:38.000Z</time>
      </trkpt>
      <trkpt lat="47.27519" lon="-2.35685">
        <ele>-9.6000003814697</ele>
        <time>2021-07-15T09:54:39.000Z</time>
      </trkpt>
      <trkpt lat="47.27507" lon="-2.35683">
        <ele>-9.6000003814697</ele>
        <time>2021-07-15T09:54:41.000Z</time>
      </trkpt>
      <trkpt lat="47.27487" lon="-2.35682">
        <ele>-9.6000003814697</ele>
        <time>2021-07-15T09:54:44.000Z</time>
      </trkpt>
      <trkpt lat="47.27481" lon="-2.3568">
        <ele>-9.6000003814697</ele>
        <time>2021-07-15T09:54:45.000Z</time>
      </trkpt>
      <trkpt lat="47.27454" lon="-2.35675">
        <ele>-10</ele>
        <time>2021-07-15T09:54:49.000Z</time>
      </trkpt>
      <trkpt lat="47.27448" lon="-2.35673">
        <ele>-10.39999961853</ele>
        <time>2021-07-15T09:54:50.000Z</time>
      </trkpt>
      <trkpt lat="47.27442" lon="-2.35671">
        <ele>-10.800000190735</ele>
        <time>2021-07-15T09:54:51.000Z</time>
      </trkpt>
      <trkpt lat="47.27436" lon="-2.3567">
        <ele>-11.199999809265</ele>
        <time>2021-07-15T09:54:52.000Z</time>
      </trkpt>
      <trkpt lat="47.27431" lon="-2.3567">
        <ele>-11.60000038147</ele>
        <time>2021-07-15T09:54:53.000Z</time>
      </trkpt>
      <trkpt lat="47.27415" lon="-2.35669">
        <ele>-11.60000038147</ele>
        <time>2021-07-15T09:54:56.000Z</time>
      </trkpt>
      <trkpt lat="47.27404" lon="-2.35672">
        <ele>-11.60000038147</ele>
        <time>2021-07-15T09:54:59.000Z</time>
      </trkpt>
      <trkpt lat="47.27396" lon="-2.35678">
        <ele>-11.60000038147</ele>
        <time>2021-07-15T09:55:01.000Z</time>
      </trkpt>
      <trkpt lat="47.27381" lon="-2.35687">
        <ele>-11.60000038147</ele>
        <time>2021-07-15T09:55:04.000Z</time>
      </trkpt>
      <trkpt lat="47.27375" lon="-2.35689">
        <ele>-11.60000038147</ele>
        <time>2021-07-15T09:55:05.000Z</time>
      </trkpt>
      <trkpt lat="47.27355" lon="-2.35703">
        <ele>-11.60000038147</ele>
        <time>2021-07-15T09:55:09.000Z</time>
      </trkpt>
      <trkpt lat="47.2733" lon="-2.35724">
        <ele>-11.60000038147</ele>
        <time>2021-07-15T09:55:15.000Z</time>
      </trkpt>
      <trkpt lat="47.27317" lon="-2.35746">
        <ele>-11.60000038147</ele>
        <time>2021-07-15T09:55:20.000Z</time>
      </trkpt>
      <trkpt lat="47.27307" lon="-2.35743">
        <ele>-11.60000038147</ele>
        <time>2021-07-15T09:55:22.000Z</time>
      </trkpt>
      <trkpt lat="47.273" lon="-2.35723">
        <ele>-11.60000038147</ele>
        <time>2021-07-15T09:55:25.000Z</time>
      </trkpt>
      <trkpt lat="47.27291" lon="-2.35702">
        <ele>-11.60000038147</ele>
        <time>2021-07-15T09:55:28.000Z</time>
      </trkpt>
      <trkpt lat="47.27281" lon="-2.35683">
        <ele>-11.60000038147</ele>
        <time>2021-07-15T09:55:31.000Z</time>
      </trkpt>
      <trkpt lat="47.27255" lon="-2.35624">
        <ele>-11.60000038147</ele>
        <time>2021-07-15T09:55:40.000Z</time>
      </trkpt>
      <trkpt lat="47.2723" lon="-2.35566">
        <ele>-11.60000038147</ele>
        <time>2021-07-15T09:55:49.000Z</time>
      </trkpt>
      <trkpt lat="47.27202" lon="-2.35507">
        <ele>-11.60000038147</ele>
        <time>2021-07-15T09:55:58.000Z</time>
      </trkpt>
      <trkpt lat="47.2717" lon="-2.35445">
        <ele>-11.60000038147</ele>
        <time>2021-07-15T09:56:07.000Z</time>
      </trkpt>
      <trkpt lat="47.2714" lon="-2.35387">
        <ele>-11.60000038147</ele>
        <time>2021-07-15T09:56:15.000Z</time>
      </trkpt>
      <trkpt lat="47.27101" lon="-2.3532">
        <ele>-11.60000038147</ele>
        <time>2021-07-15T09:56:24.000Z</time>
      </trkpt>
      <trkpt lat="47.27063" lon="-2.3526">
        <ele>-11.60000038147</ele>
        <time>2021-07-15T09:56:32.000Z</time>
      </trkpt>
      <trkpt lat="47.27023" lon="-2.35201">
        <ele>-11.60000038147</ele>
        <time>2021-07-15T09:56:40.000Z</time>
      </trkpt>
      <trkpt lat="47.27018" lon="-2.35193">
        <ele>-11.60000038147</ele>
        <time>2021-07-15T09:56:41.000Z</time>
      </trkpt>
      <trkpt lat="47.2698" lon="-2.35133">
        <ele>-11.60000038147</ele>
        <time>2021-07-15T09:56:49.000Z</time>
      </trkpt>
      <trkpt lat="47.26975" lon="-2.35125">
        <ele>-11.60000038147</ele>
        <time>2021-07-15T09:56:50.000Z</time>
      </trkpt>
      <trkpt lat="47.26936" lon="-2.35066">
        <ele>-11.60000038147</ele>
        <time>2021-07-15T09:56:58.000Z</time>
      </trkpt>
      <trkpt lat="47.26931" lon="-2.35058">
        <ele>-11.60000038147</ele>
        <time>2021-07-15T09:56:59.000Z</time>
      </trkpt>
      <trkpt lat="47.26899" lon="-2.35008">
        <ele>-11.60000038147</ele>
        <time>2021-07-15T09:57:06.000Z</time>
      </trkpt>
      <trkpt lat="47.26866" lon="-2.34961">
        <ele>-11.60000038147</ele>
        <time>2021-07-15T09:57:13.000Z</time>
      </trkpt>
      <trkpt lat="47.26827" lon="-2.34902">
        <ele>-11.60000038147</ele>
        <time>2021-07-15T09:57:22.000Z</time>
      </trkpt>
      <trkpt lat="47.26822" lon="-2.34895">
        <ele>-11.60000038147</ele>
        <time>2021-07-15T09:57:23.000Z</time>
      </trkpt>
      <trkpt lat="47.268" lon="-2.34863">
        <ele>-11.60000038147</ele>
        <time>2021-07-15T09:57:28.000Z</time>
      </trkpt>
      <trkpt lat="47.2677" lon="-2.3482">
        <ele>-11.60000038147</ele>
        <time>2021-07-15T09:57:35.000Z</time>
      </trkpt>
      <trkpt lat="47.26765" lon="-2.34815">
        <ele>-11.60000038147</ele>
        <time>2021-07-15T09:57:36.000Z</time>
      </trkpt>
      <trkpt lat="47.26747" lon="-2.34791">
        <ele>-11.60000038147</ele>
        <time>2021-07-15T09:57:40.000Z</time>
      </trkpt>
      <trkpt lat="47.26711" lon="-2.34748">
        <ele>-11.60000038147</ele>
        <time>2021-07-15T09:57:47.000Z</time>
      </trkpt>
      <trkpt lat="47.26676" lon="-2.34705">
        <ele>-11.60000038147</ele>
        <time>2021-07-15T09:57:54.000Z</time>
      </trkpt>
      <trkpt lat="47.26634" lon="-2.34654">
        <ele>-11.60000038147</ele>
        <time>2021-07-15T09:58:02.000Z</time>
      </trkpt>
      <trkpt lat="47.26593" lon="-2.34603">
        <ele>-11.60000038147</ele>
        <time>2021-07-15T09:58:10.000Z</time>
      </trkpt>
      <trkpt lat="47.26557" lon="-2.34565">
        <ele>-11.60000038147</ele>
        <time>2021-07-15T09:58:17.000Z</time>
      </trkpt>
      <trkpt lat="47.2652" lon="-2.34528">
        <ele>-11.60000038147</ele>
        <time>2021-07-15T09:58:24.000Z</time>
      </trkpt>
      <trkpt lat="47.26473" lon="-2.34494">
        <ele>-11.60000038147</ele>
        <time>2021-07-15T09:58:32.000Z</time>
      </trkpt>
      <trkpt lat="47.26434" lon="-2.34466">
        <ele>-11.60000038147</ele>
        <time>2021-07-15T09:58:39.000Z</time>
      </trkpt>
      <trkpt lat="47.26392" lon="-2.34432">
        <ele>-11.60000038147</ele>
        <time>2021-07-15T09:58:47.000Z</time>
      </trkpt>
      <trkpt lat="47.26348" lon="-2.34392">
        <ele>-11.60000038147</ele>
        <time>2021-07-15T09:58:56.000Z</time>
      </trkpt>
      <trkpt lat="47.26334" lon="-2.34382">
        <ele>-11.60000038147</ele>
        <time>2021-07-15T09:58:59.000Z</time>
      </trkpt>
      <trkpt lat="47.26323" lon="-2.34377">
        <ele>-11.60000038147</ele>
        <time>2021-07-15T09:59:01.000Z</time>
      </trkpt>
      <trkpt lat="47.2631" lon="-2.34358">
        <ele>-11.60000038147</ele>
        <time>2021-07-15T09:59:04.000Z</time>
      </trkpt>
      <trkpt lat="47.26294" lon="-2.34341">
        <ele>-11.60000038147</ele>
        <time>2021-07-15T09:59:07.000Z</time>
      </trkpt>
      <trkpt lat="47.26288" lon="-2.34336">
        <ele>-11.60000038147</ele>
        <time>2021-07-15T09:59:08.000Z</time>
      </trkpt>
      <trkpt lat="47.26252" lon="-2.34296">
        <ele>-11.60000038147</ele>
        <time>2021-07-15T09:59:15.000Z</time>
      </trkpt>
      <trkpt lat="47.26208" lon="-2.34252">
        <ele>-11.60000038147</ele>
        <time>2021-07-15T09:59:23.000Z</time>
      </trkpt>
      <trkpt lat="47.26161" lon="-2.34204">
        <ele>-11.60000038147</ele>
        <time>2021-07-15T09:59:32.000Z</time>
      </trkpt>
      <trkpt lat="47.26156" lon="-2.34199">
        <ele>-11.60000038147</ele>
        <time>2021-07-15T09:59:33.000Z</time>
      </trkpt>
      <trkpt lat="47.2614" lon="-2.34186">
        <ele>-11.60000038147</ele>
        <time>2021-07-15T09:59:36.000Z</time>
      </trkpt>
      <trkpt lat="47.26129" lon="-2.34178">
        <ele>-11.60000038147</ele>
        <time>2021-07-15T09:59:38.000Z</time>
      </trkpt>
      <trkpt lat="47.26094" lon="-2.34153">
        <ele>-11.60000038147</ele>
        <time>2021-07-15T09:59:44.000Z</time>
      </trkpt>
      <trkpt lat="47.26041" lon="-2.34125">
        <ele>-11.60000038147</ele>
        <time>2021-07-15T09:59:52.000Z</time>
      </trkpt>
      <trkpt lat="47.25985" lon="-2.34099">
        <ele>-11.60000038147</ele>
        <time>2021-07-15T10:00:01.000Z</time>
      </trkpt>
      <trkpt lat="47.25974" lon="-2.34093">
        <ele>-12</ele>
        <time>2021-07-15T10:00:03.000Z</time>
      </trkpt>
      <trkpt lat="47.25968" lon="-2.34091">
        <ele>-12.39999961853</ele>
        <time>2021-07-15T10:00:04.000Z</time>
      </trkpt>
      <trkpt lat="47.25963" lon="-2.34089">
        <ele>-12.800000190735</ele>
        <time>2021-07-15T10:00:05.000Z</time>
      </trkpt>
      <trkpt lat="47.25958" lon="-2.34087">
        <ele>-13.199999809265</ele>
        <time>2021-07-15T10:00:06.000Z</time>
      </trkpt>
      <trkpt lat="47.25952" lon="-2.34085">
        <ele>-13.60000038147</ele>
        <time>2021-07-15T10:00:07.000Z</time>
      </trkpt>
      <trkpt lat="47.25947" lon="-2.34083">
        <ele>-13.60000038147</ele>
        <time>2021-07-15T10:00:08.000Z</time>
      </trkpt>
      <trkpt lat="47.25912" lon="-2.34071">
        <ele>-13.60000038147</ele>
        <time>2021-07-15T10:00:14.000Z</time>
      </trkpt>
      <trkpt lat="47.25906" lon="-2.34068">
        <ele>-13.60000038147</ele>
        <time>2021-07-15T10:00:15.000Z</time>
      </trkpt>
      <trkpt lat="47.25901" lon="-2.34051">
        <ele>-13.60000038147</ele>
        <time>2021-07-15T10:00:17.000Z</time>
      </trkpt>
      <trkpt lat="47.25902" lon="-2.34028">
        <ele>-13.60000038147</ele>
        <time>2021-07-15T10:00:20.000Z</time>
      </trkpt>
      <trkpt lat="47.25905" lon="-2.34019">
        <ele>-13.60000038147</ele>
        <time>2021-07-15T10:00:21.000Z</time>
      </trkpt>
      <trkpt lat="47.25913" lon="-2.3399">
        <ele>-13.60000038147</ele>
        <time>2021-07-15T10:00:25.000Z</time>
      </trkpt>
      <trkpt lat="47.25932" lon="-2.33941">
        <ele>-13.60000038147</ele>
        <time>2021-07-15T10:00:31.000Z</time>
      </trkpt>
      <trkpt lat="47.25941" lon="-2.33922">
        <ele>-13.60000038147</ele>
        <time>2021-07-15T10:00:34.000Z</time>
      </trkpt>
      <trkpt lat="47.25944" lon="-2.33914">
        <ele>-13.60000038147</ele>
        <time>2021-07-15T10:00:35.000Z</time>
      </trkpt>
      <trkpt lat="47.25948" lon="-2.339">
        <ele>-13.60000038147</ele>
        <time>2021-07-15T10:00:37.000Z</time>
      </trkpt>
      <trkpt lat="47.25954" lon="-2.33883">
        <ele>-13.60000038147</ele>
        <time>2021-07-15T10:00:40.000Z</time>
      </trkpt>
      <trkpt lat="47.25957" lon="-2.33873">
        <ele>-13.60000038147</ele>
        <time>2021-07-15T10:00:43.000Z</time>
      </trkpt>
      <trkpt lat="47.25964" lon="-2.33852">
        <ele>-13.60000038147</ele>
        <time>2021-07-15T10:00:49.000Z</time>
      </trkpt>
      <trkpt lat="47.25972" lon="-2.33828">
        <ele>-13.60000038147</ele>
        <time>2021-07-15T10:00:56.000Z</time>
      </trkpt>
      <trkpt lat="47.25983" lon="-2.33795">
        <ele>-13.60000038147</ele>
        <time>2021-07-15T10:01:02.000Z</time>
      </trkpt>
      <trkpt lat="47.25995" lon="-2.3376">
        <ele>-13.60000038147</ele>
        <time>2021-07-15T10:01:07.000Z</time>
      </trkpt>
      <trkpt lat="47.26014" lon="-2.33708">
        <ele>-13.60000038147</ele>
        <time>2021-07-15T10:01:14.000Z</time>
      </trkpt>
      <trkpt lat="47.26018" lon="-2.33694">
        <ele>-13.60000038147</ele>
        <time>2021-07-15T10:01:16.000Z</time>
      </trkpt>
      <trkpt lat="47.2602" lon="-2.3368">
        <ele>-13.60000038147</ele>
        <time>2021-07-15T10:01:18.000Z</time>
      </trkpt>
      <trkpt lat="47.26023" lon="-2.33668">
        <ele>-14</ele>
        <time>2021-07-15T10:01:20.000Z</time>
      </trkpt>
      <trkpt lat="47.26025" lon="-2.33662">
        <ele>-14.39999961853</ele>
        <time>2021-07-15T10:01:21.000Z</time>
      </trkpt>
      <trkpt lat="47.26027" lon="-2.33655">
        <ele>-14.800000190735</ele>
        <time>2021-07-15T10:01:22.000Z</time>
      </trkpt>
      <trkpt lat="47.26027" lon="-2.33648">
        <ele>-15.60000038147</ele>
        <time>2021-07-15T10:01:23.000Z</time>
      </trkpt>
      <trkpt lat="47.26025" lon="-2.33625">
        <ele>-15.60000038147</ele>
        <time>2021-07-15T10:01:26.000Z</time>
      </trkpt>
      <trkpt lat="47.26021" lon="-2.33609">
        <ele>-15.60000038147</ele>
        <time>2021-07-15T10:01:28.000Z</time>
      </trkpt>
      <trkpt lat="47.26014" lon="-2.33587">
        <ele>-15.60000038147</ele>
        <time>2021-07-15T10:01:31.000Z</time>
      </trkpt>
      <trkpt lat="47.26011" lon="-2.3358">
        <ele>-15.60000038147</ele>
        <time>2021-07-15T10:01:32.000Z</time>
      </trkpt>
      <trkpt lat="47.25988" lon="-2.3354">
        <ele>-15.60000038147</ele>
        <time>2021-07-15T10:01:38.000Z</time>
      </trkpt>
      <trkpt lat="47.25974" lon="-2.33517">
        <ele>-15.60000038147</ele>
        <time>2021-07-15T10:01:42.000Z</time>
      </trkpt>
      <trkpt lat="47.25966" lon="-2.33508">
        <ele>-15.60000038147</ele>
        <time>2021-07-15T10:01:44.000Z</time>
      </trkpt>
      <trkpt lat="47.25955" lon="-2.33485">
        <ele>-15.60000038147</ele>
        <time>2021-07-15T10:01:48.000Z</time>
      </trkpt>
      <trkpt lat="47.25947" lon="-2.33465">
        <ele>-15.60000038147</ele>
        <time>2021-07-15T10:01:51.000Z</time>
      </trkpt>
      <trkpt lat="47.25944" lon="-2.33458">
        <ele>-15.60000038147</ele>
        <time>2021-07-15T10:01:52.000Z</time>
      </trkpt>
      <trkpt lat="47.25923" lon="-2.33406">
        <ele>-15.60000038147</ele>
        <time>2021-07-15T10:01:59.000Z</time>
      </trkpt>
      <trkpt lat="47.25909" lon="-2.33345">
        <ele>-15.60000038147</ele>
        <time>2021-07-15T10:02:06.000Z</time>
      </trkpt>
      <trkpt lat="47.25905" lon="-2.33286">
        <ele>-15.60000038147</ele>
        <time>2021-07-15T10:02:12.000Z</time>
      </trkpt>
      <trkpt lat="47.25902" lon="-2.33205">
        <ele>-15.60000038147</ele>
        <time>2021-07-15T10:02:20.000Z</time>
      </trkpt>
      <trkpt lat="47.25894" lon="-2.33136">
        <ele>-15.60000038147</ele>
        <time>2021-07-15T10:02:27.000Z</time>
      </trkpt>
      <trkpt lat="47.2588" lon="-2.33085">
        <ele>-15.60000038147</ele>
        <time>2021-07-15T10:02:33.000Z</time>
      </trkpt>
      <trkpt lat="47.25875" lon="-2.33069">
        <ele>-15.199999809265</ele>
        <time>2021-07-15T10:02:35.000Z</time>
      </trkpt>
      <trkpt lat="47.25873" lon="-2.33061">
        <ele>-14.800000190735</ele>
        <time>2021-07-15T10:02:36.000Z</time>
      </trkpt>
      <trkpt lat="47.2587" lon="-2.33054">
        <ele>-14.39999961853</ele>
        <time>2021-07-15T10:02:37.000Z</time>
      </trkpt>
      <trkpt lat="47.25868" lon="-2.33047">
        <ele>-13.60000038147</ele>
        <time>2021-07-15T10:02:38.000Z</time>
      </trkpt>
      <trkpt lat="47.25864" lon="-2.33032">
        <ele>-13.60000038147</ele>
        <time>2021-07-15T10:02:40.000Z</time>
      </trkpt>
      <trkpt lat="47.25849" lon="-2.32997">
        <ele>-13.199999809265</ele>
        <time>2021-07-15T10:02:45.000Z</time>
      </trkpt>
      <trkpt lat="47.25845" lon="-2.3299">
        <ele>-12.800000190735</ele>
        <time>2021-07-15T10:02:46.000Z</time>
      </trkpt>
      <trkpt lat="47.25841" lon="-2.32984">
        <ele>-12.39999961853</ele>
        <time>2021-07-15T10:02:47.000Z</time>
      </trkpt>
      <trkpt lat="47.25837" lon="-2.32978">
        <ele>-11.800000190735</ele>
        <time>2021-07-15T10:02:48.000Z</time>
      </trkpt>
      <trkpt lat="47.25832" lon="-2.32973">
        <ele>-11.39999961853</ele>
        <time>2021-07-15T10:02:49.000Z</time>
      </trkpt>
      <trkpt lat="47.25819" lon="-2.32955">
        <ele>-11.39999961853</ele>
        <time>2021-07-15T10:02:52.000Z</time>
      </trkpt>
      <trkpt lat="47.25787" lon="-2.32915">
        <ele>-11.39999961853</ele>
        <time>2021-07-15T10:02:59.000Z</time>
      </trkpt>
      <trkpt lat="47.25771" lon="-2.32894">
        <ele>-10.60000038147</ele>
        <time>2021-07-15T10:03:03.000Z</time>
      </trkpt>
      <trkpt lat="47.25767" lon="-2.32888">
        <ele>-10.199999809265</ele>
        <time>2021-07-15T10:03:04.000Z</time>
      </trkpt>
      <trkpt lat="47.25763" lon="-2.32882">
        <ele>-9.8000001907349</ele>
        <time>2021-07-15T10:03:05.000Z</time>
      </trkpt>
      <trkpt lat="47.2576" lon="-2.32875">
        <ele>-9.3999996185303</ele>
        <time>2021-07-15T10:03:06.000Z</time>
      </trkpt>
      <trkpt lat="47.25738" lon="-2.32821">
        <ele>-9.3999996185303</ele>
        <time>2021-07-15T10:03:14.000Z</time>
      </trkpt>
      <trkpt lat="47.25728" lon="-2.32772">
        <ele>-9.3999996185303</ele>
        <time>2021-07-15T10:03:20.000Z</time>
      </trkpt>
      <trkpt lat="47.25721" lon="-2.32714">
        <ele>-9.3999996185303</ele>
        <time>2021-07-15T10:03:27.000Z</time>
      </trkpt>
      <trkpt lat="47.25717" lon="-2.32652">
        <ele>-9.3999996185303</ele>
        <time>2021-07-15T10:03:34.000Z</time>
      </trkpt>
      <trkpt lat="47.25706" lon="-2.32593">
        <ele>-9.3999996185303</ele>
        <time>2021-07-15T10:03:41.000Z</time>
      </trkpt>
      <trkpt lat="47.25694" lon="-2.32554">
        <ele>-9.3999996185303</ele>
        <time>2021-07-15T10:03:47.000Z</time>
      </trkpt>
      <trkpt lat="47.25686" lon="-2.32534">
        <ele>-9.8000001907349</ele>
        <time>2021-07-15T10:03:51.000Z</time>
      </trkpt>
      <trkpt lat="47.25684" lon="-2.32529">
        <ele>-10.60000038147</ele>
        <time>2021-07-15T10:03:52.000Z</time>
      </trkpt>
      <trkpt lat="47.25683" lon="-2.32524">
        <ele>-11</ele>
        <time>2021-07-15T10:03:53.000Z</time>
      </trkpt>
      <trkpt lat="47.25681" lon="-2.32518">
        <ele>-11.39999961853</ele>
        <time>2021-07-15T10:03:54.000Z</time>
      </trkpt>
      <trkpt lat="47.25668" lon="-2.3248">
        <ele>-11.39999961853</ele>
        <time>2021-07-15T10:04:00.000Z</time>
      </trkpt>
      <trkpt lat="47.25662" lon="-2.32459">
        <ele>-11.800000190735</ele>
        <time>2021-07-15T10:04:03.000Z</time>
      </trkpt>
      <trkpt lat="47.2566" lon="-2.32453">
        <ele>-12.199999809265</ele>
        <time>2021-07-15T10:04:04.000Z</time>
      </trkpt>
      <trkpt lat="47.25659" lon="-2.32446">
        <ele>-12.60000038147</ele>
        <time>2021-07-15T10:04:05.000Z</time>
      </trkpt>
      <trkpt lat="47.25658" lon="-2.32439">
        <ele>-13.199999809265</ele>
        <time>2021-07-15T10:04:06.000Z</time>
      </trkpt>
      <trkpt lat="47.25657" lon="-2.32432">
        <ele>-13.60000038147</ele>
        <time>2021-07-15T10:04:07.000Z</time>
      </trkpt>
      <trkpt lat="47.25655" lon="-2.32425">
        <ele>-13.60000038147</ele>
        <time>2021-07-15T10:04:08.000Z</time>
      </trkpt>
      <trkpt lat="47.25652" lon="-2.32406">
        <ele>-13.60000038147</ele>
        <time>2021-07-15T10:04:11.000Z</time>
      </trkpt>
      <trkpt lat="47.25653" lon="-2.324">
        <ele>-13.60000038147</ele>
        <time>2021-07-15T10:04:12.000Z</time>
      </trkpt>
      <trkpt lat="47.25653" lon="-2.32386">
        <ele>-13.60000038147</ele>
        <time>2021-07-15T10:04:14.000Z</time>
      </trkpt>
      <trkpt lat="47.25652" lon="-2.32365">
        <ele>-13.60000038147</ele>
        <time>2021-07-15T10:04:17.000Z</time>
      </trkpt>
      <trkpt lat="47.25648" lon="-2.32306">
        <ele>-13.60000038147</ele>
        <time>2021-07-15T10:04:26.000Z</time>
      </trkpt>
      <trkpt lat="47.25648" lon="-2.323">
        <ele>-13</ele>
        <time>2021-07-15T10:04:27.000Z</time>
      </trkpt>
      <trkpt lat="47.25648" lon="-2.32293">
        <ele>-12.60000038147</ele>
        <time>2021-07-15T10:04:28.000Z</time>
      </trkpt>
      <trkpt lat="47.25648" lon="-2.32287">
        <ele>-12.199999809265</ele>
        <time>2021-07-15T10:04:29.000Z</time>
      </trkpt>
      <trkpt lat="47.25647" lon="-2.3228">
        <ele>-11.800000190735</ele>
        <time>2021-07-15T10:04:30.000Z</time>
      </trkpt>
      <trkpt lat="47.25647" lon="-2.32274">
        <ele>-11.39999961853</ele>
        <time>2021-07-15T10:04:31.000Z</time>
      </trkpt>
      <trkpt lat="47.25646" lon="-2.32257">
        <ele>-11</ele>
        <time>2021-07-15T10:04:34.000Z</time>
      </trkpt>
      <trkpt lat="47.25646" lon="-2.32251">
        <ele>-10.60000038147</ele>
        <time>2021-07-15T10:04:35.000Z</time>
      </trkpt>
      <trkpt lat="47.25646" lon="-2.32245">
        <ele>-10.199999809265</ele>
        <time>2021-07-15T10:04:36.000Z</time>
      </trkpt>
      <trkpt lat="47.25645" lon="-2.32239">
        <ele>-9.8000001907349</ele>
        <time>2021-07-15T10:04:37.000Z</time>
      </trkpt>
      <trkpt lat="47.25645" lon="-2.32234">
        <ele>-9.3999996185303</ele>
        <time>2021-07-15T10:04:38.000Z</time>
      </trkpt>
      <trkpt lat="47.25644" lon="-2.32222">
        <ele>-9.3999996185303</ele>
        <time>2021-07-15T10:04:40.000Z</time>
      </trkpt>
      <trkpt lat="47.25644" lon="-2.32216">
        <ele>-8.8000001907349</ele>
        <time>2021-07-15T10:04:41.000Z</time>
      </trkpt>
      <trkpt lat="47.25643" lon="-2.3221">
        <ele>-8</ele>
        <time>2021-07-15T10:04:42.000Z</time>
      </trkpt>
      <trkpt lat="47.25642" lon="-2.32204">
        <ele>-7.5999999046326</ele>
        <time>2021-07-15T10:04:43.000Z</time>
      </trkpt>
      <trkpt lat="47.2564" lon="-2.32198">
        <ele>-7.1999998092651</ele>
        <time>2021-07-15T10:04:44.000Z</time>
      </trkpt>
      <trkpt lat="47.25637" lon="-2.32185">
        <ele>-7.1999998092651</ele>
        <time>2021-07-15T10:04:46.000Z</time>
      </trkpt>
      <trkpt lat="47.25621" lon="-2.32133">
        <ele>-7.1999998092651</ele>
        <time>2021-07-15T10:04:54.000Z</time>
      </trkpt>
      <trkpt lat="47.25617" lon="-2.3212">
        <ele>-7.1999998092651</ele>
        <time>2021-07-15T10:04:56.000Z</time>
      </trkpt>
      <trkpt lat="47.25608" lon="-2.32094">
        <ele>-7.1999998092651</ele>
        <time>2021-07-15T10:05:00.000Z</time>
      </trkpt>
      <trkpt lat="47.25598" lon="-2.32069">
        <ele>-6.8000001907349</ele>
        <time>2021-07-15T10:05:04.000Z</time>
      </trkpt>
      <trkpt lat="47.25596" lon="-2.32062">
        <ele>-6.4000000953674</ele>
        <time>2021-07-15T10:05:05.000Z</time>
      </trkpt>
      <trkpt lat="47.25593" lon="-2.32055">
        <ele>-5.8000001907349</ele>
        <time>2021-07-15T10:05:06.000Z</time>
      </trkpt>
      <trkpt lat="47.2559" lon="-2.32049">
        <ele>-5</ele>
        <time>2021-07-15T10:05:07.000Z</time>
      </trkpt>
      <trkpt lat="47.25585" lon="-2.32035">
        <ele>-5</ele>
        <time>2021-07-15T10:05:09.000Z</time>
      </trkpt>
      <trkpt lat="47.25566" lon="-2.31971">
        <ele>-5</ele>
        <time>2021-07-15T10:05:18.000Z</time>
      </trkpt>
      <trkpt lat="47.25561" lon="-2.31942">
        <ele>-5</ele>
        <time>2021-07-15T10:05:22.000Z</time>
      </trkpt>
      <trkpt lat="47.2556" lon="-2.31931">
        <ele>-5</ele>
        <time>2021-07-15T10:05:24.000Z</time>
      </trkpt>
      <trkpt lat="47.25556" lon="-2.31915">
        <ele>-5</ele>
        <time>2021-07-15T10:05:28.000Z</time>
      </trkpt>
      <trkpt lat="47.25549" lon="-2.31919">
        <ele>-4.1999998092651</ele>
        <time>2021-07-15T10:05:31.000Z</time>
      </trkpt>
      <trkpt lat="47.25546" lon="-2.3192">
        <ele>-3.7999999523163</ele>
        <time>2021-07-15T10:05:32.000Z</time>
      </trkpt>
      <trkpt lat="47.25544" lon="-2.31921">
        <ele>-3.4000000953674</ele>
        <time>2021-07-15T10:05:33.000Z</time>
      </trkpt>
      <trkpt lat="47.25541" lon="-2.31922">
        <ele>-3</ele>
        <time>2021-07-15T10:05:34.000Z</time>
      </trkpt>
      <trkpt lat="47.25538" lon="-2.31921">
        <ele>-3</ele>
        <time>2021-07-15T10:05:35.000Z</time>
      </trkpt>
      <trkpt lat="47.25536" lon="-2.31918">
        <ele>-3</ele>
        <time>2021-07-15T10:05:36.000Z</time>
      </trkpt>
      <trkpt lat="47.25532" lon="-2.31904">
        <ele>-3</ele>
        <time>2021-07-15T10:05:39.000Z</time>
      </trkpt>
      <trkpt lat="47.25528" lon="-2.31884">
        <ele>-3</ele>
        <time>2021-07-15T10:05:43.000Z</time>
      </trkpt>
      <trkpt lat="47.25523" lon="-2.31856">
        <ele>-3</ele>
        <time>2021-07-15T10:05:49.000Z</time>
      </trkpt>
      <trkpt lat="47.25522" lon="-2.31836">
        <ele>-3</ele>
        <time>2021-07-15T10:05:55.000Z</time>
      </trkpt>
      <trkpt lat="47.25521" lon="-2.31832">
        <ele>-3</ele>
        <time>2021-07-15T10:05:57.000Z</time>
      </trkpt>
      <trkpt lat="47.25517" lon="-2.3183">
        <ele>-3</ele>
        <time>2021-07-15T10:05:59.000Z</time>
      </trkpt>
      <trkpt lat="47.25513" lon="-2.31831">
        <ele>-3</ele>
        <time>2021-07-15T10:06:01.000Z</time>
      </trkpt>
      <trkpt lat="47.2551" lon="-2.31831">
        <ele>-3</ele>
        <time>2021-07-15T10:06:02.000Z</time>
      </trkpt>
      <trkpt lat="47.25508" lon="-2.31826">
        <ele>-3</ele>
        <time>2021-07-15T10:06:04.000Z</time>
      </trkpt>
      <trkpt lat="47.25508" lon="-2.31824">
        <ele>-3</ele>
        <time>2021-07-15T10:06:05.000Z</time>
      </trkpt>
      <trkpt lat="47.25508" lon="-2.31823">
        <ele>-3</ele>
        <time>2021-07-15T10:06:30.000Z</time>
      </trkpt>
      <trkpt lat="47.25508" lon="-2.3182">
        <ele>-3</ele>
        <time>2021-07-15T10:06:31.000Z</time>
      </trkpt>
      <trkpt lat="47.25508" lon="-2.31819">
        <ele>-3</ele>
        <time>2021-07-15T10:06:32.000Z</time>
      </trkpt>
      <trkpt lat="47.25513" lon="-2.31813">
        <ele>-3</ele>
        <time>2021-07-15T10:06:35.000Z</time>
      </trkpt>
      <trkpt lat="47.25524" lon="-2.3181">
        <ele>-3</ele>
        <time>2021-07-15T10:06:40.000Z</time>
      </trkpt>
      <trkpt lat="47.25529" lon="-2.31808">
        <ele>-3</ele>
        <time>2021-07-15T10:06:42.000Z</time>
      </trkpt>
      <trkpt lat="47.25542" lon="-2.31803">
        <ele>-3</ele>
        <time>2021-07-15T10:06:46.000Z</time>
      </trkpt>
      <trkpt lat="47.25558" lon="-2.31797">
        <ele>-3</ele>
        <time>2021-07-15T10:06:50.000Z</time>
      </trkpt>
      <trkpt lat="47.25564" lon="-2.31784">
        <ele>-3</ele>
        <time>2021-07-15T10:06:55.000Z</time>
      </trkpt>
      <trkpt lat="47.25575" lon="-2.3177">
        <ele>-3</ele>
        <time>2021-07-15T10:07:00.000Z</time>
      </trkpt>
      <trkpt lat="47.25583" lon="-2.3176">
        <ele>-3</ele>
        <time>2021-07-15T10:07:05.000Z</time>
      </trkpt>
      <trkpt lat="47.25584" lon="-2.31757">
        <ele>-3.4000000953674</ele>
        <time>2021-07-15T10:07:06.000Z</time>
      </trkpt>
      <trkpt lat="47.25586" lon="-2.31755">
        <ele>-3.7999999523163</ele>
        <time>2021-07-15T10:07:07.000Z</time>
      </trkpt>
      <trkpt lat="47.25588" lon="-2.31753">
        <ele>-4.1999998092651</ele>
        <time>2021-07-15T10:07:08.000Z</time>
      </trkpt>
      <trkpt lat="47.25589" lon="-2.31749">
        <ele>-4.5999999046326</ele>
        <time>2021-07-15T10:07:09.000Z</time>
      </trkpt>
      <trkpt lat="47.2559" lon="-2.31745">
        <ele>-5.1999998092651</ele>
        <time>2021-07-15T10:07:10.000Z</time>
      </trkpt>
      <trkpt lat="47.25591" lon="-2.31739">
        <ele>-5.1999998092651</ele>
        <time>2021-07-15T10:07:11.000Z</time>
      </trkpt>
      <trkpt lat="47.25593" lon="-2.31732">
        <ele>-5.1999998092651</ele>
        <time>2021-07-15T10:07:12.000Z</time>
      </trkpt>
      <trkpt lat="47.25602" lon="-2.31715">
        <ele>-5.1999998092651</ele>
        <time>2021-07-15T10:07:15.000Z</time>
      </trkpt>
      <trkpt lat="47.25618" lon="-2.3171">
        <ele>-5.1999998092651</ele>
        <time>2021-07-15T10:07:18.000Z</time>
      </trkpt>
      <trkpt lat="47.25637" lon="-2.31708">
        <ele>-5.1999998092651</ele>
        <time>2021-07-15T10:07:22.000Z</time>
      </trkpt>
      <trkpt lat="47.25646" lon="-2.317">
        <ele>-5.1999998092651</ele>
        <time>2021-07-15T10:07:25.000Z</time>
      </trkpt>
      <trkpt lat="47.25647" lon="-2.31698">
        <ele>-5.1999998092651</ele>
        <time>2021-07-15T10:07:26.000Z</time>
      </trkpt>
      <trkpt lat="47.25652" lon="-2.3169">
        <ele>-5.5999999046326</ele>
        <time>2021-07-15T10:07:29.000Z</time>
      </trkpt>
      <trkpt lat="47.25654" lon="-2.31687">
        <ele>-6</ele>
        <time>2021-07-15T10:07:30.000Z</time>
      </trkpt>
      <trkpt lat="47.25655" lon="-2.31684">
        <ele>-6.4000000953674</ele>
        <time>2021-07-15T10:07:31.000Z</time>
      </trkpt>
      <trkpt lat="47.25656" lon="-2.31679">
        <ele>-6.8000001907349</ele>
        <time>2021-07-15T10:07:32.000Z</time>
      </trkpt>
      <trkpt lat="47.25658" lon="-2.31674">
        <ele>-7.1999998092651</ele>
        <time>2021-07-15T10:07:33.000Z</time>
      </trkpt>
      <trkpt lat="47.25662" lon="-2.31665">
        <ele>-7.1999998092651</ele>
        <time>2021-07-15T10:07:35.000Z</time>
      </trkpt>
      <trkpt lat="47.25665" lon="-2.31664">
        <ele>-7.1999998092651</ele>
        <time>2021-07-15T10:07:36.000Z</time>
      </trkpt>
      <trkpt lat="47.25677" lon="-2.31668">
        <ele>-7.1999998092651</ele>
        <time>2021-07-15T10:07:39.000Z</time>
      </trkpt>
      <trkpt lat="47.25686" lon="-2.31674">
        <ele>-7.1999998092651</ele>
        <time>2021-07-15T10:07:41.000Z</time>
      </trkpt>
      <trkpt lat="47.25697" lon="-2.31678">
        <ele>-7.1999998092651</ele>
        <time>2021-07-15T10:07:43.000Z</time>
      </trkpt>
      <trkpt lat="47.25723" lon="-2.31695">
        <ele>-7.1999998092651</ele>
        <time>2021-07-15T10:07:48.000Z</time>
      </trkpt>
      <trkpt lat="47.25728" lon="-2.31698">
        <ele>-7.1999998092651</ele>
        <time>2021-07-15T10:07:49.000Z</time>
      </trkpt>
      <trkpt lat="47.25733" lon="-2.31698">
        <ele>-7.8000001907349</ele>
        <time>2021-07-15T10:07:50.000Z</time>
      </trkpt>
      <trkpt lat="47.25737" lon="-2.31696">
        <ele>-8.1999998092651</ele>
        <time>2021-07-15T10:07:51.000Z</time>
      </trkpt>
      <trkpt lat="47.2574" lon="-2.31693">
        <ele>-8.6000003814697</ele>
        <time>2021-07-15T10:07:52.000Z</time>
      </trkpt>
      <trkpt lat="47.25744" lon="-2.3169">
        <ele>-9</ele>
        <time>2021-07-15T10:07:53.000Z</time>
      </trkpt>
      <trkpt lat="47.25748" lon="-2.31686">
        <ele>-9.3999996185303</ele>
        <time>2021-07-15T10:07:54.000Z</time>
      </trkpt>
      <trkpt lat="47.25763" lon="-2.31673">
        <ele>-9.3999996185303</ele>
        <time>2021-07-15T10:07:58.000Z</time>
      </trkpt>
      <trkpt lat="47.25789" lon="-2.3165">
        <ele>-9.3999996185303</ele>
        <time>2021-07-15T10:08:05.000Z</time>
      </trkpt>
      <trkpt lat="47.25814" lon="-2.3163">
        <ele>-9.3999996185303</ele>
        <time>2021-07-15T10:08:11.000Z</time>
      </trkpt>
      <trkpt lat="47.25828" lon="-2.31617">
        <ele>-9.3999996185303</ele>
        <time>2021-07-15T10:08:15.000Z</time>
      </trkpt>
      <trkpt lat="47.25838" lon="-2.3161">
        <ele>-9.3999996185303</ele>
        <time>2021-07-15T10:08:18.000Z</time>
      </trkpt>
      <trkpt lat="47.25866" lon="-2.31584">
        <ele>-9.3999996185303</ele>
        <time>2021-07-15T10:08:25.000Z</time>
      </trkpt>
      <trkpt lat="47.25885" lon="-2.31563">
        <ele>-9.3999996185303</ele>
        <time>2021-07-15T10:08:29.000Z</time>
      </trkpt>
      <trkpt lat="47.25889" lon="-2.31556">
        <ele>-9.3999996185303</ele>
        <time>2021-07-15T10:08:30.000Z</time>
      </trkpt>
      <trkpt lat="47.25904" lon="-2.31519">
        <ele>-9.3999996185303</ele>
        <time>2021-07-15T10:08:35.000Z</time>
      </trkpt>
      <trkpt lat="47.25913" lon="-2.31509">
        <ele>-9.3999996185303</ele>
        <time>2021-07-15T10:08:38.000Z</time>
      </trkpt>
      <trkpt lat="47.25914" lon="-2.31505">
        <ele>-9.8000001907349</ele>
        <time>2021-07-15T10:08:40.000Z</time>
      </trkpt>
      <trkpt lat="47.25914" lon="-2.31504">
        <ele>-10.39999961853</ele>
        <time>2021-07-15T10:08:41.000Z</time>
      </trkpt>
      <trkpt lat="47.25914" lon="-2.31503">
        <ele>-10.800000190735</ele>
        <time>2021-07-15T10:08:42.000Z</time>
      </trkpt>
      <trkpt lat="47.25913" lon="-2.31501">
        <ele>-11.199999809265</ele>
        <time>2021-07-15T10:08:43.000Z</time>
      </trkpt>
      <trkpt lat="47.25914" lon="-2.315">
        <ele>-11.60000038147</ele>
        <time>2021-07-15T10:08:44.000Z</time>
      </trkpt>
      <trkpt lat="47.25916" lon="-2.31492">
        <ele>-11.60000038147</ele>
        <time>2021-07-15T10:08:46.000Z</time>
      </trkpt>
      <trkpt lat="47.25918" lon="-2.31487">
        <ele>-11.60000038147</ele>
        <time>2021-07-15T10:08:47.000Z</time>
      </trkpt>
      <trkpt lat="47.25928" lon="-2.31462">
        <ele>-11.60000038147</ele>
        <time>2021-07-15T10:08:51.000Z</time>
      </trkpt>
      <trkpt lat="47.25937" lon="-2.31455">
        <ele>-11.60000038147</ele>
        <time>2021-07-15T10:08:54.000Z</time>
      </trkpt>
      <trkpt lat="47.25946" lon="-2.31459">
        <ele>-11.60000038147</ele>
        <time>2021-07-15T10:08:56.000Z</time>
      </trkpt>
      <trkpt lat="47.25956" lon="-2.31464">
        <ele>-11.60000038147</ele>
        <time>2021-07-15T10:08:58.000Z</time>
      </trkpt>
      <trkpt lat="47.2596" lon="-2.31467">
        <ele>-11.60000038147</ele>
        <time>2021-07-15T10:08:59.000Z</time>
      </trkpt>
      <trkpt lat="47.25971" lon="-2.31481">
        <ele>-11.60000038147</ele>
        <time>2021-07-15T10:09:02.000Z</time>
      </trkpt>
      <trkpt lat="47.2598" lon="-2.31506">
        <ele>-11.60000038147</ele>
        <time>2021-07-15T10:09:06.000Z</time>
      </trkpt>
      <trkpt lat="47.25986" lon="-2.31518">
        <ele>-11.60000038147</ele>
        <time>2021-07-15T10:09:08.000Z</time>
      </trkpt>
      <trkpt lat="47.25997" lon="-2.31541">
        <ele>-11.60000038147</ele>
        <time>2021-07-15T10:09:12.000Z</time>
      </trkpt>
      <trkpt lat="47.26015" lon="-2.31562">
        <ele>-11.60000038147</ele>
        <time>2021-07-15T10:09:18.000Z</time>
      </trkpt>
      <trkpt lat="47.26025" lon="-2.31549">
        <ele>-11.60000038147</ele>
        <time>2021-07-15T10:09:21.000Z</time>
      </trkpt>
      <trkpt lat="47.26029" lon="-2.31538">
        <ele>-11.60000038147</ele>
        <time>2021-07-15T10:09:23.000Z</time>
      </trkpt>
      <trkpt lat="47.26037" lon="-2.31517">
        <ele>-11.60000038147</ele>
        <time>2021-07-15T10:09:27.000Z</time>
      </trkpt>
      <trkpt lat="47.26043" lon="-2.31516">
        <ele>-11.60000038147</ele>
        <time>2021-07-15T10:09:29.000Z</time>
      </trkpt>
      <trkpt lat="47.26048" lon="-2.31519">
        <ele>-11.60000038147</ele>
        <time>2021-07-15T10:09:30.000Z</time>
      </trkpt>
      <trkpt lat="47.26059" lon="-2.31534">
        <ele>-11.60000038147</ele>
        <time>2021-07-15T10:09:33.000Z</time>
      </trkpt>
      <trkpt lat="47.26063" lon="-2.3154">
        <ele>-12</ele>
        <time>2021-07-15T10:09:34.000Z</time>
      </trkpt>
      <trkpt lat="47.26066" lon="-2.31546">
        <ele>-12.39999961853</ele>
        <time>2021-07-15T10:09:35.000Z</time>
      </trkpt>
      <trkpt lat="47.26068" lon="-2.31552">
        <ele>-12.800000190735</ele>
        <time>2021-07-15T10:09:36.000Z</time>
      </trkpt>
      <trkpt lat="47.26071" lon="-2.31559">
        <ele>-13.199999809265</ele>
        <time>2021-07-15T10:09:37.000Z</time>
      </trkpt>
      <trkpt lat="47.26073" lon="-2.31565">
        <ele>-13.60000038147</ele>
        <time>2021-07-15T10:09:38.000Z</time>
      </trkpt>
      <trkpt lat="47.26075" lon="-2.31571">
        <ele>-13.60000038147</ele>
        <time>2021-07-15T10:09:39.000Z</time>
      </trkpt>
      <trkpt lat="47.26078" lon="-2.31576">
        <ele>-13.60000038147</ele>
        <time>2021-07-15T10:09:41.000Z</time>
      </trkpt>
      <trkpt lat="47.26081" lon="-2.31576">
        <ele>-13.60000038147</ele>
        <time>2021-07-15T10:09:42.000Z</time>
      </trkpt>
      <trkpt lat="47.26086" lon="-2.31577">
        <ele>-13.60000038147</ele>
        <time>2021-07-15T10:09:44.000Z</time>
      </trkpt>
      <trkpt lat="47.26092" lon="-2.31583">
        <ele>-13.60000038147</ele>
        <time>2021-07-15T10:09:46.000Z</time>
      </trkpt>
      <trkpt lat="47.26106" lon="-2.31609">
        <ele>-13.60000038147</ele>
        <time>2021-07-15T10:09:51.000Z</time>
      </trkpt>
      <trkpt lat="47.26118" lon="-2.31615">
        <ele>-13.60000038147</ele>
        <time>2021-07-15T10:09:54.000Z</time>
      </trkpt>
      <trkpt lat="47.26138" lon="-2.31613">
        <ele>-13.60000038147</ele>
        <time>2021-07-15T10:09:58.000Z</time>
      </trkpt>
      <trkpt lat="47.26142" lon="-2.31612">
        <ele>-13.60000038147</ele>
        <time>2021-07-15T10:09:59.000Z</time>
      </trkpt>
      <trkpt lat="47.26177" lon="-2.31599">
        <ele>-13.60000038147</ele>
        <time>2021-07-15T10:10:06.000Z</time>
      </trkpt>
      <trkpt lat="47.26209" lon="-2.31588">
        <ele>-13.60000038147</ele>
        <time>2021-07-15T10:10:13.000Z</time>
      </trkpt>
      <trkpt lat="47.26214" lon="-2.31588">
        <ele>-13.60000038147</ele>
        <time>2021-07-15T10:10:14.000Z</time>
      </trkpt>
      <trkpt lat="47.26229" lon="-2.31592">
        <ele>-13.60000038147</ele>
        <time>2021-07-15T10:10:17.000Z</time>
      </trkpt>
      <trkpt lat="47.26233" lon="-2.31594">
        <ele>-13.60000038147</ele>
        <time>2021-07-15T10:10:18.000Z</time>
      </trkpt>
      <trkpt lat="47.2625" lon="-2.31605">
        <ele>-13.60000038147</ele>
        <time>2021-07-15T10:10:22.000Z</time>
      </trkpt>
      <trkpt lat="47.26257" lon="-2.31612">
        <ele>-13.60000038147</ele>
        <time>2021-07-15T10:10:24.000Z</time>
      </trkpt>
      <trkpt lat="47.26272" lon="-2.31638">
        <ele>-13.60000038147</ele>
        <time>2021-07-15T10:10:30.000Z</time>
      </trkpt>
      <trkpt lat="47.26288" lon="-2.31669">
        <ele>-13.60000038147</ele>
        <time>2021-07-15T10:10:36.000Z</time>
      </trkpt>
      <trkpt lat="47.26293" lon="-2.31685">
        <ele>-13.60000038147</ele>
        <time>2021-07-15T10:10:38.000Z</time>
      </trkpt>
      <trkpt lat="47.26302" lon="-2.31702">
        <ele>-13.60000038147</ele>
        <time>2021-07-15T10:10:41.000Z</time>
      </trkpt>
      <trkpt lat="47.26305" lon="-2.31706">
        <ele>-13.60000038147</ele>
        <time>2021-07-15T10:10:42.000Z</time>
      </trkpt>
      <trkpt lat="47.26309" lon="-2.31708">
        <ele>-13.60000038147</ele>
        <time>2021-07-15T10:10:43.000Z</time>
      </trkpt>
      <trkpt lat="47.26316" lon="-2.31706">
        <ele>-13.60000038147</ele>
        <time>2021-07-15T10:10:45.000Z</time>
      </trkpt>
      <trkpt lat="47.26326" lon="-2.31702">
        <ele>-13.60000038147</ele>
        <time>2021-07-15T10:10:48.000Z</time>
      </trkpt>
      <trkpt lat="47.26329" lon="-2.317">
        <ele>-13.60000038147</ele>
        <time>2021-07-15T10:10:49.000Z</time>
      </trkpt>
      <trkpt lat="47.26331" lon="-2.31696">
        <ele>-13.60000038147</ele>
        <time>2021-07-15T10:10:50.000Z</time>
      </trkpt>
      <trkpt lat="47.26341" lon="-2.31687">
        <ele>-13.60000038147</ele>
        <time>2021-07-15T10:10:53.000Z</time>
      </trkpt>
      <trkpt lat="47.26367" lon="-2.31675">
        <ele>-13.60000038147</ele>
        <time>2021-07-15T10:11:00.000Z</time>
      </trkpt>
      <trkpt lat="47.26371" lon="-2.31673">
        <ele>-13.199999809265</ele>
        <time>2021-07-15T10:11:01.000Z</time>
      </trkpt>
      <trkpt lat="47.26375" lon="-2.31672">
        <ele>-12.800000190735</ele>
        <time>2021-07-15T10:11:02.000Z</time>
      </trkpt>
      <trkpt lat="47.26379" lon="-2.3167">
        <ele>-12.199999809265</ele>
        <time>2021-07-15T10:11:03.000Z</time>
      </trkpt>
      <trkpt lat="47.26382" lon="-2.31668">
        <ele>-11.800000190735</ele>
        <time>2021-07-15T10:11:04.000Z</time>
      </trkpt>
      <trkpt lat="47.26386" lon="-2.31665">
        <ele>-11.39999961853</ele>
        <time>2021-07-15T10:11:05.000Z</time>
      </trkpt>
      <trkpt lat="47.26389" lon="-2.31664">
        <ele>-11.39999961853</ele>
        <time>2021-07-15T10:11:06.000Z</time>
      </trkpt>
      <trkpt lat="47.26403" lon="-2.31656">
        <ele>-11.39999961853</ele>
        <time>2021-07-15T10:11:11.000Z</time>
      </trkpt>
      <trkpt lat="47.26409" lon="-2.31647">
        <ele>-11.39999961853</ele>
        <time>2021-07-15T10:11:14.000Z</time>
      </trkpt>
      <trkpt lat="47.26409" lon="-2.31643">
        <ele>-11.39999961853</ele>
        <time>2021-07-15T10:11:15.000Z</time>
      </trkpt>
      <trkpt lat="47.26409" lon="-2.31604">
        <ele>-11.39999961853</ele>
        <time>2021-07-15T10:11:23.000Z</time>
      </trkpt>
      <trkpt lat="47.2641" lon="-2.31574">
        <ele>-11.39999961853</ele>
        <time>2021-07-15T10:11:30.000Z</time>
      </trkpt>
      <trkpt lat="47.26411" lon="-2.31556">
        <ele>-11.39999961853</ele>
        <time>2021-07-15T10:11:35.000Z</time>
      </trkpt>
      <trkpt lat="47.26413" lon="-2.31555">
        <ele>-11.39999961853</ele>
        <time>2021-07-15T10:11:36.000Z</time>
      </trkpt>
      <trkpt lat="47.26418" lon="-2.31555">
        <ele>-11</ele>
        <time>2021-07-15T10:11:40.000Z</time>
      </trkpt>
    </trkseg>
  </trk>
</gpx>